<?xml version="1.0" encoding="UTF-8" standalone="no" ?>
<gpx xmlns="http://www.topografix.com/GPX/1/1" xmlns:xsi="http://www.w3.org/2001/XMLSchema-instance" xsi:schemaLocation="http://www.topografix.com/GPX/1/1 http://www.topografix.com/GPX/1/1/gpx.xsd" version="1.1" creator="VisuGPX - https://www.visugpx.com">
  <metadata>
    <name>moutier court </name>
    <desc><![CDATA[................................................................................................................]]></desc>
  </metadata>
  <trk>
    <name><![CDATA[Aaa]]></name>
    <trkseg>
      <trkpt lat="47.26731" lon="7.36036">
        <ele>564</ele>
        <time>2017-06-11T05:36:29Z</time>
      </trkpt>
      <trkpt lat="47.26726" lon="7.36038">
        <ele>562</ele>
        <time>2017-06-11T05:36:50Z</time>
      </trkpt>
      <trkpt lat="47.26722" lon="7.36044">
        <ele>560</ele>
        <time>2017-06-11T05:36:54Z</time>
      </trkpt>
      <trkpt lat="47.26718" lon="7.36049">
        <ele>557</ele>
        <time>2017-06-11T05:36:58Z</time>
      </trkpt>
      <trkpt lat="47.26715" lon="7.36055">
        <ele>556</ele>
        <time>2017-06-11T05:37:02Z</time>
      </trkpt>
      <trkpt lat="47.26712" lon="7.36062">
        <ele>554</ele>
        <time>2017-06-11T05:37:06Z</time>
      </trkpt>
      <trkpt lat="47.2671" lon="7.3607">
        <ele>554</ele>
        <time>2017-06-11T05:37:10Z</time>
      </trkpt>
      <trkpt lat="47.26708" lon="7.36076">
        <ele>554</ele>
        <time>2017-06-11T05:37:13Z</time>
      </trkpt>
      <trkpt lat="47.26705" lon="7.36083">
        <ele>554</ele>
        <time>2017-06-11T05:37:16Z</time>
      </trkpt>
      <trkpt lat="47.26702" lon="7.36089">
        <ele>554</ele>
        <time>2017-06-11T05:37:20Z</time>
      </trkpt>
      <trkpt lat="47.26699" lon="7.36096">
        <ele>554</ele>
        <time>2017-06-11T05:37:26Z</time>
      </trkpt>
      <trkpt lat="47.26695" lon="7.36101">
        <ele>554</ele>
        <time>2017-06-11T05:37:29Z</time>
      </trkpt>
      <trkpt lat="47.26691" lon="7.36107">
        <ele>554</ele>
        <time>2017-06-11T05:37:32Z</time>
      </trkpt>
      <trkpt lat="47.26689" lon="7.36114">
        <ele>554</ele>
        <time>2017-06-11T05:37:35Z</time>
      </trkpt>
      <trkpt lat="47.26693" lon="7.36121">
        <ele>554</ele>
        <time>2017-06-11T05:37:39Z</time>
      </trkpt>
      <trkpt lat="47.26698" lon="7.36128">
        <ele>554</ele>
        <time>2017-06-11T05:37:43Z</time>
      </trkpt>
      <trkpt lat="47.26698" lon="7.36136">
        <ele>553</ele>
        <time>2017-06-11T05:37:47Z</time>
      </trkpt>
      <trkpt lat="47.26695" lon="7.36144">
        <ele>552</ele>
        <time>2017-06-11T05:37:51Z</time>
      </trkpt>
      <trkpt lat="47.26691" lon="7.36151">
        <ele>552</ele>
        <time>2017-06-11T05:37:54Z</time>
      </trkpt>
      <trkpt lat="47.26691" lon="7.36158">
        <ele>552</ele>
        <time>2017-06-11T05:37:59Z</time>
      </trkpt>
      <trkpt lat="47.26687" lon="7.36165">
        <ele>552</ele>
        <time>2017-06-11T05:38:04Z</time>
      </trkpt>
      <trkpt lat="47.26682" lon="7.36171">
        <ele>553</ele>
        <time>2017-06-11T05:38:08Z</time>
      </trkpt>
      <trkpt lat="47.2668" lon="7.36178">
        <ele>553</ele>
        <time>2017-06-11T05:38:11Z</time>
      </trkpt>
      <trkpt lat="47.26681" lon="7.36184">
        <ele>554</ele>
        <time>2017-06-11T05:38:15Z</time>
      </trkpt>
      <trkpt lat="47.2668" lon="7.36192">
        <ele>555</ele>
        <time>2017-06-11T05:38:19Z</time>
      </trkpt>
      <trkpt lat="47.26677" lon="7.36198">
        <ele>555</ele>
        <time>2017-06-11T05:38:22Z</time>
      </trkpt>
      <trkpt lat="47.26676" lon="7.36204">
        <ele>555</ele>
        <time>2017-06-11T05:38:26Z</time>
      </trkpt>
      <trkpt lat="47.26673" lon="7.36211">
        <ele>555</ele>
        <time>2017-06-11T05:38:30Z</time>
      </trkpt>
      <trkpt lat="47.2667" lon="7.36217">
        <ele>554</ele>
        <time>2017-06-11T05:38:33Z</time>
      </trkpt>
      <trkpt lat="47.26667" lon="7.36221">
        <ele>554</ele>
        <time>2017-06-11T05:38:35Z</time>
      </trkpt>
      <trkpt lat="47.26661" lon="7.36229">
        <ele>554</ele>
        <time>2017-06-11T05:38:38Z</time>
      </trkpt>
      <trkpt lat="47.26656" lon="7.36236">
        <ele>554</ele>
        <time>2017-06-11T05:38:41Z</time>
      </trkpt>
      <trkpt lat="47.26653" lon="7.3624">
        <ele>554</ele>
        <time>2017-06-11T05:38:43Z</time>
      </trkpt>
      <trkpt lat="47.2665" lon="7.36247">
        <ele>554</ele>
        <time>2017-06-11T05:38:46Z</time>
      </trkpt>
      <trkpt lat="47.26648" lon="7.36254">
        <ele>555</ele>
        <time>2017-06-11T05:38:50Z</time>
      </trkpt>
      <trkpt lat="47.26647" lon="7.36261">
        <ele>555</ele>
        <time>2017-06-11T05:38:53Z</time>
      </trkpt>
      <trkpt lat="47.26648" lon="7.36269">
        <ele>555</ele>
        <time>2017-06-11T05:38:57Z</time>
      </trkpt>
      <trkpt lat="47.26648" lon="7.36276">
        <ele>556</ele>
        <time>2017-06-11T05:39:00Z</time>
      </trkpt>
      <trkpt lat="47.26648" lon="7.36283">
        <ele>556</ele>
        <time>2017-06-11T05:39:03Z</time>
      </trkpt>
      <trkpt lat="47.26648" lon="7.36291">
        <ele>557</ele>
        <time>2017-06-11T05:39:07Z</time>
      </trkpt>
      <trkpt lat="47.26646" lon="7.363">
        <ele>557</ele>
        <time>2017-06-11T05:39:10Z</time>
      </trkpt>
      <trkpt lat="47.26645" lon="7.36307">
        <ele>558</ele>
        <time>2017-06-11T05:39:13Z</time>
      </trkpt>
      <trkpt lat="47.26645" lon="7.36315">
        <ele>559</ele>
        <time>2017-06-11T05:39:17Z</time>
      </trkpt>
      <trkpt lat="47.26646" lon="7.36322">
        <ele>560</ele>
        <time>2017-06-11T05:39:21Z</time>
      </trkpt>
      <trkpt lat="47.26649" lon="7.36328">
        <ele>561</ele>
        <time>2017-06-11T05:39:25Z</time>
      </trkpt>
      <trkpt lat="47.26652" lon="7.36333">
        <ele>562</ele>
        <time>2017-06-11T05:39:29Z</time>
      </trkpt>
      <trkpt lat="47.26652" lon="7.3634">
        <ele>563</ele>
        <time>2017-06-11T05:39:33Z</time>
      </trkpt>
      <trkpt lat="47.26653" lon="7.36347">
        <ele>564</ele>
        <time>2017-06-11T05:39:37Z</time>
      </trkpt>
      <trkpt lat="47.26656" lon="7.36351">
        <ele>566</ele>
        <time>2017-06-11T05:39:42Z</time>
      </trkpt>
      <trkpt lat="47.26661" lon="7.36356">
        <ele>567</ele>
        <time>2017-06-11T05:39:48Z</time>
      </trkpt>
      <trkpt lat="47.26662" lon="7.36363">
        <ele>568</ele>
        <time>2017-06-11T05:39:52Z</time>
      </trkpt>
      <trkpt lat="47.26662" lon="7.3637">
        <ele>568</ele>
        <time>2017-06-11T05:39:56Z</time>
      </trkpt>
      <trkpt lat="47.26666" lon="7.36375">
        <ele>569</ele>
        <time>2017-06-11T05:40:02Z</time>
      </trkpt>
      <trkpt lat="47.26665" lon="7.36382">
        <ele>570</ele>
        <time>2017-06-11T05:40:14Z</time>
      </trkpt>
      <trkpt lat="47.26661" lon="7.36389">
        <ele>571</ele>
        <time>2017-06-11T05:40:17Z</time>
      </trkpt>
      <trkpt lat="47.26657" lon="7.36394">
        <ele>571</ele>
        <time>2017-06-11T05:40:20Z</time>
      </trkpt>
      <trkpt lat="47.26655" lon="7.36402">
        <ele>572</ele>
        <time>2017-06-11T05:40:35Z</time>
      </trkpt>
      <trkpt lat="47.2665" lon="7.36406">
        <ele>574</ele>
        <time>2017-06-11T05:40:44Z</time>
      </trkpt>
      <trkpt lat="47.26646" lon="7.3641">
        <ele>575</ele>
        <time>2017-06-11T05:40:46Z</time>
      </trkpt>
      <trkpt lat="47.26642" lon="7.36413">
        <ele>576</ele>
        <time>2017-06-11T05:40:49Z</time>
      </trkpt>
      <trkpt lat="47.26639" lon="7.36418">
        <ele>578</ele>
        <time>2017-06-11T05:40:52Z</time>
      </trkpt>
      <trkpt lat="47.26634" lon="7.36421">
        <ele>578</ele>
        <time>2017-06-11T05:40:55Z</time>
      </trkpt>
      <trkpt lat="47.26629" lon="7.36421">
        <ele>579</ele>
        <time>2017-06-11T05:40:58Z</time>
      </trkpt>
      <trkpt lat="47.26626" lon="7.36416">
        <ele>580</ele>
        <time>2017-06-11T05:41:03Z</time>
      </trkpt>
      <trkpt lat="47.26622" lon="7.36411">
        <ele>581</ele>
        <time>2017-06-11T05:41:10Z</time>
      </trkpt>
      <trkpt lat="47.26625" lon="7.36405">
        <ele>582</ele>
        <time>2017-06-11T05:41:18Z</time>
      </trkpt>
      <trkpt lat="47.26621" lon="7.364">
        <ele>583</ele>
        <time>2017-06-11T05:41:25Z</time>
      </trkpt>
      <trkpt lat="47.26617" lon="7.36396">
        <ele>584</ele>
        <time>2017-06-11T05:41:30Z</time>
      </trkpt>
      <trkpt lat="47.26618" lon="7.36389">
        <ele>584</ele>
        <time>2017-06-11T05:41:36Z</time>
      </trkpt>
      <trkpt lat="47.26618" lon="7.36381">
        <ele>584</ele>
        <time>2017-06-11T05:41:40Z</time>
      </trkpt>
      <trkpt lat="47.26613" lon="7.36376">
        <ele>584</ele>
        <time>2017-06-11T05:41:42Z</time>
      </trkpt>
      <trkpt lat="47.26608" lon="7.36373">
        <ele>585</ele>
        <time>2017-06-11T05:41:45Z</time>
      </trkpt>
      <trkpt lat="47.266" lon="7.36372">
        <ele>585</ele>
        <time>2017-06-11T05:41:47Z</time>
      </trkpt>
      <trkpt lat="47.26594" lon="7.36371">
        <ele>585</ele>
        <time>2017-06-11T05:41:50Z</time>
      </trkpt>
      <trkpt lat="47.26588" lon="7.36376">
        <ele>586</ele>
        <time>2017-06-11T05:41:52Z</time>
      </trkpt>
      <trkpt lat="47.26583" lon="7.36379">
        <ele>586</ele>
        <time>2017-06-11T05:41:54Z</time>
      </trkpt>
      <trkpt lat="47.26576" lon="7.3638">
        <ele>587</ele>
        <time>2017-06-11T05:41:57Z</time>
      </trkpt>
      <trkpt lat="47.26572" lon="7.36377">
        <ele>588</ele>
        <time>2017-06-11T05:41:59Z</time>
      </trkpt>
      <trkpt lat="47.26567" lon="7.36377">
        <ele>589</ele>
        <time>2017-06-11T05:42:04Z</time>
      </trkpt>
      <trkpt lat="47.26561" lon="7.36375">
        <ele>590</ele>
        <time>2017-06-11T05:42:09Z</time>
      </trkpt>
      <trkpt lat="47.26558" lon="7.36369">
        <ele>592</ele>
        <time>2017-06-11T05:42:12Z</time>
      </trkpt>
      <trkpt lat="47.26557" lon="7.36362">
        <ele>593</ele>
        <time>2017-06-11T05:42:15Z</time>
      </trkpt>
      <trkpt lat="47.26553" lon="7.36369">
        <ele>594</ele>
        <time>2017-06-11T05:42:26Z</time>
      </trkpt>
      <trkpt lat="47.2655" lon="7.36373">
        <ele>595</ele>
        <time>2017-06-11T05:42:28Z</time>
      </trkpt>
      <trkpt lat="47.26555" lon="7.36371">
        <ele>596</ele>
        <time>2017-06-11T05:42:30Z</time>
      </trkpt>
      <trkpt lat="47.26563" lon="7.36367">
        <ele>597</ele>
        <time>2017-06-11T05:42:32Z</time>
      </trkpt>
      <trkpt lat="47.26556" lon="7.36374">
        <ele>598</ele>
        <time>2017-06-11T05:42:41Z</time>
      </trkpt>
      <trkpt lat="47.26553" lon="7.36383">
        <ele>598</ele>
        <time>2017-06-11T05:42:44Z</time>
      </trkpt>
      <trkpt lat="47.26549" lon="7.36387">
        <ele>599</ele>
        <time>2017-06-11T05:42:49Z</time>
      </trkpt>
      <trkpt lat="47.26539" lon="7.36392">
        <ele>599</ele>
        <time>2017-06-11T05:42:52Z</time>
      </trkpt>
      <trkpt lat="47.26535" lon="7.36394">
        <ele>600</ele>
        <time>2017-06-11T05:42:58Z</time>
      </trkpt>
      <trkpt lat="47.26536" lon="7.36386">
        <ele>600</ele>
        <time>2017-06-11T05:43:04Z</time>
      </trkpt>
      <trkpt lat="47.26534" lon="7.36383">
        <ele>602</ele>
        <time>2017-06-11T05:43:22Z</time>
      </trkpt>
      <trkpt lat="47.26495" lon="7.36394">
        <ele>608</ele>
        <time>2017-06-11T05:44:54Z</time>
      </trkpt>
      <trkpt lat="47.26513" lon="7.36388">
        <ele>617</ele>
        <time>2017-06-11T05:44:56Z</time>
      </trkpt>
      <trkpt lat="47.26509" lon="7.36395">
        <ele>624</ele>
        <time>2017-06-11T05:44:57Z</time>
      </trkpt>
      <trkpt lat="47.26516" lon="7.36397">
        <ele>633</ele>
        <time>2017-06-11T05:45:05Z</time>
      </trkpt>
      <trkpt lat="47.26517" lon="7.36406">
        <ele>641</ele>
        <time>2017-06-11T05:45:08Z</time>
      </trkpt>
      <trkpt lat="47.26515" lon="7.36414">
        <ele>645</ele>
        <time>2017-06-11T05:45:09Z</time>
      </trkpt>
      <trkpt lat="47.26516" lon="7.36424">
        <ele>644</ele>
        <time>2017-06-11T05:45:11Z</time>
      </trkpt>
      <trkpt lat="47.26512" lon="7.36431">
        <ele>645</ele>
        <time>2017-06-11T05:45:24Z</time>
      </trkpt>
      <trkpt lat="47.26508" lon="7.36436">
        <ele>644</ele>
        <time>2017-06-11T05:45:27Z</time>
      </trkpt>
      <trkpt lat="47.26498" lon="7.36433">
        <ele>643</ele>
        <time>2017-06-11T05:45:46Z</time>
      </trkpt>
      <trkpt lat="47.265" lon="7.36426">
        <ele>642</ele>
        <time>2017-06-11T05:45:51Z</time>
      </trkpt>
      <trkpt lat="47.26502" lon="7.36433">
        <ele>643</ele>
        <time>2017-06-11T05:46:03Z</time>
      </trkpt>
      <trkpt lat="47.26505" lon="7.36441">
        <ele>644</ele>
        <time>2017-06-11T05:46:08Z</time>
      </trkpt>
      <trkpt lat="47.26506" lon="7.36447">
        <ele>645</ele>
        <time>2017-06-11T05:46:13Z</time>
      </trkpt>
      <trkpt lat="47.26507" lon="7.36455">
        <ele>645</ele>
        <time>2017-06-11T05:46:18Z</time>
      </trkpt>
      <trkpt lat="47.26508" lon="7.36462">
        <ele>646</ele>
        <time>2017-06-11T05:46:22Z</time>
      </trkpt>
      <trkpt lat="47.26509" lon="7.3647">
        <ele>647</ele>
        <time>2017-06-11T05:46:26Z</time>
      </trkpt>
      <trkpt lat="47.26511" lon="7.36479">
        <ele>647</ele>
        <time>2017-06-11T05:46:29Z</time>
      </trkpt>
      <trkpt lat="47.26511" lon="7.36486">
        <ele>647</ele>
        <time>2017-06-11T05:46:31Z</time>
      </trkpt>
      <trkpt lat="47.2651" lon="7.36494">
        <ele>647</ele>
        <time>2017-06-11T05:46:33Z</time>
      </trkpt>
      <trkpt lat="47.2651" lon="7.36501">
        <ele>648</ele>
        <time>2017-06-11T05:46:36Z</time>
      </trkpt>
      <trkpt lat="47.26514" lon="7.36507">
        <ele>648</ele>
        <time>2017-06-11T05:46:41Z</time>
      </trkpt>
      <trkpt lat="47.26516" lon="7.36514">
        <ele>649</ele>
        <time>2017-06-11T05:46:44Z</time>
      </trkpt>
      <trkpt lat="47.26516" lon="7.36524">
        <ele>650</ele>
        <time>2017-06-11T05:46:46Z</time>
      </trkpt>
      <trkpt lat="47.26518" lon="7.36533">
        <ele>650</ele>
        <time>2017-06-11T05:46:49Z</time>
      </trkpt>
      <trkpt lat="47.26518" lon="7.3654">
        <ele>651</ele>
        <time>2017-06-11T05:46:51Z</time>
      </trkpt>
      <trkpt lat="47.26519" lon="7.36549">
        <ele>652</ele>
        <time>2017-06-11T05:46:53Z</time>
      </trkpt>
      <trkpt lat="47.2652" lon="7.36557">
        <ele>652</ele>
        <time>2017-06-11T05:46:55Z</time>
      </trkpt>
      <trkpt lat="47.26521" lon="7.36565">
        <ele>652</ele>
        <time>2017-06-11T05:46:57Z</time>
      </trkpt>
      <trkpt lat="47.26521" lon="7.36573">
        <ele>653</ele>
        <time>2017-06-11T05:46:59Z</time>
      </trkpt>
      <trkpt lat="47.26522" lon="7.36581">
        <ele>653</ele>
        <time>2017-06-11T05:47:01Z</time>
      </trkpt>
      <trkpt lat="47.26524" lon="7.36588">
        <ele>653</ele>
        <time>2017-06-11T05:47:03Z</time>
      </trkpt>
      <trkpt lat="47.26528" lon="7.36596">
        <ele>653</ele>
        <time>2017-06-11T05:47:06Z</time>
      </trkpt>
      <trkpt lat="47.26531" lon="7.36604">
        <ele>653</ele>
        <time>2017-06-11T05:47:09Z</time>
      </trkpt>
      <trkpt lat="47.26535" lon="7.36613">
        <ele>653</ele>
        <time>2017-06-11T05:47:12Z</time>
      </trkpt>
      <trkpt lat="47.26537" lon="7.36619">
        <ele>653</ele>
        <time>2017-06-11T05:47:14Z</time>
      </trkpt>
      <trkpt lat="47.2654" lon="7.36627">
        <ele>653</ele>
        <time>2017-06-11T05:47:17Z</time>
      </trkpt>
      <trkpt lat="47.26542" lon="7.36633">
        <ele>653</ele>
        <time>2017-06-11T05:47:19Z</time>
      </trkpt>
      <trkpt lat="47.26543" lon="7.3664">
        <ele>653</ele>
        <time>2017-06-11T05:47:21Z</time>
      </trkpt>
      <trkpt lat="47.26545" lon="7.36647">
        <ele>653</ele>
        <time>2017-06-11T05:47:23Z</time>
      </trkpt>
      <trkpt lat="47.26547" lon="7.36655">
        <ele>653</ele>
        <time>2017-06-11T05:47:26Z</time>
      </trkpt>
      <trkpt lat="47.26548" lon="7.36663">
        <ele>653</ele>
        <time>2017-06-11T05:47:29Z</time>
      </trkpt>
      <trkpt lat="47.2655" lon="7.3667">
        <ele>653</ele>
        <time>2017-06-11T05:47:32Z</time>
      </trkpt>
      <trkpt lat="47.26552" lon="7.36677">
        <ele>653</ele>
        <time>2017-06-11T05:47:35Z</time>
      </trkpt>
      <trkpt lat="47.26555" lon="7.36684">
        <ele>653</ele>
        <time>2017-06-11T05:47:38Z</time>
      </trkpt>
      <trkpt lat="47.26556" lon="7.36692">
        <ele>654</ele>
        <time>2017-06-11T05:47:41Z</time>
      </trkpt>
      <trkpt lat="47.26558" lon="7.36699">
        <ele>654</ele>
        <time>2017-06-11T05:47:44Z</time>
      </trkpt>
      <trkpt lat="47.26558" lon="7.36709">
        <ele>654</ele>
        <time>2017-06-11T05:47:47Z</time>
      </trkpt>
      <trkpt lat="47.2656" lon="7.36717">
        <ele>654</ele>
        <time>2017-06-11T05:47:50Z</time>
      </trkpt>
      <trkpt lat="47.26561" lon="7.36725">
        <ele>654</ele>
        <time>2017-06-11T05:47:53Z</time>
      </trkpt>
      <trkpt lat="47.26562" lon="7.36733">
        <ele>653</ele>
        <time>2017-06-11T05:47:56Z</time>
      </trkpt>
      <trkpt lat="47.26564" lon="7.3674">
        <ele>653</ele>
        <time>2017-06-11T05:47:59Z</time>
      </trkpt>
      <trkpt lat="47.26564" lon="7.36747">
        <ele>653</ele>
        <time>2017-06-11T05:48:02Z</time>
      </trkpt>
      <trkpt lat="47.26564" lon="7.36755">
        <ele>653</ele>
        <time>2017-06-11T05:48:05Z</time>
      </trkpt>
      <trkpt lat="47.26565" lon="7.36762">
        <ele>653</ele>
        <time>2017-06-11T05:48:09Z</time>
      </trkpt>
      <trkpt lat="47.26566" lon="7.3677">
        <ele>653</ele>
        <time>2017-06-11T05:48:13Z</time>
      </trkpt>
      <trkpt lat="47.26567" lon="7.36777">
        <ele>654</ele>
        <time>2017-06-11T05:48:17Z</time>
      </trkpt>
      <trkpt lat="47.26568" lon="7.36785">
        <ele>654</ele>
        <time>2017-06-11T05:48:21Z</time>
      </trkpt>
      <trkpt lat="47.26569" lon="7.36792">
        <ele>655</ele>
        <time>2017-06-11T05:48:25Z</time>
      </trkpt>
      <trkpt lat="47.26571" lon="7.36798">
        <ele>656</ele>
        <time>2017-06-11T05:48:29Z</time>
      </trkpt>
      <trkpt lat="47.26572" lon="7.36805">
        <ele>656</ele>
        <time>2017-06-11T05:48:33Z</time>
      </trkpt>
      <trkpt lat="47.26574" lon="7.36813">
        <ele>657</ele>
        <time>2017-06-11T05:48:38Z</time>
      </trkpt>
      <trkpt lat="47.26576" lon="7.36819">
        <ele>658</ele>
        <time>2017-06-11T05:48:43Z</time>
      </trkpt>
      <trkpt lat="47.26579" lon="7.36825">
        <ele>659</ele>
        <time>2017-06-11T05:48:48Z</time>
      </trkpt>
      <trkpt lat="47.26576" lon="7.36832">
        <ele>661</ele>
        <time>2017-06-11T05:48:51Z</time>
      </trkpt>
      <trkpt lat="47.26576" lon="7.3684">
        <ele>662</ele>
        <time>2017-06-11T05:48:54Z</time>
      </trkpt>
      <trkpt lat="47.26579" lon="7.36846">
        <ele>663</ele>
        <time>2017-06-11T05:48:58Z</time>
      </trkpt>
      <trkpt lat="47.26582" lon="7.36853">
        <ele>664</ele>
        <time>2017-06-11T05:49:02Z</time>
      </trkpt>
      <trkpt lat="47.26585" lon="7.36858">
        <ele>664</ele>
        <time>2017-06-11T05:49:05Z</time>
      </trkpt>
      <trkpt lat="47.26587" lon="7.36865">
        <ele>665</ele>
        <time>2017-06-11T05:49:08Z</time>
      </trkpt>
      <trkpt lat="47.26588" lon="7.36871">
        <ele>665</ele>
        <time>2017-06-11T05:49:11Z</time>
      </trkpt>
      <trkpt lat="47.26589" lon="7.36879">
        <ele>665</ele>
        <time>2017-06-11T05:49:15Z</time>
      </trkpt>
      <trkpt lat="47.2659" lon="7.36887">
        <ele>666</ele>
        <time>2017-06-11T05:49:18Z</time>
      </trkpt>
      <trkpt lat="47.26592" lon="7.36893">
        <ele>666</ele>
        <time>2017-06-11T05:49:21Z</time>
      </trkpt>
      <trkpt lat="47.26593" lon="7.36902">
        <ele>666</ele>
        <time>2017-06-11T05:49:25Z</time>
      </trkpt>
      <trkpt lat="47.26592" lon="7.36909">
        <ele>666</ele>
        <time>2017-06-11T05:49:27Z</time>
      </trkpt>
      <trkpt lat="47.26593" lon="7.36917">
        <ele>666</ele>
        <time>2017-06-11T05:49:31Z</time>
      </trkpt>
      <trkpt lat="47.26597" lon="7.36922">
        <ele>667</ele>
        <time>2017-06-11T05:49:36Z</time>
      </trkpt>
      <trkpt lat="47.26597" lon="7.3693">
        <ele>668</ele>
        <time>2017-06-11T05:49:40Z</time>
      </trkpt>
      <trkpt lat="47.26596" lon="7.36936">
        <ele>668</ele>
        <time>2017-06-11T05:49:43Z</time>
      </trkpt>
      <trkpt lat="47.26594" lon="7.36945">
        <ele>669</ele>
        <time>2017-06-11T05:49:47Z</time>
      </trkpt>
      <trkpt lat="47.26594" lon="7.36953">
        <ele>670</ele>
        <time>2017-06-11T05:49:51Z</time>
      </trkpt>
      <trkpt lat="47.26593" lon="7.36961">
        <ele>671</ele>
        <time>2017-06-11T05:49:54Z</time>
      </trkpt>
      <trkpt lat="47.26594" lon="7.36968">
        <ele>672</ele>
        <time>2017-06-11T05:49:57Z</time>
      </trkpt>
      <trkpt lat="47.26594" lon="7.36976">
        <ele>673</ele>
        <time>2017-06-11T05:50:00Z</time>
      </trkpt>
      <trkpt lat="47.26594" lon="7.36983">
        <ele>674</ele>
        <time>2017-06-11T05:50:04Z</time>
      </trkpt>
      <trkpt lat="47.26594" lon="7.3699">
        <ele>675</ele>
        <time>2017-06-11T05:50:08Z</time>
      </trkpt>
      <trkpt lat="47.26596" lon="7.36997">
        <ele>676</ele>
        <time>2017-06-11T05:50:12Z</time>
      </trkpt>
      <trkpt lat="47.26597" lon="7.37004">
        <ele>677</ele>
        <time>2017-06-11T05:50:16Z</time>
      </trkpt>
      <trkpt lat="47.26597" lon="7.37011">
        <ele>678</ele>
        <time>2017-06-11T05:50:19Z</time>
      </trkpt>
      <trkpt lat="47.26598" lon="7.37018">
        <ele>678</ele>
        <time>2017-06-11T05:50:22Z</time>
      </trkpt>
      <trkpt lat="47.266" lon="7.37025">
        <ele>679</ele>
        <time>2017-06-11T05:50:25Z</time>
      </trkpt>
      <trkpt lat="47.26602" lon="7.37034">
        <ele>679</ele>
        <time>2017-06-11T05:50:29Z</time>
      </trkpt>
      <trkpt lat="47.26605" lon="7.37043">
        <ele>679</ele>
        <time>2017-06-11T05:50:32Z</time>
      </trkpt>
      <trkpt lat="47.26605" lon="7.3705">
        <ele>679</ele>
        <time>2017-06-11T05:50:34Z</time>
      </trkpt>
      <trkpt lat="47.26606" lon="7.37056">
        <ele>679</ele>
        <time>2017-06-11T05:50:36Z</time>
      </trkpt>
      <trkpt lat="47.26606" lon="7.37063">
        <ele>679</ele>
        <time>2017-06-11T05:50:38Z</time>
      </trkpt>
      <trkpt lat="47.26608" lon="7.37071">
        <ele>680</ele>
        <time>2017-06-11T05:50:41Z</time>
      </trkpt>
      <trkpt lat="47.26608" lon="7.37079">
        <ele>680</ele>
        <time>2017-06-11T05:50:44Z</time>
      </trkpt>
      <trkpt lat="47.26609" lon="7.37086">
        <ele>680</ele>
        <time>2017-06-11T05:50:46Z</time>
      </trkpt>
      <trkpt lat="47.26608" lon="7.37098">
        <ele>680</ele>
        <time>2017-06-11T05:50:48Z</time>
      </trkpt>
      <trkpt lat="47.26608" lon="7.37105">
        <ele>681</ele>
        <time>2017-06-11T05:50:50Z</time>
      </trkpt>
      <trkpt lat="47.26608" lon="7.37113">
        <ele>681</ele>
        <time>2017-06-11T05:50:53Z</time>
      </trkpt>
      <trkpt lat="47.26607" lon="7.37122">
        <ele>681</ele>
        <time>2017-06-11T05:50:57Z</time>
      </trkpt>
      <trkpt lat="47.26607" lon="7.3713">
        <ele>681</ele>
        <time>2017-06-11T05:51:01Z</time>
      </trkpt>
      <trkpt lat="47.26605" lon="7.37136">
        <ele>681</ele>
        <time>2017-06-11T05:51:04Z</time>
      </trkpt>
      <trkpt lat="47.26605" lon="7.37145">
        <ele>682</ele>
        <time>2017-06-11T05:51:07Z</time>
      </trkpt>
      <trkpt lat="47.26605" lon="7.37153">
        <ele>683</ele>
        <time>2017-06-11T05:51:10Z</time>
      </trkpt>
      <trkpt lat="47.26605" lon="7.37162">
        <ele>683</ele>
        <time>2017-06-11T05:51:13Z</time>
      </trkpt>
      <trkpt lat="47.26605" lon="7.3717">
        <ele>684</ele>
        <time>2017-06-11T05:51:15Z</time>
      </trkpt>
      <trkpt lat="47.26605" lon="7.3718">
        <ele>685</ele>
        <time>2017-06-11T05:51:17Z</time>
      </trkpt>
      <trkpt lat="47.26605" lon="7.37187">
        <ele>685</ele>
        <time>2017-06-11T05:51:19Z</time>
      </trkpt>
      <trkpt lat="47.26605" lon="7.37197">
        <ele>686</ele>
        <time>2017-06-11T05:51:22Z</time>
      </trkpt>
      <trkpt lat="47.26605" lon="7.37206">
        <ele>686</ele>
        <time>2017-06-11T05:51:25Z</time>
      </trkpt>
      <trkpt lat="47.26605" lon="7.37215">
        <ele>686</ele>
        <time>2017-06-11T05:51:28Z</time>
      </trkpt>
      <trkpt lat="47.26605" lon="7.37222">
        <ele>686</ele>
        <time>2017-06-11T05:51:30Z</time>
      </trkpt>
      <trkpt lat="47.26605" lon="7.37231">
        <ele>686</ele>
        <time>2017-06-11T05:51:32Z</time>
      </trkpt>
      <trkpt lat="47.26605" lon="7.37239">
        <ele>686</ele>
        <time>2017-06-11T05:51:34Z</time>
      </trkpt>
      <trkpt lat="47.26604" lon="7.37246">
        <ele>686</ele>
        <time>2017-06-11T05:51:36Z</time>
      </trkpt>
      <trkpt lat="47.26603" lon="7.37255">
        <ele>686</ele>
        <time>2017-06-11T05:51:39Z</time>
      </trkpt>
      <trkpt lat="47.26604" lon="7.37264">
        <ele>686</ele>
        <time>2017-06-11T05:51:42Z</time>
      </trkpt>
      <trkpt lat="47.26605" lon="7.3727">
        <ele>686</ele>
        <time>2017-06-11T05:51:44Z</time>
      </trkpt>
      <trkpt lat="47.26605" lon="7.37277">
        <ele>686</ele>
        <time>2017-06-11T05:51:46Z</time>
      </trkpt>
      <trkpt lat="47.26605" lon="7.37286">
        <ele>687</ele>
        <time>2017-06-11T05:51:48Z</time>
      </trkpt>
      <trkpt lat="47.26604" lon="7.37298">
        <ele>687</ele>
        <time>2017-06-11T05:51:50Z</time>
      </trkpt>
      <trkpt lat="47.26603" lon="7.37309">
        <ele>687</ele>
        <time>2017-06-11T05:51:52Z</time>
      </trkpt>
      <trkpt lat="47.26601" lon="7.37318">
        <ele>687</ele>
        <time>2017-06-11T05:51:54Z</time>
      </trkpt>
      <trkpt lat="47.26601" lon="7.37327">
        <ele>687</ele>
        <time>2017-06-11T05:51:57Z</time>
      </trkpt>
      <trkpt lat="47.266" lon="7.37334">
        <ele>687</ele>
        <time>2017-06-11T05:51:59Z</time>
      </trkpt>
      <trkpt lat="47.26599" lon="7.37343">
        <ele>687</ele>
        <time>2017-06-11T05:52:01Z</time>
      </trkpt>
      <trkpt lat="47.26595" lon="7.37352">
        <ele>687</ele>
        <time>2017-06-11T05:52:03Z</time>
      </trkpt>
      <trkpt lat="47.26593" lon="7.37361">
        <ele>686</ele>
        <time>2017-06-11T05:52:05Z</time>
      </trkpt>
      <trkpt lat="47.26591" lon="7.37369">
        <ele>686</ele>
        <time>2017-06-11T05:52:07Z</time>
      </trkpt>
      <trkpt lat="47.26591" lon="7.37377">
        <ele>686</ele>
        <time>2017-06-11T05:52:10Z</time>
      </trkpt>
      <trkpt lat="47.26592" lon="7.37383">
        <ele>686</ele>
        <time>2017-06-11T05:52:15Z</time>
      </trkpt>
      <trkpt lat="47.26595" lon="7.37389">
        <ele>686</ele>
        <time>2017-06-11T05:52:21Z</time>
      </trkpt>
      <trkpt lat="47.26598" lon="7.37396">
        <ele>686</ele>
        <time>2017-06-11T05:52:25Z</time>
      </trkpt>
      <trkpt lat="47.266" lon="7.37404">
        <ele>686</ele>
        <time>2017-06-11T05:52:27Z</time>
      </trkpt>
      <trkpt lat="47.26602" lon="7.37414">
        <ele>686</ele>
        <time>2017-06-11T05:52:29Z</time>
      </trkpt>
      <trkpt lat="47.26603" lon="7.37423">
        <ele>686</ele>
        <time>2017-06-11T05:52:31Z</time>
      </trkpt>
      <trkpt lat="47.26604" lon="7.37433">
        <ele>686</ele>
        <time>2017-06-11T05:52:33Z</time>
      </trkpt>
      <trkpt lat="47.26604" lon="7.37441">
        <ele>686</ele>
        <time>2017-06-11T05:52:35Z</time>
      </trkpt>
      <trkpt lat="47.26605" lon="7.37449">
        <ele>686</ele>
        <time>2017-06-11T05:52:37Z</time>
      </trkpt>
      <trkpt lat="47.26608" lon="7.37458">
        <ele>685</ele>
        <time>2017-06-11T05:52:40Z</time>
      </trkpt>
      <trkpt lat="47.26608" lon="7.37466">
        <ele>685</ele>
        <time>2017-06-11T05:52:42Z</time>
      </trkpt>
      <trkpt lat="47.2661" lon="7.37475">
        <ele>684</ele>
        <time>2017-06-11T05:52:45Z</time>
      </trkpt>
      <trkpt lat="47.26611" lon="7.37485">
        <ele>684</ele>
        <time>2017-06-11T05:52:48Z</time>
      </trkpt>
      <trkpt lat="47.26613" lon="7.37494">
        <ele>683</ele>
        <time>2017-06-11T05:52:51Z</time>
      </trkpt>
      <trkpt lat="47.26614" lon="7.37503">
        <ele>683</ele>
        <time>2017-06-11T05:52:54Z</time>
      </trkpt>
      <trkpt lat="47.26617" lon="7.37511">
        <ele>683</ele>
        <time>2017-06-11T05:52:57Z</time>
      </trkpt>
      <trkpt lat="47.26621" lon="7.37519">
        <ele>682</ele>
        <time>2017-06-11T05:53:00Z</time>
      </trkpt>
      <trkpt lat="47.26621" lon="7.37528">
        <ele>682</ele>
        <time>2017-06-11T05:53:03Z</time>
      </trkpt>
      <trkpt lat="47.26623" lon="7.37538">
        <ele>682</ele>
        <time>2017-06-11T05:53:06Z</time>
      </trkpt>
      <trkpt lat="47.26623" lon="7.37545">
        <ele>682</ele>
        <time>2017-06-11T05:53:08Z</time>
      </trkpt>
      <trkpt lat="47.26624" lon="7.37552">
        <ele>681</ele>
        <time>2017-06-11T05:53:10Z</time>
      </trkpt>
      <trkpt lat="47.26624" lon="7.37559">
        <ele>681</ele>
        <time>2017-06-11T05:53:12Z</time>
      </trkpt>
      <trkpt lat="47.26624" lon="7.37566">
        <ele>681</ele>
        <time>2017-06-11T05:53:14Z</time>
      </trkpt>
      <trkpt lat="47.26624" lon="7.37574">
        <ele>681</ele>
        <time>2017-06-11T05:53:16Z</time>
      </trkpt>
      <trkpt lat="47.26625" lon="7.37581">
        <ele>680</ele>
        <time>2017-06-11T05:53:18Z</time>
      </trkpt>
      <trkpt lat="47.26626" lon="7.3759">
        <ele>680</ele>
        <time>2017-06-11T05:53:21Z</time>
      </trkpt>
      <trkpt lat="47.26628" lon="7.37598">
        <ele>680</ele>
        <time>2017-06-11T05:53:24Z</time>
      </trkpt>
      <trkpt lat="47.26628" lon="7.37606">
        <ele>680</ele>
        <time>2017-06-11T05:53:27Z</time>
      </trkpt>
      <trkpt lat="47.26627" lon="7.37615">
        <ele>680</ele>
        <time>2017-06-11T05:53:30Z</time>
      </trkpt>
      <trkpt lat="47.26627" lon="7.37622">
        <ele>680</ele>
        <time>2017-06-11T05:53:32Z</time>
      </trkpt>
      <trkpt lat="47.26629" lon="7.3763">
        <ele>681</ele>
        <time>2017-06-11T05:53:35Z</time>
      </trkpt>
      <trkpt lat="47.26629" lon="7.37639">
        <ele>681</ele>
        <time>2017-06-11T05:53:38Z</time>
      </trkpt>
      <trkpt lat="47.26631" lon="7.37646">
        <ele>681</ele>
        <time>2017-06-11T05:53:40Z</time>
      </trkpt>
      <trkpt lat="47.26631" lon="7.37654">
        <ele>681</ele>
        <time>2017-06-11T05:53:42Z</time>
      </trkpt>
      <trkpt lat="47.2663" lon="7.37663">
        <ele>681</ele>
        <time>2017-06-11T05:53:44Z</time>
      </trkpt>
      <trkpt lat="47.26631" lon="7.37672">
        <ele>680</ele>
        <time>2017-06-11T05:53:46Z</time>
      </trkpt>
      <trkpt lat="47.26632" lon="7.37681">
        <ele>680</ele>
        <time>2017-06-11T05:53:48Z</time>
      </trkpt>
      <trkpt lat="47.26634" lon="7.37686">
        <ele>679</ele>
        <time>2017-06-11T05:53:50Z</time>
      </trkpt>
      <trkpt lat="47.26637" lon="7.37695">
        <ele>679</ele>
        <time>2017-06-11T05:53:53Z</time>
      </trkpt>
      <trkpt lat="47.26638" lon="7.37702">
        <ele>679</ele>
        <time>2017-06-11T05:53:55Z</time>
      </trkpt>
      <trkpt lat="47.26639" lon="7.3771">
        <ele>679</ele>
        <time>2017-06-11T05:53:58Z</time>
      </trkpt>
      <trkpt lat="47.26641" lon="7.37719">
        <ele>679</ele>
        <time>2017-06-11T05:54:01Z</time>
      </trkpt>
      <trkpt lat="47.26642" lon="7.37728">
        <ele>679</ele>
        <time>2017-06-11T05:54:04Z</time>
      </trkpt>
      <trkpt lat="47.26643" lon="7.37735">
        <ele>679</ele>
        <time>2017-06-11T05:54:06Z</time>
      </trkpt>
      <trkpt lat="47.26644" lon="7.37743">
        <ele>679</ele>
        <time>2017-06-11T05:54:08Z</time>
      </trkpt>
      <trkpt lat="47.26644" lon="7.37751">
        <ele>679</ele>
        <time>2017-06-11T05:54:10Z</time>
      </trkpt>
      <trkpt lat="47.26643" lon="7.3776">
        <ele>679</ele>
        <time>2017-06-11T05:54:12Z</time>
      </trkpt>
      <trkpt lat="47.26642" lon="7.37768">
        <ele>678</ele>
        <time>2017-06-11T05:54:14Z</time>
      </trkpt>
      <trkpt lat="47.26643" lon="7.37776">
        <ele>678</ele>
        <time>2017-06-11T05:54:16Z</time>
      </trkpt>
      <trkpt lat="47.26645" lon="7.37783">
        <ele>678</ele>
        <time>2017-06-11T05:54:18Z</time>
      </trkpt>
      <trkpt lat="47.26647" lon="7.37791">
        <ele>678</ele>
        <time>2017-06-11T05:54:21Z</time>
      </trkpt>
      <trkpt lat="47.26649" lon="7.37799">
        <ele>678</ele>
        <time>2017-06-11T05:54:24Z</time>
      </trkpt>
      <trkpt lat="47.26651" lon="7.37808">
        <ele>678</ele>
        <time>2017-06-11T05:54:27Z</time>
      </trkpt>
      <trkpt lat="47.26654" lon="7.37816">
        <ele>678</ele>
        <time>2017-06-11T05:54:30Z</time>
      </trkpt>
      <trkpt lat="47.26657" lon="7.37822">
        <ele>678</ele>
        <time>2017-06-11T05:54:32Z</time>
      </trkpt>
      <trkpt lat="47.26662" lon="7.37827">
        <ele>678</ele>
        <time>2017-06-11T05:54:35Z</time>
      </trkpt>
      <trkpt lat="47.26667" lon="7.37831">
        <ele>678</ele>
        <time>2017-06-11T05:54:38Z</time>
      </trkpt>
      <trkpt lat="47.26671" lon="7.37838">
        <ele>679</ele>
        <time>2017-06-11T05:54:41Z</time>
      </trkpt>
      <trkpt lat="47.26674" lon="7.37845">
        <ele>679</ele>
        <time>2017-06-11T05:54:43Z</time>
      </trkpt>
      <trkpt lat="47.26677" lon="7.37851">
        <ele>680</ele>
        <time>2017-06-11T05:54:45Z</time>
      </trkpt>
      <trkpt lat="47.2668" lon="7.37858">
        <ele>680</ele>
        <time>2017-06-11T05:54:47Z</time>
      </trkpt>
      <trkpt lat="47.26683" lon="7.37864">
        <ele>680</ele>
        <time>2017-06-11T05:54:49Z</time>
      </trkpt>
      <trkpt lat="47.26688" lon="7.37865">
        <ele>680</ele>
        <time>2017-06-11T05:54:51Z</time>
      </trkpt>
      <trkpt lat="47.26693" lon="7.37867">
        <ele>680</ele>
        <time>2017-06-11T05:54:54Z</time>
      </trkpt>
      <trkpt lat="47.267" lon="7.37867">
        <ele>680</ele>
        <time>2017-06-11T05:54:57Z</time>
      </trkpt>
      <trkpt lat="47.26704" lon="7.3787">
        <ele>681</ele>
        <time>2017-06-11T05:55:00Z</time>
      </trkpt>
      <trkpt lat="47.26706" lon="7.37877">
        <ele>681</ele>
        <time>2017-06-11T05:55:02Z</time>
      </trkpt>
      <trkpt lat="47.26708" lon="7.37885">
        <ele>680</ele>
        <time>2017-06-11T05:55:05Z</time>
      </trkpt>
      <trkpt lat="47.26713" lon="7.37881">
        <ele>679</ele>
        <time>2017-06-11T05:55:09Z</time>
      </trkpt>
      <trkpt lat="47.26716" lon="7.37875">
        <ele>678</ele>
        <time>2017-06-11T05:55:12Z</time>
      </trkpt>
      <trkpt lat="47.26722" lon="7.3787">
        <ele>678</ele>
        <time>2017-06-11T05:55:14Z</time>
      </trkpt>
      <trkpt lat="47.26728" lon="7.37866">
        <ele>677</ele>
        <time>2017-06-11T05:55:16Z</time>
      </trkpt>
      <trkpt lat="47.26733" lon="7.37864">
        <ele>677</ele>
        <time>2017-06-11T05:55:18Z</time>
      </trkpt>
      <trkpt lat="47.26739" lon="7.37863">
        <ele>677</ele>
        <time>2017-06-11T05:55:20Z</time>
      </trkpt>
      <trkpt lat="47.26745" lon="7.37861">
        <ele>678</ele>
        <time>2017-06-11T05:55:22Z</time>
      </trkpt>
      <trkpt lat="47.26749" lon="7.37861">
        <ele>678</ele>
        <time>2017-06-11T05:55:25Z</time>
      </trkpt>
      <trkpt lat="47.26754" lon="7.37859">
        <ele>678</ele>
        <time>2017-06-11T05:55:27Z</time>
      </trkpt>
      <trkpt lat="47.26759" lon="7.37859">
        <ele>679</ele>
        <time>2017-06-11T05:55:30Z</time>
      </trkpt>
      <trkpt lat="47.26758" lon="7.37866">
        <ele>679</ele>
        <time>2017-06-11T05:55:32Z</time>
      </trkpt>
      <trkpt lat="47.26757" lon="7.37878">
        <ele>678</ele>
        <time>2017-06-11T05:55:36Z</time>
      </trkpt>
      <trkpt lat="47.26762" lon="7.37872">
        <ele>677</ele>
        <time>2017-06-11T05:55:41Z</time>
      </trkpt>
      <trkpt lat="47.26769" lon="7.37869">
        <ele>677</ele>
        <time>2017-06-11T05:55:43Z</time>
      </trkpt>
      <trkpt lat="47.26775" lon="7.3787">
        <ele>676</ele>
        <time>2017-06-11T05:55:45Z</time>
      </trkpt>
      <trkpt lat="47.26779" lon="7.37874">
        <ele>676</ele>
        <time>2017-06-11T05:55:47Z</time>
      </trkpt>
      <trkpt lat="47.26783" lon="7.37879">
        <ele>676</ele>
        <time>2017-06-11T05:55:49Z</time>
      </trkpt>
      <trkpt lat="47.26787" lon="7.37885">
        <ele>676</ele>
        <time>2017-06-11T05:55:52Z</time>
      </trkpt>
      <trkpt lat="47.26788" lon="7.37892">
        <ele>675</ele>
        <time>2017-06-11T05:55:55Z</time>
      </trkpt>
      <trkpt lat="47.26788" lon="7.37899">
        <ele>675</ele>
        <time>2017-06-11T05:55:57Z</time>
      </trkpt>
      <trkpt lat="47.26788" lon="7.37906">
        <ele>674</ele>
        <time>2017-06-11T05:55:59Z</time>
      </trkpt>
      <trkpt lat="47.26787" lon="7.37914">
        <ele>673</ele>
        <time>2017-06-11T05:56:02Z</time>
      </trkpt>
      <trkpt lat="47.26787" lon="7.37923">
        <ele>672</ele>
        <time>2017-06-11T05:56:05Z</time>
      </trkpt>
      <trkpt lat="47.26787" lon="7.3793">
        <ele>671</ele>
        <time>2017-06-11T05:56:09Z</time>
      </trkpt>
      <trkpt lat="47.26786" lon="7.37938">
        <ele>670</ele>
        <time>2017-06-11T05:56:13Z</time>
      </trkpt>
      <trkpt lat="47.26785" lon="7.37946">
        <ele>669</ele>
        <time>2017-06-11T05:56:16Z</time>
      </trkpt>
      <trkpt lat="47.26785" lon="7.37954">
        <ele>669</ele>
        <time>2017-06-11T05:56:19Z</time>
      </trkpt>
      <trkpt lat="47.26783" lon="7.37962">
        <ele>668</ele>
        <time>2017-06-11T05:56:23Z</time>
      </trkpt>
      <trkpt lat="47.26782" lon="7.37971">
        <ele>668</ele>
        <time>2017-06-11T05:56:27Z</time>
      </trkpt>
      <trkpt lat="47.2678" lon="7.37979">
        <ele>667</ele>
        <time>2017-06-11T05:56:31Z</time>
      </trkpt>
      <trkpt lat="47.26778" lon="7.37987">
        <ele>667</ele>
        <time>2017-06-11T05:56:35Z</time>
      </trkpt>
      <trkpt lat="47.26777" lon="7.37994">
        <ele>667</ele>
        <time>2017-06-11T05:56:38Z</time>
      </trkpt>
      <trkpt lat="47.26775" lon="7.38">
        <ele>666</ele>
        <time>2017-06-11T05:56:41Z</time>
      </trkpt>
      <trkpt lat="47.26773" lon="7.38006">
        <ele>666</ele>
        <time>2017-06-11T05:56:44Z</time>
      </trkpt>
      <trkpt lat="47.26769" lon="7.38012">
        <ele>666</ele>
        <time>2017-06-11T05:56:47Z</time>
      </trkpt>
      <trkpt lat="47.26765" lon="7.38017">
        <ele>665</ele>
        <time>2017-06-11T05:56:50Z</time>
      </trkpt>
      <trkpt lat="47.26762" lon="7.38023">
        <ele>665</ele>
        <time>2017-06-11T05:56:54Z</time>
      </trkpt>
      <trkpt lat="47.26758" lon="7.3803">
        <ele>665</ele>
        <time>2017-06-11T05:56:58Z</time>
      </trkpt>
      <trkpt lat="47.26756" lon="7.38036">
        <ele>665</ele>
        <time>2017-06-11T05:57:01Z</time>
      </trkpt>
      <trkpt lat="47.26753" lon="7.38042">
        <ele>665</ele>
        <time>2017-06-11T05:57:05Z</time>
      </trkpt>
      <trkpt lat="47.26753" lon="7.3805">
        <ele>666</ele>
        <time>2017-06-11T05:57:09Z</time>
      </trkpt>
      <trkpt lat="47.26753" lon="7.3806">
        <ele>666</ele>
        <time>2017-06-11T05:57:13Z</time>
      </trkpt>
      <trkpt lat="47.26754" lon="7.38067">
        <ele>666</ele>
        <time>2017-06-11T05:57:17Z</time>
      </trkpt>
      <trkpt lat="47.26756" lon="7.38074">
        <ele>666</ele>
        <time>2017-06-11T05:57:20Z</time>
      </trkpt>
      <trkpt lat="47.26757" lon="7.38081">
        <ele>667</ele>
        <time>2017-06-11T05:57:24Z</time>
      </trkpt>
      <trkpt lat="47.26761" lon="7.38086">
        <ele>667</ele>
        <time>2017-06-11T05:57:28Z</time>
      </trkpt>
      <trkpt lat="47.26765" lon="7.38091">
        <ele>668</ele>
        <time>2017-06-11T05:57:31Z</time>
      </trkpt>
      <trkpt lat="47.26769" lon="7.38095">
        <ele>668</ele>
        <time>2017-06-11T05:57:34Z</time>
      </trkpt>
      <trkpt lat="47.26772" lon="7.38103">
        <ele>668</ele>
        <time>2017-06-11T05:57:38Z</time>
      </trkpt>
      <trkpt lat="47.26775" lon="7.3811">
        <ele>669</ele>
        <time>2017-06-11T05:57:41Z</time>
      </trkpt>
      <trkpt lat="47.26778" lon="7.38115">
        <ele>669</ele>
        <time>2017-06-11T05:57:44Z</time>
      </trkpt>
      <trkpt lat="47.26781" lon="7.38122">
        <ele>669</ele>
        <time>2017-06-11T05:57:48Z</time>
      </trkpt>
      <trkpt lat="47.2678" lon="7.38129">
        <ele>670</ele>
        <time>2017-06-11T05:57:51Z</time>
      </trkpt>
      <trkpt lat="47.26779" lon="7.38137">
        <ele>671</ele>
        <time>2017-06-11T05:57:55Z</time>
      </trkpt>
      <trkpt lat="47.26778" lon="7.38144">
        <ele>672</ele>
        <time>2017-06-11T05:57:58Z</time>
      </trkpt>
      <trkpt lat="47.26777" lon="7.38152">
        <ele>674</ele>
        <time>2017-06-11T05:58:01Z</time>
      </trkpt>
      <trkpt lat="47.26776" lon="7.38159">
        <ele>675</ele>
        <time>2017-06-11T05:58:05Z</time>
      </trkpt>
      <trkpt lat="47.26777" lon="7.38167">
        <ele>676</ele>
        <time>2017-06-11T05:58:09Z</time>
      </trkpt>
      <trkpt lat="47.2678" lon="7.38173">
        <ele>677</ele>
        <time>2017-06-11T05:58:13Z</time>
      </trkpt>
      <trkpt lat="47.26783" lon="7.38181">
        <ele>678</ele>
        <time>2017-06-11T05:58:17Z</time>
      </trkpt>
      <trkpt lat="47.26783" lon="7.38189">
        <ele>680</ele>
        <time>2017-06-11T05:58:20Z</time>
      </trkpt>
      <trkpt lat="47.26784" lon="7.38197">
        <ele>681</ele>
        <time>2017-06-11T05:58:23Z</time>
      </trkpt>
      <trkpt lat="47.26783" lon="7.38203">
        <ele>682</ele>
        <time>2017-06-11T05:58:25Z</time>
      </trkpt>
      <trkpt lat="47.26783" lon="7.38211">
        <ele>683</ele>
        <time>2017-06-11T05:58:28Z</time>
      </trkpt>
      <trkpt lat="47.26784" lon="7.3822">
        <ele>684</ele>
        <time>2017-06-11T05:58:32Z</time>
      </trkpt>
      <trkpt lat="47.26784" lon="7.38228">
        <ele>685</ele>
        <time>2017-06-11T05:58:36Z</time>
      </trkpt>
      <trkpt lat="47.26783" lon="7.38234">
        <ele>685</ele>
        <time>2017-06-11T05:58:39Z</time>
      </trkpt>
      <trkpt lat="47.26779" lon="7.38244">
        <ele>686</ele>
        <time>2017-06-11T05:58:42Z</time>
      </trkpt>
      <trkpt lat="47.26777" lon="7.38252">
        <ele>686</ele>
        <time>2017-06-11T05:58:44Z</time>
      </trkpt>
      <trkpt lat="47.26775" lon="7.3826">
        <ele>686</ele>
        <time>2017-06-11T05:58:46Z</time>
      </trkpt>
      <trkpt lat="47.26773" lon="7.38269">
        <ele>685</ele>
        <time>2017-06-11T05:58:49Z</time>
      </trkpt>
      <trkpt lat="47.26771" lon="7.38277">
        <ele>685</ele>
        <time>2017-06-11T05:58:52Z</time>
      </trkpt>
      <trkpt lat="47.26769" lon="7.38286">
        <ele>684</ele>
        <time>2017-06-11T05:58:55Z</time>
      </trkpt>
      <trkpt lat="47.26769" lon="7.38294">
        <ele>684</ele>
        <time>2017-06-11T05:58:59Z</time>
      </trkpt>
      <trkpt lat="47.26764" lon="7.38292">
        <ele>684</ele>
        <time>2017-06-11T05:59:10Z</time>
      </trkpt>
      <trkpt lat="47.26762" lon="7.38286">
        <ele>684</ele>
        <time>2017-06-11T05:59:14Z</time>
      </trkpt>
      <trkpt lat="47.26757" lon="7.38281">
        <ele>684</ele>
        <time>2017-06-11T05:59:21Z</time>
      </trkpt>
      <trkpt lat="47.26754" lon="7.38277">
        <ele>684</ele>
        <time>2017-06-11T05:59:27Z</time>
      </trkpt>
      <trkpt lat="47.2675" lon="7.38272">
        <ele>684</ele>
        <time>2017-06-11T05:59:32Z</time>
      </trkpt>
      <trkpt lat="47.26747" lon="7.38266">
        <ele>685</ele>
        <time>2017-06-11T05:59:39Z</time>
      </trkpt>
      <trkpt lat="47.26742" lon="7.38263">
        <ele>685</ele>
        <time>2017-06-11T05:59:42Z</time>
      </trkpt>
      <trkpt lat="47.26737" lon="7.38259">
        <ele>686</ele>
        <time>2017-06-11T05:59:47Z</time>
      </trkpt>
      <trkpt lat="47.26733" lon="7.38258">
        <ele>686</ele>
        <time>2017-06-11T05:59:50Z</time>
      </trkpt>
      <trkpt lat="47.26727" lon="7.38257">
        <ele>687</ele>
        <time>2017-06-11T05:59:53Z</time>
      </trkpt>
      <trkpt lat="47.26722" lon="7.38255">
        <ele>687</ele>
        <time>2017-06-11T05:59:58Z</time>
      </trkpt>
      <trkpt lat="47.26716" lon="7.38249">
        <ele>688</ele>
        <time>2017-06-11T06:00:07Z</time>
      </trkpt>
      <trkpt lat="47.26711" lon="7.38246">
        <ele>689</ele>
        <time>2017-06-11T06:00:11Z</time>
      </trkpt>
      <trkpt lat="47.26705" lon="7.38244">
        <ele>689</ele>
        <time>2017-06-11T06:00:14Z</time>
      </trkpt>
      <trkpt lat="47.26701" lon="7.38239">
        <ele>690</ele>
        <time>2017-06-11T06:00:17Z</time>
      </trkpt>
      <trkpt lat="47.26696" lon="7.38237">
        <ele>691</ele>
        <time>2017-06-11T06:00:20Z</time>
      </trkpt>
      <trkpt lat="47.2669" lon="7.38235">
        <ele>691</ele>
        <time>2017-06-11T06:00:23Z</time>
      </trkpt>
      <trkpt lat="47.26685" lon="7.38233">
        <ele>692</ele>
        <time>2017-06-11T06:00:26Z</time>
      </trkpt>
      <trkpt lat="47.26681" lon="7.38232">
        <ele>693</ele>
        <time>2017-06-11T06:00:31Z</time>
      </trkpt>
      <trkpt lat="47.26676" lon="7.3823">
        <ele>694</ele>
        <time>2017-06-11T06:00:35Z</time>
      </trkpt>
      <trkpt lat="47.26672" lon="7.38227">
        <ele>695</ele>
        <time>2017-06-11T06:00:38Z</time>
      </trkpt>
      <trkpt lat="47.26667" lon="7.38223">
        <ele>695</ele>
        <time>2017-06-11T06:00:42Z</time>
      </trkpt>
      <trkpt lat="47.26664" lon="7.38217">
        <ele>696</ele>
        <time>2017-06-11T06:00:46Z</time>
      </trkpt>
      <trkpt lat="47.26662" lon="7.38211">
        <ele>697</ele>
        <time>2017-06-11T06:00:50Z</time>
      </trkpt>
      <trkpt lat="47.26661" lon="7.38204">
        <ele>698</ele>
        <time>2017-06-11T06:00:54Z</time>
      </trkpt>
      <trkpt lat="47.2666" lon="7.38196">
        <ele>699</ele>
        <time>2017-06-11T06:00:58Z</time>
      </trkpt>
      <trkpt lat="47.26657" lon="7.38191">
        <ele>700</ele>
        <time>2017-06-11T06:01:02Z</time>
      </trkpt>
      <trkpt lat="47.26654" lon="7.38185">
        <ele>701</ele>
        <time>2017-06-11T06:01:07Z</time>
      </trkpt>
      <trkpt lat="47.26649" lon="7.38184">
        <ele>701</ele>
        <time>2017-06-11T06:01:11Z</time>
      </trkpt>
      <trkpt lat="47.26644" lon="7.38184">
        <ele>702</ele>
        <time>2017-06-11T06:01:14Z</time>
      </trkpt>
      <trkpt lat="47.26638" lon="7.38183">
        <ele>702</ele>
        <time>2017-06-11T06:01:17Z</time>
      </trkpt>
      <trkpt lat="47.26633" lon="7.38182">
        <ele>701</ele>
        <time>2017-06-11T06:01:20Z</time>
      </trkpt>
      <trkpt lat="47.26627" lon="7.38181">
        <ele>701</ele>
        <time>2017-06-11T06:01:23Z</time>
      </trkpt>
      <trkpt lat="47.26624" lon="7.38175">
        <ele>701</ele>
        <time>2017-06-11T06:01:27Z</time>
      </trkpt>
      <trkpt lat="47.2662" lon="7.3817">
        <ele>701</ele>
        <time>2017-06-11T06:01:29Z</time>
      </trkpt>
      <trkpt lat="47.26614" lon="7.38169">
        <ele>701</ele>
        <time>2017-06-11T06:01:32Z</time>
      </trkpt>
      <trkpt lat="47.2661" lon="7.3816">
        <ele>702</ele>
        <time>2017-06-11T06:01:35Z</time>
      </trkpt>
      <trkpt lat="47.26606" lon="7.38154">
        <ele>703</ele>
        <time>2017-06-11T06:01:37Z</time>
      </trkpt>
      <trkpt lat="47.26601" lon="7.3815">
        <ele>703</ele>
        <time>2017-06-11T06:01:39Z</time>
      </trkpt>
      <trkpt lat="47.26596" lon="7.38144">
        <ele>704</ele>
        <time>2017-06-11T06:01:41Z</time>
      </trkpt>
      <trkpt lat="47.26592" lon="7.38139">
        <ele>705</ele>
        <time>2017-06-11T06:01:43Z</time>
      </trkpt>
      <trkpt lat="47.26587" lon="7.38136">
        <ele>706</ele>
        <time>2017-06-11T06:01:46Z</time>
      </trkpt>
      <trkpt lat="47.26584" lon="7.38131">
        <ele>707</ele>
        <time>2017-06-11T06:01:49Z</time>
      </trkpt>
      <trkpt lat="47.26584" lon="7.38124">
        <ele>708</ele>
        <time>2017-06-11T06:01:53Z</time>
      </trkpt>
      <trkpt lat="47.26583" lon="7.38117">
        <ele>708</ele>
        <time>2017-06-11T06:01:58Z</time>
      </trkpt>
      <trkpt lat="47.26581" lon="7.38109">
        <ele>709</ele>
        <time>2017-06-11T06:02:02Z</time>
      </trkpt>
      <trkpt lat="47.26578" lon="7.38103">
        <ele>711</ele>
        <time>2017-06-11T06:02:06Z</time>
      </trkpt>
      <trkpt lat="47.26575" lon="7.38097">
        <ele>712</ele>
        <time>2017-06-11T06:02:11Z</time>
      </trkpt>
      <trkpt lat="47.26571" lon="7.38093">
        <ele>714</ele>
        <time>2017-06-11T06:02:16Z</time>
      </trkpt>
      <trkpt lat="47.26566" lon="7.38089">
        <ele>715</ele>
        <time>2017-06-11T06:02:21Z</time>
      </trkpt>
      <trkpt lat="47.26561" lon="7.38089">
        <ele>716</ele>
        <time>2017-06-11T06:02:26Z</time>
      </trkpt>
      <trkpt lat="47.26559" lon="7.38098">
        <ele>718</ele>
        <time>2017-06-11T06:02:41Z</time>
      </trkpt>
      <trkpt lat="47.26559" lon="7.38105">
        <ele>719</ele>
        <time>2017-06-11T06:02:47Z</time>
      </trkpt>
      <trkpt lat="47.26561" lon="7.38111">
        <ele>721</ele>
        <time>2017-06-11T06:02:52Z</time>
      </trkpt>
      <trkpt lat="47.26558" lon="7.38118">
        <ele>723</ele>
        <time>2017-06-11T06:02:56Z</time>
      </trkpt>
      <trkpt lat="47.26559" lon="7.38126">
        <ele>725</ele>
        <time>2017-06-11T06:03:00Z</time>
      </trkpt>
      <trkpt lat="47.26559" lon="7.38134">
        <ele>726</ele>
        <time>2017-06-11T06:03:04Z</time>
      </trkpt>
      <trkpt lat="47.26556" lon="7.3814">
        <ele>728</ele>
        <time>2017-06-11T06:03:08Z</time>
      </trkpt>
      <trkpt lat="47.26554" lon="7.38147">
        <ele>729</ele>
        <time>2017-06-11T06:03:14Z</time>
      </trkpt>
      <trkpt lat="47.26554" lon="7.38155">
        <ele>731</ele>
        <time>2017-06-11T06:03:18Z</time>
      </trkpt>
      <trkpt lat="47.26553" lon="7.38163">
        <ele>732</ele>
        <time>2017-06-11T06:03:22Z</time>
      </trkpt>
      <trkpt lat="47.26553" lon="7.3817">
        <ele>733</ele>
        <time>2017-06-11T06:03:26Z</time>
      </trkpt>
      <trkpt lat="47.26551" lon="7.38178">
        <ele>734</ele>
        <time>2017-06-11T06:03:31Z</time>
      </trkpt>
      <trkpt lat="47.2655" lon="7.38185">
        <ele>735</ele>
        <time>2017-06-11T06:03:35Z</time>
      </trkpt>
      <trkpt lat="47.26549" lon="7.38192">
        <ele>736</ele>
        <time>2017-06-11T06:03:39Z</time>
      </trkpt>
      <trkpt lat="47.26547" lon="7.382">
        <ele>737</ele>
        <time>2017-06-11T06:03:43Z</time>
      </trkpt>
      <trkpt lat="47.26549" lon="7.38207">
        <ele>738</ele>
        <time>2017-06-11T06:03:47Z</time>
      </trkpt>
      <trkpt lat="47.26549" lon="7.38215">
        <ele>739</ele>
        <time>2017-06-11T06:03:51Z</time>
      </trkpt>
      <trkpt lat="47.26548" lon="7.38223">
        <ele>739</ele>
        <time>2017-06-11T06:03:55Z</time>
      </trkpt>
      <trkpt lat="47.26548" lon="7.38231">
        <ele>741</ele>
        <time>2017-06-11T06:03:59Z</time>
      </trkpt>
      <trkpt lat="47.26547" lon="7.38237">
        <ele>742</ele>
        <time>2017-06-11T06:04:02Z</time>
      </trkpt>
      <trkpt lat="47.26548" lon="7.38245">
        <ele>743</ele>
        <time>2017-06-11T06:04:06Z</time>
      </trkpt>
      <trkpt lat="47.26549" lon="7.38252">
        <ele>744</ele>
        <time>2017-06-11T06:04:10Z</time>
      </trkpt>
      <trkpt lat="47.26548" lon="7.3826">
        <ele>744</ele>
        <time>2017-06-11T06:04:14Z</time>
      </trkpt>
      <trkpt lat="47.26548" lon="7.38268">
        <ele>745</ele>
        <time>2017-06-11T06:04:18Z</time>
      </trkpt>
      <trkpt lat="47.26546" lon="7.38274">
        <ele>746</ele>
        <time>2017-06-11T06:04:21Z</time>
      </trkpt>
      <trkpt lat="47.26544" lon="7.38281">
        <ele>746</ele>
        <time>2017-06-11T06:04:25Z</time>
      </trkpt>
      <trkpt lat="47.26543" lon="7.38288">
        <ele>746</ele>
        <time>2017-06-11T06:04:29Z</time>
      </trkpt>
      <trkpt lat="47.26543" lon="7.38296">
        <ele>747</ele>
        <time>2017-06-11T06:04:34Z</time>
      </trkpt>
      <trkpt lat="47.26543" lon="7.38303">
        <ele>748</ele>
        <time>2017-06-11T06:04:38Z</time>
      </trkpt>
      <trkpt lat="47.26543" lon="7.38311">
        <ele>748</ele>
        <time>2017-06-11T06:04:42Z</time>
      </trkpt>
      <trkpt lat="47.26542" lon="7.38319">
        <ele>749</ele>
        <time>2017-06-11T06:04:45Z</time>
      </trkpt>
      <trkpt lat="47.26541" lon="7.38326">
        <ele>750</ele>
        <time>2017-06-11T06:04:49Z</time>
      </trkpt>
      <trkpt lat="47.26542" lon="7.38335">
        <ele>751</ele>
        <time>2017-06-11T06:04:54Z</time>
      </trkpt>
      <trkpt lat="47.26543" lon="7.38341">
        <ele>752</ele>
        <time>2017-06-11T06:04:58Z</time>
      </trkpt>
      <trkpt lat="47.26545" lon="7.38349">
        <ele>753</ele>
        <time>2017-06-11T06:05:03Z</time>
      </trkpt>
      <trkpt lat="47.26547" lon="7.38356">
        <ele>754</ele>
        <time>2017-06-11T06:05:08Z</time>
      </trkpt>
      <trkpt lat="47.26548" lon="7.38364">
        <ele>755</ele>
        <time>2017-06-11T06:05:13Z</time>
      </trkpt>
      <trkpt lat="47.26548" lon="7.38372">
        <ele>756</ele>
        <time>2017-06-11T06:05:17Z</time>
      </trkpt>
      <trkpt lat="47.26548" lon="7.3838">
        <ele>757</ele>
        <time>2017-06-11T06:05:21Z</time>
      </trkpt>
      <trkpt lat="47.26548" lon="7.38388">
        <ele>758</ele>
        <time>2017-06-11T06:05:24Z</time>
      </trkpt>
      <trkpt lat="47.26548" lon="7.38396">
        <ele>759</ele>
        <time>2017-06-11T06:05:29Z</time>
      </trkpt>
      <trkpt lat="47.26548" lon="7.38403">
        <ele>761</ele>
        <time>2017-06-11T06:05:33Z</time>
      </trkpt>
      <trkpt lat="47.2655" lon="7.3841">
        <ele>762</ele>
        <time>2017-06-11T06:05:37Z</time>
      </trkpt>
      <trkpt lat="47.2655" lon="7.38417">
        <ele>763</ele>
        <time>2017-06-11T06:05:41Z</time>
      </trkpt>
      <trkpt lat="47.2655" lon="7.38426">
        <ele>764</ele>
        <time>2017-06-11T06:05:45Z</time>
      </trkpt>
      <trkpt lat="47.26549" lon="7.38432">
        <ele>765</ele>
        <time>2017-06-11T06:05:48Z</time>
      </trkpt>
      <trkpt lat="47.2655" lon="7.3844">
        <ele>766</ele>
        <time>2017-06-11T06:05:52Z</time>
      </trkpt>
      <trkpt lat="47.26551" lon="7.38448">
        <ele>767</ele>
        <time>2017-06-11T06:05:56Z</time>
      </trkpt>
      <trkpt lat="47.26551" lon="7.38456">
        <ele>768</ele>
        <time>2017-06-11T06:06:00Z</time>
      </trkpt>
      <trkpt lat="47.26553" lon="7.38463">
        <ele>768</ele>
        <time>2017-06-11T06:06:04Z</time>
      </trkpt>
      <trkpt lat="47.26553" lon="7.3847">
        <ele>769</ele>
        <time>2017-06-11T06:06:08Z</time>
      </trkpt>
      <trkpt lat="47.26552" lon="7.38478">
        <ele>769</ele>
        <time>2017-06-11T06:06:12Z</time>
      </trkpt>
      <trkpt lat="47.26551" lon="7.38485">
        <ele>770</ele>
        <time>2017-06-11T06:06:16Z</time>
      </trkpt>
      <trkpt lat="47.26551" lon="7.38493">
        <ele>771</ele>
        <time>2017-06-11T06:06:21Z</time>
      </trkpt>
      <trkpt lat="47.26553" lon="7.38501">
        <ele>771</ele>
        <time>2017-06-11T06:06:25Z</time>
      </trkpt>
      <trkpt lat="47.26553" lon="7.38509">
        <ele>772</ele>
        <time>2017-06-11T06:06:29Z</time>
      </trkpt>
      <trkpt lat="47.26552" lon="7.38517">
        <ele>773</ele>
        <time>2017-06-11T06:06:33Z</time>
      </trkpt>
      <trkpt lat="47.2655" lon="7.38524">
        <ele>774</ele>
        <time>2017-06-11T06:06:38Z</time>
      </trkpt>
      <trkpt lat="47.26548" lon="7.38531">
        <ele>775</ele>
        <time>2017-06-11T06:06:42Z</time>
      </trkpt>
      <trkpt lat="47.26548" lon="7.38539">
        <ele>776</ele>
        <time>2017-06-11T06:06:48Z</time>
      </trkpt>
      <trkpt lat="47.26549" lon="7.38546">
        <ele>777</ele>
        <time>2017-06-11T06:06:53Z</time>
      </trkpt>
      <trkpt lat="47.2655" lon="7.38553">
        <ele>778</ele>
        <time>2017-06-11T06:06:57Z</time>
      </trkpt>
      <trkpt lat="47.2655" lon="7.38562">
        <ele>779</ele>
        <time>2017-06-11T06:07:00Z</time>
      </trkpt>
      <trkpt lat="47.2655" lon="7.38565">
        <ele>780</ele>
        <time>2017-06-11T06:07:20Z</time>
      </trkpt>
      <trkpt lat="47.26546" lon="7.38565">
        <ele>782</ele>
        <time>2017-06-11T06:07:43Z</time>
      </trkpt>
      <trkpt lat="47.26541" lon="7.38581">
        <ele>785</ele>
        <time>2017-06-11T06:07:45Z</time>
      </trkpt>
      <trkpt lat="47.26531" lon="7.38588">
        <ele>789</ele>
        <time>2017-06-11T06:07:47Z</time>
      </trkpt>
      <trkpt lat="47.26527" lon="7.38593">
        <ele>794</ele>
        <time>2017-06-11T06:08:01Z</time>
      </trkpt>
      <trkpt lat="47.26527" lon="7.38599">
        <ele>798</ele>
        <time>2017-06-11T06:08:09Z</time>
      </trkpt>
      <trkpt lat="47.26523" lon="7.38604">
        <ele>802</ele>
        <time>2017-06-11T06:08:15Z</time>
      </trkpt>
      <trkpt lat="47.2652" lon="7.3861">
        <ele>804</ele>
        <time>2017-06-11T06:08:21Z</time>
      </trkpt>
      <trkpt lat="47.26516" lon="7.38615">
        <ele>805</ele>
        <time>2017-06-11T06:08:26Z</time>
      </trkpt>
      <trkpt lat="47.26513" lon="7.3862">
        <ele>805</ele>
        <time>2017-06-11T06:08:33Z</time>
      </trkpt>
      <trkpt lat="47.26511" lon="7.38626">
        <ele>805</ele>
        <time>2017-06-11T06:08:39Z</time>
      </trkpt>
      <trkpt lat="47.26508" lon="7.3863">
        <ele>806</ele>
        <time>2017-06-11T06:08:45Z</time>
      </trkpt>
      <trkpt lat="47.26503" lon="7.38634">
        <ele>806</ele>
        <time>2017-06-11T06:08:50Z</time>
      </trkpt>
      <trkpt lat="47.26502" lon="7.38642">
        <ele>807</ele>
        <time>2017-06-11T06:08:59Z</time>
      </trkpt>
      <trkpt lat="47.26499" lon="7.38648">
        <ele>808</ele>
        <time>2017-06-11T06:09:04Z</time>
      </trkpt>
      <trkpt lat="47.26495" lon="7.38653">
        <ele>809</ele>
        <time>2017-06-11T06:09:12Z</time>
      </trkpt>
      <trkpt lat="47.26493" lon="7.38659">
        <ele>810</ele>
        <time>2017-06-11T06:09:19Z</time>
      </trkpt>
      <trkpt lat="47.26492" lon="7.38666">
        <ele>811</ele>
        <time>2017-06-11T06:09:28Z</time>
      </trkpt>
      <trkpt lat="47.2649" lon="7.38672">
        <ele>812</ele>
        <time>2017-06-11T06:09:37Z</time>
      </trkpt>
      <trkpt lat="47.26487" lon="7.38679">
        <ele>813</ele>
        <time>2017-06-11T06:09:49Z</time>
      </trkpt>
      <trkpt lat="47.26485" lon="7.38685">
        <ele>815</ele>
        <time>2017-06-11T06:09:55Z</time>
      </trkpt>
      <trkpt lat="47.26486" lon="7.38693">
        <ele>817</ele>
        <time>2017-06-11T06:10:02Z</time>
      </trkpt>
      <trkpt lat="47.26483" lon="7.38698">
        <ele>818</ele>
        <time>2017-06-11T06:10:07Z</time>
      </trkpt>
      <trkpt lat="47.26482" lon="7.38705">
        <ele>820</ele>
        <time>2017-06-11T06:10:15Z</time>
      </trkpt>
      <trkpt lat="47.2648" lon="7.38711">
        <ele>821</ele>
        <time>2017-06-11T06:10:23Z</time>
      </trkpt>
      <trkpt lat="47.26477" lon="7.38717">
        <ele>822</ele>
        <time>2017-06-11T06:10:29Z</time>
      </trkpt>
      <trkpt lat="47.26475" lon="7.38724">
        <ele>823</ele>
        <time>2017-06-11T06:10:35Z</time>
      </trkpt>
      <trkpt lat="47.26473" lon="7.3873">
        <ele>824</ele>
        <time>2017-06-11T06:10:41Z</time>
      </trkpt>
      <trkpt lat="47.26469" lon="7.38736">
        <ele>825</ele>
        <time>2017-06-11T06:10:50Z</time>
      </trkpt>
      <trkpt lat="47.26467" lon="7.38742">
        <ele>826</ele>
        <time>2017-06-11T06:10:58Z</time>
      </trkpt>
      <trkpt lat="47.26466" lon="7.38749">
        <ele>828</ele>
        <time>2017-06-11T06:11:06Z</time>
      </trkpt>
      <trkpt lat="47.26463" lon="7.38755">
        <ele>830</ele>
        <time>2017-06-11T06:11:12Z</time>
      </trkpt>
      <trkpt lat="47.2646" lon="7.38759">
        <ele>831</ele>
        <time>2017-06-11T06:11:17Z</time>
      </trkpt>
      <trkpt lat="47.26457" lon="7.38765">
        <ele>832</ele>
        <time>2017-06-11T06:11:23Z</time>
      </trkpt>
      <trkpt lat="47.26452" lon="7.38769">
        <ele>833</ele>
        <time>2017-06-11T06:11:29Z</time>
      </trkpt>
      <trkpt lat="47.2645" lon="7.38775">
        <ele>834</ele>
        <time>2017-06-11T06:11:37Z</time>
      </trkpt>
      <trkpt lat="47.26447" lon="7.38781">
        <ele>835</ele>
        <time>2017-06-11T06:11:43Z</time>
      </trkpt>
      <trkpt lat="47.26445" lon="7.38787">
        <ele>836</ele>
        <time>2017-06-11T06:11:49Z</time>
      </trkpt>
      <trkpt lat="47.26441" lon="7.38791">
        <ele>837</ele>
        <time>2017-06-11T06:11:53Z</time>
      </trkpt>
      <trkpt lat="47.26441" lon="7.38797">
        <ele>838</ele>
        <time>2017-06-11T06:12:01Z</time>
      </trkpt>
      <trkpt lat="47.2644" lon="7.38804">
        <ele>839</ele>
        <time>2017-06-11T06:12:07Z</time>
      </trkpt>
      <trkpt lat="47.26444" lon="7.38811">
        <ele>840</ele>
        <time>2017-06-11T06:12:14Z</time>
      </trkpt>
      <trkpt lat="47.26444" lon="7.38819">
        <ele>842</ele>
        <time>2017-06-11T06:12:23Z</time>
      </trkpt>
      <trkpt lat="47.26442" lon="7.38825">
        <ele>843</ele>
        <time>2017-06-11T06:12:27Z</time>
      </trkpt>
      <trkpt lat="47.26439" lon="7.38829">
        <ele>845</ele>
        <time>2017-06-11T06:12:30Z</time>
      </trkpt>
      <trkpt lat="47.26436" lon="7.38836">
        <ele>846</ele>
        <time>2017-06-11T06:12:36Z</time>
      </trkpt>
      <trkpt lat="47.26434" lon="7.38843">
        <ele>847</ele>
        <time>2017-06-11T06:12:42Z</time>
      </trkpt>
      <trkpt lat="47.26431" lon="7.38849">
        <ele>848</ele>
        <time>2017-06-11T06:12:50Z</time>
      </trkpt>
      <trkpt lat="47.26431" lon="7.38856">
        <ele>848</ele>
        <time>2017-06-11T06:12:55Z</time>
      </trkpt>
      <trkpt lat="47.26432" lon="7.38863">
        <ele>849</ele>
        <time>2017-06-11T06:13:05Z</time>
      </trkpt>
      <trkpt lat="47.26429" lon="7.38875">
        <ele>851</ele>
        <time>2017-06-11T06:13:15Z</time>
      </trkpt>
      <trkpt lat="47.26427" lon="7.38887">
        <ele>853</ele>
        <time>2017-06-11T06:13:27Z</time>
      </trkpt>
      <trkpt lat="47.26427" lon="7.38896">
        <ele>855</ele>
        <time>2017-06-11T06:13:34Z</time>
      </trkpt>
      <trkpt lat="47.26424" lon="7.38908">
        <ele>857</ele>
        <time>2017-06-11T06:13:42Z</time>
      </trkpt>
      <trkpt lat="47.26426" lon="7.38919">
        <ele>859</ele>
        <time>2017-06-11T06:13:53Z</time>
      </trkpt>
      <trkpt lat="47.26423" lon="7.38929">
        <ele>862</ele>
        <time>2017-06-11T06:14:04Z</time>
      </trkpt>
      <trkpt lat="47.26422" lon="7.38939">
        <ele>864</ele>
        <time>2017-06-11T06:14:14Z</time>
      </trkpt>
      <trkpt lat="47.26423" lon="7.38948">
        <ele>866</ele>
        <time>2017-06-11T06:14:26Z</time>
      </trkpt>
      <trkpt lat="47.26421" lon="7.38956">
        <ele>869</ele>
        <time>2017-06-11T06:14:37Z</time>
      </trkpt>
      <trkpt lat="47.2642" lon="7.38968">
        <ele>872</ele>
        <time>2017-06-11T06:14:47Z</time>
      </trkpt>
      <trkpt lat="47.26418" lon="7.38974">
        <ele>874</ele>
        <time>2017-06-11T06:14:52Z</time>
      </trkpt>
      <trkpt lat="47.26413" lon="7.38976">
        <ele>876</ele>
        <time>2017-06-11T06:15:10Z</time>
      </trkpt>
      <trkpt lat="47.26417" lon="7.38974">
        <ele>880</ele>
        <time>2017-06-11T06:15:13Z</time>
      </trkpt>
      <trkpt lat="47.26421" lon="7.38971">
        <ele>886</ele>
        <time>2017-06-11T06:15:16Z</time>
      </trkpt>
      <trkpt lat="47.26418" lon="7.38964">
        <ele>891</ele>
        <time>2017-06-11T06:15:24Z</time>
      </trkpt>
      <trkpt lat="47.26417" lon="7.38957">
        <ele>895</ele>
        <time>2017-06-11T06:15:29Z</time>
      </trkpt>
      <trkpt lat="47.26417" lon="7.3895">
        <ele>899</ele>
        <time>2017-06-11T06:15:34Z</time>
      </trkpt>
      <trkpt lat="47.26415" lon="7.38944">
        <ele>901</ele>
        <time>2017-06-11T06:15:39Z</time>
      </trkpt>
      <trkpt lat="47.26413" lon="7.38938">
        <ele>901</ele>
        <time>2017-06-11T06:15:44Z</time>
      </trkpt>
      <trkpt lat="47.26411" lon="7.38932">
        <ele>901</ele>
        <time>2017-06-11T06:15:49Z</time>
      </trkpt>
      <trkpt lat="47.26411" lon="7.38925">
        <ele>901</ele>
        <time>2017-06-11T06:15:54Z</time>
      </trkpt>
      <trkpt lat="47.26408" lon="7.38919">
        <ele>901</ele>
        <time>2017-06-11T06:15:59Z</time>
      </trkpt>
      <trkpt lat="47.26404" lon="7.38915">
        <ele>901</ele>
        <time>2017-06-11T06:16:03Z</time>
      </trkpt>
      <trkpt lat="47.264" lon="7.3891">
        <ele>901</ele>
        <time>2017-06-11T06:16:07Z</time>
      </trkpt>
      <trkpt lat="47.26397" lon="7.38905">
        <ele>901</ele>
        <time>2017-06-11T06:16:11Z</time>
      </trkpt>
      <trkpt lat="47.26396" lon="7.38899">
        <ele>901</ele>
        <time>2017-06-11T06:16:15Z</time>
      </trkpt>
      <trkpt lat="47.26396" lon="7.38891">
        <ele>902</ele>
        <time>2017-06-11T06:16:19Z</time>
      </trkpt>
      <trkpt lat="47.26395" lon="7.38883">
        <ele>902</ele>
        <time>2017-06-11T06:16:23Z</time>
      </trkpt>
      <trkpt lat="47.26397" lon="7.38877">
        <ele>903</ele>
        <time>2017-06-11T06:16:26Z</time>
      </trkpt>
      <trkpt lat="47.26396" lon="7.38869">
        <ele>903</ele>
        <time>2017-06-11T06:16:30Z</time>
      </trkpt>
      <trkpt lat="47.26396" lon="7.38861">
        <ele>904</ele>
        <time>2017-06-11T06:16:34Z</time>
      </trkpt>
      <trkpt lat="47.26395" lon="7.38854">
        <ele>904</ele>
        <time>2017-06-11T06:16:39Z</time>
      </trkpt>
      <trkpt lat="47.26395" lon="7.38846">
        <ele>905</ele>
        <time>2017-06-11T06:16:45Z</time>
      </trkpt>
      <trkpt lat="47.26392" lon="7.38841">
        <ele>906</ele>
        <time>2017-06-11T06:16:49Z</time>
      </trkpt>
      <trkpt lat="47.2639" lon="7.38834">
        <ele>906</ele>
        <time>2017-06-11T06:16:55Z</time>
      </trkpt>
      <trkpt lat="47.26388" lon="7.38827">
        <ele>907</ele>
        <time>2017-06-11T06:16:59Z</time>
      </trkpt>
      <trkpt lat="47.26386" lon="7.38821">
        <ele>907</ele>
        <time>2017-06-11T06:17:03Z</time>
      </trkpt>
      <trkpt lat="47.26384" lon="7.38813">
        <ele>907</ele>
        <time>2017-06-11T06:17:08Z</time>
      </trkpt>
      <trkpt lat="47.26384" lon="7.38805">
        <ele>908</ele>
        <time>2017-06-11T06:17:13Z</time>
      </trkpt>
      <trkpt lat="47.26384" lon="7.38797">
        <ele>909</ele>
        <time>2017-06-11T06:17:19Z</time>
      </trkpt>
      <trkpt lat="47.26381" lon="7.38791">
        <ele>910</ele>
        <time>2017-06-11T06:17:25Z</time>
      </trkpt>
      <trkpt lat="47.2638" lon="7.38783">
        <ele>912</ele>
        <time>2017-06-11T06:17:30Z</time>
      </trkpt>
      <trkpt lat="47.26379" lon="7.38777">
        <ele>913</ele>
        <time>2017-06-11T06:17:34Z</time>
      </trkpt>
      <trkpt lat="47.26379" lon="7.38769">
        <ele>915</ele>
        <time>2017-06-11T06:17:38Z</time>
      </trkpt>
      <trkpt lat="47.26376" lon="7.38763">
        <ele>916</ele>
        <time>2017-06-11T06:17:44Z</time>
      </trkpt>
      <trkpt lat="47.26373" lon="7.38758">
        <ele>917</ele>
        <time>2017-06-11T06:17:48Z</time>
      </trkpt>
      <trkpt lat="47.26369" lon="7.38754">
        <ele>918</ele>
        <time>2017-06-11T06:17:53Z</time>
      </trkpt>
      <trkpt lat="47.26368" lon="7.38747">
        <ele>920</ele>
        <time>2017-06-11T06:17:58Z</time>
      </trkpt>
      <trkpt lat="47.26364" lon="7.3874">
        <ele>921</ele>
        <time>2017-06-11T06:18:04Z</time>
      </trkpt>
      <trkpt lat="47.26362" lon="7.38735">
        <ele>923</ele>
        <time>2017-06-11T06:18:09Z</time>
      </trkpt>
      <trkpt lat="47.26362" lon="7.38727">
        <ele>924</ele>
        <time>2017-06-11T06:18:15Z</time>
      </trkpt>
      <trkpt lat="47.2636" lon="7.3872">
        <ele>925</ele>
        <time>2017-06-11T06:18:21Z</time>
      </trkpt>
      <trkpt lat="47.26358" lon="7.38715">
        <ele>926</ele>
        <time>2017-06-11T06:18:25Z</time>
      </trkpt>
      <trkpt lat="47.26356" lon="7.38708">
        <ele>927</ele>
        <time>2017-06-11T06:18:30Z</time>
      </trkpt>
      <trkpt lat="47.26355" lon="7.387">
        <ele>928</ele>
        <time>2017-06-11T06:18:36Z</time>
      </trkpt>
      <trkpt lat="47.26353" lon="7.38695">
        <ele>928</ele>
        <time>2017-06-11T06:18:43Z</time>
      </trkpt>
      <trkpt lat="47.26349" lon="7.38689">
        <ele>929</ele>
        <time>2017-06-11T06:18:48Z</time>
      </trkpt>
      <trkpt lat="47.26347" lon="7.38683">
        <ele>930</ele>
        <time>2017-06-11T06:18:53Z</time>
      </trkpt>
      <trkpt lat="47.26347" lon="7.38675">
        <ele>931</ele>
        <time>2017-06-11T06:18:59Z</time>
      </trkpt>
      <trkpt lat="47.26348" lon="7.38667">
        <ele>931</ele>
        <time>2017-06-11T06:19:04Z</time>
      </trkpt>
      <trkpt lat="47.26347" lon="7.38659">
        <ele>932</ele>
        <time>2017-06-11T06:19:10Z</time>
      </trkpt>
      <trkpt lat="47.26346" lon="7.38652">
        <ele>933</ele>
        <time>2017-06-11T06:19:15Z</time>
      </trkpt>
      <trkpt lat="47.26345" lon="7.38644">
        <ele>933</ele>
        <time>2017-06-11T06:19:19Z</time>
      </trkpt>
      <trkpt lat="47.26342" lon="7.38637">
        <ele>934</ele>
        <time>2017-06-11T06:19:26Z</time>
      </trkpt>
      <trkpt lat="47.26341" lon="7.3863">
        <ele>934</ele>
        <time>2017-06-11T06:19:30Z</time>
      </trkpt>
      <trkpt lat="47.2634" lon="7.38622">
        <ele>935</ele>
        <time>2017-06-11T06:19:34Z</time>
      </trkpt>
      <trkpt lat="47.26337" lon="7.38615">
        <ele>936</ele>
        <time>2017-06-11T06:19:39Z</time>
      </trkpt>
      <trkpt lat="47.26336" lon="7.38608">
        <ele>937</ele>
        <time>2017-06-11T06:19:44Z</time>
      </trkpt>
      <trkpt lat="47.26336" lon="7.386">
        <ele>937</ele>
        <time>2017-06-11T06:19:49Z</time>
      </trkpt>
      <trkpt lat="47.26336" lon="7.38593">
        <ele>938</ele>
        <time>2017-06-11T06:19:53Z</time>
      </trkpt>
      <trkpt lat="47.26336" lon="7.38585">
        <ele>939</ele>
        <time>2017-06-11T06:19:57Z</time>
      </trkpt>
      <trkpt lat="47.26334" lon="7.38579">
        <ele>940</ele>
        <time>2017-06-11T06:20:00Z</time>
      </trkpt>
      <trkpt lat="47.26332" lon="7.38573">
        <ele>941</ele>
        <time>2017-06-11T06:20:04Z</time>
      </trkpt>
      <trkpt lat="47.26329" lon="7.38566">
        <ele>941</ele>
        <time>2017-06-11T06:20:08Z</time>
      </trkpt>
      <trkpt lat="47.26328" lon="7.38559">
        <ele>942</ele>
        <time>2017-06-11T06:20:12Z</time>
      </trkpt>
      <trkpt lat="47.26328" lon="7.38552">
        <ele>943</ele>
        <time>2017-06-11T06:20:16Z</time>
      </trkpt>
      <trkpt lat="47.26326" lon="7.38545">
        <ele>943</ele>
        <time>2017-06-11T06:20:20Z</time>
      </trkpt>
      <trkpt lat="47.26326" lon="7.38537">
        <ele>944</ele>
        <time>2017-06-11T06:20:25Z</time>
      </trkpt>
      <trkpt lat="47.26325" lon="7.3853">
        <ele>945</ele>
        <time>2017-06-11T06:20:29Z</time>
      </trkpt>
      <trkpt lat="47.26322" lon="7.38524">
        <ele>946</ele>
        <time>2017-06-11T06:20:34Z</time>
      </trkpt>
      <trkpt lat="47.2632" lon="7.38516">
        <ele>946</ele>
        <time>2017-06-11T06:20:39Z</time>
      </trkpt>
      <trkpt lat="47.26317" lon="7.38509">
        <ele>947</ele>
        <time>2017-06-11T06:20:43Z</time>
      </trkpt>
      <trkpt lat="47.26315" lon="7.38503">
        <ele>947</ele>
        <time>2017-06-11T06:20:47Z</time>
      </trkpt>
      <trkpt lat="47.26312" lon="7.38498">
        <ele>948</ele>
        <time>2017-06-11T06:20:51Z</time>
      </trkpt>
      <trkpt lat="47.26308" lon="7.38491">
        <ele>948</ele>
        <time>2017-06-11T06:20:55Z</time>
      </trkpt>
      <trkpt lat="47.26305" lon="7.38485">
        <ele>949</ele>
        <time>2017-06-11T06:20:58Z</time>
      </trkpt>
      <trkpt lat="47.26302" lon="7.38479">
        <ele>950</ele>
        <time>2017-06-11T06:21:01Z</time>
      </trkpt>
      <trkpt lat="47.263" lon="7.38472">
        <ele>951</ele>
        <time>2017-06-11T06:21:06Z</time>
      </trkpt>
      <trkpt lat="47.26296" lon="7.38467">
        <ele>952</ele>
        <time>2017-06-11T06:21:11Z</time>
      </trkpt>
      <trkpt lat="47.26294" lon="7.38461">
        <ele>953</ele>
        <time>2017-06-11T06:21:16Z</time>
      </trkpt>
      <trkpt lat="47.26292" lon="7.38454">
        <ele>954</ele>
        <time>2017-06-11T06:21:21Z</time>
      </trkpt>
      <trkpt lat="47.26292" lon="7.38447">
        <ele>955</ele>
        <time>2017-06-11T06:21:25Z</time>
      </trkpt>
      <trkpt lat="47.26289" lon="7.38441">
        <ele>956</ele>
        <time>2017-06-11T06:21:29Z</time>
      </trkpt>
      <trkpt lat="47.26284" lon="7.38436">
        <ele>957</ele>
        <time>2017-06-11T06:21:34Z</time>
      </trkpt>
      <trkpt lat="47.26282" lon="7.3843">
        <ele>958</ele>
        <time>2017-06-11T06:21:38Z</time>
      </trkpt>
      <trkpt lat="47.26279" lon="7.38426">
        <ele>958</ele>
        <time>2017-06-11T06:21:43Z</time>
      </trkpt>
      <trkpt lat="47.26275" lon="7.3842">
        <ele>958</ele>
        <time>2017-06-11T06:21:50Z</time>
      </trkpt>
      <trkpt lat="47.2627" lon="7.38419">
        <ele>959</ele>
        <time>2017-06-11T06:21:54Z</time>
      </trkpt>
      <trkpt lat="47.26265" lon="7.38418">
        <ele>959</ele>
        <time>2017-06-11T06:21:59Z</time>
      </trkpt>
      <trkpt lat="47.26259" lon="7.38419">
        <ele>959</ele>
        <time>2017-06-11T06:22:07Z</time>
      </trkpt>
      <trkpt lat="47.26254" lon="7.38418">
        <ele>961</ele>
        <time>2017-06-11T06:22:15Z</time>
      </trkpt>
      <trkpt lat="47.26249" lon="7.38415">
        <ele>963</ele>
        <time>2017-06-11T06:22:20Z</time>
      </trkpt>
      <trkpt lat="47.26243" lon="7.38411">
        <ele>965</ele>
        <time>2017-06-11T06:22:28Z</time>
      </trkpt>
      <trkpt lat="47.26238" lon="7.38408">
        <ele>967</ele>
        <time>2017-06-11T06:22:34Z</time>
      </trkpt>
      <trkpt lat="47.26234" lon="7.38399">
        <ele>970</ele>
        <time>2017-06-11T06:22:42Z</time>
      </trkpt>
      <trkpt lat="47.2623" lon="7.3839">
        <ele>971</ele>
        <time>2017-06-11T06:22:52Z</time>
      </trkpt>
      <trkpt lat="47.26228" lon="7.38381">
        <ele>973</ele>
        <time>2017-06-11T06:23:03Z</time>
      </trkpt>
      <trkpt lat="47.26224" lon="7.38372">
        <ele>974</ele>
        <time>2017-06-11T06:23:11Z</time>
      </trkpt>
      <trkpt lat="47.2622" lon="7.38368">
        <ele>976</ele>
        <time>2017-06-11T06:23:15Z</time>
      </trkpt>
      <trkpt lat="47.26217" lon="7.38361">
        <ele>977</ele>
        <time>2017-06-11T06:23:24Z</time>
      </trkpt>
      <trkpt lat="47.26215" lon="7.38349">
        <ele>978</ele>
        <time>2017-06-11T06:23:31Z</time>
      </trkpt>
      <trkpt lat="47.2621" lon="7.38342">
        <ele>980</ele>
        <time>2017-06-11T06:23:40Z</time>
      </trkpt>
      <trkpt lat="47.26209" lon="7.38334">
        <ele>982</ele>
        <time>2017-06-11T06:23:54Z</time>
      </trkpt>
      <trkpt lat="47.2621" lon="7.38325">
        <ele>985</ele>
        <time>2017-06-11T06:24:02Z</time>
      </trkpt>
      <trkpt lat="47.26207" lon="7.38316">
        <ele>987</ele>
        <time>2017-06-11T06:24:12Z</time>
      </trkpt>
      <trkpt lat="47.26207" lon="7.38308">
        <ele>990</ele>
        <time>2017-06-11T06:24:26Z</time>
      </trkpt>
      <trkpt lat="47.2621" lon="7.38296">
        <ele>993</ele>
        <time>2017-06-11T06:24:32Z</time>
      </trkpt>
      <trkpt lat="47.26215" lon="7.3829">
        <ele>995</ele>
        <time>2017-06-11T06:24:44Z</time>
      </trkpt>
      <trkpt lat="47.26217" lon="7.38283">
        <ele>997</ele>
        <time>2017-06-11T06:24:47Z</time>
      </trkpt>
      <trkpt lat="47.26218" lon="7.38277">
        <ele>998</ele>
        <time>2017-06-11T06:24:50Z</time>
      </trkpt>
      <trkpt lat="47.26218" lon="7.38269">
        <ele>999</ele>
        <time>2017-06-11T06:24:53Z</time>
      </trkpt>
      <trkpt lat="47.26219" lon="7.38262">
        <ele>999</ele>
        <time>2017-06-11T06:24:56Z</time>
      </trkpt>
      <trkpt lat="47.26219" lon="7.38252">
        <ele>999</ele>
        <time>2017-06-11T06:25:01Z</time>
      </trkpt>
      <trkpt lat="47.26218" lon="7.38245">
        <ele>999</ele>
        <time>2017-06-11T06:25:04Z</time>
      </trkpt>
      <trkpt lat="47.26214" lon="7.38238">
        <ele>998</ele>
        <time>2017-06-11T06:25:08Z</time>
      </trkpt>
      <trkpt lat="47.26211" lon="7.38233">
        <ele>998</ele>
        <time>2017-06-11T06:25:11Z</time>
      </trkpt>
      <trkpt lat="47.26207" lon="7.38227">
        <ele>997</ele>
        <time>2017-06-11T06:25:16Z</time>
      </trkpt>
      <trkpt lat="47.26203" lon="7.38232">
        <ele>998</ele>
        <time>2017-06-11T06:25:38Z</time>
      </trkpt>
      <trkpt lat="47.26198" lon="7.38231">
        <ele>998</ele>
        <time>2017-06-11T06:25:45Z</time>
      </trkpt>
      <trkpt lat="47.2619" lon="7.38226">
        <ele>999</ele>
        <time>2017-06-11T06:26:02Z</time>
      </trkpt>
      <trkpt lat="47.26185" lon="7.38225">
        <ele>1001</ele>
        <time>2017-06-11T06:26:07Z</time>
      </trkpt>
      <trkpt lat="47.26181" lon="7.3822">
        <ele>1002</ele>
        <time>2017-06-11T06:26:13Z</time>
      </trkpt>
      <trkpt lat="47.26178" lon="7.38215">
        <ele>1004</ele>
        <time>2017-06-11T06:26:21Z</time>
      </trkpt>
      <trkpt lat="47.26173" lon="7.38212">
        <ele>1005</ele>
        <time>2017-06-11T06:26:25Z</time>
      </trkpt>
      <trkpt lat="47.26168" lon="7.38208">
        <ele>1006</ele>
        <time>2017-06-11T06:26:29Z</time>
      </trkpt>
      <trkpt lat="47.26164" lon="7.38204">
        <ele>1007</ele>
        <time>2017-06-11T06:26:34Z</time>
      </trkpt>
      <trkpt lat="47.26159" lon="7.38201">
        <ele>1008</ele>
        <time>2017-06-11T06:26:40Z</time>
      </trkpt>
      <trkpt lat="47.26156" lon="7.38196">
        <ele>1009</ele>
        <time>2017-06-11T06:26:45Z</time>
      </trkpt>
      <trkpt lat="47.26152" lon="7.38192">
        <ele>1010</ele>
        <time>2017-06-11T06:26:48Z</time>
      </trkpt>
      <trkpt lat="47.26148" lon="7.3819">
        <ele>1010</ele>
        <time>2017-06-11T06:26:52Z</time>
      </trkpt>
      <trkpt lat="47.26147" lon="7.38199">
        <ele>1011</ele>
        <time>2017-06-11T06:27:08Z</time>
      </trkpt>
      <trkpt lat="47.2615" lon="7.38205">
        <ele>1012</ele>
        <time>2017-06-11T06:27:11Z</time>
      </trkpt>
      <trkpt lat="47.2615" lon="7.38211">
        <ele>1012</ele>
        <time>2017-06-11T06:27:16Z</time>
      </trkpt>
      <trkpt lat="47.26152" lon="7.38222">
        <ele>1013</ele>
        <time>2017-06-11T06:27:25Z</time>
      </trkpt>
      <trkpt lat="47.26154" lon="7.38229">
        <ele>1014</ele>
        <time>2017-06-11T06:27:29Z</time>
      </trkpt>
      <trkpt lat="47.26154" lon="7.38237">
        <ele>1015</ele>
        <time>2017-06-11T06:27:34Z</time>
      </trkpt>
      <trkpt lat="47.26152" lon="7.38246">
        <ele>1016</ele>
        <time>2017-06-11T06:27:43Z</time>
      </trkpt>
      <trkpt lat="47.26152" lon="7.38252">
        <ele>1018</ele>
        <time>2017-06-11T06:27:47Z</time>
      </trkpt>
      <trkpt lat="47.26154" lon="7.38259">
        <ele>1019</ele>
        <time>2017-06-11T06:27:51Z</time>
      </trkpt>
      <trkpt lat="47.26154" lon="7.38267">
        <ele>1020</ele>
        <time>2017-06-11T06:27:55Z</time>
      </trkpt>
      <trkpt lat="47.26154" lon="7.38274">
        <ele>1021</ele>
        <time>2017-06-11T06:27:59Z</time>
      </trkpt>
      <trkpt lat="47.26151" lon="7.38268">
        <ele>1022</ele>
        <time>2017-06-11T06:28:11Z</time>
      </trkpt>
      <trkpt lat="47.26148" lon="7.38261">
        <ele>1023</ele>
        <time>2017-06-11T06:28:18Z</time>
      </trkpt>
      <trkpt lat="47.26146" lon="7.38255">
        <ele>1024</ele>
        <time>2017-06-11T06:28:25Z</time>
      </trkpt>
      <trkpt lat="47.2614" lon="7.38247">
        <ele>1025</ele>
        <time>2017-06-11T06:28:35Z</time>
      </trkpt>
      <trkpt lat="47.26136" lon="7.38243">
        <ele>1026</ele>
        <time>2017-06-11T06:28:42Z</time>
      </trkpt>
      <trkpt lat="47.26132" lon="7.3824">
        <ele>1028</ele>
        <time>2017-06-11T06:28:49Z</time>
      </trkpt>
      <trkpt lat="47.26128" lon="7.38237">
        <ele>1029</ele>
        <time>2017-06-11T06:28:53Z</time>
      </trkpt>
      <trkpt lat="47.26123" lon="7.38233">
        <ele>1030</ele>
        <time>2017-06-11T06:28:58Z</time>
      </trkpt>
      <trkpt lat="47.26119" lon="7.3823">
        <ele>1031</ele>
        <time>2017-06-11T06:29:04Z</time>
      </trkpt>
      <trkpt lat="47.26115" lon="7.38224">
        <ele>1032</ele>
        <time>2017-06-11T06:29:11Z</time>
      </trkpt>
      <trkpt lat="47.26111" lon="7.3822">
        <ele>1033</ele>
        <time>2017-06-11T06:29:15Z</time>
      </trkpt>
      <trkpt lat="47.26109" lon="7.38219">
        <ele>1036</ele>
        <time>2017-06-11T06:29:40Z</time>
      </trkpt>
      <trkpt lat="47.26104" lon="7.38217">
        <ele>1037</ele>
        <time>2017-06-11T06:29:42Z</time>
      </trkpt>
      <trkpt lat="47.26113" lon="7.38219">
        <ele>1042</ele>
        <time>2017-06-11T06:29:47Z</time>
      </trkpt>
      <trkpt lat="47.26118" lon="7.38222">
        <ele>1047</ele>
        <time>2017-06-11T06:29:50Z</time>
      </trkpt>
      <trkpt lat="47.26123" lon="7.38227">
        <ele>1053</ele>
        <time>2017-06-11T06:29:56Z</time>
      </trkpt>
      <trkpt lat="47.26123" lon="7.38234">
        <ele>1059</ele>
        <time>2017-06-11T06:30:02Z</time>
      </trkpt>
      <trkpt lat="47.26122" lon="7.38242">
        <ele>1065</ele>
        <time>2017-06-11T06:30:07Z</time>
      </trkpt>
      <trkpt lat="47.2612" lon="7.38248">
        <ele>1067</ele>
        <time>2017-06-11T06:30:13Z</time>
      </trkpt>
      <trkpt lat="47.26119" lon="7.38257">
        <ele>1068</ele>
        <time>2017-06-11T06:30:19Z</time>
      </trkpt>
      <trkpt lat="47.26117" lon="7.38263">
        <ele>1068</ele>
        <time>2017-06-11T06:30:22Z</time>
      </trkpt>
      <trkpt lat="47.26112" lon="7.38266">
        <ele>1067</ele>
        <time>2017-06-11T06:30:28Z</time>
      </trkpt>
      <trkpt lat="47.26108" lon="7.38261">
        <ele>1065</ele>
        <time>2017-06-11T06:30:38Z</time>
      </trkpt>
      <trkpt lat="47.26105" lon="7.38256">
        <ele>1065</ele>
        <time>2017-06-11T06:30:48Z</time>
      </trkpt>
      <trkpt lat="47.26106" lon="7.38257">
        <ele>1065</ele>
        <time>2017-06-11T06:31:10Z</time>
      </trkpt>
      <trkpt lat="47.26099" lon="7.38306">
        <ele>1073</ele>
        <time>2017-06-11T06:33:11Z</time>
      </trkpt>
      <trkpt lat="47.26094" lon="7.38304">
        <ele>1085</ele>
        <time>2017-06-11T06:33:16Z</time>
      </trkpt>
      <trkpt lat="47.26089" lon="7.38303">
        <ele>1096</ele>
        <time>2017-06-11T06:33:18Z</time>
      </trkpt>
      <trkpt lat="47.26084" lon="7.38304">
        <ele>1106</ele>
        <time>2017-06-11T06:33:20Z</time>
      </trkpt>
      <trkpt lat="47.26084" lon="7.38304">
        <ele>1116</ele>
        <time>2017-06-11T06:33:36Z</time>
      </trkpt>
      <trkpt lat="47.26042" lon="7.38345">
        <ele>1124</ele>
        <time>2017-06-11T06:35:21Z</time>
      </trkpt>
      <trkpt lat="47.2604" lon="7.38336">
        <ele>1129</ele>
        <time>2017-06-11T06:35:23Z</time>
      </trkpt>
      <trkpt lat="47.26037" lon="7.38326">
        <ele>1134</ele>
        <time>2017-06-11T06:35:25Z</time>
      </trkpt>
      <trkpt lat="47.26039" lon="7.38317">
        <ele>1139</ele>
        <time>2017-06-11T06:35:27Z</time>
      </trkpt>
      <trkpt lat="47.26034" lon="7.38311">
        <ele>1144</ele>
        <time>2017-06-11T06:35:32Z</time>
      </trkpt>
      <trkpt lat="47.2603" lon="7.38308">
        <ele>1141</ele>
        <time>2017-06-11T06:35:38Z</time>
      </trkpt>
      <trkpt lat="47.26025" lon="7.38307">
        <ele>1139</ele>
        <time>2017-06-11T06:35:44Z</time>
      </trkpt>
      <trkpt lat="47.2602" lon="7.38309">
        <ele>1136</ele>
        <time>2017-06-11T06:35:53Z</time>
      </trkpt>
      <trkpt lat="47.26014" lon="7.38309">
        <ele>1133</ele>
        <time>2017-06-11T06:35:56Z</time>
      </trkpt>
      <trkpt lat="47.26008" lon="7.3831">
        <ele>1130</ele>
        <time>2017-06-11T06:36:00Z</time>
      </trkpt>
      <trkpt lat="47.26003" lon="7.38309">
        <ele>1130</ele>
        <time>2017-06-11T06:36:07Z</time>
      </trkpt>
      <trkpt lat="47.25998" lon="7.38308">
        <ele>1131</ele>
        <time>2017-06-11T06:36:11Z</time>
      </trkpt>
      <trkpt lat="47.25993" lon="7.38306">
        <ele>1132</ele>
        <time>2017-06-11T06:36:15Z</time>
      </trkpt>
      <trkpt lat="47.25989" lon="7.38303">
        <ele>1134</ele>
        <time>2017-06-11T06:36:19Z</time>
      </trkpt>
      <trkpt lat="47.25984" lon="7.38301">
        <ele>1135</ele>
        <time>2017-06-11T06:36:25Z</time>
      </trkpt>
      <trkpt lat="47.2598" lon="7.383">
        <ele>1136</ele>
        <time>2017-06-11T06:36:30Z</time>
      </trkpt>
      <trkpt lat="47.25974" lon="7.383">
        <ele>1136</ele>
        <time>2017-06-11T06:36:35Z</time>
      </trkpt>
      <trkpt lat="47.25969" lon="7.38299">
        <ele>1137</ele>
        <time>2017-06-11T06:36:40Z</time>
      </trkpt>
      <trkpt lat="47.25965" lon="7.38295">
        <ele>1138</ele>
        <time>2017-06-11T06:36:47Z</time>
      </trkpt>
      <trkpt lat="47.25959" lon="7.38292">
        <ele>1138</ele>
        <time>2017-06-11T06:36:53Z</time>
      </trkpt>
      <trkpt lat="47.25955" lon="7.38293">
        <ele>1139</ele>
        <time>2017-06-11T06:36:58Z</time>
      </trkpt>
      <trkpt lat="47.2595" lon="7.38297">
        <ele>1140</ele>
        <time>2017-06-11T06:37:02Z</time>
      </trkpt>
      <trkpt lat="47.25946" lon="7.383">
        <ele>1141</ele>
        <time>2017-06-11T06:37:07Z</time>
      </trkpt>
      <trkpt lat="47.25943" lon="7.38304">
        <ele>1141</ele>
        <time>2017-06-11T06:37:14Z</time>
      </trkpt>
      <trkpt lat="47.2594" lon="7.3831">
        <ele>1142</ele>
        <time>2017-06-11T06:37:20Z</time>
      </trkpt>
      <trkpt lat="47.25937" lon="7.38315">
        <ele>1142</ele>
        <time>2017-06-11T06:37:27Z</time>
      </trkpt>
      <trkpt lat="47.25934" lon="7.38319">
        <ele>1142</ele>
        <time>2017-06-11T06:37:33Z</time>
      </trkpt>
      <trkpt lat="47.2593" lon="7.38324">
        <ele>1142</ele>
        <time>2017-06-11T06:37:39Z</time>
      </trkpt>
      <trkpt lat="47.25925" lon="7.38324">
        <ele>1143</ele>
        <time>2017-06-11T06:37:48Z</time>
      </trkpt>
      <trkpt lat="47.2592" lon="7.38325">
        <ele>1144</ele>
        <time>2017-06-11T06:37:57Z</time>
      </trkpt>
      <trkpt lat="47.25916" lon="7.3833">
        <ele>1146</ele>
        <time>2017-06-11T06:38:04Z</time>
      </trkpt>
      <trkpt lat="47.25915" lon="7.38337">
        <ele>1148</ele>
        <time>2017-06-11T06:38:13Z</time>
      </trkpt>
      <trkpt lat="47.25914" lon="7.38345">
        <ele>1150</ele>
        <time>2017-06-11T06:38:17Z</time>
      </trkpt>
      <trkpt lat="47.25913" lon="7.38353">
        <ele>1152</ele>
        <time>2017-06-11T06:38:21Z</time>
      </trkpt>
      <trkpt lat="47.25911" lon="7.3836">
        <ele>1153</ele>
        <time>2017-06-11T06:38:25Z</time>
      </trkpt>
      <trkpt lat="47.25909" lon="7.38368">
        <ele>1154</ele>
        <time>2017-06-11T06:38:29Z</time>
      </trkpt>
      <trkpt lat="47.25907" lon="7.38375">
        <ele>1154</ele>
        <time>2017-06-11T06:38:33Z</time>
      </trkpt>
      <trkpt lat="47.25905" lon="7.38383">
        <ele>1155</ele>
        <time>2017-06-11T06:38:37Z</time>
      </trkpt>
      <trkpt lat="47.25903" lon="7.38391">
        <ele>1155</ele>
        <time>2017-06-11T06:38:41Z</time>
      </trkpt>
      <trkpt lat="47.25901" lon="7.38399">
        <ele>1155</ele>
        <time>2017-06-11T06:38:45Z</time>
      </trkpt>
      <trkpt lat="47.25899" lon="7.38406">
        <ele>1156</ele>
        <time>2017-06-11T06:38:49Z</time>
      </trkpt>
      <trkpt lat="47.25897" lon="7.38413">
        <ele>1156</ele>
        <time>2017-06-11T06:38:53Z</time>
      </trkpt>
      <trkpt lat="47.25896" lon="7.3842">
        <ele>1157</ele>
        <time>2017-06-11T06:38:57Z</time>
      </trkpt>
      <trkpt lat="47.25895" lon="7.38427">
        <ele>1157</ele>
        <time>2017-06-11T06:39:02Z</time>
      </trkpt>
      <trkpt lat="47.25894" lon="7.38435">
        <ele>1158</ele>
        <time>2017-06-11T06:39:07Z</time>
      </trkpt>
      <trkpt lat="47.25892" lon="7.38443">
        <ele>1159</ele>
        <time>2017-06-11T06:39:12Z</time>
      </trkpt>
      <trkpt lat="47.2589" lon="7.38449">
        <ele>1160</ele>
        <time>2017-06-11T06:39:16Z</time>
      </trkpt>
      <trkpt lat="47.25889" lon="7.38455">
        <ele>1160</ele>
        <time>2017-06-11T06:39:20Z</time>
      </trkpt>
      <trkpt lat="47.25887" lon="7.38463">
        <ele>1161</ele>
        <time>2017-06-11T06:39:25Z</time>
      </trkpt>
      <trkpt lat="47.25886" lon="7.38471">
        <ele>1162</ele>
        <time>2017-06-11T06:39:29Z</time>
      </trkpt>
      <trkpt lat="47.25884" lon="7.38477">
        <ele>1162</ele>
        <time>2017-06-11T06:39:33Z</time>
      </trkpt>
      <trkpt lat="47.25883" lon="7.38484">
        <ele>1163</ele>
        <time>2017-06-11T06:39:37Z</time>
      </trkpt>
      <trkpt lat="47.25881" lon="7.38491">
        <ele>1164</ele>
        <time>2017-06-11T06:39:41Z</time>
      </trkpt>
      <trkpt lat="47.25879" lon="7.38498">
        <ele>1164</ele>
        <time>2017-06-11T06:39:46Z</time>
      </trkpt>
      <trkpt lat="47.25877" lon="7.38505">
        <ele>1165</ele>
        <time>2017-06-11T06:39:52Z</time>
      </trkpt>
      <trkpt lat="47.25876" lon="7.38512">
        <ele>1166</ele>
        <time>2017-06-11T06:39:56Z</time>
      </trkpt>
      <trkpt lat="47.25876" lon="7.3852">
        <ele>1166</ele>
        <time>2017-06-11T06:40:01Z</time>
      </trkpt>
      <trkpt lat="47.25874" lon="7.38528">
        <ele>1167</ele>
        <time>2017-06-11T06:40:06Z</time>
      </trkpt>
      <trkpt lat="47.25873" lon="7.38535">
        <ele>1168</ele>
        <time>2017-06-11T06:40:11Z</time>
      </trkpt>
      <trkpt lat="47.25872" lon="7.38543">
        <ele>1169</ele>
        <time>2017-06-11T06:40:16Z</time>
      </trkpt>
      <trkpt lat="47.2587" lon="7.38549">
        <ele>1170</ele>
        <time>2017-06-11T06:40:20Z</time>
      </trkpt>
      <trkpt lat="47.25868" lon="7.38556">
        <ele>1171</ele>
        <time>2017-06-11T06:40:25Z</time>
      </trkpt>
      <trkpt lat="47.25867" lon="7.38564">
        <ele>1172</ele>
        <time>2017-06-11T06:40:30Z</time>
      </trkpt>
      <trkpt lat="47.25866" lon="7.38572">
        <ele>1173</ele>
        <time>2017-06-11T06:40:35Z</time>
      </trkpt>
      <trkpt lat="47.25866" lon="7.38579">
        <ele>1173</ele>
        <time>2017-06-11T06:40:40Z</time>
      </trkpt>
      <trkpt lat="47.25865" lon="7.38585">
        <ele>1174</ele>
        <time>2017-06-11T06:40:44Z</time>
      </trkpt>
      <trkpt lat="47.25864" lon="7.38592">
        <ele>1175</ele>
        <time>2017-06-11T06:40:48Z</time>
      </trkpt>
      <trkpt lat="47.2586" lon="7.38595">
        <ele>1176</ele>
        <time>2017-06-11T06:40:53Z</time>
      </trkpt>
      <trkpt lat="47.25856" lon="7.38591">
        <ele>1177</ele>
        <time>2017-06-11T06:40:57Z</time>
      </trkpt>
      <trkpt lat="47.25853" lon="7.38586">
        <ele>1177</ele>
        <time>2017-06-11T06:41:01Z</time>
      </trkpt>
      <trkpt lat="47.2585" lon="7.3858">
        <ele>1178</ele>
        <time>2017-06-11T06:41:05Z</time>
      </trkpt>
      <trkpt lat="47.25847" lon="7.38574">
        <ele>1179</ele>
        <time>2017-06-11T06:41:09Z</time>
      </trkpt>
      <trkpt lat="47.25845" lon="7.38567">
        <ele>1179</ele>
        <time>2017-06-11T06:41:13Z</time>
      </trkpt>
      <trkpt lat="47.25843" lon="7.3856">
        <ele>1179</ele>
        <time>2017-06-11T06:41:17Z</time>
      </trkpt>
      <trkpt lat="47.2584" lon="7.38554">
        <ele>1180</ele>
        <time>2017-06-11T06:41:21Z</time>
      </trkpt>
      <trkpt lat="47.25838" lon="7.38547">
        <ele>1180</ele>
        <time>2017-06-11T06:41:25Z</time>
      </trkpt>
      <trkpt lat="47.25836" lon="7.38539">
        <ele>1180</ele>
        <time>2017-06-11T06:41:29Z</time>
      </trkpt>
      <trkpt lat="47.25835" lon="7.38533">
        <ele>1181</ele>
        <time>2017-06-11T06:41:32Z</time>
      </trkpt>
      <trkpt lat="47.25834" lon="7.38526">
        <ele>1181</ele>
        <time>2017-06-11T06:41:36Z</time>
      </trkpt>
      <trkpt lat="47.25831" lon="7.38518">
        <ele>1182</ele>
        <time>2017-06-11T06:41:40Z</time>
      </trkpt>
      <trkpt lat="47.25829" lon="7.3851">
        <ele>1182</ele>
        <time>2017-06-11T06:41:44Z</time>
      </trkpt>
      <trkpt lat="47.25828" lon="7.38503">
        <ele>1183</ele>
        <time>2017-06-11T06:41:48Z</time>
      </trkpt>
      <trkpt lat="47.25824" lon="7.38494">
        <ele>1183</ele>
        <time>2017-06-11T06:42:07Z</time>
      </trkpt>
      <trkpt lat="47.25821" lon="7.38488">
        <ele>1184</ele>
        <time>2017-06-11T06:42:12Z</time>
      </trkpt>
      <trkpt lat="47.25817" lon="7.38483">
        <ele>1185</ele>
        <time>2017-06-11T06:42:16Z</time>
      </trkpt>
      <trkpt lat="47.25813" lon="7.38478">
        <ele>1185</ele>
        <time>2017-06-11T06:42:20Z</time>
      </trkpt>
      <trkpt lat="47.25811" lon="7.3847">
        <ele>1186</ele>
        <time>2017-06-11T06:42:26Z</time>
      </trkpt>
      <trkpt lat="47.25808" lon="7.38463">
        <ele>1186</ele>
        <time>2017-06-11T06:42:30Z</time>
      </trkpt>
      <trkpt lat="47.25806" lon="7.38456">
        <ele>1187</ele>
        <time>2017-06-11T06:42:36Z</time>
      </trkpt>
      <trkpt lat="47.25805" lon="7.38449">
        <ele>1188</ele>
        <time>2017-06-11T06:42:40Z</time>
      </trkpt>
      <trkpt lat="47.25804" lon="7.38441">
        <ele>1188</ele>
        <time>2017-06-11T06:42:43Z</time>
      </trkpt>
      <trkpt lat="47.25802" lon="7.38434">
        <ele>1189</ele>
        <time>2017-06-11T06:42:46Z</time>
      </trkpt>
      <trkpt lat="47.25801" lon="7.38427">
        <ele>1189</ele>
        <time>2017-06-11T06:42:49Z</time>
      </trkpt>
      <trkpt lat="47.258" lon="7.38419">
        <ele>1189</ele>
        <time>2017-06-11T06:42:52Z</time>
      </trkpt>
      <trkpt lat="47.25799" lon="7.38411">
        <ele>1190</ele>
        <time>2017-06-11T06:42:55Z</time>
      </trkpt>
      <trkpt lat="47.25797" lon="7.38402">
        <ele>1190</ele>
        <time>2017-06-11T06:42:58Z</time>
      </trkpt>
      <trkpt lat="47.25796" lon="7.38392">
        <ele>1190</ele>
        <time>2017-06-11T06:43:01Z</time>
      </trkpt>
      <trkpt lat="47.25794" lon="7.38384">
        <ele>1190</ele>
        <time>2017-06-11T06:43:04Z</time>
      </trkpt>
      <trkpt lat="47.25792" lon="7.38376">
        <ele>1190</ele>
        <time>2017-06-11T06:43:07Z</time>
      </trkpt>
      <trkpt lat="47.25788" lon="7.38369">
        <ele>1190</ele>
        <time>2017-06-11T06:43:11Z</time>
      </trkpt>
      <trkpt lat="47.25785" lon="7.3836">
        <ele>1191</ele>
        <time>2017-06-11T06:43:14Z</time>
      </trkpt>
      <trkpt lat="47.25784" lon="7.38353">
        <ele>1191</ele>
        <time>2017-06-11T06:43:16Z</time>
      </trkpt>
      <trkpt lat="47.25785" lon="7.38345">
        <ele>1191</ele>
        <time>2017-06-11T06:43:18Z</time>
      </trkpt>
      <trkpt lat="47.25785" lon="7.38338">
        <ele>1191</ele>
        <time>2017-06-11T06:43:20Z</time>
      </trkpt>
      <trkpt lat="47.25785" lon="7.3833">
        <ele>1191</ele>
        <time>2017-06-11T06:43:22Z</time>
      </trkpt>
      <trkpt lat="47.25786" lon="7.38323">
        <ele>1191</ele>
        <time>2017-06-11T06:43:24Z</time>
      </trkpt>
      <trkpt lat="47.25787" lon="7.38316">
        <ele>1191</ele>
        <time>2017-06-11T06:43:26Z</time>
      </trkpt>
      <trkpt lat="47.25787" lon="7.38309">
        <ele>1190</ele>
        <time>2017-06-11T06:43:28Z</time>
      </trkpt>
      <trkpt lat="47.25787" lon="7.38302">
        <ele>1190</ele>
        <time>2017-06-11T06:43:30Z</time>
      </trkpt>
      <trkpt lat="47.25788" lon="7.38294">
        <ele>1190</ele>
        <time>2017-06-11T06:43:32Z</time>
      </trkpt>
      <trkpt lat="47.25788" lon="7.38286">
        <ele>1190</ele>
        <time>2017-06-11T06:43:34Z</time>
      </trkpt>
      <trkpt lat="47.25789" lon="7.38279">
        <ele>1190</ele>
        <time>2017-06-11T06:43:36Z</time>
      </trkpt>
      <trkpt lat="47.2579" lon="7.38272">
        <ele>1189</ele>
        <time>2017-06-11T06:43:38Z</time>
      </trkpt>
      <trkpt lat="47.25791" lon="7.38265">
        <ele>1189</ele>
        <time>2017-06-11T06:43:40Z</time>
      </trkpt>
      <trkpt lat="47.25792" lon="7.38255">
        <ele>1189</ele>
        <time>2017-06-11T06:43:43Z</time>
      </trkpt>
      <trkpt lat="47.25793" lon="7.38248">
        <ele>1189</ele>
        <time>2017-06-11T06:43:45Z</time>
      </trkpt>
      <trkpt lat="47.25794" lon="7.38241">
        <ele>1188</ele>
        <time>2017-06-11T06:43:47Z</time>
      </trkpt>
      <trkpt lat="47.25794" lon="7.38234">
        <ele>1188</ele>
        <time>2017-06-11T06:43:49Z</time>
      </trkpt>
      <trkpt lat="47.25795" lon="7.38226">
        <ele>1188</ele>
        <time>2017-06-11T06:43:51Z</time>
      </trkpt>
      <trkpt lat="47.25795" lon="7.38219">
        <ele>1188</ele>
        <time>2017-06-11T06:43:53Z</time>
      </trkpt>
      <trkpt lat="47.25796" lon="7.38211">
        <ele>1188</ele>
        <time>2017-06-11T06:43:55Z</time>
      </trkpt>
      <trkpt lat="47.25796" lon="7.38204">
        <ele>1187</ele>
        <time>2017-06-11T06:43:57Z</time>
      </trkpt>
      <trkpt lat="47.25797" lon="7.38197">
        <ele>1187</ele>
        <time>2017-06-11T06:43:59Z</time>
      </trkpt>
      <trkpt lat="47.25797" lon="7.38189">
        <ele>1187</ele>
        <time>2017-06-11T06:44:01Z</time>
      </trkpt>
      <trkpt lat="47.25797" lon="7.38181">
        <ele>1186</ele>
        <time>2017-06-11T06:44:03Z</time>
      </trkpt>
      <trkpt lat="47.25797" lon="7.38175">
        <ele>1186</ele>
        <time>2017-06-11T06:44:05Z</time>
      </trkpt>
      <trkpt lat="47.25797" lon="7.38168">
        <ele>1186</ele>
        <time>2017-06-11T06:44:07Z</time>
      </trkpt>
      <trkpt lat="47.25797" lon="7.38161">
        <ele>1185</ele>
        <time>2017-06-11T06:44:09Z</time>
      </trkpt>
      <trkpt lat="47.25797" lon="7.38154">
        <ele>1185</ele>
        <time>2017-06-11T06:44:11Z</time>
      </trkpt>
      <trkpt lat="47.25797" lon="7.38146">
        <ele>1185</ele>
        <time>2017-06-11T06:44:13Z</time>
      </trkpt>
      <trkpt lat="47.25797" lon="7.38139">
        <ele>1184</ele>
        <time>2017-06-11T06:44:15Z</time>
      </trkpt>
      <trkpt lat="47.25797" lon="7.38132">
        <ele>1184</ele>
        <time>2017-06-11T06:44:17Z</time>
      </trkpt>
      <trkpt lat="47.25796" lon="7.38126">
        <ele>1184</ele>
        <time>2017-06-11T06:44:19Z</time>
      </trkpt>
      <trkpt lat="47.25794" lon="7.38119">
        <ele>1183</ele>
        <time>2017-06-11T06:44:21Z</time>
      </trkpt>
      <trkpt lat="47.25793" lon="7.38111">
        <ele>1183</ele>
        <time>2017-06-11T06:44:23Z</time>
      </trkpt>
      <trkpt lat="47.2579" lon="7.38105">
        <ele>1183</ele>
        <time>2017-06-11T06:44:25Z</time>
      </trkpt>
      <trkpt lat="47.25788" lon="7.38098">
        <ele>1182</ele>
        <time>2017-06-11T06:44:27Z</time>
      </trkpt>
      <trkpt lat="47.25785" lon="7.38091">
        <ele>1182</ele>
        <time>2017-06-11T06:44:29Z</time>
      </trkpt>
      <trkpt lat="47.25784" lon="7.38085">
        <ele>1181</ele>
        <time>2017-06-11T06:44:31Z</time>
      </trkpt>
      <trkpt lat="47.25781" lon="7.38079">
        <ele>1181</ele>
        <time>2017-06-11T06:44:33Z</time>
      </trkpt>
      <trkpt lat="47.2578" lon="7.38073">
        <ele>1181</ele>
        <time>2017-06-11T06:44:35Z</time>
      </trkpt>
      <trkpt lat="47.25778" lon="7.38066">
        <ele>1181</ele>
        <time>2017-06-11T06:44:37Z</time>
      </trkpt>
      <trkpt lat="47.25777" lon="7.38059">
        <ele>1180</ele>
        <time>2017-06-11T06:44:39Z</time>
      </trkpt>
      <trkpt lat="47.25775" lon="7.38052">
        <ele>1180</ele>
        <time>2017-06-11T06:44:41Z</time>
      </trkpt>
      <trkpt lat="47.25773" lon="7.38046">
        <ele>1180</ele>
        <time>2017-06-11T06:44:43Z</time>
      </trkpt>
      <trkpt lat="47.25772" lon="7.38039">
        <ele>1179</ele>
        <time>2017-06-11T06:44:45Z</time>
      </trkpt>
      <trkpt lat="47.25771" lon="7.38031">
        <ele>1179</ele>
        <time>2017-06-11T06:44:47Z</time>
      </trkpt>
      <trkpt lat="47.25769" lon="7.38024">
        <ele>1179</ele>
        <time>2017-06-11T06:44:49Z</time>
      </trkpt>
      <trkpt lat="47.25768" lon="7.38017">
        <ele>1179</ele>
        <time>2017-06-11T06:44:51Z</time>
      </trkpt>
      <trkpt lat="47.25766" lon="7.3801">
        <ele>1178</ele>
        <time>2017-06-11T06:44:53Z</time>
      </trkpt>
      <trkpt lat="47.25764" lon="7.38003">
        <ele>1178</ele>
        <time>2017-06-11T06:44:55Z</time>
      </trkpt>
      <trkpt lat="47.25762" lon="7.37997">
        <ele>1178</ele>
        <time>2017-06-11T06:44:57Z</time>
      </trkpt>
      <trkpt lat="47.2576" lon="7.37987">
        <ele>1177</ele>
        <time>2017-06-11T06:45:00Z</time>
      </trkpt>
      <trkpt lat="47.25759" lon="7.37981">
        <ele>1177</ele>
        <time>2017-06-11T06:45:02Z</time>
      </trkpt>
      <trkpt lat="47.25757" lon="7.37971">
        <ele>1177</ele>
        <time>2017-06-11T06:45:05Z</time>
      </trkpt>
      <trkpt lat="47.25757" lon="7.37964">
        <ele>1177</ele>
        <time>2017-06-11T06:45:07Z</time>
      </trkpt>
      <trkpt lat="47.25757" lon="7.37956">
        <ele>1176</ele>
        <time>2017-06-11T06:45:10Z</time>
      </trkpt>
      <trkpt lat="47.25756" lon="7.37949">
        <ele>1176</ele>
        <time>2017-06-11T06:45:13Z</time>
      </trkpt>
      <trkpt lat="47.25755" lon="7.37941">
        <ele>1176</ele>
        <time>2017-06-11T06:45:17Z</time>
      </trkpt>
      <trkpt lat="47.25753" lon="7.37934">
        <ele>1175</ele>
        <time>2017-06-11T06:45:21Z</time>
      </trkpt>
      <trkpt lat="47.25751" lon="7.37927">
        <ele>1175</ele>
        <time>2017-06-11T06:45:25Z</time>
      </trkpt>
      <trkpt lat="47.2575" lon="7.3792">
        <ele>1174</ele>
        <time>2017-06-11T06:45:29Z</time>
      </trkpt>
      <trkpt lat="47.25747" lon="7.37912">
        <ele>1174</ele>
        <time>2017-06-11T06:45:33Z</time>
      </trkpt>
      <trkpt lat="47.25745" lon="7.37906">
        <ele>1174</ele>
        <time>2017-06-11T06:45:37Z</time>
      </trkpt>
      <trkpt lat="47.25743" lon="7.379">
        <ele>1174</ele>
        <time>2017-06-11T06:45:41Z</time>
      </trkpt>
      <trkpt lat="47.25741" lon="7.37893">
        <ele>1174</ele>
        <time>2017-06-11T06:45:45Z</time>
      </trkpt>
      <trkpt lat="47.25739" lon="7.37887">
        <ele>1174</ele>
        <time>2017-06-11T06:45:49Z</time>
      </trkpt>
      <trkpt lat="47.25736" lon="7.3788">
        <ele>1174</ele>
        <time>2017-06-11T06:45:53Z</time>
      </trkpt>
      <trkpt lat="47.25733" lon="7.37874">
        <ele>1174</ele>
        <time>2017-06-11T06:45:58Z</time>
      </trkpt>
      <trkpt lat="47.25731" lon="7.37867">
        <ele>1174</ele>
        <time>2017-06-11T06:46:02Z</time>
      </trkpt>
      <trkpt lat="47.25728" lon="7.37861">
        <ele>1174</ele>
        <time>2017-06-11T06:46:06Z</time>
      </trkpt>
      <trkpt lat="47.25726" lon="7.37855">
        <ele>1173</ele>
        <time>2017-06-11T06:46:10Z</time>
      </trkpt>
      <trkpt lat="47.25723" lon="7.37847">
        <ele>1173</ele>
        <time>2017-06-11T06:46:14Z</time>
      </trkpt>
      <trkpt lat="47.2572" lon="7.3784">
        <ele>1173</ele>
        <time>2017-06-11T06:46:18Z</time>
      </trkpt>
      <trkpt lat="47.25717" lon="7.37835">
        <ele>1173</ele>
        <time>2017-06-11T06:46:21Z</time>
      </trkpt>
      <trkpt lat="47.25715" lon="7.37829">
        <ele>1173</ele>
        <time>2017-06-11T06:46:24Z</time>
      </trkpt>
      <trkpt lat="47.25712" lon="7.37822">
        <ele>1173</ele>
        <time>2017-06-11T06:46:28Z</time>
      </trkpt>
      <trkpt lat="47.2571" lon="7.37816">
        <ele>1173</ele>
        <time>2017-06-11T06:46:31Z</time>
      </trkpt>
      <trkpt lat="47.25708" lon="7.37809">
        <ele>1174</ele>
        <time>2017-06-11T06:46:35Z</time>
      </trkpt>
      <trkpt lat="47.25706" lon="7.37801">
        <ele>1174</ele>
        <time>2017-06-11T06:46:39Z</time>
      </trkpt>
      <trkpt lat="47.25704" lon="7.37794">
        <ele>1174</ele>
        <time>2017-06-11T06:46:42Z</time>
      </trkpt>
      <trkpt lat="47.25702" lon="7.37786">
        <ele>1174</ele>
        <time>2017-06-11T06:46:46Z</time>
      </trkpt>
      <trkpt lat="47.25699" lon="7.37779">
        <ele>1174</ele>
        <time>2017-06-11T06:46:50Z</time>
      </trkpt>
      <trkpt lat="47.25695" lon="7.37772">
        <ele>1174</ele>
        <time>2017-06-11T06:46:54Z</time>
      </trkpt>
      <trkpt lat="47.25692" lon="7.37766">
        <ele>1174</ele>
        <time>2017-06-11T06:46:58Z</time>
      </trkpt>
      <trkpt lat="47.25689" lon="7.37759">
        <ele>1174</ele>
        <time>2017-06-11T06:47:02Z</time>
      </trkpt>
      <trkpt lat="47.25687" lon="7.37752">
        <ele>1175</ele>
        <time>2017-06-11T06:47:06Z</time>
      </trkpt>
      <trkpt lat="47.25686" lon="7.37746">
        <ele>1175</ele>
        <time>2017-06-11T06:47:10Z</time>
      </trkpt>
      <trkpt lat="47.25684" lon="7.37739">
        <ele>1175</ele>
        <time>2017-06-11T06:47:14Z</time>
      </trkpt>
      <trkpt lat="47.25683" lon="7.37731">
        <ele>1175</ele>
        <time>2017-06-11T06:47:19Z</time>
      </trkpt>
      <trkpt lat="47.2568" lon="7.37724">
        <ele>1175</ele>
        <time>2017-06-11T06:47:24Z</time>
      </trkpt>
      <trkpt lat="47.25678" lon="7.37717">
        <ele>1176</ele>
        <time>2017-06-11T06:47:29Z</time>
      </trkpt>
      <trkpt lat="47.25676" lon="7.3771">
        <ele>1177</ele>
        <time>2017-06-11T06:47:32Z</time>
      </trkpt>
      <trkpt lat="47.25675" lon="7.37704">
        <ele>1178</ele>
        <time>2017-06-11T06:47:35Z</time>
      </trkpt>
      <trkpt lat="47.25676" lon="7.37696">
        <ele>1179</ele>
        <time>2017-06-11T06:47:40Z</time>
      </trkpt>
      <trkpt lat="47.25676" lon="7.37688">
        <ele>1180</ele>
        <time>2017-06-11T06:47:45Z</time>
      </trkpt>
      <trkpt lat="47.25678" lon="7.37681">
        <ele>1181</ele>
        <time>2017-06-11T06:47:50Z</time>
      </trkpt>
      <trkpt lat="47.25679" lon="7.37675">
        <ele>1183</ele>
        <time>2017-06-11T06:47:55Z</time>
      </trkpt>
      <trkpt lat="47.25682" lon="7.37668">
        <ele>1185</ele>
        <time>2017-06-11T06:48:01Z</time>
      </trkpt>
      <trkpt lat="47.25683" lon="7.37662">
        <ele>1187</ele>
        <time>2017-06-11T06:48:06Z</time>
      </trkpt>
      <trkpt lat="47.25684" lon="7.37655">
        <ele>1189</ele>
        <time>2017-06-11T06:48:11Z</time>
      </trkpt>
      <trkpt lat="47.25682" lon="7.37648">
        <ele>1190</ele>
        <time>2017-06-11T06:48:15Z</time>
      </trkpt>
      <trkpt lat="47.25681" lon="7.37641">
        <ele>1192</ele>
        <time>2017-06-11T06:48:19Z</time>
      </trkpt>
      <trkpt lat="47.2568" lon="7.37634">
        <ele>1193</ele>
        <time>2017-06-11T06:48:23Z</time>
      </trkpt>
      <trkpt lat="47.25679" lon="7.37623">
        <ele>1194</ele>
        <time>2017-06-11T06:48:32Z</time>
      </trkpt>
      <trkpt lat="47.25676" lon="7.37612">
        <ele>1195</ele>
        <time>2017-06-11T06:48:39Z</time>
      </trkpt>
      <trkpt lat="47.25676" lon="7.37605">
        <ele>1197</ele>
        <time>2017-06-11T06:48:43Z</time>
      </trkpt>
      <trkpt lat="47.25674" lon="7.37598">
        <ele>1199</ele>
        <time>2017-06-11T06:48:46Z</time>
      </trkpt>
      <trkpt lat="47.25674" lon="7.3759">
        <ele>1201</ele>
        <time>2017-06-11T06:48:49Z</time>
      </trkpt>
      <trkpt lat="47.25672" lon="7.37582">
        <ele>1202</ele>
        <time>2017-06-11T06:48:53Z</time>
      </trkpt>
      <trkpt lat="47.25671" lon="7.37575">
        <ele>1203</ele>
        <time>2017-06-11T06:48:56Z</time>
      </trkpt>
      <trkpt lat="47.25669" lon="7.37563">
        <ele>1203</ele>
        <time>2017-06-11T06:49:01Z</time>
      </trkpt>
      <trkpt lat="47.25666" lon="7.37557">
        <ele>1204</ele>
        <time>2017-06-11T06:49:04Z</time>
      </trkpt>
      <trkpt lat="47.25664" lon="7.37551">
        <ele>1204</ele>
        <time>2017-06-11T06:49:07Z</time>
      </trkpt>
      <trkpt lat="47.25661" lon="7.37546">
        <ele>1203</ele>
        <time>2017-06-11T06:49:09Z</time>
      </trkpt>
      <trkpt lat="47.25657" lon="7.3754">
        <ele>1203</ele>
        <time>2017-06-11T06:49:12Z</time>
      </trkpt>
      <trkpt lat="47.25654" lon="7.37536">
        <ele>1203</ele>
        <time>2017-06-11T06:49:15Z</time>
      </trkpt>
      <trkpt lat="47.25649" lon="7.37531">
        <ele>1204</ele>
        <time>2017-06-11T06:49:19Z</time>
      </trkpt>
      <trkpt lat="47.25645" lon="7.37526">
        <ele>1205</ele>
        <time>2017-06-11T06:49:22Z</time>
      </trkpt>
      <trkpt lat="47.2564" lon="7.37523">
        <ele>1206</ele>
        <time>2017-06-11T06:49:27Z</time>
      </trkpt>
      <trkpt lat="47.25636" lon="7.3752">
        <ele>1208</ele>
        <time>2017-06-11T06:49:32Z</time>
      </trkpt>
      <trkpt lat="47.25634" lon="7.37512">
        <ele>1209</ele>
        <time>2017-06-11T06:49:35Z</time>
      </trkpt>
      <trkpt lat="47.25632" lon="7.37503">
        <ele>1211</ele>
        <time>2017-06-11T06:49:38Z</time>
      </trkpt>
      <trkpt lat="47.25632" lon="7.37494">
        <ele>1211</ele>
        <time>2017-06-11T06:49:53Z</time>
      </trkpt>
      <trkpt lat="47.25627" lon="7.37488">
        <ele>1211</ele>
        <time>2017-06-11T06:49:58Z</time>
      </trkpt>
      <trkpt lat="47.25622" lon="7.37484">
        <ele>1210</ele>
        <time>2017-06-11T06:50:02Z</time>
      </trkpt>
      <trkpt lat="47.25617" lon="7.37481">
        <ele>1209</ele>
        <time>2017-06-11T06:50:06Z</time>
      </trkpt>
      <trkpt lat="47.25612" lon="7.37478">
        <ele>1209</ele>
        <time>2017-06-11T06:50:10Z</time>
      </trkpt>
      <trkpt lat="47.25607" lon="7.37474">
        <ele>1208</ele>
        <time>2017-06-11T06:50:14Z</time>
      </trkpt>
      <trkpt lat="47.25602" lon="7.3747">
        <ele>1208</ele>
        <time>2017-06-11T06:50:17Z</time>
      </trkpt>
      <trkpt lat="47.25598" lon="7.37468">
        <ele>1208</ele>
        <time>2017-06-11T06:50:20Z</time>
      </trkpt>
      <trkpt lat="47.25593" lon="7.37465">
        <ele>1208</ele>
        <time>2017-06-11T06:50:23Z</time>
      </trkpt>
      <trkpt lat="47.25588" lon="7.37463">
        <ele>1208</ele>
        <time>2017-06-11T06:50:26Z</time>
      </trkpt>
      <trkpt lat="47.25584" lon="7.37462">
        <ele>1207</ele>
        <time>2017-06-11T06:50:29Z</time>
      </trkpt>
      <trkpt lat="47.25579" lon="7.37461">
        <ele>1207</ele>
        <time>2017-06-11T06:50:32Z</time>
      </trkpt>
      <trkpt lat="47.25574" lon="7.3746">
        <ele>1207</ele>
        <time>2017-06-11T06:50:35Z</time>
      </trkpt>
      <trkpt lat="47.25569" lon="7.37459">
        <ele>1207</ele>
        <time>2017-06-11T06:50:38Z</time>
      </trkpt>
      <trkpt lat="47.25565" lon="7.37459">
        <ele>1207</ele>
        <time>2017-06-11T06:50:41Z</time>
      </trkpt>
      <trkpt lat="47.2556" lon="7.37458">
        <ele>1208</ele>
        <time>2017-06-11T06:50:44Z</time>
      </trkpt>
      <trkpt lat="47.25555" lon="7.37458">
        <ele>1208</ele>
        <time>2017-06-11T06:50:47Z</time>
      </trkpt>
      <trkpt lat="47.25551" lon="7.37459">
        <ele>1208</ele>
        <time>2017-06-11T06:50:50Z</time>
      </trkpt>
      <trkpt lat="47.25546" lon="7.3746">
        <ele>1208</ele>
        <time>2017-06-11T06:50:53Z</time>
      </trkpt>
      <trkpt lat="47.25541" lon="7.37461">
        <ele>1208</ele>
        <time>2017-06-11T06:50:56Z</time>
      </trkpt>
      <trkpt lat="47.25535" lon="7.37462">
        <ele>1208</ele>
        <time>2017-06-11T06:50:59Z</time>
      </trkpt>
      <trkpt lat="47.25529" lon="7.37463">
        <ele>1209</ele>
        <time>2017-06-11T06:51:02Z</time>
      </trkpt>
      <trkpt lat="47.25523" lon="7.37466">
        <ele>1209</ele>
        <time>2017-06-11T06:51:05Z</time>
      </trkpt>
      <trkpt lat="47.25517" lon="7.37468">
        <ele>1209</ele>
        <time>2017-06-11T06:51:08Z</time>
      </trkpt>
      <trkpt lat="47.2551" lon="7.3747">
        <ele>1209</ele>
        <time>2017-06-11T06:51:11Z</time>
      </trkpt>
      <trkpt lat="47.25505" lon="7.37473">
        <ele>1209</ele>
        <time>2017-06-11T06:51:14Z</time>
      </trkpt>
      <trkpt lat="47.255" lon="7.37476">
        <ele>1210</ele>
        <time>2017-06-11T06:51:17Z</time>
      </trkpt>
      <trkpt lat="47.25496" lon="7.37479">
        <ele>1210</ele>
        <time>2017-06-11T06:51:20Z</time>
      </trkpt>
      <trkpt lat="47.25491" lon="7.37482">
        <ele>1210</ele>
        <time>2017-06-11T06:51:23Z</time>
      </trkpt>
      <trkpt lat="47.25486" lon="7.37485">
        <ele>1210</ele>
        <time>2017-06-11T06:51:26Z</time>
      </trkpt>
      <trkpt lat="47.2548" lon="7.37489">
        <ele>1211</ele>
        <time>2017-06-11T06:51:29Z</time>
      </trkpt>
      <trkpt lat="47.25476" lon="7.37493">
        <ele>1211</ele>
        <time>2017-06-11T06:51:32Z</time>
      </trkpt>
      <trkpt lat="47.25472" lon="7.37497">
        <ele>1211</ele>
        <time>2017-06-11T06:51:35Z</time>
      </trkpt>
      <trkpt lat="47.25466" lon="7.37501">
        <ele>1211</ele>
        <time>2017-06-11T06:51:38Z</time>
      </trkpt>
      <trkpt lat="47.25461" lon="7.37507">
        <ele>1212</ele>
        <time>2017-06-11T06:51:41Z</time>
      </trkpt>
      <trkpt lat="47.25458" lon="7.37514">
        <ele>1212</ele>
        <time>2017-06-11T06:51:44Z</time>
      </trkpt>
      <trkpt lat="47.25455" lon="7.37522">
        <ele>1212</ele>
        <time>2017-06-11T06:51:47Z</time>
      </trkpt>
      <trkpt lat="47.25454" lon="7.37529">
        <ele>1212</ele>
        <time>2017-06-11T06:51:50Z</time>
      </trkpt>
      <trkpt lat="47.2545" lon="7.37535">
        <ele>1212</ele>
        <time>2017-06-11T06:51:53Z</time>
      </trkpt>
      <trkpt lat="47.25446" lon="7.37542">
        <ele>1212</ele>
        <time>2017-06-11T06:51:56Z</time>
      </trkpt>
      <trkpt lat="47.25443" lon="7.37548">
        <ele>1212</ele>
        <time>2017-06-11T06:52:00Z</time>
      </trkpt>
      <trkpt lat="47.2544" lon="7.37555">
        <ele>1213</ele>
        <time>2017-06-11T06:52:04Z</time>
      </trkpt>
      <trkpt lat="47.2544" lon="7.37562">
        <ele>1213</ele>
        <time>2017-06-11T06:52:07Z</time>
      </trkpt>
      <trkpt lat="47.25437" lon="7.37568">
        <ele>1213</ele>
        <time>2017-06-11T06:52:11Z</time>
      </trkpt>
      <trkpt lat="47.25434" lon="7.37574">
        <ele>1213</ele>
        <time>2017-06-11T06:52:14Z</time>
      </trkpt>
      <trkpt lat="47.25431" lon="7.3758">
        <ele>1213</ele>
        <time>2017-06-11T06:52:17Z</time>
      </trkpt>
      <trkpt lat="47.25427" lon="7.37585">
        <ele>1212</ele>
        <time>2017-06-11T06:52:20Z</time>
      </trkpt>
      <trkpt lat="47.25423" lon="7.37591">
        <ele>1212</ele>
        <time>2017-06-11T06:52:23Z</time>
      </trkpt>
      <trkpt lat="47.25419" lon="7.37596">
        <ele>1212</ele>
        <time>2017-06-11T06:52:26Z</time>
      </trkpt>
      <trkpt lat="47.25414" lon="7.37602">
        <ele>1212</ele>
        <time>2017-06-11T06:52:29Z</time>
      </trkpt>
      <trkpt lat="47.2541" lon="7.37609">
        <ele>1212</ele>
        <time>2017-06-11T06:52:31Z</time>
      </trkpt>
      <trkpt lat="47.25407" lon="7.37615">
        <ele>1212</ele>
        <time>2017-06-11T06:52:33Z</time>
      </trkpt>
      <trkpt lat="47.25406" lon="7.37621">
        <ele>1212</ele>
        <time>2017-06-11T06:52:35Z</time>
      </trkpt>
      <trkpt lat="47.25403" lon="7.37628">
        <ele>1213</ele>
        <time>2017-06-11T06:52:37Z</time>
      </trkpt>
      <trkpt lat="47.25399" lon="7.37634">
        <ele>1213</ele>
        <time>2017-06-11T06:52:39Z</time>
      </trkpt>
      <trkpt lat="47.25396" lon="7.3764">
        <ele>1213</ele>
        <time>2017-06-11T06:52:41Z</time>
      </trkpt>
      <trkpt lat="47.25395" lon="7.37646">
        <ele>1213</ele>
        <time>2017-06-11T06:52:43Z</time>
      </trkpt>
      <trkpt lat="47.25394" lon="7.37653">
        <ele>1213</ele>
        <time>2017-06-11T06:52:45Z</time>
      </trkpt>
      <trkpt lat="47.25393" lon="7.37663">
        <ele>1213</ele>
        <time>2017-06-11T06:52:48Z</time>
      </trkpt>
      <trkpt lat="47.25393" lon="7.37669">
        <ele>1213</ele>
        <time>2017-06-11T06:52:50Z</time>
      </trkpt>
      <trkpt lat="47.25392" lon="7.37676">
        <ele>1213</ele>
        <time>2017-06-11T06:52:52Z</time>
      </trkpt>
      <trkpt lat="47.25391" lon="7.37686">
        <ele>1212</ele>
        <time>2017-06-11T06:52:54Z</time>
      </trkpt>
      <trkpt lat="47.25392" lon="7.37693">
        <ele>1212</ele>
        <time>2017-06-11T06:52:55Z</time>
      </trkpt>
      <trkpt lat="47.25394" lon="7.377">
        <ele>1212</ele>
        <time>2017-06-11T06:52:56Z</time>
      </trkpt>
      <trkpt lat="47.25393" lon="7.3771">
        <ele>1212</ele>
        <time>2017-06-11T06:52:58Z</time>
      </trkpt>
      <trkpt lat="47.25391" lon="7.37719">
        <ele>1211</ele>
        <time>2017-06-11T06:53:00Z</time>
      </trkpt>
      <trkpt lat="47.25393" lon="7.37727">
        <ele>1210</ele>
        <time>2017-06-11T06:53:08Z</time>
      </trkpt>
      <trkpt lat="47.25388" lon="7.37726">
        <ele>1209</ele>
        <time>2017-06-11T06:53:11Z</time>
      </trkpt>
      <trkpt lat="47.25383" lon="7.37725">
        <ele>1207</ele>
        <time>2017-06-11T06:53:16Z</time>
      </trkpt>
      <trkpt lat="47.25377" lon="7.37724">
        <ele>1206</ele>
        <time>2017-06-11T06:53:18Z</time>
      </trkpt>
      <trkpt lat="47.25372" lon="7.37722">
        <ele>1205</ele>
        <time>2017-06-11T06:53:20Z</time>
      </trkpt>
      <trkpt lat="47.25367" lon="7.3772">
        <ele>1204</ele>
        <time>2017-06-11T06:53:22Z</time>
      </trkpt>
      <trkpt lat="47.25361" lon="7.37717">
        <ele>1204</ele>
        <time>2017-06-11T06:53:24Z</time>
      </trkpt>
      <trkpt lat="47.25356" lon="7.37716">
        <ele>1203</ele>
        <time>2017-06-11T06:53:26Z</time>
      </trkpt>
      <trkpt lat="47.2535" lon="7.37713">
        <ele>1203</ele>
        <time>2017-06-11T06:53:29Z</time>
      </trkpt>
      <trkpt lat="47.25345" lon="7.37711">
        <ele>1203</ele>
        <time>2017-06-11T06:53:31Z</time>
      </trkpt>
      <trkpt lat="47.2534" lon="7.37712">
        <ele>1203</ele>
        <time>2017-06-11T06:53:34Z</time>
      </trkpt>
      <trkpt lat="47.25334" lon="7.37714">
        <ele>1203</ele>
        <time>2017-06-11T06:53:37Z</time>
      </trkpt>
      <trkpt lat="47.25328" lon="7.37717">
        <ele>1203</ele>
        <time>2017-06-11T06:53:40Z</time>
      </trkpt>
      <trkpt lat="47.25322" lon="7.37719">
        <ele>1203</ele>
        <time>2017-06-11T06:53:43Z</time>
      </trkpt>
      <trkpt lat="47.25317" lon="7.37721">
        <ele>1202</ele>
        <time>2017-06-11T06:53:46Z</time>
      </trkpt>
      <trkpt lat="47.25312" lon="7.37723">
        <ele>1202</ele>
        <time>2017-06-11T06:53:54Z</time>
      </trkpt>
      <trkpt lat="47.25307" lon="7.37728">
        <ele>1201</ele>
        <time>2017-06-11T06:53:57Z</time>
      </trkpt>
      <trkpt lat="47.25301" lon="7.37733">
        <ele>1201</ele>
        <time>2017-06-11T06:54:00Z</time>
      </trkpt>
      <trkpt lat="47.25297" lon="7.37736">
        <ele>1200</ele>
        <time>2017-06-11T06:54:02Z</time>
      </trkpt>
      <trkpt lat="47.25292" lon="7.37741">
        <ele>1199</ele>
        <time>2017-06-11T06:54:04Z</time>
      </trkpt>
      <trkpt lat="47.25288" lon="7.37745">
        <ele>1198</ele>
        <time>2017-06-11T06:54:06Z</time>
      </trkpt>
      <trkpt lat="47.25283" lon="7.37751">
        <ele>1198</ele>
        <time>2017-06-11T06:54:09Z</time>
      </trkpt>
      <trkpt lat="47.25279" lon="7.37755">
        <ele>1198</ele>
        <time>2017-06-11T06:54:11Z</time>
      </trkpt>
      <trkpt lat="47.25274" lon="7.3776">
        <ele>1197</ele>
        <time>2017-06-11T06:54:13Z</time>
      </trkpt>
      <trkpt lat="47.25271" lon="7.37764">
        <ele>1197</ele>
        <time>2017-06-11T06:54:15Z</time>
      </trkpt>
      <trkpt lat="47.25266" lon="7.37768">
        <ele>1196</ele>
        <time>2017-06-11T06:54:17Z</time>
      </trkpt>
      <trkpt lat="47.25261" lon="7.37772">
        <ele>1195</ele>
        <time>2017-06-11T06:54:19Z</time>
      </trkpt>
      <trkpt lat="47.25256" lon="7.37779">
        <ele>1194</ele>
        <time>2017-06-11T06:54:22Z</time>
      </trkpt>
      <trkpt lat="47.25253" lon="7.37787">
        <ele>1193</ele>
        <time>2017-06-11T06:54:25Z</time>
      </trkpt>
      <trkpt lat="47.25251" lon="7.37796">
        <ele>1192</ele>
        <time>2017-06-11T06:54:28Z</time>
      </trkpt>
      <trkpt lat="47.25251" lon="7.37805">
        <ele>1191</ele>
        <time>2017-06-11T06:54:31Z</time>
      </trkpt>
      <trkpt lat="47.2525" lon="7.37813">
        <ele>1190</ele>
        <time>2017-06-11T06:54:34Z</time>
      </trkpt>
      <trkpt lat="47.2525" lon="7.37822">
        <ele>1189</ele>
        <time>2017-06-11T06:54:37Z</time>
      </trkpt>
      <trkpt lat="47.25249" lon="7.37831">
        <ele>1189</ele>
        <time>2017-06-11T06:54:40Z</time>
      </trkpt>
      <trkpt lat="47.25247" lon="7.3784">
        <ele>1189</ele>
        <time>2017-06-11T06:54:43Z</time>
      </trkpt>
      <trkpt lat="47.25245" lon="7.37848">
        <ele>1189</ele>
        <time>2017-06-11T06:54:46Z</time>
      </trkpt>
      <trkpt lat="47.25242" lon="7.37857">
        <ele>1189</ele>
        <time>2017-06-11T06:54:49Z</time>
      </trkpt>
      <trkpt lat="47.2524" lon="7.37864">
        <ele>1189</ele>
        <time>2017-06-11T06:54:52Z</time>
      </trkpt>
      <trkpt lat="47.25238" lon="7.37872">
        <ele>1189</ele>
        <time>2017-06-11T06:54:55Z</time>
      </trkpt>
      <trkpt lat="47.25235" lon="7.37879">
        <ele>1189</ele>
        <time>2017-06-11T06:54:58Z</time>
      </trkpt>
      <trkpt lat="47.25232" lon="7.37884">
        <ele>1189</ele>
        <time>2017-06-11T06:55:00Z</time>
      </trkpt>
      <trkpt lat="47.2523" lon="7.37891">
        <ele>1189</ele>
        <time>2017-06-11T06:55:02Z</time>
      </trkpt>
      <trkpt lat="47.25231" lon="7.37901">
        <ele>1189</ele>
        <time>2017-06-11T06:55:04Z</time>
      </trkpt>
      <trkpt lat="47.25232" lon="7.37909">
        <ele>1189</ele>
        <time>2017-06-11T06:55:06Z</time>
      </trkpt>
      <trkpt lat="47.25232" lon="7.37918">
        <ele>1188</ele>
        <time>2017-06-11T06:55:08Z</time>
      </trkpt>
      <trkpt lat="47.25232" lon="7.37925">
        <ele>1188</ele>
        <time>2017-06-11T06:55:10Z</time>
      </trkpt>
      <trkpt lat="47.25233" lon="7.37934">
        <ele>1187</ele>
        <time>2017-06-11T06:55:12Z</time>
      </trkpt>
      <trkpt lat="47.25233" lon="7.37941">
        <ele>1187</ele>
        <time>2017-06-11T06:55:14Z</time>
      </trkpt>
      <trkpt lat="47.25233" lon="7.37949">
        <ele>1187</ele>
        <time>2017-06-11T06:55:16Z</time>
      </trkpt>
      <trkpt lat="47.25233" lon="7.37956">
        <ele>1187</ele>
        <time>2017-06-11T06:55:18Z</time>
      </trkpt>
      <trkpt lat="47.25234" lon="7.37964">
        <ele>1186</ele>
        <time>2017-06-11T06:55:20Z</time>
      </trkpt>
      <trkpt lat="47.25233" lon="7.37973">
        <ele>1186</ele>
        <time>2017-06-11T06:55:22Z</time>
      </trkpt>
      <trkpt lat="47.25233" lon="7.37982">
        <ele>1185</ele>
        <time>2017-06-11T06:55:24Z</time>
      </trkpt>
      <trkpt lat="47.25233" lon="7.3799">
        <ele>1185</ele>
        <time>2017-06-11T06:55:26Z</time>
      </trkpt>
      <trkpt lat="47.25233" lon="7.37997">
        <ele>1184</ele>
        <time>2017-06-11T06:55:28Z</time>
      </trkpt>
      <trkpt lat="47.25231" lon="7.38005">
        <ele>1184</ele>
        <time>2017-06-11T06:55:30Z</time>
      </trkpt>
      <trkpt lat="47.25229" lon="7.38011">
        <ele>1183</ele>
        <time>2017-06-11T06:55:32Z</time>
      </trkpt>
      <trkpt lat="47.25227" lon="7.38019">
        <ele>1183</ele>
        <time>2017-06-11T06:55:34Z</time>
      </trkpt>
      <trkpt lat="47.25225" lon="7.38027">
        <ele>1182</ele>
        <time>2017-06-11T06:55:36Z</time>
      </trkpt>
      <trkpt lat="47.25223" lon="7.38034">
        <ele>1181</ele>
        <time>2017-06-11T06:55:38Z</time>
      </trkpt>
      <trkpt lat="47.25222" lon="7.38041">
        <ele>1180</ele>
        <time>2017-06-11T06:55:40Z</time>
      </trkpt>
      <trkpt lat="47.2522" lon="7.38048">
        <ele>1179</ele>
        <time>2017-06-11T06:55:42Z</time>
      </trkpt>
      <trkpt lat="47.25219" lon="7.38055">
        <ele>1178</ele>
        <time>2017-06-11T06:55:44Z</time>
      </trkpt>
      <trkpt lat="47.25217" lon="7.38062">
        <ele>1177</ele>
        <time>2017-06-11T06:55:46Z</time>
      </trkpt>
      <trkpt lat="47.25215" lon="7.38072">
        <ele>1176</ele>
        <time>2017-06-11T06:55:49Z</time>
      </trkpt>
      <trkpt lat="47.25214" lon="7.38079">
        <ele>1176</ele>
        <time>2017-06-11T06:55:51Z</time>
      </trkpt>
      <trkpt lat="47.25213" lon="7.38086">
        <ele>1175</ele>
        <time>2017-06-11T06:55:53Z</time>
      </trkpt>
      <trkpt lat="47.25212" lon="7.38093">
        <ele>1174</ele>
        <time>2017-06-11T06:55:55Z</time>
      </trkpt>
      <trkpt lat="47.2521" lon="7.381">
        <ele>1172</ele>
        <time>2017-06-11T06:55:57Z</time>
      </trkpt>
      <trkpt lat="47.25207" lon="7.38107">
        <ele>1171</ele>
        <time>2017-06-11T06:55:59Z</time>
      </trkpt>
      <trkpt lat="47.25205" lon="7.38116">
        <ele>1170</ele>
        <time>2017-06-11T06:56:02Z</time>
      </trkpt>
      <trkpt lat="47.25203" lon="7.38122">
        <ele>1169</ele>
        <time>2017-06-11T06:56:04Z</time>
      </trkpt>
      <trkpt lat="47.252" lon="7.38128">
        <ele>1168</ele>
        <time>2017-06-11T06:56:06Z</time>
      </trkpt>
      <trkpt lat="47.25198" lon="7.38137">
        <ele>1167</ele>
        <time>2017-06-11T06:56:09Z</time>
      </trkpt>
      <trkpt lat="47.25197" lon="7.38144">
        <ele>1166</ele>
        <time>2017-06-11T06:56:12Z</time>
      </trkpt>
      <trkpt lat="47.25196" lon="7.38151">
        <ele>1165</ele>
        <time>2017-06-11T06:56:15Z</time>
      </trkpt>
      <trkpt lat="47.25194" lon="7.38158">
        <ele>1165</ele>
        <time>2017-06-11T06:56:18Z</time>
      </trkpt>
      <trkpt lat="47.25192" lon="7.38164">
        <ele>1164</ele>
        <time>2017-06-11T06:56:21Z</time>
      </trkpt>
      <trkpt lat="47.25188" lon="7.3817">
        <ele>1164</ele>
        <time>2017-06-11T06:56:24Z</time>
      </trkpt>
      <trkpt lat="47.25184" lon="7.38175">
        <ele>1164</ele>
        <time>2017-06-11T06:56:27Z</time>
      </trkpt>
      <trkpt lat="47.25182" lon="7.38182">
        <ele>1164</ele>
        <time>2017-06-11T06:56:31Z</time>
      </trkpt>
      <trkpt lat="47.25179" lon="7.38193">
        <ele>1163</ele>
        <time>2017-06-11T06:56:35Z</time>
      </trkpt>
      <trkpt lat="47.25176" lon="7.38198">
        <ele>1163</ele>
        <time>2017-06-11T06:56:38Z</time>
      </trkpt>
      <trkpt lat="47.25172" lon="7.38205">
        <ele>1162</ele>
        <time>2017-06-11T06:56:43Z</time>
      </trkpt>
      <trkpt lat="47.25169" lon="7.38212">
        <ele>1161</ele>
        <time>2017-06-11T06:56:47Z</time>
      </trkpt>
      <trkpt lat="47.25165" lon="7.38218">
        <ele>1160</ele>
        <time>2017-06-11T06:56:51Z</time>
      </trkpt>
      <trkpt lat="47.25161" lon="7.38223">
        <ele>1159</ele>
        <time>2017-06-11T06:56:54Z</time>
      </trkpt>
      <trkpt lat="47.25157" lon="7.38229">
        <ele>1158</ele>
        <time>2017-06-11T06:56:57Z</time>
      </trkpt>
      <trkpt lat="47.25154" lon="7.38234">
        <ele>1158</ele>
        <time>2017-06-11T06:56:59Z</time>
      </trkpt>
      <trkpt lat="47.2515" lon="7.38241">
        <ele>1157</ele>
        <time>2017-06-11T06:57:02Z</time>
      </trkpt>
      <trkpt lat="47.25145" lon="7.38247">
        <ele>1156</ele>
        <time>2017-06-11T06:57:05Z</time>
      </trkpt>
      <trkpt lat="47.25142" lon="7.38252">
        <ele>1156</ele>
        <time>2017-06-11T06:57:07Z</time>
      </trkpt>
      <trkpt lat="47.25139" lon="7.3826">
        <ele>1155</ele>
        <time>2017-06-11T06:57:10Z</time>
      </trkpt>
      <trkpt lat="47.25137" lon="7.38266">
        <ele>1155</ele>
        <time>2017-06-11T06:57:12Z</time>
      </trkpt>
      <trkpt lat="47.25135" lon="7.38272">
        <ele>1155</ele>
        <time>2017-06-11T06:57:14Z</time>
      </trkpt>
      <trkpt lat="47.25132" lon="7.38282">
        <ele>1154</ele>
        <time>2017-06-11T06:57:17Z</time>
      </trkpt>
      <trkpt lat="47.25131" lon="7.38288">
        <ele>1154</ele>
        <time>2017-06-11T06:57:19Z</time>
      </trkpt>
      <trkpt lat="47.25129" lon="7.38295">
        <ele>1154</ele>
        <time>2017-06-11T06:57:21Z</time>
      </trkpt>
      <trkpt lat="47.25127" lon="7.38302">
        <ele>1154</ele>
        <time>2017-06-11T06:57:23Z</time>
      </trkpt>
      <trkpt lat="47.25127" lon="7.3831">
        <ele>1153</ele>
        <time>2017-06-11T06:57:25Z</time>
      </trkpt>
      <trkpt lat="47.25126" lon="7.38317">
        <ele>1153</ele>
        <time>2017-06-11T06:57:27Z</time>
      </trkpt>
      <trkpt lat="47.25124" lon="7.38324">
        <ele>1152</ele>
        <time>2017-06-11T06:57:29Z</time>
      </trkpt>
      <trkpt lat="47.25122" lon="7.3833">
        <ele>1152</ele>
        <time>2017-06-11T06:57:31Z</time>
      </trkpt>
      <trkpt lat="47.2512" lon="7.38338">
        <ele>1151</ele>
        <time>2017-06-11T06:57:33Z</time>
      </trkpt>
      <trkpt lat="47.25118" lon="7.38345">
        <ele>1151</ele>
        <time>2017-06-11T06:57:35Z</time>
      </trkpt>
      <trkpt lat="47.25117" lon="7.38351">
        <ele>1150</ele>
        <time>2017-06-11T06:57:37Z</time>
      </trkpt>
      <trkpt lat="47.25116" lon="7.38361">
        <ele>1149</ele>
        <time>2017-06-11T06:57:40Z</time>
      </trkpt>
      <trkpt lat="47.25115" lon="7.38368">
        <ele>1149</ele>
        <time>2017-06-11T06:57:42Z</time>
      </trkpt>
      <trkpt lat="47.25114" lon="7.38378">
        <ele>1148</ele>
        <time>2017-06-11T06:57:45Z</time>
      </trkpt>
      <trkpt lat="47.25113" lon="7.38389">
        <ele>1148</ele>
        <time>2017-06-11T06:57:47Z</time>
      </trkpt>
      <trkpt lat="47.25111" lon="7.38399">
        <ele>1147</ele>
        <time>2017-06-11T06:57:49Z</time>
      </trkpt>
      <trkpt lat="47.25108" lon="7.38405">
        <ele>1146</ele>
        <time>2017-06-11T06:57:52Z</time>
      </trkpt>
      <trkpt lat="47.25103" lon="7.38403">
        <ele>1145</ele>
        <time>2017-06-11T06:58:02Z</time>
      </trkpt>
      <trkpt lat="47.251" lon="7.38398">
        <ele>1144</ele>
        <time>2017-06-11T06:58:05Z</time>
      </trkpt>
      <trkpt lat="47.251" lon="7.38389">
        <ele>1143</ele>
        <time>2017-06-11T06:58:08Z</time>
      </trkpt>
      <trkpt lat="47.251" lon="7.38381">
        <ele>1142</ele>
        <time>2017-06-11T06:58:11Z</time>
      </trkpt>
      <trkpt lat="47.25097" lon="7.38376">
        <ele>1142</ele>
        <time>2017-06-11T06:58:15Z</time>
      </trkpt>
      <trkpt lat="47.25093" lon="7.38378">
        <ele>1141</ele>
        <time>2017-06-11T06:58:21Z</time>
      </trkpt>
      <trkpt lat="47.25091" lon="7.38384">
        <ele>1140</ele>
        <time>2017-06-11T06:58:25Z</time>
      </trkpt>
      <trkpt lat="47.25087" lon="7.38389">
        <ele>1138</ele>
        <time>2017-06-11T06:58:28Z</time>
      </trkpt>
      <trkpt lat="47.25085" lon="7.38397">
        <ele>1137</ele>
        <time>2017-06-11T06:58:32Z</time>
      </trkpt>
      <trkpt lat="47.25084" lon="7.38404">
        <ele>1136</ele>
        <time>2017-06-11T06:58:35Z</time>
      </trkpt>
      <trkpt lat="47.25079" lon="7.38411">
        <ele>1136</ele>
        <time>2017-06-11T06:58:38Z</time>
      </trkpt>
      <trkpt lat="47.25076" lon="7.38417">
        <ele>1136</ele>
        <time>2017-06-11T06:58:40Z</time>
      </trkpt>
      <trkpt lat="47.25074" lon="7.38423">
        <ele>1135</ele>
        <time>2017-06-11T06:58:42Z</time>
      </trkpt>
      <trkpt lat="47.25074" lon="7.38432">
        <ele>1135</ele>
        <time>2017-06-11T06:58:45Z</time>
      </trkpt>
      <trkpt lat="47.25074" lon="7.38442">
        <ele>1134</ele>
        <time>2017-06-11T06:58:48Z</time>
      </trkpt>
      <trkpt lat="47.25073" lon="7.38448">
        <ele>1133</ele>
        <time>2017-06-11T06:58:50Z</time>
      </trkpt>
      <trkpt lat="47.25072" lon="7.38457">
        <ele>1132</ele>
        <time>2017-06-11T06:58:53Z</time>
      </trkpt>
      <trkpt lat="47.25072" lon="7.38463">
        <ele>1132</ele>
        <time>2017-06-11T06:58:55Z</time>
      </trkpt>
      <trkpt lat="47.25071" lon="7.3847">
        <ele>1131</ele>
        <time>2017-06-11T06:58:57Z</time>
      </trkpt>
      <trkpt lat="47.25071" lon="7.38478">
        <ele>1130</ele>
        <time>2017-06-11T06:59:00Z</time>
      </trkpt>
      <trkpt lat="47.25066" lon="7.38485">
        <ele>1130</ele>
        <time>2017-06-11T06:59:03Z</time>
      </trkpt>
      <trkpt lat="47.25065" lon="7.38492">
        <ele>1129</ele>
        <time>2017-06-11T06:59:05Z</time>
      </trkpt>
      <trkpt lat="47.25062" lon="7.38498">
        <ele>1129</ele>
        <time>2017-06-11T06:59:07Z</time>
      </trkpt>
      <trkpt lat="47.2506" lon="7.38505">
        <ele>1128</ele>
        <time>2017-06-11T06:59:09Z</time>
      </trkpt>
      <trkpt lat="47.25057" lon="7.38513">
        <ele>1128</ele>
        <time>2017-06-11T06:59:11Z</time>
      </trkpt>
      <trkpt lat="47.25055" lon="7.38522">
        <ele>1127</ele>
        <time>2017-06-11T06:59:14Z</time>
      </trkpt>
      <trkpt lat="47.25053" lon="7.38529">
        <ele>1126</ele>
        <time>2017-06-11T06:59:16Z</time>
      </trkpt>
      <trkpt lat="47.25051" lon="7.38536">
        <ele>1125</ele>
        <time>2017-06-11T06:59:19Z</time>
      </trkpt>
      <trkpt lat="47.25048" lon="7.38545">
        <ele>1124</ele>
        <time>2017-06-11T06:59:22Z</time>
      </trkpt>
      <trkpt lat="47.25046" lon="7.38553">
        <ele>1123</ele>
        <time>2017-06-11T06:59:25Z</time>
      </trkpt>
      <trkpt lat="47.25043" lon="7.38561">
        <ele>1121</ele>
        <time>2017-06-11T06:59:30Z</time>
      </trkpt>
      <trkpt lat="47.25038" lon="7.38568">
        <ele>1120</ele>
        <time>2017-06-11T06:59:34Z</time>
      </trkpt>
      <trkpt lat="47.25033" lon="7.38574">
        <ele>1118</ele>
        <time>2017-06-11T06:59:36Z</time>
      </trkpt>
      <trkpt lat="47.25027" lon="7.38579">
        <ele>1117</ele>
        <time>2017-06-11T06:59:38Z</time>
      </trkpt>
      <trkpt lat="47.25024" lon="7.38588">
        <ele>1116</ele>
        <time>2017-06-11T06:59:39Z</time>
      </trkpt>
      <trkpt lat="47.25022" lon="7.38594">
        <ele>1115</ele>
        <time>2017-06-11T06:59:40Z</time>
      </trkpt>
      <trkpt lat="47.25018" lon="7.386">
        <ele>1114</ele>
        <time>2017-06-11T06:59:41Z</time>
      </trkpt>
      <trkpt lat="47.25014" lon="7.38609">
        <ele>1113</ele>
        <time>2017-06-11T06:59:43Z</time>
      </trkpt>
      <trkpt lat="47.25012" lon="7.38617">
        <ele>1112</ele>
        <time>2017-06-11T06:59:45Z</time>
      </trkpt>
      <trkpt lat="47.25011" lon="7.38629">
        <ele>1110</ele>
        <time>2017-06-11T06:59:47Z</time>
      </trkpt>
      <trkpt lat="47.25013" lon="7.3862">
        <ele>1107</ele>
        <time>2017-06-11T06:59:54Z</time>
      </trkpt>
      <trkpt lat="47.25013" lon="7.38611">
        <ele>1104</ele>
        <time>2017-06-11T06:59:57Z</time>
      </trkpt>
      <trkpt lat="47.25012" lon="7.38601">
        <ele>1100</ele>
        <time>2017-06-11T07:00:00Z</time>
      </trkpt>
      <trkpt lat="47.25012" lon="7.38594">
        <ele>1096</ele>
        <time>2017-06-11T07:00:02Z</time>
      </trkpt>
      <trkpt lat="47.25011" lon="7.38586">
        <ele>1093</ele>
        <time>2017-06-11T07:00:04Z</time>
      </trkpt>
      <trkpt lat="47.2501" lon="7.38578">
        <ele>1091</ele>
        <time>2017-06-11T07:00:06Z</time>
      </trkpt>
      <trkpt lat="47.25009" lon="7.38571">
        <ele>1089</ele>
        <time>2017-06-11T07:00:08Z</time>
      </trkpt>
      <trkpt lat="47.25008" lon="7.38563">
        <ele>1087</ele>
        <time>2017-06-11T07:00:10Z</time>
      </trkpt>
      <trkpt lat="47.25008" lon="7.38555">
        <ele>1086</ele>
        <time>2017-06-11T07:00:12Z</time>
      </trkpt>
      <trkpt lat="47.25007" lon="7.38547">
        <ele>1084</ele>
        <time>2017-06-11T07:00:14Z</time>
      </trkpt>
      <trkpt lat="47.25007" lon="7.38539">
        <ele>1083</ele>
        <time>2017-06-11T07:00:16Z</time>
      </trkpt>
      <trkpt lat="47.25006" lon="7.38532">
        <ele>1081</ele>
        <time>2017-06-11T07:00:18Z</time>
      </trkpt>
      <trkpt lat="47.25006" lon="7.38524">
        <ele>1080</ele>
        <time>2017-06-11T07:00:20Z</time>
      </trkpt>
      <trkpt lat="47.25005" lon="7.38516">
        <ele>1078</ele>
        <time>2017-06-11T07:00:22Z</time>
      </trkpt>
      <trkpt lat="47.25005" lon="7.38508">
        <ele>1077</ele>
        <time>2017-06-11T07:00:24Z</time>
      </trkpt>
      <trkpt lat="47.25005" lon="7.385">
        <ele>1076</ele>
        <time>2017-06-11T07:00:26Z</time>
      </trkpt>
      <trkpt lat="47.25004" lon="7.38492">
        <ele>1074</ele>
        <time>2017-06-11T07:00:28Z</time>
      </trkpt>
      <trkpt lat="47.25003" lon="7.38485">
        <ele>1073</ele>
        <time>2017-06-11T07:00:30Z</time>
      </trkpt>
      <trkpt lat="47.25003" lon="7.38478">
        <ele>1072</ele>
        <time>2017-06-11T07:00:32Z</time>
      </trkpt>
      <trkpt lat="47.25002" lon="7.3847">
        <ele>1071</ele>
        <time>2017-06-11T07:00:34Z</time>
      </trkpt>
      <trkpt lat="47.25002" lon="7.38462">
        <ele>1070</ele>
        <time>2017-06-11T07:00:36Z</time>
      </trkpt>
      <trkpt lat="47.25002" lon="7.38454">
        <ele>1069</ele>
        <time>2017-06-11T07:00:38Z</time>
      </trkpt>
      <trkpt lat="47.25002" lon="7.38446">
        <ele>1068</ele>
        <time>2017-06-11T07:00:40Z</time>
      </trkpt>
      <trkpt lat="47.25003" lon="7.38439">
        <ele>1067</ele>
        <time>2017-06-11T07:00:42Z</time>
      </trkpt>
      <trkpt lat="47.25003" lon="7.38432">
        <ele>1066</ele>
        <time>2017-06-11T07:00:44Z</time>
      </trkpt>
      <trkpt lat="47.25003" lon="7.38425">
        <ele>1065</ele>
        <time>2017-06-11T07:00:46Z</time>
      </trkpt>
      <trkpt lat="47.25002" lon="7.38418">
        <ele>1064</ele>
        <time>2017-06-11T07:00:48Z</time>
      </trkpt>
      <trkpt lat="47.25001" lon="7.38411">
        <ele>1063</ele>
        <time>2017-06-11T07:00:50Z</time>
      </trkpt>
      <trkpt lat="47.25" lon="7.38401">
        <ele>1062</ele>
        <time>2017-06-11T07:00:53Z</time>
      </trkpt>
      <trkpt lat="47.25" lon="7.38394">
        <ele>1062</ele>
        <time>2017-06-11T07:00:55Z</time>
      </trkpt>
      <trkpt lat="47.25" lon="7.38387">
        <ele>1061</ele>
        <time>2017-06-11T07:00:57Z</time>
      </trkpt>
      <trkpt lat="47.25" lon="7.3838">
        <ele>1060</ele>
        <time>2017-06-11T07:00:59Z</time>
      </trkpt>
      <trkpt lat="47.25" lon="7.38373">
        <ele>1060</ele>
        <time>2017-06-11T07:01:01Z</time>
      </trkpt>
      <trkpt lat="47.25001" lon="7.38366">
        <ele>1059</ele>
        <time>2017-06-11T07:01:03Z</time>
      </trkpt>
      <trkpt lat="47.25002" lon="7.38359">
        <ele>1059</ele>
        <time>2017-06-11T07:01:05Z</time>
      </trkpt>
      <trkpt lat="47.25002" lon="7.38352">
        <ele>1059</ele>
        <time>2017-06-11T07:01:07Z</time>
      </trkpt>
      <trkpt lat="47.25002" lon="7.38345">
        <ele>1058</ele>
        <time>2017-06-11T07:01:09Z</time>
      </trkpt>
      <trkpt lat="47.25001" lon="7.38337">
        <ele>1058</ele>
        <time>2017-06-11T07:01:12Z</time>
      </trkpt>
      <trkpt lat="47.25" lon="7.38329">
        <ele>1058</ele>
        <time>2017-06-11T07:01:14Z</time>
      </trkpt>
      <trkpt lat="47.24998" lon="7.38322">
        <ele>1057</ele>
        <time>2017-06-11T07:01:17Z</time>
      </trkpt>
      <trkpt lat="47.24997" lon="7.38315">
        <ele>1057</ele>
        <time>2017-06-11T07:01:19Z</time>
      </trkpt>
      <trkpt lat="47.24994" lon="7.38307">
        <ele>1057</ele>
        <time>2017-06-11T07:01:22Z</time>
      </trkpt>
      <trkpt lat="47.24994" lon="7.38301">
        <ele>1057</ele>
        <time>2017-06-11T07:01:24Z</time>
      </trkpt>
      <trkpt lat="47.24992" lon="7.38295">
        <ele>1057</ele>
        <time>2017-06-11T07:01:26Z</time>
      </trkpt>
      <trkpt lat="47.2499" lon="7.38288">
        <ele>1057</ele>
        <time>2017-06-11T07:01:28Z</time>
      </trkpt>
      <trkpt lat="47.24986" lon="7.38281">
        <ele>1057</ele>
        <time>2017-06-11T07:01:30Z</time>
      </trkpt>
      <trkpt lat="47.24983" lon="7.38274">
        <ele>1057</ele>
        <time>2017-06-11T07:01:32Z</time>
      </trkpt>
      <trkpt lat="47.2498" lon="7.38268">
        <ele>1056</ele>
        <time>2017-06-11T07:01:34Z</time>
      </trkpt>
      <trkpt lat="47.24975" lon="7.3826">
        <ele>1056</ele>
        <time>2017-06-11T07:01:37Z</time>
      </trkpt>
      <trkpt lat="47.24972" lon="7.38253">
        <ele>1056</ele>
        <time>2017-06-11T07:01:39Z</time>
      </trkpt>
      <trkpt lat="47.24969" lon="7.38247">
        <ele>1055</ele>
        <time>2017-06-11T07:01:41Z</time>
      </trkpt>
      <trkpt lat="47.24967" lon="7.38238">
        <ele>1055</ele>
        <time>2017-06-11T07:01:43Z</time>
      </trkpt>
      <trkpt lat="47.24965" lon="7.38229">
        <ele>1054</ele>
        <time>2017-06-11T07:01:45Z</time>
      </trkpt>
      <trkpt lat="47.24964" lon="7.3822">
        <ele>1053</ele>
        <time>2017-06-11T07:01:47Z</time>
      </trkpt>
      <trkpt lat="47.24963" lon="7.3821">
        <ele>1052</ele>
        <time>2017-06-11T07:01:49Z</time>
      </trkpt>
      <trkpt lat="47.24963" lon="7.38201">
        <ele>1051</ele>
        <time>2017-06-11T07:01:51Z</time>
      </trkpt>
      <trkpt lat="47.24963" lon="7.38191">
        <ele>1050</ele>
        <time>2017-06-11T07:01:53Z</time>
      </trkpt>
      <trkpt lat="47.24963" lon="7.38183">
        <ele>1049</ele>
        <time>2017-06-11T07:01:55Z</time>
      </trkpt>
      <trkpt lat="47.24963" lon="7.38174">
        <ele>1048</ele>
        <time>2017-06-11T07:01:57Z</time>
      </trkpt>
      <trkpt lat="47.24963" lon="7.38166">
        <ele>1047</ele>
        <time>2017-06-11T07:01:59Z</time>
      </trkpt>
      <trkpt lat="47.24963" lon="7.38159">
        <ele>1046</ele>
        <time>2017-06-11T07:02:01Z</time>
      </trkpt>
      <trkpt lat="47.24963" lon="7.38151">
        <ele>1045</ele>
        <time>2017-06-11T07:02:03Z</time>
      </trkpt>
      <trkpt lat="47.24962" lon="7.38143">
        <ele>1044</ele>
        <time>2017-06-11T07:02:05Z</time>
      </trkpt>
      <trkpt lat="47.2496" lon="7.38135">
        <ele>1043</ele>
        <time>2017-06-11T07:02:07Z</time>
      </trkpt>
      <trkpt lat="47.24959" lon="7.38128">
        <ele>1042</ele>
        <time>2017-06-11T07:02:09Z</time>
      </trkpt>
      <trkpt lat="47.24957" lon="7.38121">
        <ele>1041</ele>
        <time>2017-06-11T07:02:11Z</time>
      </trkpt>
      <trkpt lat="47.24956" lon="7.38114">
        <ele>1040</ele>
        <time>2017-06-11T07:02:13Z</time>
      </trkpt>
      <trkpt lat="47.24955" lon="7.38107">
        <ele>1040</ele>
        <time>2017-06-11T07:02:15Z</time>
      </trkpt>
      <trkpt lat="47.24953" lon="7.38099">
        <ele>1039</ele>
        <time>2017-06-11T07:02:17Z</time>
      </trkpt>
      <trkpt lat="47.24952" lon="7.38092">
        <ele>1038</ele>
        <time>2017-06-11T07:02:19Z</time>
      </trkpt>
      <trkpt lat="47.2495" lon="7.38084">
        <ele>1038</ele>
        <time>2017-06-11T07:02:21Z</time>
      </trkpt>
      <trkpt lat="47.24948" lon="7.38076">
        <ele>1037</ele>
        <time>2017-06-11T07:02:24Z</time>
      </trkpt>
      <trkpt lat="47.24947" lon="7.38069">
        <ele>1036</ele>
        <time>2017-06-11T07:02:26Z</time>
      </trkpt>
      <trkpt lat="47.24946" lon="7.38062">
        <ele>1036</ele>
        <time>2017-06-11T07:02:28Z</time>
      </trkpt>
      <trkpt lat="47.24944" lon="7.38055">
        <ele>1035</ele>
        <time>2017-06-11T07:02:30Z</time>
      </trkpt>
      <trkpt lat="47.24943" lon="7.38047">
        <ele>1035</ele>
        <time>2017-06-11T07:02:32Z</time>
      </trkpt>
      <trkpt lat="47.24942" lon="7.3804">
        <ele>1034</ele>
        <time>2017-06-11T07:02:34Z</time>
      </trkpt>
      <trkpt lat="47.24942" lon="7.38033">
        <ele>1033</ele>
        <time>2017-06-11T07:02:36Z</time>
      </trkpt>
      <trkpt lat="47.24941" lon="7.38025">
        <ele>1033</ele>
        <time>2017-06-11T07:02:38Z</time>
      </trkpt>
      <trkpt lat="47.24939" lon="7.38017">
        <ele>1032</ele>
        <time>2017-06-11T07:02:40Z</time>
      </trkpt>
      <trkpt lat="47.24938" lon="7.38009">
        <ele>1031</ele>
        <time>2017-06-11T07:02:42Z</time>
      </trkpt>
      <trkpt lat="47.24936" lon="7.38002">
        <ele>1031</ele>
        <time>2017-06-11T07:02:44Z</time>
      </trkpt>
      <trkpt lat="47.24936" lon="7.37995">
        <ele>1030</ele>
        <time>2017-06-11T07:02:46Z</time>
      </trkpt>
      <trkpt lat="47.24934" lon="7.37986">
        <ele>1029</ele>
        <time>2017-06-11T07:02:48Z</time>
      </trkpt>
      <trkpt lat="47.24933" lon="7.37978">
        <ele>1028</ele>
        <time>2017-06-11T07:02:50Z</time>
      </trkpt>
      <trkpt lat="47.24932" lon="7.3797">
        <ele>1027</ele>
        <time>2017-06-11T07:02:52Z</time>
      </trkpt>
      <trkpt lat="47.24931" lon="7.37963">
        <ele>1027</ele>
        <time>2017-06-11T07:02:54Z</time>
      </trkpt>
      <trkpt lat="47.24929" lon="7.37954">
        <ele>1026</ele>
        <time>2017-06-11T07:02:57Z</time>
      </trkpt>
      <trkpt lat="47.24926" lon="7.37945">
        <ele>1025</ele>
        <time>2017-06-11T07:03:00Z</time>
      </trkpt>
      <trkpt lat="47.24922" lon="7.37937">
        <ele>1024</ele>
        <time>2017-06-11T07:03:03Z</time>
      </trkpt>
      <trkpt lat="47.2492" lon="7.37931">
        <ele>1024</ele>
        <time>2017-06-11T07:03:05Z</time>
      </trkpt>
      <trkpt lat="47.24918" lon="7.37925">
        <ele>1023</ele>
        <time>2017-06-11T07:03:07Z</time>
      </trkpt>
      <trkpt lat="47.24917" lon="7.37917">
        <ele>1023</ele>
        <time>2017-06-11T07:03:09Z</time>
      </trkpt>
      <trkpt lat="47.24916" lon="7.37911">
        <ele>1023</ele>
        <time>2017-06-11T07:03:11Z</time>
      </trkpt>
      <trkpt lat="47.24915" lon="7.37904">
        <ele>1022</ele>
        <time>2017-06-11T07:03:13Z</time>
      </trkpt>
      <trkpt lat="47.24914" lon="7.37896">
        <ele>1022</ele>
        <time>2017-06-11T07:03:15Z</time>
      </trkpt>
      <trkpt lat="47.24913" lon="7.37889">
        <ele>1021</ele>
        <time>2017-06-11T07:03:17Z</time>
      </trkpt>
      <trkpt lat="47.24913" lon="7.37881">
        <ele>1021</ele>
        <time>2017-06-11T07:03:19Z</time>
      </trkpt>
      <trkpt lat="47.24912" lon="7.37873">
        <ele>1020</ele>
        <time>2017-06-11T07:03:21Z</time>
      </trkpt>
      <trkpt lat="47.24911" lon="7.37864">
        <ele>1019</ele>
        <time>2017-06-11T07:03:23Z</time>
      </trkpt>
      <trkpt lat="47.2491" lon="7.37857">
        <ele>1019</ele>
        <time>2017-06-11T07:03:25Z</time>
      </trkpt>
      <trkpt lat="47.2491" lon="7.37849">
        <ele>1018</ele>
        <time>2017-06-11T07:03:27Z</time>
      </trkpt>
      <trkpt lat="47.24909" lon="7.37841">
        <ele>1018</ele>
        <time>2017-06-11T07:03:29Z</time>
      </trkpt>
      <trkpt lat="47.24908" lon="7.37833">
        <ele>1018</ele>
        <time>2017-06-11T07:03:31Z</time>
      </trkpt>
      <trkpt lat="47.24907" lon="7.37826">
        <ele>1017</ele>
        <time>2017-06-11T07:03:33Z</time>
      </trkpt>
      <trkpt lat="47.24907" lon="7.37818">
        <ele>1017</ele>
        <time>2017-06-11T07:03:35Z</time>
      </trkpt>
      <trkpt lat="47.24906" lon="7.3781">
        <ele>1016</ele>
        <time>2017-06-11T07:03:37Z</time>
      </trkpt>
      <trkpt lat="47.24905" lon="7.37802">
        <ele>1016</ele>
        <time>2017-06-11T07:03:39Z</time>
      </trkpt>
      <trkpt lat="47.24904" lon="7.37795">
        <ele>1015</ele>
        <time>2017-06-11T07:03:41Z</time>
      </trkpt>
      <trkpt lat="47.24904" lon="7.37788">
        <ele>1015</ele>
        <time>2017-06-11T07:03:43Z</time>
      </trkpt>
      <trkpt lat="47.24902" lon="7.37781">
        <ele>1015</ele>
        <time>2017-06-11T07:03:45Z</time>
      </trkpt>
      <trkpt lat="47.24901" lon="7.37773">
        <ele>1014</ele>
        <time>2017-06-11T07:03:47Z</time>
      </trkpt>
      <trkpt lat="47.249" lon="7.37766">
        <ele>1014</ele>
        <time>2017-06-11T07:03:49Z</time>
      </trkpt>
      <trkpt lat="47.24898" lon="7.37759">
        <ele>1014</ele>
        <time>2017-06-11T07:03:51Z</time>
      </trkpt>
      <trkpt lat="47.24896" lon="7.37752">
        <ele>1013</ele>
        <time>2017-06-11T07:03:53Z</time>
      </trkpt>
      <trkpt lat="47.24894" lon="7.37746">
        <ele>1013</ele>
        <time>2017-06-11T07:03:55Z</time>
      </trkpt>
      <trkpt lat="47.24892" lon="7.3774">
        <ele>1013</ele>
        <time>2017-06-11T07:03:57Z</time>
      </trkpt>
      <trkpt lat="47.24888" lon="7.37735">
        <ele>1013</ele>
        <time>2017-06-11T07:03:59Z</time>
      </trkpt>
      <trkpt lat="47.24885" lon="7.37729">
        <ele>1012</ele>
        <time>2017-06-11T07:04:01Z</time>
      </trkpt>
      <trkpt lat="47.24882" lon="7.37724">
        <ele>1012</ele>
        <time>2017-06-11T07:04:03Z</time>
      </trkpt>
      <trkpt lat="47.24879" lon="7.37719">
        <ele>1012</ele>
        <time>2017-06-11T07:04:05Z</time>
      </trkpt>
      <trkpt lat="47.24875" lon="7.37713">
        <ele>1012</ele>
        <time>2017-06-11T07:04:07Z</time>
      </trkpt>
      <trkpt lat="47.24872" lon="7.37708">
        <ele>1011</ele>
        <time>2017-06-11T07:04:09Z</time>
      </trkpt>
      <trkpt lat="47.24869" lon="7.37702">
        <ele>1011</ele>
        <time>2017-06-11T07:04:11Z</time>
      </trkpt>
      <trkpt lat="47.24866" lon="7.37696">
        <ele>1010</ele>
        <time>2017-06-11T07:04:13Z</time>
      </trkpt>
      <trkpt lat="47.24863" lon="7.37689">
        <ele>1010</ele>
        <time>2017-06-11T07:04:15Z</time>
      </trkpt>
      <trkpt lat="47.2486" lon="7.37683">
        <ele>1009</ele>
        <time>2017-06-11T07:04:17Z</time>
      </trkpt>
      <trkpt lat="47.24858" lon="7.37677">
        <ele>1009</ele>
        <time>2017-06-11T07:04:19Z</time>
      </trkpt>
      <trkpt lat="47.24856" lon="7.3767">
        <ele>1008</ele>
        <time>2017-06-11T07:04:21Z</time>
      </trkpt>
      <trkpt lat="47.24854" lon="7.37664">
        <ele>1008</ele>
        <time>2017-06-11T07:04:23Z</time>
      </trkpt>
      <trkpt lat="47.24852" lon="7.37657">
        <ele>1007</ele>
        <time>2017-06-11T07:04:25Z</time>
      </trkpt>
      <trkpt lat="47.24851" lon="7.3765">
        <ele>1006</ele>
        <time>2017-06-11T07:04:27Z</time>
      </trkpt>
      <trkpt lat="47.24849" lon="7.37643">
        <ele>1006</ele>
        <time>2017-06-11T07:04:29Z</time>
      </trkpt>
      <trkpt lat="47.24849" lon="7.37636">
        <ele>1005</ele>
        <time>2017-06-11T07:04:31Z</time>
      </trkpt>
      <trkpt lat="47.24847" lon="7.37628">
        <ele>1005</ele>
        <time>2017-06-11T07:04:33Z</time>
      </trkpt>
      <trkpt lat="47.24847" lon="7.37621">
        <ele>1004</ele>
        <time>2017-06-11T07:04:35Z</time>
      </trkpt>
      <trkpt lat="47.24845" lon="7.37614">
        <ele>1003</ele>
        <time>2017-06-11T07:04:37Z</time>
      </trkpt>
      <trkpt lat="47.24844" lon="7.37607">
        <ele>1003</ele>
        <time>2017-06-11T07:04:39Z</time>
      </trkpt>
      <trkpt lat="47.24843" lon="7.376">
        <ele>1002</ele>
        <time>2017-06-11T07:04:41Z</time>
      </trkpt>
      <trkpt lat="47.24841" lon="7.37593">
        <ele>1002</ele>
        <time>2017-06-11T07:04:43Z</time>
      </trkpt>
      <trkpt lat="47.24838" lon="7.37587">
        <ele>1001</ele>
        <time>2017-06-11T07:04:45Z</time>
      </trkpt>
      <trkpt lat="47.24834" lon="7.37582">
        <ele>1001</ele>
        <time>2017-06-11T07:04:47Z</time>
      </trkpt>
      <trkpt lat="47.24831" lon="7.37577">
        <ele>1000</ele>
        <time>2017-06-11T07:04:49Z</time>
      </trkpt>
      <trkpt lat="47.24827" lon="7.37571">
        <ele>1000</ele>
        <time>2017-06-11T07:04:52Z</time>
      </trkpt>
      <trkpt lat="47.24826" lon="7.37564">
        <ele>999</ele>
        <time>2017-06-11T07:05:16Z</time>
      </trkpt>
      <trkpt lat="47.24826" lon="7.37564">
        <ele>997</ele>
        <time>2017-06-11T07:05:46Z</time>
      </trkpt>
      <trkpt lat="47.24831" lon="7.37567">
        <ele>997</ele>
        <time>2017-06-11T07:05:48Z</time>
      </trkpt>
      <trkpt lat="47.24826" lon="7.37564">
        <ele>994</ele>
        <time>2017-06-11T07:05:52Z</time>
      </trkpt>
      <trkpt lat="47.24822" lon="7.37559">
        <ele>991</ele>
        <time>2017-06-11T07:05:58Z</time>
      </trkpt>
      <trkpt lat="47.24819" lon="7.37553">
        <ele>988</ele>
        <time>2017-06-11T07:06:02Z</time>
      </trkpt>
      <trkpt lat="47.24816" lon="7.37547">
        <ele>985</ele>
        <time>2017-06-11T07:06:06Z</time>
      </trkpt>
      <trkpt lat="47.24813" lon="7.37541">
        <ele>982</ele>
        <time>2017-06-11T07:06:09Z</time>
      </trkpt>
      <trkpt lat="47.2481" lon="7.37535">
        <ele>981</ele>
        <time>2017-06-11T07:06:11Z</time>
      </trkpt>
      <trkpt lat="47.24807" lon="7.37528">
        <ele>982</ele>
        <time>2017-06-11T07:06:13Z</time>
      </trkpt>
      <trkpt lat="47.24805" lon="7.37521">
        <ele>982</ele>
        <time>2017-06-11T07:06:15Z</time>
      </trkpt>
      <trkpt lat="47.24802" lon="7.37513">
        <ele>982</ele>
        <time>2017-06-11T07:06:17Z</time>
      </trkpt>
      <trkpt lat="47.24801" lon="7.37505">
        <ele>982</ele>
        <time>2017-06-11T07:06:19Z</time>
      </trkpt>
      <trkpt lat="47.24799" lon="7.37497">
        <ele>982</ele>
        <time>2017-06-11T07:06:21Z</time>
      </trkpt>
      <trkpt lat="47.24797" lon="7.3749">
        <ele>982</ele>
        <time>2017-06-11T07:06:23Z</time>
      </trkpt>
      <trkpt lat="47.24796" lon="7.37484">
        <ele>981</ele>
        <time>2017-06-11T07:06:25Z</time>
      </trkpt>
      <trkpt lat="47.24795" lon="7.37477">
        <ele>981</ele>
        <time>2017-06-11T07:06:27Z</time>
      </trkpt>
      <trkpt lat="47.24794" lon="7.37471">
        <ele>981</ele>
        <time>2017-06-11T07:06:29Z</time>
      </trkpt>
      <trkpt lat="47.24792" lon="7.37464">
        <ele>981</ele>
        <time>2017-06-11T07:06:31Z</time>
      </trkpt>
      <trkpt lat="47.24791" lon="7.37458">
        <ele>981</ele>
        <time>2017-06-11T07:06:33Z</time>
      </trkpt>
      <trkpt lat="47.2479" lon="7.37451">
        <ele>981</ele>
        <time>2017-06-11T07:06:35Z</time>
      </trkpt>
      <trkpt lat="47.24789" lon="7.37444">
        <ele>981</ele>
        <time>2017-06-11T07:06:37Z</time>
      </trkpt>
      <trkpt lat="47.24788" lon="7.37435">
        <ele>980</ele>
        <time>2017-06-11T07:06:40Z</time>
      </trkpt>
      <trkpt lat="47.24786" lon="7.37426">
        <ele>980</ele>
        <time>2017-06-11T07:06:43Z</time>
      </trkpt>
      <trkpt lat="47.24784" lon="7.3742">
        <ele>980</ele>
        <time>2017-06-11T07:06:45Z</time>
      </trkpt>
      <trkpt lat="47.24782" lon="7.37414">
        <ele>980</ele>
        <time>2017-06-11T07:06:47Z</time>
      </trkpt>
      <trkpt lat="47.24779" lon="7.37405">
        <ele>980</ele>
        <time>2017-06-11T07:06:50Z</time>
      </trkpt>
      <trkpt lat="47.24778" lon="7.37398">
        <ele>980</ele>
        <time>2017-06-11T07:06:52Z</time>
      </trkpt>
      <trkpt lat="47.24777" lon="7.3739">
        <ele>980</ele>
        <time>2017-06-11T07:06:54Z</time>
      </trkpt>
      <trkpt lat="47.24775" lon="7.37383">
        <ele>981</ele>
        <time>2017-06-11T07:06:56Z</time>
      </trkpt>
      <trkpt lat="47.24774" lon="7.37376">
        <ele>981</ele>
        <time>2017-06-11T07:06:58Z</time>
      </trkpt>
      <trkpt lat="47.24773" lon="7.37368">
        <ele>981</ele>
        <time>2017-06-11T07:07:00Z</time>
      </trkpt>
      <trkpt lat="47.24771" lon="7.37361">
        <ele>981</ele>
        <time>2017-06-11T07:07:02Z</time>
      </trkpt>
      <trkpt lat="47.24769" lon="7.37353">
        <ele>980</ele>
        <time>2017-06-11T07:07:04Z</time>
      </trkpt>
      <trkpt lat="47.24767" lon="7.37346">
        <ele>980</ele>
        <time>2017-06-11T07:07:06Z</time>
      </trkpt>
      <trkpt lat="47.24766" lon="7.37338">
        <ele>980</ele>
        <time>2017-06-11T07:07:08Z</time>
      </trkpt>
      <trkpt lat="47.24765" lon="7.3733">
        <ele>980</ele>
        <time>2017-06-11T07:07:10Z</time>
      </trkpt>
      <trkpt lat="47.24764" lon="7.37322">
        <ele>979</ele>
        <time>2017-06-11T07:07:12Z</time>
      </trkpt>
      <trkpt lat="47.24762" lon="7.37315">
        <ele>979</ele>
        <time>2017-06-11T07:07:14Z</time>
      </trkpt>
      <trkpt lat="47.2476" lon="7.37307">
        <ele>978</ele>
        <time>2017-06-11T07:07:16Z</time>
      </trkpt>
      <trkpt lat="47.24757" lon="7.37301">
        <ele>978</ele>
        <time>2017-06-11T07:07:18Z</time>
      </trkpt>
      <trkpt lat="47.24754" lon="7.37293">
        <ele>977</ele>
        <time>2017-06-11T07:07:21Z</time>
      </trkpt>
      <trkpt lat="47.24752" lon="7.37287">
        <ele>977</ele>
        <time>2017-06-11T07:07:23Z</time>
      </trkpt>
      <trkpt lat="47.24749" lon="7.37279">
        <ele>976</ele>
        <time>2017-06-11T07:07:26Z</time>
      </trkpt>
      <trkpt lat="47.24748" lon="7.37272">
        <ele>976</ele>
        <time>2017-06-11T07:07:29Z</time>
      </trkpt>
      <trkpt lat="47.24746" lon="7.37263">
        <ele>975</ele>
        <time>2017-06-11T07:07:32Z</time>
      </trkpt>
      <trkpt lat="47.24743" lon="7.37256">
        <ele>974</ele>
        <time>2017-06-11T07:07:34Z</time>
      </trkpt>
      <trkpt lat="47.24741" lon="7.37248">
        <ele>973</ele>
        <time>2017-06-11T07:07:36Z</time>
      </trkpt>
      <trkpt lat="47.24739" lon="7.3724">
        <ele>973</ele>
        <time>2017-06-11T07:07:38Z</time>
      </trkpt>
      <trkpt lat="47.24738" lon="7.37231">
        <ele>972</ele>
        <time>2017-06-11T07:07:40Z</time>
      </trkpt>
      <trkpt lat="47.24737" lon="7.37223">
        <ele>972</ele>
        <time>2017-06-11T07:07:42Z</time>
      </trkpt>
      <trkpt lat="47.24736" lon="7.37214">
        <ele>972</ele>
        <time>2017-06-11T07:07:44Z</time>
      </trkpt>
      <trkpt lat="47.24737" lon="7.37205">
        <ele>972</ele>
        <time>2017-06-11T07:07:46Z</time>
      </trkpt>
      <trkpt lat="47.24737" lon="7.37196">
        <ele>971</ele>
        <time>2017-06-11T07:07:48Z</time>
      </trkpt>
      <trkpt lat="47.24736" lon="7.37188">
        <ele>971</ele>
        <time>2017-06-11T07:07:50Z</time>
      </trkpt>
      <trkpt lat="47.24736" lon="7.3718">
        <ele>970</ele>
        <time>2017-06-11T07:07:52Z</time>
      </trkpt>
      <trkpt lat="47.24735" lon="7.37172">
        <ele>969</ele>
        <time>2017-06-11T07:07:54Z</time>
      </trkpt>
      <trkpt lat="47.24734" lon="7.37164">
        <ele>968</ele>
        <time>2017-06-11T07:07:56Z</time>
      </trkpt>
      <trkpt lat="47.24732" lon="7.37158">
        <ele>968</ele>
        <time>2017-06-11T07:07:58Z</time>
      </trkpt>
      <trkpt lat="47.24731" lon="7.37151">
        <ele>967</ele>
        <time>2017-06-11T07:08:00Z</time>
      </trkpt>
      <trkpt lat="47.24729" lon="7.37144">
        <ele>966</ele>
        <time>2017-06-11T07:08:02Z</time>
      </trkpt>
      <trkpt lat="47.24728" lon="7.37137">
        <ele>966</ele>
        <time>2017-06-11T07:08:04Z</time>
      </trkpt>
      <trkpt lat="47.24728" lon="7.37129">
        <ele>965</ele>
        <time>2017-06-11T07:08:06Z</time>
      </trkpt>
      <trkpt lat="47.24728" lon="7.37119">
        <ele>965</ele>
        <time>2017-06-11T07:08:09Z</time>
      </trkpt>
      <trkpt lat="47.24727" lon="7.37111">
        <ele>965</ele>
        <time>2017-06-11T07:08:12Z</time>
      </trkpt>
      <trkpt lat="47.24726" lon="7.37103">
        <ele>964</ele>
        <time>2017-06-11T07:08:15Z</time>
      </trkpt>
      <trkpt lat="47.24727" lon="7.37093">
        <ele>964</ele>
        <time>2017-06-11T07:08:18Z</time>
      </trkpt>
      <trkpt lat="47.24729" lon="7.37085">
        <ele>964</ele>
        <time>2017-06-11T07:08:21Z</time>
      </trkpt>
      <trkpt lat="47.24733" lon="7.37078">
        <ele>964</ele>
        <time>2017-06-11T07:08:25Z</time>
      </trkpt>
      <trkpt lat="47.24736" lon="7.37071">
        <ele>964</ele>
        <time>2017-06-11T07:08:28Z</time>
      </trkpt>
      <trkpt lat="47.24739" lon="7.37065">
        <ele>964</ele>
        <time>2017-06-11T07:08:31Z</time>
      </trkpt>
      <trkpt lat="47.24741" lon="7.37058">
        <ele>964</ele>
        <time>2017-06-11T07:08:34Z</time>
      </trkpt>
      <trkpt lat="47.24742" lon="7.3705">
        <ele>965</ele>
        <time>2017-06-11T07:08:38Z</time>
      </trkpt>
      <trkpt lat="47.24743" lon="7.37043">
        <ele>965</ele>
        <time>2017-06-11T07:08:45Z</time>
      </trkpt>
      <trkpt lat="47.24743" lon="7.37036">
        <ele>966</ele>
        <time>2017-06-11T07:08:49Z</time>
      </trkpt>
      <trkpt lat="47.24744" lon="7.37027">
        <ele>967</ele>
        <time>2017-06-11T07:08:53Z</time>
      </trkpt>
      <trkpt lat="47.24743" lon="7.37017">
        <ele>969</ele>
        <time>2017-06-11T07:08:56Z</time>
      </trkpt>
      <trkpt lat="47.24741" lon="7.3701">
        <ele>970</ele>
        <time>2017-06-11T07:08:58Z</time>
      </trkpt>
      <trkpt lat="47.2474" lon="7.37002">
        <ele>970</ele>
        <time>2017-06-11T07:09:00Z</time>
      </trkpt>
      <trkpt lat="47.24737" lon="7.36995">
        <ele>971</ele>
        <time>2017-06-11T07:09:02Z</time>
      </trkpt>
      <trkpt lat="47.24733" lon="7.36985">
        <ele>971</ele>
        <time>2017-06-11T07:09:04Z</time>
      </trkpt>
      <trkpt lat="47.24731" lon="7.36978">
        <ele>971</ele>
        <time>2017-06-11T07:09:06Z</time>
      </trkpt>
      <trkpt lat="47.24728" lon="7.36971">
        <ele>971</ele>
        <time>2017-06-11T07:09:08Z</time>
      </trkpt>
      <trkpt lat="47.24725" lon="7.36963">
        <ele>971</ele>
        <time>2017-06-11T07:09:10Z</time>
      </trkpt>
      <trkpt lat="47.24722" lon="7.36955">
        <ele>970</ele>
        <time>2017-06-11T07:09:12Z</time>
      </trkpt>
      <trkpt lat="47.2472" lon="7.36947">
        <ele>970</ele>
        <time>2017-06-11T07:09:14Z</time>
      </trkpt>
      <trkpt lat="47.24717" lon="7.36939">
        <ele>970</ele>
        <time>2017-06-11T07:09:16Z</time>
      </trkpt>
      <trkpt lat="47.24714" lon="7.36932">
        <ele>969</ele>
        <time>2017-06-11T07:09:18Z</time>
      </trkpt>
      <trkpt lat="47.24712" lon="7.36925">
        <ele>969</ele>
        <time>2017-06-11T07:09:20Z</time>
      </trkpt>
      <trkpt lat="47.2471" lon="7.36919">
        <ele>968</ele>
        <time>2017-06-11T07:09:22Z</time>
      </trkpt>
      <trkpt lat="47.24709" lon="7.36911">
        <ele>968</ele>
        <time>2017-06-11T07:09:24Z</time>
      </trkpt>
      <trkpt lat="47.24707" lon="7.36902">
        <ele>967</ele>
        <time>2017-06-11T07:09:27Z</time>
      </trkpt>
      <trkpt lat="47.24706" lon="7.36893">
        <ele>967</ele>
        <time>2017-06-11T07:09:29Z</time>
      </trkpt>
      <trkpt lat="47.24706" lon="7.36886">
        <ele>966</ele>
        <time>2017-06-11T07:09:31Z</time>
      </trkpt>
      <trkpt lat="47.24705" lon="7.36879">
        <ele>965</ele>
        <time>2017-06-11T07:09:33Z</time>
      </trkpt>
      <trkpt lat="47.24705" lon="7.3687">
        <ele>964</ele>
        <time>2017-06-11T07:09:35Z</time>
      </trkpt>
      <trkpt lat="47.24704" lon="7.36863">
        <ele>964</ele>
        <time>2017-06-11T07:09:37Z</time>
      </trkpt>
      <trkpt lat="47.24701" lon="7.36856">
        <ele>963</ele>
        <time>2017-06-11T07:09:39Z</time>
      </trkpt>
      <trkpt lat="47.247" lon="7.3685">
        <ele>963</ele>
        <time>2017-06-11T07:09:41Z</time>
      </trkpt>
      <trkpt lat="47.24698" lon="7.36844">
        <ele>962</ele>
        <time>2017-06-11T07:09:43Z</time>
      </trkpt>
      <trkpt lat="47.24697" lon="7.36836">
        <ele>962</ele>
        <time>2017-06-11T07:09:45Z</time>
      </trkpt>
      <trkpt lat="47.24695" lon="7.36828">
        <ele>961</ele>
        <time>2017-06-11T07:09:47Z</time>
      </trkpt>
      <trkpt lat="47.24693" lon="7.3682">
        <ele>960</ele>
        <time>2017-06-11T07:09:49Z</time>
      </trkpt>
      <trkpt lat="47.24689" lon="7.36813">
        <ele>960</ele>
        <time>2017-06-11T07:09:51Z</time>
      </trkpt>
      <trkpt lat="47.24687" lon="7.36806">
        <ele>959</ele>
        <time>2017-06-11T07:09:53Z</time>
      </trkpt>
      <trkpt lat="47.24687" lon="7.36796">
        <ele>958</ele>
        <time>2017-06-11T07:09:56Z</time>
      </trkpt>
      <trkpt lat="47.24686" lon="7.36787">
        <ele>957</ele>
        <time>2017-06-11T07:09:59Z</time>
      </trkpt>
      <trkpt lat="47.24686" lon="7.36778">
        <ele>956</ele>
        <time>2017-06-11T07:10:02Z</time>
      </trkpt>
      <trkpt lat="47.24686" lon="7.36769">
        <ele>955</ele>
        <time>2017-06-11T07:10:04Z</time>
      </trkpt>
      <trkpt lat="47.24685" lon="7.36762">
        <ele>954</ele>
        <time>2017-06-11T07:10:06Z</time>
      </trkpt>
      <trkpt lat="47.24683" lon="7.36756">
        <ele>953</ele>
        <time>2017-06-11T07:10:08Z</time>
      </trkpt>
      <trkpt lat="47.24682" lon="7.36749">
        <ele>952</ele>
        <time>2017-06-11T07:10:10Z</time>
      </trkpt>
      <trkpt lat="47.2468" lon="7.36742">
        <ele>952</ele>
        <time>2017-06-11T07:10:12Z</time>
      </trkpt>
      <trkpt lat="47.2468" lon="7.36732">
        <ele>951</ele>
        <time>2017-06-11T07:10:15Z</time>
      </trkpt>
      <trkpt lat="47.2468" lon="7.36725">
        <ele>950</ele>
        <time>2017-06-11T07:10:17Z</time>
      </trkpt>
      <trkpt lat="47.2468" lon="7.36718">
        <ele>950</ele>
        <time>2017-06-11T07:10:19Z</time>
      </trkpt>
      <trkpt lat="47.2468" lon="7.36709">
        <ele>949</ele>
        <time>2017-06-11T07:10:21Z</time>
      </trkpt>
      <trkpt lat="47.2468" lon="7.36701">
        <ele>948</ele>
        <time>2017-06-11T07:10:23Z</time>
      </trkpt>
      <trkpt lat="47.2468" lon="7.36695">
        <ele>947</ele>
        <time>2017-06-11T07:10:25Z</time>
      </trkpt>
      <trkpt lat="47.24681" lon="7.36688">
        <ele>946</ele>
        <time>2017-06-11T07:10:27Z</time>
      </trkpt>
      <trkpt lat="47.2468" lon="7.36681">
        <ele>945</ele>
        <time>2017-06-11T07:10:29Z</time>
      </trkpt>
      <trkpt lat="47.24678" lon="7.36671">
        <ele>944</ele>
        <time>2017-06-11T07:10:32Z</time>
      </trkpt>
      <trkpt lat="47.24678" lon="7.36663">
        <ele>943</ele>
        <time>2017-06-11T07:10:35Z</time>
      </trkpt>
      <trkpt lat="47.24677" lon="7.36655">
        <ele>942</ele>
        <time>2017-06-11T07:10:38Z</time>
      </trkpt>
      <trkpt lat="47.24678" lon="7.36646">
        <ele>941</ele>
        <time>2017-06-11T07:10:41Z</time>
      </trkpt>
      <trkpt lat="47.24679" lon="7.36637">
        <ele>941</ele>
        <time>2017-06-11T07:10:44Z</time>
      </trkpt>
      <trkpt lat="47.2468" lon="7.3663">
        <ele>940</ele>
        <time>2017-06-11T07:10:47Z</time>
      </trkpt>
      <trkpt lat="47.24679" lon="7.36622">
        <ele>939</ele>
        <time>2017-06-11T07:10:51Z</time>
      </trkpt>
      <trkpt lat="47.24679" lon="7.36614">
        <ele>939</ele>
        <time>2017-06-11T07:10:54Z</time>
      </trkpt>
      <trkpt lat="47.24679" lon="7.36606">
        <ele>939</ele>
        <time>2017-06-11T07:10:57Z</time>
      </trkpt>
      <trkpt lat="47.24676" lon="7.366">
        <ele>939</ele>
        <time>2017-06-11T07:11:00Z</time>
      </trkpt>
      <trkpt lat="47.24672" lon="7.36594">
        <ele>938</ele>
        <time>2017-06-11T07:11:03Z</time>
      </trkpt>
      <trkpt lat="47.24668" lon="7.36588">
        <ele>938</ele>
        <time>2017-06-11T07:11:06Z</time>
      </trkpt>
      <trkpt lat="47.24665" lon="7.36583">
        <ele>938</ele>
        <time>2017-06-11T07:11:08Z</time>
      </trkpt>
      <trkpt lat="47.24662" lon="7.36577">
        <ele>937</ele>
        <time>2017-06-11T07:11:10Z</time>
      </trkpt>
      <trkpt lat="47.24658" lon="7.36572">
        <ele>936</ele>
        <time>2017-06-11T07:11:12Z</time>
      </trkpt>
      <trkpt lat="47.24655" lon="7.36566">
        <ele>935</ele>
        <time>2017-06-11T07:11:14Z</time>
      </trkpt>
      <trkpt lat="47.24652" lon="7.36558">
        <ele>934</ele>
        <time>2017-06-11T07:11:16Z</time>
      </trkpt>
      <trkpt lat="47.2465" lon="7.36552">
        <ele>933</ele>
        <time>2017-06-11T07:11:18Z</time>
      </trkpt>
      <trkpt lat="47.24647" lon="7.36544">
        <ele>932</ele>
        <time>2017-06-11T07:11:20Z</time>
      </trkpt>
      <trkpt lat="47.24646" lon="7.36536">
        <ele>931</ele>
        <time>2017-06-11T07:11:22Z</time>
      </trkpt>
      <trkpt lat="47.24643" lon="7.36527">
        <ele>930</ele>
        <time>2017-06-11T07:11:24Z</time>
      </trkpt>
      <trkpt lat="47.24639" lon="7.36519">
        <ele>929</ele>
        <time>2017-06-11T07:11:26Z</time>
      </trkpt>
      <trkpt lat="47.24637" lon="7.36511">
        <ele>928</ele>
        <time>2017-06-11T07:11:28Z</time>
      </trkpt>
      <trkpt lat="47.24635" lon="7.36504">
        <ele>926</ele>
        <time>2017-06-11T07:11:30Z</time>
      </trkpt>
      <trkpt lat="47.24633" lon="7.36498">
        <ele>924</ele>
        <time>2017-06-11T07:11:32Z</time>
      </trkpt>
      <trkpt lat="47.24632" lon="7.3649">
        <ele>923</ele>
        <time>2017-06-11T07:11:35Z</time>
      </trkpt>
      <trkpt lat="47.24633" lon="7.3648">
        <ele>921</ele>
        <time>2017-06-11T07:11:38Z</time>
      </trkpt>
      <trkpt lat="47.24632" lon="7.36473">
        <ele>919</ele>
        <time>2017-06-11T07:11:40Z</time>
      </trkpt>
      <trkpt lat="47.24632" lon="7.36466">
        <ele>918</ele>
        <time>2017-06-11T07:11:42Z</time>
      </trkpt>
      <trkpt lat="47.24632" lon="7.36458">
        <ele>917</ele>
        <time>2017-06-11T07:11:44Z</time>
      </trkpt>
      <trkpt lat="47.24632" lon="7.3645">
        <ele>915</ele>
        <time>2017-06-11T07:11:46Z</time>
      </trkpt>
      <trkpt lat="47.24631" lon="7.36441">
        <ele>914</ele>
        <time>2017-06-11T07:11:49Z</time>
      </trkpt>
      <trkpt lat="47.24632" lon="7.36434">
        <ele>912</ele>
        <time>2017-06-11T07:11:52Z</time>
      </trkpt>
      <trkpt lat="47.24632" lon="7.36427">
        <ele>910</ele>
        <time>2017-06-11T07:11:55Z</time>
      </trkpt>
      <trkpt lat="47.2463" lon="7.36419">
        <ele>908</ele>
        <time>2017-06-11T07:11:58Z</time>
      </trkpt>
      <trkpt lat="47.2463" lon="7.3641">
        <ele>907</ele>
        <time>2017-06-11T07:12:01Z</time>
      </trkpt>
      <trkpt lat="47.24629" lon="7.36402">
        <ele>905</ele>
        <time>2017-06-11T07:12:04Z</time>
      </trkpt>
      <trkpt lat="47.24628" lon="7.36393">
        <ele>904</ele>
        <time>2017-06-11T07:12:07Z</time>
      </trkpt>
      <trkpt lat="47.24628" lon="7.36383">
        <ele>902</ele>
        <time>2017-06-11T07:12:10Z</time>
      </trkpt>
      <trkpt lat="47.24628" lon="7.36374">
        <ele>900</ele>
        <time>2017-06-11T07:12:13Z</time>
      </trkpt>
      <trkpt lat="47.24628" lon="7.36364">
        <ele>899</ele>
        <time>2017-06-11T07:12:16Z</time>
      </trkpt>
      <trkpt lat="47.24628" lon="7.36357">
        <ele>897</ele>
        <time>2017-06-11T07:12:18Z</time>
      </trkpt>
      <trkpt lat="47.24628" lon="7.36351">
        <ele>896</ele>
        <time>2017-06-11T07:12:20Z</time>
      </trkpt>
      <trkpt lat="47.24628" lon="7.36344">
        <ele>894</ele>
        <time>2017-06-11T07:12:22Z</time>
      </trkpt>
      <trkpt lat="47.24628" lon="7.36337">
        <ele>893</ele>
        <time>2017-06-11T07:12:24Z</time>
      </trkpt>
      <trkpt lat="47.24628" lon="7.36328">
        <ele>892</ele>
        <time>2017-06-11T07:12:27Z</time>
      </trkpt>
      <trkpt lat="47.2463" lon="7.3632">
        <ele>890</ele>
        <time>2017-06-11T07:12:30Z</time>
      </trkpt>
      <trkpt lat="47.2463" lon="7.36311">
        <ele>888</ele>
        <time>2017-06-11T07:12:33Z</time>
      </trkpt>
      <trkpt lat="47.24632" lon="7.36302">
        <ele>887</ele>
        <time>2017-06-11T07:12:34Z</time>
      </trkpt>
      <trkpt lat="47.24632" lon="7.36293">
        <ele>885</ele>
        <time>2017-06-11T07:12:36Z</time>
      </trkpt>
      <trkpt lat="47.24633" lon="7.36279">
        <ele>884</ele>
        <time>2017-06-11T07:12:41Z</time>
      </trkpt>
      <trkpt lat="47.24634" lon="7.3627">
        <ele>882</ele>
        <time>2017-06-11T07:12:44Z</time>
      </trkpt>
      <trkpt lat="47.24634" lon="7.36262">
        <ele>880</ele>
        <time>2017-06-11T07:12:47Z</time>
      </trkpt>
      <trkpt lat="47.24634" lon="7.36255">
        <ele>878</ele>
        <time>2017-06-11T07:12:50Z</time>
      </trkpt>
      <trkpt lat="47.24637" lon="7.36247">
        <ele>877</ele>
        <time>2017-06-11T07:12:54Z</time>
      </trkpt>
      <trkpt lat="47.24637" lon="7.3624">
        <ele>875</ele>
        <time>2017-06-11T07:12:58Z</time>
      </trkpt>
      <trkpt lat="47.24636" lon="7.36233">
        <ele>874</ele>
        <time>2017-06-11T07:13:01Z</time>
      </trkpt>
      <trkpt lat="47.24635" lon="7.36224">
        <ele>873</ele>
        <time>2017-06-11T07:13:04Z</time>
      </trkpt>
      <trkpt lat="47.24635" lon="7.36217">
        <ele>872</ele>
        <time>2017-06-11T07:13:06Z</time>
      </trkpt>
      <trkpt lat="47.24635" lon="7.36208">
        <ele>871</ele>
        <time>2017-06-11T07:13:09Z</time>
      </trkpt>
      <trkpt lat="47.24635" lon="7.36199">
        <ele>870</ele>
        <time>2017-06-11T07:13:12Z</time>
      </trkpt>
      <trkpt lat="47.24634" lon="7.36192">
        <ele>869</ele>
        <time>2017-06-11T07:13:15Z</time>
      </trkpt>
      <trkpt lat="47.24633" lon="7.36185">
        <ele>867</ele>
        <time>2017-06-11T07:13:18Z</time>
      </trkpt>
      <trkpt lat="47.24632" lon="7.36177">
        <ele>866</ele>
        <time>2017-06-11T07:13:21Z</time>
      </trkpt>
      <trkpt lat="47.24631" lon="7.36169">
        <ele>865</ele>
        <time>2017-06-11T07:13:24Z</time>
      </trkpt>
      <trkpt lat="47.24629" lon="7.36163">
        <ele>863</ele>
        <time>2017-06-11T07:13:27Z</time>
      </trkpt>
      <trkpt lat="47.24629" lon="7.36155">
        <ele>862</ele>
        <time>2017-06-11T07:13:30Z</time>
      </trkpt>
      <trkpt lat="47.2463" lon="7.36148">
        <ele>861</ele>
        <time>2017-06-11T07:13:32Z</time>
      </trkpt>
      <trkpt lat="47.2463" lon="7.36141">
        <ele>859</ele>
        <time>2017-06-11T07:13:34Z</time>
      </trkpt>
      <trkpt lat="47.2463" lon="7.36134">
        <ele>858</ele>
        <time>2017-06-11T07:13:36Z</time>
      </trkpt>
      <trkpt lat="47.24628" lon="7.36125">
        <ele>857</ele>
        <time>2017-06-11T07:13:39Z</time>
      </trkpt>
      <trkpt lat="47.24627" lon="7.36117">
        <ele>856</ele>
        <time>2017-06-11T07:13:42Z</time>
      </trkpt>
      <trkpt lat="47.24627" lon="7.3611">
        <ele>855</ele>
        <time>2017-06-11T07:13:45Z</time>
      </trkpt>
      <trkpt lat="47.24625" lon="7.36103">
        <ele>853</ele>
        <time>2017-06-11T07:13:48Z</time>
      </trkpt>
      <trkpt lat="47.24624" lon="7.36096">
        <ele>852</ele>
        <time>2017-06-11T07:13:51Z</time>
      </trkpt>
      <trkpt lat="47.24622" lon="7.36087">
        <ele>850</ele>
        <time>2017-06-11T07:13:54Z</time>
      </trkpt>
      <trkpt lat="47.24621" lon="7.3608">
        <ele>849</ele>
        <time>2017-06-11T07:13:57Z</time>
      </trkpt>
      <trkpt lat="47.2462" lon="7.36072">
        <ele>848</ele>
        <time>2017-06-11T07:14:00Z</time>
      </trkpt>
      <trkpt lat="47.24617" lon="7.36064">
        <ele>847</ele>
        <time>2017-06-11T07:14:03Z</time>
      </trkpt>
      <trkpt lat="47.24614" lon="7.36057">
        <ele>845</ele>
        <time>2017-06-11T07:14:06Z</time>
      </trkpt>
      <trkpt lat="47.24613" lon="7.36048">
        <ele>844</ele>
        <time>2017-06-11T07:14:09Z</time>
      </trkpt>
      <trkpt lat="47.24611" lon="7.36041">
        <ele>842</ele>
        <time>2017-06-11T07:14:11Z</time>
      </trkpt>
      <trkpt lat="47.2461" lon="7.36034">
        <ele>841</ele>
        <time>2017-06-11T07:14:13Z</time>
      </trkpt>
      <trkpt lat="47.24608" lon="7.36026">
        <ele>840</ele>
        <time>2017-06-11T07:14:16Z</time>
      </trkpt>
      <trkpt lat="47.24608" lon="7.36017">
        <ele>838</ele>
        <time>2017-06-11T07:14:21Z</time>
      </trkpt>
      <trkpt lat="47.24606" lon="7.36009">
        <ele>837</ele>
        <time>2017-06-11T07:14:24Z</time>
      </trkpt>
      <trkpt lat="47.24604" lon="7.36001">
        <ele>835</ele>
        <time>2017-06-11T07:14:27Z</time>
      </trkpt>
      <trkpt lat="47.24602" lon="7.35994">
        <ele>834</ele>
        <time>2017-06-11T07:14:30Z</time>
      </trkpt>
      <trkpt lat="47.246" lon="7.35987">
        <ele>832</ele>
        <time>2017-06-11T07:14:33Z</time>
      </trkpt>
      <trkpt lat="47.24597" lon="7.3598">
        <ele>831</ele>
        <time>2017-06-11T07:14:36Z</time>
      </trkpt>
      <trkpt lat="47.24595" lon="7.35973">
        <ele>829</ele>
        <time>2017-06-11T07:14:38Z</time>
      </trkpt>
      <trkpt lat="47.24591" lon="7.35966">
        <ele>828</ele>
        <time>2017-06-11T07:14:40Z</time>
      </trkpt>
      <trkpt lat="47.24587" lon="7.35958">
        <ele>827</ele>
        <time>2017-06-11T07:14:42Z</time>
      </trkpt>
      <trkpt lat="47.24585" lon="7.3595">
        <ele>825</ele>
        <time>2017-06-11T07:14:44Z</time>
      </trkpt>
      <trkpt lat="47.24582" lon="7.3594">
        <ele>824</ele>
        <time>2017-06-11T07:14:46Z</time>
      </trkpt>
      <trkpt lat="47.24577" lon="7.35932">
        <ele>823</ele>
        <time>2017-06-11T07:14:48Z</time>
      </trkpt>
      <trkpt lat="47.24575" lon="7.35926">
        <ele>821</ele>
        <time>2017-06-11T07:14:50Z</time>
      </trkpt>
      <trkpt lat="47.24574" lon="7.35918">
        <ele>820</ele>
        <time>2017-06-11T07:14:52Z</time>
      </trkpt>
      <trkpt lat="47.24573" lon="7.3591">
        <ele>818</ele>
        <time>2017-06-11T07:14:54Z</time>
      </trkpt>
      <trkpt lat="47.24572" lon="7.35901">
        <ele>817</ele>
        <time>2017-06-11T07:14:56Z</time>
      </trkpt>
      <trkpt lat="47.2457" lon="7.35895">
        <ele>815</ele>
        <time>2017-06-11T07:14:58Z</time>
      </trkpt>
      <trkpt lat="47.24568" lon="7.35888">
        <ele>813</ele>
        <time>2017-06-11T07:15:00Z</time>
      </trkpt>
      <trkpt lat="47.24566" lon="7.35882">
        <ele>811</ele>
        <time>2017-06-11T07:15:02Z</time>
      </trkpt>
      <trkpt lat="47.24561" lon="7.35875">
        <ele>809</ele>
        <time>2017-06-11T07:15:05Z</time>
      </trkpt>
      <trkpt lat="47.24558" lon="7.3587">
        <ele>808</ele>
        <time>2017-06-11T07:15:07Z</time>
      </trkpt>
      <trkpt lat="47.24554" lon="7.35865">
        <ele>806</ele>
        <time>2017-06-11T07:15:09Z</time>
      </trkpt>
      <trkpt lat="47.2455" lon="7.3586">
        <ele>805</ele>
        <time>2017-06-11T07:15:11Z</time>
      </trkpt>
      <trkpt lat="47.24547" lon="7.35855">
        <ele>804</ele>
        <time>2017-06-11T07:15:13Z</time>
      </trkpt>
      <trkpt lat="47.24543" lon="7.35849">
        <ele>803</ele>
        <time>2017-06-11T07:15:15Z</time>
      </trkpt>
      <trkpt lat="47.24539" lon="7.35844">
        <ele>801</ele>
        <time>2017-06-11T07:15:17Z</time>
      </trkpt>
      <trkpt lat="47.24535" lon="7.35837">
        <ele>800</ele>
        <time>2017-06-11T07:15:19Z</time>
      </trkpt>
      <trkpt lat="47.24532" lon="7.35831">
        <ele>798</ele>
        <time>2017-06-11T07:15:21Z</time>
      </trkpt>
      <trkpt lat="47.24529" lon="7.35825">
        <ele>797</ele>
        <time>2017-06-11T07:15:23Z</time>
      </trkpt>
      <trkpt lat="47.24525" lon="7.3582">
        <ele>795</ele>
        <time>2017-06-11T07:15:25Z</time>
      </trkpt>
      <trkpt lat="47.2452" lon="7.35813">
        <ele>794</ele>
        <time>2017-06-11T07:15:28Z</time>
      </trkpt>
      <trkpt lat="47.24517" lon="7.35809">
        <ele>792</ele>
        <time>2017-06-11T07:15:30Z</time>
      </trkpt>
      <trkpt lat="47.24513" lon="7.35804">
        <ele>790</ele>
        <time>2017-06-11T07:15:32Z</time>
      </trkpt>
      <trkpt lat="47.2451" lon="7.35799">
        <ele>789</ele>
        <time>2017-06-11T07:15:34Z</time>
      </trkpt>
      <trkpt lat="47.24506" lon="7.35794">
        <ele>787</ele>
        <time>2017-06-11T07:15:36Z</time>
      </trkpt>
      <trkpt lat="47.24504" lon="7.35788">
        <ele>785</ele>
        <time>2017-06-11T07:15:38Z</time>
      </trkpt>
      <trkpt lat="47.24502" lon="7.35782">
        <ele>784</ele>
        <time>2017-06-11T07:15:40Z</time>
      </trkpt>
      <trkpt lat="47.245" lon="7.35775">
        <ele>783</ele>
        <time>2017-06-11T07:15:42Z</time>
      </trkpt>
      <trkpt lat="47.24498" lon="7.3577">
        <ele>781</ele>
        <time>2017-06-11T07:15:44Z</time>
      </trkpt>
      <trkpt lat="47.24496" lon="7.35762">
        <ele>780</ele>
        <time>2017-06-11T07:15:47Z</time>
      </trkpt>
      <trkpt lat="47.24492" lon="7.35753">
        <ele>778</ele>
        <time>2017-06-11T07:15:50Z</time>
      </trkpt>
      <trkpt lat="47.24489" lon="7.35749">
        <ele>776</ele>
        <time>2017-06-11T07:15:52Z</time>
      </trkpt>
      <trkpt lat="47.24485" lon="7.35744">
        <ele>775</ele>
        <time>2017-06-11T07:15:54Z</time>
      </trkpt>
      <trkpt lat="47.24482" lon="7.35735">
        <ele>773</ele>
        <time>2017-06-11T07:15:57Z</time>
      </trkpt>
      <trkpt lat="47.24479" lon="7.35727">
        <ele>771</ele>
        <time>2017-06-11T07:16:00Z</time>
      </trkpt>
      <trkpt lat="47.24476" lon="7.35718">
        <ele>769</ele>
        <time>2017-06-11T07:16:03Z</time>
      </trkpt>
      <trkpt lat="47.24475" lon="7.3571">
        <ele>767</ele>
        <time>2017-06-11T07:16:05Z</time>
      </trkpt>
      <trkpt lat="47.24472" lon="7.35702">
        <ele>766</ele>
        <time>2017-06-11T07:16:07Z</time>
      </trkpt>
      <trkpt lat="47.2447" lon="7.35696">
        <ele>764</ele>
        <time>2017-06-11T07:16:09Z</time>
      </trkpt>
      <trkpt lat="47.24467" lon="7.35688">
        <ele>763</ele>
        <time>2017-06-11T07:16:11Z</time>
      </trkpt>
      <trkpt lat="47.24465" lon="7.3568">
        <ele>761</ele>
        <time>2017-06-11T07:16:13Z</time>
      </trkpt>
      <trkpt lat="47.24463" lon="7.35671">
        <ele>760</ele>
        <time>2017-06-11T07:16:15Z</time>
      </trkpt>
      <trkpt lat="47.24461" lon="7.35663">
        <ele>759</ele>
        <time>2017-06-11T07:16:17Z</time>
      </trkpt>
      <trkpt lat="47.24459" lon="7.35656">
        <ele>757</ele>
        <time>2017-06-11T07:16:19Z</time>
      </trkpt>
      <trkpt lat="47.24457" lon="7.35648">
        <ele>756</ele>
        <time>2017-06-11T07:16:21Z</time>
      </trkpt>
      <trkpt lat="47.24455" lon="7.35641">
        <ele>755</ele>
        <time>2017-06-11T07:16:23Z</time>
      </trkpt>
      <trkpt lat="47.24452" lon="7.35634">
        <ele>753</ele>
        <time>2017-06-11T07:16:25Z</time>
      </trkpt>
      <trkpt lat="47.2445" lon="7.35626">
        <ele>752</ele>
        <time>2017-06-11T07:16:28Z</time>
      </trkpt>
      <trkpt lat="47.24448" lon="7.35619">
        <ele>750</ele>
        <time>2017-06-11T07:16:30Z</time>
      </trkpt>
      <trkpt lat="47.24445" lon="7.35614">
        <ele>749</ele>
        <time>2017-06-11T07:16:32Z</time>
      </trkpt>
      <trkpt lat="47.24442" lon="7.35608">
        <ele>747</ele>
        <time>2017-06-11T07:16:34Z</time>
      </trkpt>
      <trkpt lat="47.24439" lon="7.35602">
        <ele>746</ele>
        <time>2017-06-11T07:16:36Z</time>
      </trkpt>
      <trkpt lat="47.24435" lon="7.35597">
        <ele>745</ele>
        <time>2017-06-11T07:16:38Z</time>
      </trkpt>
      <trkpt lat="47.24432" lon="7.35592">
        <ele>744</ele>
        <time>2017-06-11T07:16:40Z</time>
      </trkpt>
      <trkpt lat="47.24428" lon="7.35587">
        <ele>742</ele>
        <time>2017-06-11T07:16:42Z</time>
      </trkpt>
      <trkpt lat="47.24423" lon="7.35582">
        <ele>741</ele>
        <time>2017-06-11T07:16:45Z</time>
      </trkpt>
      <trkpt lat="47.24417" lon="7.3558">
        <ele>739</ele>
        <time>2017-06-11T07:16:48Z</time>
      </trkpt>
      <trkpt lat="47.24412" lon="7.35582">
        <ele>737</ele>
        <time>2017-06-11T07:16:51Z</time>
      </trkpt>
      <trkpt lat="47.24406" lon="7.35586">
        <ele>735</ele>
        <time>2017-06-11T07:16:54Z</time>
      </trkpt>
      <trkpt lat="47.244" lon="7.35592">
        <ele>733</ele>
        <time>2017-06-11T07:16:57Z</time>
      </trkpt>
      <trkpt lat="47.24397" lon="7.35599">
        <ele>731</ele>
        <time>2017-06-11T07:17:00Z</time>
      </trkpt>
      <trkpt lat="47.24394" lon="7.35605">
        <ele>729</ele>
        <time>2017-06-11T07:17:02Z</time>
      </trkpt>
      <trkpt lat="47.24392" lon="7.35612">
        <ele>727</ele>
        <time>2017-06-11T07:17:04Z</time>
      </trkpt>
      <trkpt lat="47.24389" lon="7.35618">
        <ele>726</ele>
        <time>2017-06-11T07:17:06Z</time>
      </trkpt>
      <trkpt lat="47.24387" lon="7.35624">
        <ele>724</ele>
        <time>2017-06-11T07:17:08Z</time>
      </trkpt>
      <trkpt lat="47.24386" lon="7.35631">
        <ele>723</ele>
        <time>2017-06-11T07:17:10Z</time>
      </trkpt>
      <trkpt lat="47.24384" lon="7.35638">
        <ele>721</ele>
        <time>2017-06-11T07:17:12Z</time>
      </trkpt>
      <trkpt lat="47.24382" lon="7.35644">
        <ele>720</ele>
        <time>2017-06-11T07:17:14Z</time>
      </trkpt>
      <trkpt lat="47.24379" lon="7.35651">
        <ele>718</ele>
        <time>2017-06-11T07:17:16Z</time>
      </trkpt>
      <trkpt lat="47.24376" lon="7.35657">
        <ele>717</ele>
        <time>2017-06-11T07:17:18Z</time>
      </trkpt>
      <trkpt lat="47.24373" lon="7.35663">
        <ele>716</ele>
        <time>2017-06-11T07:17:20Z</time>
      </trkpt>
      <trkpt lat="47.2437" lon="7.35655">
        <ele>714</ele>
        <time>2017-06-11T07:17:25Z</time>
      </trkpt>
      <trkpt lat="47.24371" lon="7.35649">
        <ele>713</ele>
        <time>2017-06-11T07:17:27Z</time>
      </trkpt>
      <trkpt lat="47.24373" lon="7.35642">
        <ele>712</ele>
        <time>2017-06-11T07:17:29Z</time>
      </trkpt>
      <trkpt lat="47.24374" lon="7.35635">
        <ele>711</ele>
        <time>2017-06-11T07:17:31Z</time>
      </trkpt>
      <trkpt lat="47.24375" lon="7.35628">
        <ele>710</ele>
        <time>2017-06-11T07:17:33Z</time>
      </trkpt>
      <trkpt lat="47.24376" lon="7.35621">
        <ele>709</ele>
        <time>2017-06-11T07:17:35Z</time>
      </trkpt>
      <trkpt lat="47.24377" lon="7.35613">
        <ele>709</ele>
        <time>2017-06-11T07:17:38Z</time>
      </trkpt>
      <trkpt lat="47.24377" lon="7.35606">
        <ele>708</ele>
        <time>2017-06-11T07:17:40Z</time>
      </trkpt>
      <trkpt lat="47.24375" lon="7.356">
        <ele>707</ele>
        <time>2017-06-11T07:17:42Z</time>
      </trkpt>
      <trkpt lat="47.24372" lon="7.35591">
        <ele>707</ele>
        <time>2017-06-11T07:17:45Z</time>
      </trkpt>
      <trkpt lat="47.24368" lon="7.35587">
        <ele>706</ele>
        <time>2017-06-11T07:17:47Z</time>
      </trkpt>
      <trkpt lat="47.24363" lon="7.35582">
        <ele>706</ele>
        <time>2017-06-11T07:17:50Z</time>
      </trkpt>
      <trkpt lat="47.24358" lon="7.35576">
        <ele>705</ele>
        <time>2017-06-11T07:17:53Z</time>
      </trkpt>
      <trkpt lat="47.24354" lon="7.35572">
        <ele>705</ele>
        <time>2017-06-11T07:17:55Z</time>
      </trkpt>
      <trkpt lat="47.24351" lon="7.35567">
        <ele>704</ele>
        <time>2017-06-11T07:17:57Z</time>
      </trkpt>
      <trkpt lat="47.24347" lon="7.35561">
        <ele>704</ele>
        <time>2017-06-11T07:17:59Z</time>
      </trkpt>
      <trkpt lat="47.24344" lon="7.35555">
        <ele>704</ele>
        <time>2017-06-11T07:18:01Z</time>
      </trkpt>
      <trkpt lat="47.24342" lon="7.35547">
        <ele>703</ele>
        <time>2017-06-11T07:18:03Z</time>
      </trkpt>
      <trkpt lat="47.2434" lon="7.3554">
        <ele>703</ele>
        <time>2017-06-11T07:18:05Z</time>
      </trkpt>
      <trkpt lat="47.2434" lon="7.35533">
        <ele>702</ele>
        <time>2017-06-11T07:18:07Z</time>
      </trkpt>
      <trkpt lat="47.24339" lon="7.35526">
        <ele>701</ele>
        <time>2017-06-11T07:18:09Z</time>
      </trkpt>
      <trkpt lat="47.24338" lon="7.35518">
        <ele>701</ele>
        <time>2017-06-11T07:18:11Z</time>
      </trkpt>
      <trkpt lat="47.24337" lon="7.3551">
        <ele>701</ele>
        <time>2017-06-11T07:18:13Z</time>
      </trkpt>
      <trkpt lat="47.24337" lon="7.35501">
        <ele>700</ele>
        <time>2017-06-11T07:18:16Z</time>
      </trkpt>
      <trkpt lat="47.24338" lon="7.35492">
        <ele>700</ele>
        <time>2017-06-11T07:18:19Z</time>
      </trkpt>
      <trkpt lat="47.24339" lon="7.3548">
        <ele>700</ele>
        <time>2017-06-11T07:18:26Z</time>
      </trkpt>
      <trkpt lat="47.24337" lon="7.35471">
        <ele>699</ele>
        <time>2017-06-11T07:18:30Z</time>
      </trkpt>
      <trkpt lat="47.24333" lon="7.35466">
        <ele>698</ele>
        <time>2017-06-11T07:18:32Z</time>
      </trkpt>
      <trkpt lat="47.24328" lon="7.35462">
        <ele>698</ele>
        <time>2017-06-11T07:18:34Z</time>
      </trkpt>
      <trkpt lat="47.24323" lon="7.35457">
        <ele>696</ele>
        <time>2017-06-11T07:18:37Z</time>
      </trkpt>
      <trkpt lat="47.24317" lon="7.35453">
        <ele>696</ele>
        <time>2017-06-11T07:18:40Z</time>
      </trkpt>
      <trkpt lat="47.24312" lon="7.35449">
        <ele>695</ele>
        <time>2017-06-11T07:18:43Z</time>
      </trkpt>
      <trkpt lat="47.24307" lon="7.35442">
        <ele>695</ele>
        <time>2017-06-11T07:18:46Z</time>
      </trkpt>
      <trkpt lat="47.24304" lon="7.35437">
        <ele>694</ele>
        <time>2017-06-11T07:18:48Z</time>
      </trkpt>
      <trkpt lat="47.243" lon="7.3543">
        <ele>694</ele>
        <time>2017-06-11T07:18:51Z</time>
      </trkpt>
      <trkpt lat="47.24298" lon="7.35423">
        <ele>693</ele>
        <time>2017-06-11T07:18:53Z</time>
      </trkpt>
      <trkpt lat="47.24299" lon="7.35414">
        <ele>693</ele>
        <time>2017-06-11T07:18:55Z</time>
      </trkpt>
      <trkpt lat="47.24299" lon="7.35404">
        <ele>692</ele>
        <time>2017-06-11T07:18:57Z</time>
      </trkpt>
      <trkpt lat="47.24301" lon="7.35394">
        <ele>692</ele>
        <time>2017-06-11T07:18:59Z</time>
      </trkpt>
      <trkpt lat="47.24302" lon="7.35384">
        <ele>691</ele>
        <time>2017-06-11T07:19:01Z</time>
      </trkpt>
      <trkpt lat="47.24303" lon="7.35375">
        <ele>691</ele>
        <time>2017-06-11T07:19:03Z</time>
      </trkpt>
      <trkpt lat="47.24305" lon="7.35366">
        <ele>691</ele>
        <time>2017-06-11T07:19:05Z</time>
      </trkpt>
      <trkpt lat="47.24307" lon="7.35359">
        <ele>691</ele>
        <time>2017-06-11T07:19:07Z</time>
      </trkpt>
      <trkpt lat="47.24309" lon="7.35351">
        <ele>691</ele>
        <time>2017-06-11T07:19:09Z</time>
      </trkpt>
      <trkpt lat="47.2431" lon="7.35342">
        <ele>691</ele>
        <time>2017-06-11T07:19:11Z</time>
      </trkpt>
      <trkpt lat="47.24312" lon="7.35334">
        <ele>691</ele>
        <time>2017-06-11T07:19:13Z</time>
      </trkpt>
      <trkpt lat="47.24313" lon="7.35327">
        <ele>691</ele>
        <time>2017-06-11T07:19:15Z</time>
      </trkpt>
      <trkpt lat="47.24314" lon="7.3532">
        <ele>691</ele>
        <time>2017-06-11T07:19:17Z</time>
      </trkpt>
      <trkpt lat="47.24316" lon="7.35313">
        <ele>691</ele>
        <time>2017-06-11T07:19:19Z</time>
      </trkpt>
      <trkpt lat="47.24318" lon="7.35306">
        <ele>691</ele>
        <time>2017-06-11T07:19:21Z</time>
      </trkpt>
      <trkpt lat="47.24318" lon="7.35298">
        <ele>691</ele>
        <time>2017-06-11T07:19:23Z</time>
      </trkpt>
      <trkpt lat="47.2432" lon="7.35291">
        <ele>691</ele>
        <time>2017-06-11T07:19:25Z</time>
      </trkpt>
      <trkpt lat="47.24321" lon="7.35283">
        <ele>691</ele>
        <time>2017-06-11T07:19:27Z</time>
      </trkpt>
      <trkpt lat="47.24323" lon="7.35277">
        <ele>691</ele>
        <time>2017-06-11T07:19:29Z</time>
      </trkpt>
      <trkpt lat="47.24325" lon="7.35271">
        <ele>691</ele>
        <time>2017-06-11T07:19:31Z</time>
      </trkpt>
      <trkpt lat="47.24327" lon="7.35262">
        <ele>691</ele>
        <time>2017-06-11T07:19:34Z</time>
      </trkpt>
      <trkpt lat="47.24329" lon="7.35255">
        <ele>692</ele>
        <time>2017-06-11T07:19:36Z</time>
      </trkpt>
      <trkpt lat="47.2433" lon="7.35248">
        <ele>692</ele>
        <time>2017-06-11T07:19:38Z</time>
      </trkpt>
      <trkpt lat="47.24331" lon="7.35242">
        <ele>692</ele>
        <time>2017-06-11T07:19:40Z</time>
      </trkpt>
      <trkpt lat="47.24334" lon="7.35235">
        <ele>692</ele>
        <time>2017-06-11T07:19:42Z</time>
      </trkpt>
      <trkpt lat="47.24336" lon="7.35227">
        <ele>693</ele>
        <time>2017-06-11T07:19:44Z</time>
      </trkpt>
      <trkpt lat="47.24338" lon="7.35219">
        <ele>693</ele>
        <time>2017-06-11T07:19:46Z</time>
      </trkpt>
      <trkpt lat="47.2434" lon="7.35211">
        <ele>693</ele>
        <time>2017-06-11T07:19:48Z</time>
      </trkpt>
      <trkpt lat="47.24343" lon="7.35203">
        <ele>693</ele>
        <time>2017-06-11T07:19:50Z</time>
      </trkpt>
      <trkpt lat="47.24345" lon="7.35195">
        <ele>693</ele>
        <time>2017-06-11T07:19:52Z</time>
      </trkpt>
      <trkpt lat="47.24347" lon="7.35187">
        <ele>693</ele>
        <time>2017-06-11T07:19:54Z</time>
      </trkpt>
      <trkpt lat="47.24349" lon="7.3518">
        <ele>694</ele>
        <time>2017-06-11T07:19:56Z</time>
      </trkpt>
      <trkpt lat="47.24351" lon="7.35173">
        <ele>694</ele>
        <time>2017-06-11T07:19:58Z</time>
      </trkpt>
      <trkpt lat="47.24352" lon="7.35166">
        <ele>694</ele>
        <time>2017-06-11T07:20:00Z</time>
      </trkpt>
      <trkpt lat="47.24353" lon="7.3516">
        <ele>694</ele>
        <time>2017-06-11T07:20:02Z</time>
      </trkpt>
      <trkpt lat="47.24354" lon="7.35153">
        <ele>694</ele>
        <time>2017-06-11T07:20:04Z</time>
      </trkpt>
      <trkpt lat="47.24355" lon="7.35145">
        <ele>694</ele>
        <time>2017-06-11T07:20:06Z</time>
      </trkpt>
      <trkpt lat="47.24357" lon="7.35137">
        <ele>695</ele>
        <time>2017-06-11T07:20:08Z</time>
      </trkpt>
      <trkpt lat="47.24359" lon="7.35129">
        <ele>695</ele>
        <time>2017-06-11T07:20:10Z</time>
      </trkpt>
      <trkpt lat="47.2436" lon="7.3512">
        <ele>695</ele>
        <time>2017-06-11T07:20:12Z</time>
      </trkpt>
      <trkpt lat="47.24362" lon="7.35113">
        <ele>695</ele>
        <time>2017-06-11T07:20:14Z</time>
      </trkpt>
      <trkpt lat="47.24365" lon="7.35106">
        <ele>695</ele>
        <time>2017-06-11T07:20:16Z</time>
      </trkpt>
      <trkpt lat="47.24368" lon="7.35099">
        <ele>695</ele>
        <time>2017-06-11T07:20:18Z</time>
      </trkpt>
      <trkpt lat="47.2437" lon="7.35092">
        <ele>695</ele>
        <time>2017-06-11T07:20:20Z</time>
      </trkpt>
      <trkpt lat="47.24373" lon="7.35086">
        <ele>695</ele>
        <time>2017-06-11T07:20:22Z</time>
      </trkpt>
      <trkpt lat="47.24374" lon="7.35078">
        <ele>695</ele>
        <time>2017-06-11T07:20:24Z</time>
      </trkpt>
      <trkpt lat="47.24376" lon="7.35072">
        <ele>695</ele>
        <time>2017-06-11T07:20:26Z</time>
      </trkpt>
      <trkpt lat="47.24378" lon="7.35065">
        <ele>695</ele>
        <time>2017-06-11T07:20:28Z</time>
      </trkpt>
      <trkpt lat="47.24381" lon="7.35059">
        <ele>695</ele>
        <time>2017-06-11T07:20:30Z</time>
      </trkpt>
      <trkpt lat="47.24382" lon="7.35053">
        <ele>695</ele>
        <time>2017-06-11T07:20:32Z</time>
      </trkpt>
      <trkpt lat="47.24385" lon="7.35047">
        <ele>695</ele>
        <time>2017-06-11T07:20:34Z</time>
      </trkpt>
      <trkpt lat="47.24387" lon="7.35039">
        <ele>695</ele>
        <time>2017-06-11T07:20:36Z</time>
      </trkpt>
      <trkpt lat="47.24389" lon="7.35033">
        <ele>694</ele>
        <time>2017-06-11T07:20:38Z</time>
      </trkpt>
      <trkpt lat="47.24391" lon="7.35026">
        <ele>694</ele>
        <time>2017-06-11T07:20:40Z</time>
      </trkpt>
      <trkpt lat="47.24393" lon="7.35019">
        <ele>694</ele>
        <time>2017-06-11T07:20:42Z</time>
      </trkpt>
      <trkpt lat="47.24394" lon="7.35013">
        <ele>694</ele>
        <time>2017-06-11T07:20:44Z</time>
      </trkpt>
      <trkpt lat="47.24396" lon="7.35006">
        <ele>694</ele>
        <time>2017-06-11T07:20:46Z</time>
      </trkpt>
      <trkpt lat="47.24398" lon="7.34999">
        <ele>694</ele>
        <time>2017-06-11T07:20:48Z</time>
      </trkpt>
      <trkpt lat="47.244" lon="7.34992">
        <ele>694</ele>
        <time>2017-06-11T07:20:50Z</time>
      </trkpt>
      <trkpt lat="47.24402" lon="7.34984">
        <ele>694</ele>
        <time>2017-06-11T07:20:52Z</time>
      </trkpt>
      <trkpt lat="47.24405" lon="7.34977">
        <ele>694</ele>
        <time>2017-06-11T07:20:54Z</time>
      </trkpt>
      <trkpt lat="47.24407" lon="7.34969">
        <ele>694</ele>
        <time>2017-06-11T07:20:56Z</time>
      </trkpt>
      <trkpt lat="47.2441" lon="7.34962">
        <ele>693</ele>
        <time>2017-06-11T07:20:58Z</time>
      </trkpt>
      <trkpt lat="47.24412" lon="7.34954">
        <ele>693</ele>
        <time>2017-06-11T07:21:00Z</time>
      </trkpt>
      <trkpt lat="47.24414" lon="7.34946">
        <ele>693</ele>
        <time>2017-06-11T07:21:02Z</time>
      </trkpt>
      <trkpt lat="47.24415" lon="7.34939">
        <ele>693</ele>
        <time>2017-06-11T07:21:04Z</time>
      </trkpt>
      <trkpt lat="47.24417" lon="7.34931">
        <ele>693</ele>
        <time>2017-06-11T07:21:06Z</time>
      </trkpt>
      <trkpt lat="47.24418" lon="7.34924">
        <ele>692</ele>
        <time>2017-06-11T07:21:08Z</time>
      </trkpt>
      <trkpt lat="47.2442" lon="7.34916">
        <ele>692</ele>
        <time>2017-06-11T07:21:10Z</time>
      </trkpt>
      <trkpt lat="47.24421" lon="7.34909">
        <ele>692</ele>
        <time>2017-06-11T07:21:12Z</time>
      </trkpt>
      <trkpt lat="47.24423" lon="7.34902">
        <ele>691</ele>
        <time>2017-06-11T07:21:14Z</time>
      </trkpt>
      <trkpt lat="47.24425" lon="7.34895">
        <ele>691</ele>
        <time>2017-06-11T07:21:16Z</time>
      </trkpt>
      <trkpt lat="47.24427" lon="7.34889">
        <ele>691</ele>
        <time>2017-06-11T07:21:18Z</time>
      </trkpt>
      <trkpt lat="47.2443" lon="7.34883">
        <ele>690</ele>
        <time>2017-06-11T07:21:20Z</time>
      </trkpt>
      <trkpt lat="47.24434" lon="7.34879">
        <ele>690</ele>
        <time>2017-06-11T07:21:22Z</time>
      </trkpt>
      <trkpt lat="47.24438" lon="7.34876">
        <ele>689</ele>
        <time>2017-06-11T07:21:24Z</time>
      </trkpt>
      <trkpt lat="47.24442" lon="7.34874">
        <ele>688</ele>
        <time>2017-06-11T07:21:26Z</time>
      </trkpt>
      <trkpt lat="47.24448" lon="7.3487">
        <ele>687</ele>
        <time>2017-06-11T07:21:29Z</time>
      </trkpt>
      <trkpt lat="47.2445" lon="7.34863">
        <ele>686</ele>
        <time>2017-06-11T07:21:32Z</time>
      </trkpt>
      <trkpt lat="47.24449" lon="7.34855">
        <ele>686</ele>
        <time>2017-06-11T07:21:35Z</time>
      </trkpt>
      <trkpt lat="47.24447" lon="7.34848">
        <ele>685</ele>
        <time>2017-06-11T07:21:38Z</time>
      </trkpt>
      <trkpt lat="47.24443" lon="7.34844">
        <ele>685</ele>
        <time>2017-06-11T07:21:43Z</time>
      </trkpt>
      <trkpt lat="47.24438" lon="7.34843">
        <ele>685</ele>
        <time>2017-06-11T07:21:48Z</time>
      </trkpt>
      <trkpt lat="47.24433" lon="7.34843">
        <ele>684</ele>
        <time>2017-06-11T07:21:51Z</time>
      </trkpt>
      <trkpt lat="47.24426" lon="7.34842">
        <ele>684</ele>
        <time>2017-06-11T07:21:54Z</time>
      </trkpt>
      <trkpt lat="47.2442" lon="7.3484">
        <ele>683</ele>
        <time>2017-06-11T07:21:57Z</time>
      </trkpt>
      <trkpt lat="47.24415" lon="7.34836">
        <ele>683</ele>
        <time>2017-06-11T07:21:59Z</time>
      </trkpt>
      <trkpt lat="47.24411" lon="7.34832">
        <ele>682</ele>
        <time>2017-06-11T07:22:01Z</time>
      </trkpt>
      <trkpt lat="47.24407" lon="7.34825">
        <ele>682</ele>
        <time>2017-06-11T07:22:04Z</time>
      </trkpt>
      <trkpt lat="47.24403" lon="7.3482">
        <ele>682</ele>
        <time>2017-06-11T07:22:06Z</time>
      </trkpt>
      <trkpt lat="47.24401" lon="7.34812">
        <ele>682</ele>
        <time>2017-06-11T07:22:09Z</time>
      </trkpt>
      <trkpt lat="47.24399" lon="7.34803">
        <ele>682</ele>
        <time>2017-06-11T07:22:12Z</time>
      </trkpt>
      <trkpt lat="47.24397" lon="7.34794">
        <ele>682</ele>
        <time>2017-06-11T07:22:15Z</time>
      </trkpt>
      <trkpt lat="47.24395" lon="7.34788">
        <ele>682</ele>
        <time>2017-06-11T07:22:17Z</time>
      </trkpt>
      <trkpt lat="47.2439" lon="7.34782">
        <ele>682</ele>
        <time>2017-06-11T07:22:20Z</time>
      </trkpt>
      <trkpt lat="47.24386" lon="7.3478">
        <ele>682</ele>
        <time>2017-06-11T07:22:24Z</time>
      </trkpt>
      <trkpt lat="47.24386" lon="7.34775">
        <ele>681</ele>
        <time>2017-06-11T07:22:46Z</time>
      </trkpt>
      <trkpt lat="47.24396" lon="7.34775">
        <ele>680</ele>
        <time>2017-06-11T07:22:49Z</time>
      </trkpt>
      <trkpt lat="47.24394" lon="7.34759">
        <ele>681</ele>
        <time>2017-06-11T07:22:52Z</time>
      </trkpt>
      <trkpt lat="47.24398" lon="7.34763">
        <ele>682</ele>
        <time>2017-06-11T07:22:57Z</time>
      </trkpt>
      <trkpt lat="47.24404" lon="7.34764">
        <ele>683</ele>
        <time>2017-06-11T07:23:00Z</time>
      </trkpt>
      <trkpt lat="47.24409" lon="7.34764">
        <ele>684</ele>
        <time>2017-06-11T07:23:02Z</time>
      </trkpt>
      <trkpt lat="47.24415" lon="7.34762">
        <ele>686</ele>
        <time>2017-06-11T07:23:05Z</time>
      </trkpt>
      <trkpt lat="47.24421" lon="7.34759">
        <ele>686</ele>
        <time>2017-06-11T07:23:08Z</time>
      </trkpt>
      <trkpt lat="47.24427" lon="7.34755">
        <ele>685</ele>
        <time>2017-06-11T07:23:11Z</time>
      </trkpt>
      <trkpt lat="47.24432" lon="7.34751">
        <ele>686</ele>
        <time>2017-06-11T07:23:14Z</time>
      </trkpt>
      <trkpt lat="47.24439" lon="7.34753">
        <ele>686</ele>
        <time>2017-06-11T07:23:18Z</time>
      </trkpt>
      <trkpt lat="47.24447" lon="7.34756">
        <ele>687</ele>
        <time>2017-06-11T07:23:20Z</time>
      </trkpt>
      <trkpt lat="47.24452" lon="7.34758">
        <ele>688</ele>
        <time>2017-06-11T07:23:22Z</time>
      </trkpt>
      <trkpt lat="47.24458" lon="7.34758">
        <ele>689</ele>
        <time>2017-06-11T07:23:24Z</time>
      </trkpt>
      <trkpt lat="47.24464" lon="7.34758">
        <ele>690</ele>
        <time>2017-06-11T07:23:26Z</time>
      </trkpt>
      <trkpt lat="47.2447" lon="7.34759">
        <ele>690</ele>
        <time>2017-06-11T07:23:28Z</time>
      </trkpt>
      <trkpt lat="47.24475" lon="7.3476">
        <ele>690</ele>
        <time>2017-06-11T07:23:30Z</time>
      </trkpt>
      <trkpt lat="47.2448" lon="7.34762">
        <ele>690</ele>
        <time>2017-06-11T07:23:32Z</time>
      </trkpt>
      <trkpt lat="47.24485" lon="7.34763">
        <ele>689</ele>
        <time>2017-06-11T07:23:34Z</time>
      </trkpt>
      <trkpt lat="47.2449" lon="7.34766">
        <ele>689</ele>
        <time>2017-06-11T07:23:36Z</time>
      </trkpt>
      <trkpt lat="47.24495" lon="7.34768">
        <ele>689</ele>
        <time>2017-06-11T07:23:38Z</time>
      </trkpt>
      <trkpt lat="47.245" lon="7.34771">
        <ele>689</ele>
        <time>2017-06-11T07:23:40Z</time>
      </trkpt>
      <trkpt lat="47.24505" lon="7.34775">
        <ele>689</ele>
        <time>2017-06-11T07:23:42Z</time>
      </trkpt>
      <trkpt lat="47.24509" lon="7.34778">
        <ele>689</ele>
        <time>2017-06-11T07:23:44Z</time>
      </trkpt>
      <trkpt lat="47.24514" lon="7.34782">
        <ele>689</ele>
        <time>2017-06-11T07:23:46Z</time>
      </trkpt>
      <trkpt lat="47.24519" lon="7.34786">
        <ele>689</ele>
        <time>2017-06-11T07:23:49Z</time>
      </trkpt>
      <trkpt lat="47.24524" lon="7.34791">
        <ele>688</ele>
        <time>2017-06-11T07:23:53Z</time>
      </trkpt>
      <trkpt lat="47.24523" lon="7.34798">
        <ele>688</ele>
        <time>2017-06-11T07:24:00Z</time>
      </trkpt>
      <trkpt lat="47.24519" lon="7.34804">
        <ele>687</ele>
        <time>2017-06-11T07:24:07Z</time>
      </trkpt>
      <trkpt lat="47.24515" lon="7.34808">
        <ele>686</ele>
        <time>2017-06-11T07:24:12Z</time>
      </trkpt>
      <trkpt lat="47.24517" lon="7.34801">
        <ele>686</ele>
        <time>2017-06-11T07:24:19Z</time>
      </trkpt>
      <trkpt lat="47.24516" lon="7.34789">
        <ele>687</ele>
        <time>2017-06-11T07:24:21Z</time>
      </trkpt>
      <trkpt lat="47.24514" lon="7.34783">
        <ele>688</ele>
        <time>2017-06-11T07:24:23Z</time>
      </trkpt>
      <trkpt lat="47.24512" lon="7.34777">
        <ele>690</ele>
        <time>2017-06-11T07:24:25Z</time>
      </trkpt>
      <trkpt lat="47.24511" lon="7.34769">
        <ele>692</ele>
        <time>2017-06-11T07:24:27Z</time>
      </trkpt>
      <trkpt lat="47.24511" lon="7.34761">
        <ele>694</ele>
        <time>2017-06-11T07:24:30Z</time>
      </trkpt>
      <trkpt lat="47.2451" lon="7.34755">
        <ele>696</ele>
        <time>2017-06-11T07:24:35Z</time>
      </trkpt>
      <trkpt lat="47.24508" lon="7.34748">
        <ele>698</ele>
        <time>2017-06-11T07:24:42Z</time>
      </trkpt>
      <trkpt lat="47.24504" lon="7.3474">
        <ele>700</ele>
        <time>2017-06-11T07:24:55Z</time>
      </trkpt>
      <trkpt lat="47.24505" lon="7.34727">
        <ele>701</ele>
        <time>2017-06-11T07:25:14Z</time>
      </trkpt>
      <trkpt lat="47.24509" lon="7.34723">
        <ele>702</ele>
        <time>2017-06-11T07:25:29Z</time>
      </trkpt>
      <trkpt lat="47.24503" lon="7.34723">
        <ele>703</ele>
        <time>2017-06-11T07:25:37Z</time>
      </trkpt>
      <trkpt lat="47.24499" lon="7.34726">
        <ele>703</ele>
        <time>2017-06-11T07:25:40Z</time>
      </trkpt>
      <trkpt lat="47.24496" lon="7.3472">
        <ele>702</ele>
        <time>2017-06-11T07:25:44Z</time>
      </trkpt>
      <trkpt lat="47.24493" lon="7.34713">
        <ele>702</ele>
        <time>2017-06-11T07:25:49Z</time>
      </trkpt>
      <trkpt lat="47.24492" lon="7.34706">
        <ele>701</ele>
        <time>2017-06-11T07:25:54Z</time>
      </trkpt>
      <trkpt lat="47.2449" lon="7.34697">
        <ele>700</ele>
        <time>2017-06-11T07:26:04Z</time>
      </trkpt>
      <trkpt lat="47.24491" lon="7.3469">
        <ele>698</ele>
        <time>2017-06-11T07:26:10Z</time>
      </trkpt>
      <trkpt lat="47.24491" lon="7.34683">
        <ele>697</ele>
        <time>2017-06-11T07:26:16Z</time>
      </trkpt>
      <trkpt lat="47.24491" lon="7.34676">
        <ele>696</ele>
        <time>2017-06-11T07:26:20Z</time>
      </trkpt>
      <trkpt lat="47.2449" lon="7.34669">
        <ele>696</ele>
        <time>2017-06-11T07:26:25Z</time>
      </trkpt>
      <trkpt lat="47.24486" lon="7.34663">
        <ele>696</ele>
        <time>2017-06-11T07:26:30Z</time>
      </trkpt>
      <trkpt lat="47.24484" lon="7.34655">
        <ele>696</ele>
        <time>2017-06-11T07:26:34Z</time>
      </trkpt>
      <trkpt lat="47.24482" lon="7.34649">
        <ele>697</ele>
        <time>2017-06-11T07:26:37Z</time>
      </trkpt>
      <trkpt lat="47.24483" lon="7.34641">
        <ele>697</ele>
        <time>2017-06-11T07:26:40Z</time>
      </trkpt>
      <trkpt lat="47.24482" lon="7.34634">
        <ele>697</ele>
        <time>2017-06-11T07:26:43Z</time>
      </trkpt>
      <trkpt lat="47.24482" lon="7.34625">
        <ele>697</ele>
        <time>2017-06-11T07:26:46Z</time>
      </trkpt>
      <trkpt lat="47.24481" lon="7.34618">
        <ele>698</ele>
        <time>2017-06-11T07:26:48Z</time>
      </trkpt>
      <trkpt lat="47.2448" lon="7.3461">
        <ele>698</ele>
        <time>2017-06-11T07:26:52Z</time>
      </trkpt>
      <trkpt lat="47.24481" lon="7.34602">
        <ele>698</ele>
        <time>2017-06-11T07:26:55Z</time>
      </trkpt>
      <trkpt lat="47.24481" lon="7.34595">
        <ele>697</ele>
        <time>2017-06-11T07:26:59Z</time>
      </trkpt>
      <trkpt lat="47.2448" lon="7.34588">
        <ele>697</ele>
        <time>2017-06-11T07:27:03Z</time>
      </trkpt>
      <trkpt lat="47.2448" lon="7.3458">
        <ele>697</ele>
        <time>2017-06-11T07:27:08Z</time>
      </trkpt>
      <trkpt lat="47.24477" lon="7.34574">
        <ele>697</ele>
        <time>2017-06-11T07:27:12Z</time>
      </trkpt>
      <trkpt lat="47.24476" lon="7.34567">
        <ele>697</ele>
        <time>2017-06-11T07:27:16Z</time>
      </trkpt>
      <trkpt lat="47.24477" lon="7.34559">
        <ele>697</ele>
        <time>2017-06-11T07:27:20Z</time>
      </trkpt>
      <trkpt lat="47.24477" lon="7.34551">
        <ele>697</ele>
        <time>2017-06-11T07:27:24Z</time>
      </trkpt>
      <trkpt lat="47.24477" lon="7.34543">
        <ele>697</ele>
        <time>2017-06-11T07:27:28Z</time>
      </trkpt>
      <trkpt lat="47.24477" lon="7.34536">
        <ele>697</ele>
        <time>2017-06-11T07:27:32Z</time>
      </trkpt>
      <trkpt lat="47.24479" lon="7.34529">
        <ele>698</ele>
        <time>2017-06-11T07:27:38Z</time>
      </trkpt>
      <trkpt lat="47.24479" lon="7.34521">
        <ele>698</ele>
        <time>2017-06-11T07:27:44Z</time>
      </trkpt>
      <trkpt lat="47.2448" lon="7.34513">
        <ele>699</ele>
        <time>2017-06-11T07:27:49Z</time>
      </trkpt>
      <trkpt lat="47.2448" lon="7.34506">
        <ele>699</ele>
        <time>2017-06-11T07:27:53Z</time>
      </trkpt>
      <trkpt lat="47.2448" lon="7.34495">
        <ele>700</ele>
        <time>2017-06-11T07:27:59Z</time>
      </trkpt>
      <trkpt lat="47.2448" lon="7.34488">
        <ele>701</ele>
        <time>2017-06-11T07:28:03Z</time>
      </trkpt>
      <trkpt lat="47.24481" lon="7.3448">
        <ele>702</ele>
        <time>2017-06-11T07:28:07Z</time>
      </trkpt>
      <trkpt lat="47.24479" lon="7.34473">
        <ele>703</ele>
        <time>2017-06-11T07:28:12Z</time>
      </trkpt>
      <trkpt lat="47.24478" lon="7.34467">
        <ele>704</ele>
        <time>2017-06-11T07:28:16Z</time>
      </trkpt>
      <trkpt lat="47.24475" lon="7.34461">
        <ele>704</ele>
        <time>2017-06-11T07:28:21Z</time>
      </trkpt>
      <trkpt lat="47.24472" lon="7.34454">
        <ele>705</ele>
        <time>2017-06-11T07:28:25Z</time>
      </trkpt>
      <trkpt lat="47.24472" lon="7.34447">
        <ele>705</ele>
        <time>2017-06-11T07:28:28Z</time>
      </trkpt>
      <trkpt lat="47.24471" lon="7.34438">
        <ele>706</ele>
        <time>2017-06-11T07:28:31Z</time>
      </trkpt>
      <trkpt lat="47.24471" lon="7.3443">
        <ele>706</ele>
        <time>2017-06-11T07:28:34Z</time>
      </trkpt>
      <trkpt lat="47.2447" lon="7.34422">
        <ele>707</ele>
        <time>2017-06-11T07:28:39Z</time>
      </trkpt>
      <trkpt lat="47.24466" lon="7.34417">
        <ele>708</ele>
        <time>2017-06-11T07:28:44Z</time>
      </trkpt>
      <trkpt lat="47.24466" lon="7.3441">
        <ele>709</ele>
        <time>2017-06-11T07:28:48Z</time>
      </trkpt>
      <trkpt lat="47.24466" lon="7.34401">
        <ele>710</ele>
        <time>2017-06-11T07:28:51Z</time>
      </trkpt>
      <trkpt lat="47.24465" lon="7.34394">
        <ele>711</ele>
        <time>2017-06-11T07:28:54Z</time>
      </trkpt>
      <trkpt lat="47.24463" lon="7.34386">
        <ele>712</ele>
        <time>2017-06-11T07:28:58Z</time>
      </trkpt>
      <trkpt lat="47.2446" lon="7.34378">
        <ele>712</ele>
        <time>2017-06-11T07:29:02Z</time>
      </trkpt>
      <trkpt lat="47.24458" lon="7.34371">
        <ele>713</ele>
        <time>2017-06-11T07:29:05Z</time>
      </trkpt>
      <trkpt lat="47.24456" lon="7.34363">
        <ele>714</ele>
        <time>2017-06-11T07:29:09Z</time>
      </trkpt>
      <trkpt lat="47.24458" lon="7.34357">
        <ele>714</ele>
        <time>2017-06-11T07:29:12Z</time>
      </trkpt>
      <trkpt lat="47.24459" lon="7.34348">
        <ele>715</ele>
        <time>2017-06-11T07:29:16Z</time>
      </trkpt>
      <trkpt lat="47.2446" lon="7.3434">
        <ele>716</ele>
        <time>2017-06-11T07:29:19Z</time>
      </trkpt>
      <trkpt lat="47.2446" lon="7.34332">
        <ele>717</ele>
        <time>2017-06-11T07:29:21Z</time>
      </trkpt>
      <trkpt lat="47.24461" lon="7.34325">
        <ele>717</ele>
        <time>2017-06-11T07:29:24Z</time>
      </trkpt>
      <trkpt lat="47.2446" lon="7.34317">
        <ele>718</ele>
        <time>2017-06-11T07:29:27Z</time>
      </trkpt>
      <trkpt lat="47.24459" lon="7.34309">
        <ele>719</ele>
        <time>2017-06-11T07:29:31Z</time>
      </trkpt>
      <trkpt lat="47.24457" lon="7.34302">
        <ele>720</ele>
        <time>2017-06-11T07:29:35Z</time>
      </trkpt>
      <trkpt lat="47.24455" lon="7.34295">
        <ele>720</ele>
        <time>2017-06-11T07:29:38Z</time>
      </trkpt>
      <trkpt lat="47.24454" lon="7.34287">
        <ele>721</ele>
        <time>2017-06-11T07:29:41Z</time>
      </trkpt>
      <trkpt lat="47.24452" lon="7.34281">
        <ele>721</ele>
        <time>2017-06-11T07:29:44Z</time>
      </trkpt>
      <trkpt lat="47.24453" lon="7.34272">
        <ele>722</ele>
        <time>2017-06-11T07:29:48Z</time>
      </trkpt>
      <trkpt lat="47.24452" lon="7.34265">
        <ele>722</ele>
        <time>2017-06-11T07:29:51Z</time>
      </trkpt>
      <trkpt lat="47.24452" lon="7.34258">
        <ele>722</ele>
        <time>2017-06-11T07:29:54Z</time>
      </trkpt>
      <trkpt lat="47.24452" lon="7.34251">
        <ele>722</ele>
        <time>2017-06-11T07:29:57Z</time>
      </trkpt>
      <trkpt lat="47.24453" lon="7.34242">
        <ele>722</ele>
        <time>2017-06-11T07:30:00Z</time>
      </trkpt>
      <trkpt lat="47.24453" lon="7.34235">
        <ele>723</ele>
        <time>2017-06-11T07:30:03Z</time>
      </trkpt>
      <trkpt lat="47.24454" lon="7.34228">
        <ele>723</ele>
        <time>2017-06-11T07:30:06Z</time>
      </trkpt>
      <trkpt lat="47.24455" lon="7.34221">
        <ele>724</ele>
        <time>2017-06-11T07:30:09Z</time>
      </trkpt>
      <trkpt lat="47.24455" lon="7.34214">
        <ele>724</ele>
        <time>2017-06-11T07:30:12Z</time>
      </trkpt>
      <trkpt lat="47.24455" lon="7.34206">
        <ele>724</ele>
        <time>2017-06-11T07:30:15Z</time>
      </trkpt>
      <trkpt lat="47.24456" lon="7.34198">
        <ele>725</ele>
        <time>2017-06-11T07:30:18Z</time>
      </trkpt>
      <trkpt lat="47.24458" lon="7.34191">
        <ele>725</ele>
        <time>2017-06-11T07:30:21Z</time>
      </trkpt>
      <trkpt lat="47.2446" lon="7.34184">
        <ele>725</ele>
        <time>2017-06-11T07:30:24Z</time>
      </trkpt>
      <trkpt lat="47.24461" lon="7.34177">
        <ele>725</ele>
        <time>2017-06-11T07:30:28Z</time>
      </trkpt>
      <trkpt lat="47.24461" lon="7.3417">
        <ele>725</ele>
        <time>2017-06-11T07:30:34Z</time>
      </trkpt>
      <trkpt lat="47.24462" lon="7.34163">
        <ele>725</ele>
        <time>2017-06-11T07:30:39Z</time>
      </trkpt>
      <trkpt lat="47.24462" lon="7.34156">
        <ele>726</ele>
        <time>2017-06-11T07:30:44Z</time>
      </trkpt>
      <trkpt lat="47.24463" lon="7.34148">
        <ele>726</ele>
        <time>2017-06-11T07:30:49Z</time>
      </trkpt>
      <trkpt lat="47.24465" lon="7.34142">
        <ele>727</ele>
        <time>2017-06-11T07:30:54Z</time>
      </trkpt>
      <trkpt lat="47.24468" lon="7.34136">
        <ele>727</ele>
        <time>2017-06-11T07:30:59Z</time>
      </trkpt>
      <trkpt lat="47.24471" lon="7.34131">
        <ele>728</ele>
        <time>2017-06-11T07:31:04Z</time>
      </trkpt>
      <trkpt lat="47.24474" lon="7.34124">
        <ele>728</ele>
        <time>2017-06-11T07:31:10Z</time>
      </trkpt>
      <trkpt lat="47.24475" lon="7.34117">
        <ele>728</ele>
        <time>2017-06-11T07:31:18Z</time>
      </trkpt>
      <trkpt lat="47.24471" lon="7.34112">
        <ele>729</ele>
        <time>2017-06-11T07:31:23Z</time>
      </trkpt>
      <trkpt lat="47.24469" lon="7.34105">
        <ele>729</ele>
        <time>2017-06-11T07:31:28Z</time>
      </trkpt>
      <trkpt lat="47.24469" lon="7.34098">
        <ele>730</ele>
        <time>2017-06-11T07:31:32Z</time>
      </trkpt>
      <trkpt lat="47.24468" lon="7.34091">
        <ele>731</ele>
        <time>2017-06-11T07:31:36Z</time>
      </trkpt>
      <trkpt lat="47.24469" lon="7.34083">
        <ele>731</ele>
        <time>2017-06-11T07:31:40Z</time>
      </trkpt>
      <trkpt lat="47.2447" lon="7.34076">
        <ele>732</ele>
        <time>2017-06-11T07:31:43Z</time>
      </trkpt>
      <trkpt lat="47.24472" lon="7.34069">
        <ele>732</ele>
        <time>2017-06-11T07:31:47Z</time>
      </trkpt>
      <trkpt lat="47.24473" lon="7.34062">
        <ele>733</ele>
        <time>2017-06-11T07:31:51Z</time>
      </trkpt>
      <trkpt lat="47.24476" lon="7.34055">
        <ele>733</ele>
        <time>2017-06-11T07:31:56Z</time>
      </trkpt>
      <trkpt lat="47.24476" lon="7.34048">
        <ele>733</ele>
        <time>2017-06-11T07:32:01Z</time>
      </trkpt>
      <trkpt lat="47.24477" lon="7.3404">
        <ele>734</ele>
        <time>2017-06-11T07:32:07Z</time>
      </trkpt>
      <trkpt lat="47.24477" lon="7.34034">
        <ele>735</ele>
        <time>2017-06-11T07:32:11Z</time>
      </trkpt>
      <trkpt lat="47.24477" lon="7.34025">
        <ele>736</ele>
        <time>2017-06-11T07:32:15Z</time>
      </trkpt>
      <trkpt lat="47.24478" lon="7.34018">
        <ele>736</ele>
        <time>2017-06-11T07:32:18Z</time>
      </trkpt>
      <trkpt lat="47.24477" lon="7.34011">
        <ele>737</ele>
        <time>2017-06-11T07:32:21Z</time>
      </trkpt>
      <trkpt lat="47.24476" lon="7.34003">
        <ele>738</ele>
        <time>2017-06-11T07:32:25Z</time>
      </trkpt>
      <trkpt lat="47.24477" lon="7.33996">
        <ele>738</ele>
        <time>2017-06-11T07:32:28Z</time>
      </trkpt>
      <trkpt lat="47.24477" lon="7.33988">
        <ele>739</ele>
        <time>2017-06-11T07:32:31Z</time>
      </trkpt>
      <trkpt lat="47.24477" lon="7.33981">
        <ele>740</ele>
        <time>2017-06-11T07:32:34Z</time>
      </trkpt>
      <trkpt lat="47.24476" lon="7.33975">
        <ele>741</ele>
        <time>2017-06-11T07:32:37Z</time>
      </trkpt>
      <trkpt lat="47.24475" lon="7.33967">
        <ele>741</ele>
        <time>2017-06-11T07:32:40Z</time>
      </trkpt>
      <trkpt lat="47.24474" lon="7.3396">
        <ele>742</ele>
        <time>2017-06-11T07:32:43Z</time>
      </trkpt>
      <trkpt lat="47.24475" lon="7.33953">
        <ele>743</ele>
        <time>2017-06-11T07:32:46Z</time>
      </trkpt>
      <trkpt lat="47.24477" lon="7.33945">
        <ele>743</ele>
        <time>2017-06-11T07:32:49Z</time>
      </trkpt>
      <trkpt lat="47.24476" lon="7.33938">
        <ele>744</ele>
        <time>2017-06-11T07:32:53Z</time>
      </trkpt>
      <trkpt lat="47.24476" lon="7.33931">
        <ele>744</ele>
        <time>2017-06-11T07:32:56Z</time>
      </trkpt>
      <trkpt lat="47.24474" lon="7.33925">
        <ele>745</ele>
        <time>2017-06-11T07:32:59Z</time>
      </trkpt>
      <trkpt lat="47.24474" lon="7.33916">
        <ele>745</ele>
        <time>2017-06-11T07:33:03Z</time>
      </trkpt>
      <trkpt lat="47.24472" lon="7.3391">
        <ele>745</ele>
        <time>2017-06-11T07:33:06Z</time>
      </trkpt>
      <trkpt lat="47.24468" lon="7.33903">
        <ele>746</ele>
        <time>2017-06-11T07:33:09Z</time>
      </trkpt>
      <trkpt lat="47.24463" lon="7.33896">
        <ele>746</ele>
        <time>2017-06-11T07:33:12Z</time>
      </trkpt>
      <trkpt lat="47.24461" lon="7.33889">
        <ele>747</ele>
        <time>2017-06-11T07:33:15Z</time>
      </trkpt>
      <trkpt lat="47.2446" lon="7.33879">
        <ele>747</ele>
        <time>2017-06-11T07:33:18Z</time>
      </trkpt>
      <trkpt lat="47.2446" lon="7.33872">
        <ele>748</ele>
        <time>2017-06-11T07:33:20Z</time>
      </trkpt>
      <trkpt lat="47.2446" lon="7.33864">
        <ele>748</ele>
        <time>2017-06-11T07:33:22Z</time>
      </trkpt>
      <trkpt lat="47.2446" lon="7.33855">
        <ele>749</ele>
        <time>2017-06-11T07:33:25Z</time>
      </trkpt>
      <trkpt lat="47.24458" lon="7.33847">
        <ele>749</ele>
        <time>2017-06-11T07:33:28Z</time>
      </trkpt>
      <trkpt lat="47.24459" lon="7.33837">
        <ele>750</ele>
        <time>2017-06-11T07:33:31Z</time>
      </trkpt>
      <trkpt lat="47.24459" lon="7.33827">
        <ele>751</ele>
        <time>2017-06-11T07:33:34Z</time>
      </trkpt>
      <trkpt lat="47.24461" lon="7.33821">
        <ele>751</ele>
        <time>2017-06-11T07:33:36Z</time>
      </trkpt>
      <trkpt lat="47.24461" lon="7.33811">
        <ele>752</ele>
        <time>2017-06-11T07:33:39Z</time>
      </trkpt>
      <trkpt lat="47.24461" lon="7.33802">
        <ele>752</ele>
        <time>2017-06-11T07:33:42Z</time>
      </trkpt>
      <trkpt lat="47.24461" lon="7.33795">
        <ele>753</ele>
        <time>2017-06-11T07:33:44Z</time>
      </trkpt>
      <trkpt lat="47.2446" lon="7.33787">
        <ele>753</ele>
        <time>2017-06-11T07:33:47Z</time>
      </trkpt>
      <trkpt lat="47.24461" lon="7.3378">
        <ele>753</ele>
        <time>2017-06-11T07:33:49Z</time>
      </trkpt>
      <trkpt lat="47.24461" lon="7.3377">
        <ele>754</ele>
        <time>2017-06-11T07:33:52Z</time>
      </trkpt>
      <trkpt lat="47.24461" lon="7.33762">
        <ele>754</ele>
        <time>2017-06-11T07:33:54Z</time>
      </trkpt>
      <trkpt lat="47.24463" lon="7.33755">
        <ele>754</ele>
        <time>2017-06-11T07:33:56Z</time>
      </trkpt>
      <trkpt lat="47.24464" lon="7.33747">
        <ele>755</ele>
        <time>2017-06-11T07:33:58Z</time>
      </trkpt>
      <trkpt lat="47.24465" lon="7.3374">
        <ele>755</ele>
        <time>2017-06-11T07:34:00Z</time>
      </trkpt>
      <trkpt lat="47.24466" lon="7.33732">
        <ele>755</ele>
        <time>2017-06-11T07:34:02Z</time>
      </trkpt>
      <trkpt lat="47.24467" lon="7.33726">
        <ele>755</ele>
        <time>2017-06-11T07:34:04Z</time>
      </trkpt>
      <trkpt lat="47.24468" lon="7.33719">
        <ele>755</ele>
        <time>2017-06-11T07:34:06Z</time>
      </trkpt>
      <trkpt lat="47.24471" lon="7.33711">
        <ele>756</ele>
        <time>2017-06-11T07:34:09Z</time>
      </trkpt>
      <trkpt lat="47.24473" lon="7.33703">
        <ele>756</ele>
        <time>2017-06-11T07:34:12Z</time>
      </trkpt>
      <trkpt lat="47.24476" lon="7.33695">
        <ele>756</ele>
        <time>2017-06-11T07:34:15Z</time>
      </trkpt>
      <trkpt lat="47.24478" lon="7.33688">
        <ele>756</ele>
        <time>2017-06-11T07:34:18Z</time>
      </trkpt>
      <trkpt lat="47.2448" lon="7.3368">
        <ele>756</ele>
        <time>2017-06-11T07:34:21Z</time>
      </trkpt>
      <trkpt lat="47.24481" lon="7.33673">
        <ele>756</ele>
        <time>2017-06-11T07:34:23Z</time>
      </trkpt>
      <trkpt lat="47.24482" lon="7.33666">
        <ele>756</ele>
        <time>2017-06-11T07:34:26Z</time>
      </trkpt>
      <trkpt lat="47.24482" lon="7.33658">
        <ele>756</ele>
        <time>2017-06-11T07:34:29Z</time>
      </trkpt>
      <trkpt lat="47.24484" lon="7.33651">
        <ele>756</ele>
        <time>2017-06-11T07:34:32Z</time>
      </trkpt>
      <trkpt lat="47.24484" lon="7.33644">
        <ele>756</ele>
        <time>2017-06-11T07:34:34Z</time>
      </trkpt>
      <trkpt lat="47.24487" lon="7.33636">
        <ele>757</ele>
        <time>2017-06-11T07:34:37Z</time>
      </trkpt>
      <trkpt lat="47.24488" lon="7.33627">
        <ele>757</ele>
        <time>2017-06-11T07:34:40Z</time>
      </trkpt>
      <trkpt lat="47.24487" lon="7.33619">
        <ele>757</ele>
        <time>2017-06-11T07:34:44Z</time>
      </trkpt>
      <trkpt lat="47.24489" lon="7.33611">
        <ele>757</ele>
        <time>2017-06-11T07:34:49Z</time>
      </trkpt>
      <trkpt lat="47.2449" lon="7.33605">
        <ele>757</ele>
        <time>2017-06-11T07:34:55Z</time>
      </trkpt>
      <trkpt lat="47.24492" lon="7.33599">
        <ele>758</ele>
        <time>2017-06-11T07:34:59Z</time>
      </trkpt>
      <trkpt lat="47.24494" lon="7.33592">
        <ele>758</ele>
        <time>2017-06-11T07:35:03Z</time>
      </trkpt>
      <trkpt lat="47.24497" lon="7.33586">
        <ele>758</ele>
        <time>2017-06-11T07:35:08Z</time>
      </trkpt>
      <trkpt lat="47.24497" lon="7.33578">
        <ele>758</ele>
        <time>2017-06-11T07:35:12Z</time>
      </trkpt>
      <trkpt lat="47.24498" lon="7.3357">
        <ele>759</ele>
        <time>2017-06-11T07:35:16Z</time>
      </trkpt>
      <trkpt lat="47.24501" lon="7.33563">
        <ele>759</ele>
        <time>2017-06-11T07:35:20Z</time>
      </trkpt>
      <trkpt lat="47.24503" lon="7.33555">
        <ele>759</ele>
        <time>2017-06-11T07:35:23Z</time>
      </trkpt>
      <trkpt lat="47.24505" lon="7.33547">
        <ele>759</ele>
        <time>2017-06-11T07:35:25Z</time>
      </trkpt>
      <trkpt lat="47.24507" lon="7.33541">
        <ele>759</ele>
        <time>2017-06-11T07:35:28Z</time>
      </trkpt>
      <trkpt lat="47.24508" lon="7.33533">
        <ele>760</ele>
        <time>2017-06-11T07:35:34Z</time>
      </trkpt>
      <trkpt lat="47.24512" lon="7.33528">
        <ele>760</ele>
        <time>2017-06-11T07:35:38Z</time>
      </trkpt>
      <trkpt lat="47.24511" lon="7.33516">
        <ele>761</ele>
        <time>2017-06-11T07:35:53Z</time>
      </trkpt>
      <trkpt lat="47.24513" lon="7.33503">
        <ele>762</ele>
        <time>2017-06-11T07:36:05Z</time>
      </trkpt>
      <trkpt lat="47.24513" lon="7.33496">
        <ele>763</ele>
        <time>2017-06-11T07:36:09Z</time>
      </trkpt>
      <trkpt lat="47.24511" lon="7.33488">
        <ele>764</ele>
        <time>2017-06-11T07:36:13Z</time>
      </trkpt>
      <trkpt lat="47.24511" lon="7.33481">
        <ele>765</ele>
        <time>2017-06-11T07:36:17Z</time>
      </trkpt>
      <trkpt lat="47.24513" lon="7.33474">
        <ele>765</ele>
        <time>2017-06-11T07:36:22Z</time>
      </trkpt>
      <trkpt lat="47.24516" lon="7.33466">
        <ele>766</ele>
        <time>2017-06-11T07:36:26Z</time>
      </trkpt>
      <trkpt lat="47.24518" lon="7.33459">
        <ele>766</ele>
        <time>2017-06-11T07:36:29Z</time>
      </trkpt>
      <trkpt lat="47.2452" lon="7.33452">
        <ele>767</ele>
        <time>2017-06-11T07:36:32Z</time>
      </trkpt>
      <trkpt lat="47.24522" lon="7.33443">
        <ele>767</ele>
        <time>2017-06-11T07:36:36Z</time>
      </trkpt>
      <trkpt lat="47.24522" lon="7.33437">
        <ele>767</ele>
        <time>2017-06-11T07:36:38Z</time>
      </trkpt>
      <trkpt lat="47.24524" lon="7.33429">
        <ele>768</ele>
        <time>2017-06-11T07:36:40Z</time>
      </trkpt>
      <trkpt lat="47.24524" lon="7.33422">
        <ele>768</ele>
        <time>2017-06-11T07:36:42Z</time>
      </trkpt>
      <trkpt lat="47.24523" lon="7.33415">
        <ele>768</ele>
        <time>2017-06-11T07:36:44Z</time>
      </trkpt>
      <trkpt lat="47.24522" lon="7.33405">
        <ele>768</ele>
        <time>2017-06-11T07:36:47Z</time>
      </trkpt>
      <trkpt lat="47.24523" lon="7.33396">
        <ele>769</ele>
        <time>2017-06-11T07:36:50Z</time>
      </trkpt>
      <trkpt lat="47.24523" lon="7.33387">
        <ele>769</ele>
        <time>2017-06-11T07:36:53Z</time>
      </trkpt>
      <trkpt lat="47.24522" lon="7.3338">
        <ele>769</ele>
        <time>2017-06-11T07:36:55Z</time>
      </trkpt>
      <trkpt lat="47.24521" lon="7.33372">
        <ele>770</ele>
        <time>2017-06-11T07:36:58Z</time>
      </trkpt>
      <trkpt lat="47.2452" lon="7.33365">
        <ele>770</ele>
        <time>2017-06-11T07:37:00Z</time>
      </trkpt>
      <trkpt lat="47.2452" lon="7.33358">
        <ele>771</ele>
        <time>2017-06-11T07:37:02Z</time>
      </trkpt>
      <trkpt lat="47.2452" lon="7.33349">
        <ele>771</ele>
        <time>2017-06-11T07:37:05Z</time>
      </trkpt>
      <trkpt lat="47.24519" lon="7.33341">
        <ele>772</ele>
        <time>2017-06-11T07:37:08Z</time>
      </trkpt>
      <trkpt lat="47.24517" lon="7.33335">
        <ele>772</ele>
        <time>2017-06-11T07:37:11Z</time>
      </trkpt>
      <trkpt lat="47.24517" lon="7.33327">
        <ele>773</ele>
        <time>2017-06-11T07:37:14Z</time>
      </trkpt>
      <trkpt lat="47.24517" lon="7.33319">
        <ele>773</ele>
        <time>2017-06-11T07:37:17Z</time>
      </trkpt>
      <trkpt lat="47.24518" lon="7.3331">
        <ele>773</ele>
        <time>2017-06-11T07:37:20Z</time>
      </trkpt>
      <trkpt lat="47.24522" lon="7.33303">
        <ele>774</ele>
        <time>2017-06-11T07:37:23Z</time>
      </trkpt>
      <trkpt lat="47.24524" lon="7.33296">
        <ele>774</ele>
        <time>2017-06-11T07:37:26Z</time>
      </trkpt>
      <trkpt lat="47.24527" lon="7.33289">
        <ele>774</ele>
        <time>2017-06-11T07:37:30Z</time>
      </trkpt>
      <trkpt lat="47.24528" lon="7.33281">
        <ele>773</ele>
        <time>2017-06-11T07:37:33Z</time>
      </trkpt>
      <trkpt lat="47.24528" lon="7.33275">
        <ele>773</ele>
        <time>2017-06-11T07:37:36Z</time>
      </trkpt>
      <trkpt lat="47.2453" lon="7.33268">
        <ele>773</ele>
        <time>2017-06-11T07:37:39Z</time>
      </trkpt>
      <trkpt lat="47.24532" lon="7.33262">
        <ele>774</ele>
        <time>2017-06-11T07:37:43Z</time>
      </trkpt>
      <trkpt lat="47.24536" lon="7.33255">
        <ele>774</ele>
        <time>2017-06-11T07:37:48Z</time>
      </trkpt>
      <trkpt lat="47.24538" lon="7.33248">
        <ele>774</ele>
        <time>2017-06-11T07:37:51Z</time>
      </trkpt>
      <trkpt lat="47.24538" lon="7.33241">
        <ele>775</ele>
        <time>2017-06-11T07:37:55Z</time>
      </trkpt>
      <trkpt lat="47.24536" lon="7.33234">
        <ele>775</ele>
        <time>2017-06-11T07:37:58Z</time>
      </trkpt>
      <trkpt lat="47.24538" lon="7.33228">
        <ele>775</ele>
        <time>2017-06-11T07:38:02Z</time>
      </trkpt>
      <trkpt lat="47.24542" lon="7.33222">
        <ele>775</ele>
        <time>2017-06-11T07:38:05Z</time>
      </trkpt>
      <trkpt lat="47.24545" lon="7.33217">
        <ele>775</ele>
        <time>2017-06-11T07:38:08Z</time>
      </trkpt>
      <trkpt lat="47.24546" lon="7.3321">
        <ele>775</ele>
        <time>2017-06-11T07:38:12Z</time>
      </trkpt>
      <trkpt lat="47.24546" lon="7.332">
        <ele>775</ele>
        <time>2017-06-11T07:38:18Z</time>
      </trkpt>
      <trkpt lat="47.24546" lon="7.33193">
        <ele>776</ele>
        <time>2017-06-11T07:38:22Z</time>
      </trkpt>
      <trkpt lat="47.24548" lon="7.33186">
        <ele>777</ele>
        <time>2017-06-11T07:38:25Z</time>
      </trkpt>
      <trkpt lat="47.2455" lon="7.33179">
        <ele>778</ele>
        <time>2017-06-11T07:38:29Z</time>
      </trkpt>
      <trkpt lat="47.24551" lon="7.33172">
        <ele>779</ele>
        <time>2017-06-11T07:38:34Z</time>
      </trkpt>
      <trkpt lat="47.24554" lon="7.33164">
        <ele>780</ele>
        <time>2017-06-11T07:38:39Z</time>
      </trkpt>
      <trkpt lat="47.24557" lon="7.3316">
        <ele>781</ele>
        <time>2017-06-11T07:38:44Z</time>
      </trkpt>
      <trkpt lat="47.2456" lon="7.33154">
        <ele>782</ele>
        <time>2017-06-11T07:38:49Z</time>
      </trkpt>
      <trkpt lat="47.24563" lon="7.33148">
        <ele>783</ele>
        <time>2017-06-11T07:38:53Z</time>
      </trkpt>
      <trkpt lat="47.24567" lon="7.33145">
        <ele>783</ele>
        <time>2017-06-11T07:38:57Z</time>
      </trkpt>
      <trkpt lat="47.24569" lon="7.33139">
        <ele>784</ele>
        <time>2017-06-11T07:39:03Z</time>
      </trkpt>
      <trkpt lat="47.24571" lon="7.33131">
        <ele>784</ele>
        <time>2017-06-11T07:39:07Z</time>
      </trkpt>
      <trkpt lat="47.24571" lon="7.33123">
        <ele>785</ele>
        <time>2017-06-11T07:39:10Z</time>
      </trkpt>
      <trkpt lat="47.24571" lon="7.33116">
        <ele>785</ele>
        <time>2017-06-11T07:39:13Z</time>
      </trkpt>
      <trkpt lat="47.24572" lon="7.33108">
        <ele>786</ele>
        <time>2017-06-11T07:39:16Z</time>
      </trkpt>
      <trkpt lat="47.24571" lon="7.331">
        <ele>787</ele>
        <time>2017-06-11T07:39:20Z</time>
      </trkpt>
      <trkpt lat="47.24572" lon="7.33092">
        <ele>788</ele>
        <time>2017-06-11T07:39:23Z</time>
      </trkpt>
      <trkpt lat="47.24572" lon="7.33083">
        <ele>788</ele>
        <time>2017-06-11T07:39:27Z</time>
      </trkpt>
      <trkpt lat="47.24571" lon="7.33073">
        <ele>789</ele>
        <time>2017-06-11T07:39:30Z</time>
      </trkpt>
      <trkpt lat="47.24573" lon="7.33065">
        <ele>790</ele>
        <time>2017-06-11T07:39:33Z</time>
      </trkpt>
      <trkpt lat="47.24572" lon="7.33057">
        <ele>791</ele>
        <time>2017-06-11T07:39:37Z</time>
      </trkpt>
      <trkpt lat="47.24571" lon="7.33049">
        <ele>792</ele>
        <time>2017-06-11T07:39:40Z</time>
      </trkpt>
      <trkpt lat="47.24569" lon="7.33042">
        <ele>792</ele>
        <time>2017-06-11T07:39:43Z</time>
      </trkpt>
      <trkpt lat="47.24567" lon="7.33035">
        <ele>793</ele>
        <time>2017-06-11T07:39:46Z</time>
      </trkpt>
      <trkpt lat="47.24565" lon="7.33027">
        <ele>793</ele>
        <time>2017-06-11T07:39:48Z</time>
      </trkpt>
      <trkpt lat="47.24564" lon="7.33017">
        <ele>794</ele>
        <time>2017-06-11T07:39:51Z</time>
      </trkpt>
      <trkpt lat="47.24568" lon="7.32997">
        <ele>794</ele>
        <time>2017-06-11T07:39:55Z</time>
      </trkpt>
      <trkpt lat="47.24569" lon="7.32988">
        <ele>794</ele>
        <time>2017-06-11T07:39:57Z</time>
      </trkpt>
      <trkpt lat="47.24564" lon="7.32985">
        <ele>794</ele>
        <time>2017-06-11T07:40:05Z</time>
      </trkpt>
      <trkpt lat="47.2456" lon="7.32988">
        <ele>794</ele>
        <time>2017-06-11T07:40:09Z</time>
      </trkpt>
      <trkpt lat="47.24557" lon="7.32995">
        <ele>794</ele>
        <time>2017-06-11T07:40:13Z</time>
      </trkpt>
      <trkpt lat="47.24554" lon="7.33002">
        <ele>794</ele>
        <time>2017-06-11T07:40:16Z</time>
      </trkpt>
      <trkpt lat="47.24552" lon="7.33008">
        <ele>794</ele>
        <time>2017-06-11T07:40:19Z</time>
      </trkpt>
      <trkpt lat="47.24549" lon="7.33014">
        <ele>793</ele>
        <time>2017-06-11T07:40:21Z</time>
      </trkpt>
      <trkpt lat="47.24546" lon="7.3302">
        <ele>793</ele>
        <time>2017-06-11T07:40:23Z</time>
      </trkpt>
      <trkpt lat="47.24542" lon="7.33026">
        <ele>793</ele>
        <time>2017-06-11T07:40:25Z</time>
      </trkpt>
      <trkpt lat="47.24539" lon="7.33031">
        <ele>792</ele>
        <time>2017-06-11T07:40:28Z</time>
      </trkpt>
      <trkpt lat="47.24538" lon="7.33024">
        <ele>791</ele>
        <time>2017-06-11T07:40:34Z</time>
      </trkpt>
      <trkpt lat="47.24537" lon="7.33018">
        <ele>791</ele>
        <time>2017-06-11T07:40:37Z</time>
      </trkpt>
      <trkpt lat="47.24538" lon="7.3301">
        <ele>790</ele>
        <time>2017-06-11T07:40:40Z</time>
      </trkpt>
      <trkpt lat="47.24539" lon="7.33002">
        <ele>789</ele>
        <time>2017-06-11T07:40:44Z</time>
      </trkpt>
      <trkpt lat="47.24538" lon="7.32995">
        <ele>788</ele>
        <time>2017-06-11T07:40:47Z</time>
      </trkpt>
      <trkpt lat="47.24537" lon="7.32989">
        <ele>788</ele>
        <time>2017-06-11T07:40:50Z</time>
      </trkpt>
      <trkpt lat="47.24533" lon="7.32982">
        <ele>787</ele>
        <time>2017-06-11T07:40:53Z</time>
      </trkpt>
      <trkpt lat="47.24531" lon="7.32973">
        <ele>787</ele>
        <time>2017-06-11T07:40:56Z</time>
      </trkpt>
      <trkpt lat="47.2453" lon="7.32966">
        <ele>787</ele>
        <time>2017-06-11T07:40:58Z</time>
      </trkpt>
      <trkpt lat="47.24528" lon="7.32958">
        <ele>787</ele>
        <time>2017-06-11T07:41:01Z</time>
      </trkpt>
      <trkpt lat="47.24526" lon="7.3295">
        <ele>787</ele>
        <time>2017-06-11T07:41:04Z</time>
      </trkpt>
      <trkpt lat="47.24525" lon="7.32942">
        <ele>787</ele>
        <time>2017-06-11T07:41:07Z</time>
      </trkpt>
      <trkpt lat="47.24525" lon="7.32935">
        <ele>786</ele>
        <time>2017-06-11T07:41:10Z</time>
      </trkpt>
      <trkpt lat="47.24524" lon="7.32926">
        <ele>786</ele>
        <time>2017-06-11T07:41:13Z</time>
      </trkpt>
      <trkpt lat="47.24524" lon="7.32917">
        <ele>785</ele>
        <time>2017-06-11T07:41:16Z</time>
      </trkpt>
      <trkpt lat="47.24524" lon="7.32909">
        <ele>785</ele>
        <time>2017-06-11T07:41:20Z</time>
      </trkpt>
      <trkpt lat="47.24526" lon="7.32903">
        <ele>784</ele>
        <time>2017-06-11T07:41:24Z</time>
      </trkpt>
      <trkpt lat="47.24524" lon="7.32895">
        <ele>783</ele>
        <time>2017-06-11T07:41:27Z</time>
      </trkpt>
      <trkpt lat="47.24522" lon="7.32887">
        <ele>783</ele>
        <time>2017-06-11T07:41:30Z</time>
      </trkpt>
      <trkpt lat="47.24523" lon="7.32875">
        <ele>782</ele>
        <time>2017-06-11T07:41:35Z</time>
      </trkpt>
      <trkpt lat="47.24524" lon="7.32866">
        <ele>781</ele>
        <time>2017-06-11T07:41:39Z</time>
      </trkpt>
      <trkpt lat="47.24524" lon="7.32859">
        <ele>780</ele>
        <time>2017-06-11T07:41:42Z</time>
      </trkpt>
      <trkpt lat="47.24525" lon="7.32852">
        <ele>780</ele>
        <time>2017-06-11T07:41:45Z</time>
      </trkpt>
      <trkpt lat="47.24525" lon="7.32845">
        <ele>779</ele>
        <time>2017-06-11T07:41:49Z</time>
      </trkpt>
      <trkpt lat="47.24526" lon="7.32838">
        <ele>778</ele>
        <time>2017-06-11T07:41:52Z</time>
      </trkpt>
      <trkpt lat="47.24527" lon="7.32831">
        <ele>777</ele>
        <time>2017-06-11T07:41:56Z</time>
      </trkpt>
      <trkpt lat="47.24527" lon="7.32822">
        <ele>776</ele>
        <time>2017-06-11T07:42:00Z</time>
      </trkpt>
      <trkpt lat="47.24529" lon="7.32815">
        <ele>776</ele>
        <time>2017-06-11T07:42:04Z</time>
      </trkpt>
      <trkpt lat="47.24529" lon="7.32803">
        <ele>775</ele>
        <time>2017-06-11T07:42:17Z</time>
      </trkpt>
      <trkpt lat="47.24529" lon="7.32791">
        <ele>775</ele>
        <time>2017-06-11T07:42:30Z</time>
      </trkpt>
      <trkpt lat="47.24529" lon="7.32784">
        <ele>774</ele>
        <time>2017-06-11T07:42:33Z</time>
      </trkpt>
      <trkpt lat="47.24529" lon="7.32775">
        <ele>774</ele>
        <time>2017-06-11T07:42:39Z</time>
      </trkpt>
      <trkpt lat="47.24527" lon="7.32768">
        <ele>773</ele>
        <time>2017-06-11T07:42:43Z</time>
      </trkpt>
      <trkpt lat="47.24528" lon="7.3276">
        <ele>773</ele>
        <time>2017-06-11T07:42:46Z</time>
      </trkpt>
      <trkpt lat="47.24529" lon="7.32753">
        <ele>773</ele>
        <time>2017-06-11T07:42:50Z</time>
      </trkpt>
      <trkpt lat="47.24532" lon="7.32746">
        <ele>772</ele>
        <time>2017-06-11T07:42:54Z</time>
      </trkpt>
      <trkpt lat="47.24534" lon="7.32736">
        <ele>772</ele>
        <time>2017-06-11T07:42:59Z</time>
      </trkpt>
      <trkpt lat="47.24538" lon="7.32729">
        <ele>772</ele>
        <time>2017-06-11T07:43:03Z</time>
      </trkpt>
      <trkpt lat="47.2454" lon="7.32721">
        <ele>771</ele>
        <time>2017-06-11T07:43:07Z</time>
      </trkpt>
      <trkpt lat="47.24542" lon="7.32715">
        <ele>771</ele>
        <time>2017-06-11T07:43:11Z</time>
      </trkpt>
      <trkpt lat="47.24544" lon="7.32706">
        <ele>771</ele>
        <time>2017-06-11T07:43:17Z</time>
      </trkpt>
      <trkpt lat="47.24546" lon="7.32695">
        <ele>771</ele>
        <time>2017-06-11T07:43:24Z</time>
      </trkpt>
      <trkpt lat="47.24548" lon="7.32689">
        <ele>771</ele>
        <time>2017-06-11T07:43:28Z</time>
      </trkpt>
      <trkpt lat="47.2455" lon="7.32682">
        <ele>771</ele>
        <time>2017-06-11T07:43:32Z</time>
      </trkpt>
      <trkpt lat="47.24552" lon="7.32675">
        <ele>771</ele>
        <time>2017-06-11T07:43:36Z</time>
      </trkpt>
      <trkpt lat="47.24554" lon="7.32668">
        <ele>771</ele>
        <time>2017-06-11T07:43:40Z</time>
      </trkpt>
      <trkpt lat="47.24555" lon="7.32662">
        <ele>772</ele>
        <time>2017-06-11T07:43:45Z</time>
      </trkpt>
      <trkpt lat="47.24557" lon="7.32655">
        <ele>772</ele>
        <time>2017-06-11T07:43:49Z</time>
      </trkpt>
      <trkpt lat="47.24559" lon="7.32649">
        <ele>772</ele>
        <time>2017-06-11T07:43:53Z</time>
      </trkpt>
      <trkpt lat="47.2456" lon="7.32642">
        <ele>773</ele>
        <time>2017-06-11T07:43:57Z</time>
      </trkpt>
      <trkpt lat="47.24563" lon="7.32635">
        <ele>773</ele>
        <time>2017-06-11T07:44:01Z</time>
      </trkpt>
      <trkpt lat="47.24565" lon="7.32627">
        <ele>774</ele>
        <time>2017-06-11T07:44:05Z</time>
      </trkpt>
      <trkpt lat="47.24567" lon="7.3262">
        <ele>775</ele>
        <time>2017-06-11T07:44:10Z</time>
      </trkpt>
      <trkpt lat="47.24569" lon="7.32612">
        <ele>777</ele>
        <time>2017-06-11T07:44:15Z</time>
      </trkpt>
      <trkpt lat="47.24573" lon="7.32605">
        <ele>778</ele>
        <time>2017-06-11T07:44:19Z</time>
      </trkpt>
      <trkpt lat="47.24576" lon="7.32598">
        <ele>779</ele>
        <time>2017-06-11T07:44:23Z</time>
      </trkpt>
      <trkpt lat="47.2458" lon="7.3259">
        <ele>779</ele>
        <time>2017-06-11T07:44:29Z</time>
      </trkpt>
      <trkpt lat="47.24585" lon="7.3258">
        <ele>780</ele>
        <time>2017-06-11T07:44:36Z</time>
      </trkpt>
      <trkpt lat="47.24588" lon="7.32573">
        <ele>781</ele>
        <time>2017-06-11T07:44:40Z</time>
      </trkpt>
      <trkpt lat="47.2459" lon="7.32567">
        <ele>782</ele>
        <time>2017-06-11T07:44:43Z</time>
      </trkpt>
      <trkpt lat="47.24593" lon="7.32561">
        <ele>783</ele>
        <time>2017-06-11T07:44:47Z</time>
      </trkpt>
      <trkpt lat="47.24595" lon="7.32554">
        <ele>783</ele>
        <time>2017-06-11T07:44:51Z</time>
      </trkpt>
      <trkpt lat="47.24598" lon="7.32548">
        <ele>784</ele>
        <time>2017-06-11T07:44:55Z</time>
      </trkpt>
      <trkpt lat="47.24601" lon="7.3254">
        <ele>784</ele>
        <time>2017-06-11T07:45:00Z</time>
      </trkpt>
      <trkpt lat="47.24605" lon="7.32535">
        <ele>785</ele>
        <time>2017-06-11T07:45:05Z</time>
      </trkpt>
      <trkpt lat="47.24609" lon="7.32527">
        <ele>786</ele>
        <time>2017-06-11T07:45:11Z</time>
      </trkpt>
      <trkpt lat="47.24612" lon="7.32521">
        <ele>787</ele>
        <time>2017-06-11T07:45:15Z</time>
      </trkpt>
      <trkpt lat="47.24615" lon="7.32514">
        <ele>788</ele>
        <time>2017-06-11T07:45:19Z</time>
      </trkpt>
      <trkpt lat="47.24617" lon="7.32506">
        <ele>789</ele>
        <time>2017-06-11T07:45:24Z</time>
      </trkpt>
      <trkpt lat="47.24621" lon="7.32495">
        <ele>789</ele>
        <time>2017-06-11T07:45:32Z</time>
      </trkpt>
      <trkpt lat="47.24623" lon="7.32488">
        <ele>790</ele>
        <time>2017-06-11T07:45:37Z</time>
      </trkpt>
      <trkpt lat="47.24627" lon="7.32481">
        <ele>790</ele>
        <time>2017-06-11T07:45:42Z</time>
      </trkpt>
      <trkpt lat="47.2463" lon="7.3247">
        <ele>791</ele>
        <time>2017-06-11T07:45:50Z</time>
      </trkpt>
      <trkpt lat="47.24634" lon="7.32465">
        <ele>792</ele>
        <time>2017-06-11T07:45:54Z</time>
      </trkpt>
      <trkpt lat="47.24638" lon="7.32458">
        <ele>793</ele>
        <time>2017-06-11T07:46:02Z</time>
      </trkpt>
      <trkpt lat="47.24641" lon="7.32454">
        <ele>794</ele>
        <time>2017-06-11T07:46:06Z</time>
      </trkpt>
      <trkpt lat="47.24645" lon="7.32449">
        <ele>795</ele>
        <time>2017-06-11T07:46:11Z</time>
      </trkpt>
      <trkpt lat="47.24648" lon="7.32444">
        <ele>797</ele>
        <time>2017-06-11T07:46:15Z</time>
      </trkpt>
      <trkpt lat="47.24653" lon="7.3244">
        <ele>798</ele>
        <time>2017-06-11T07:46:20Z</time>
      </trkpt>
      <trkpt lat="47.24657" lon="7.32435">
        <ele>799</ele>
        <time>2017-06-11T07:46:25Z</time>
      </trkpt>
      <trkpt lat="47.24661" lon="7.3243">
        <ele>800</ele>
        <time>2017-06-11T07:46:30Z</time>
      </trkpt>
      <trkpt lat="47.24666" lon="7.32425">
        <ele>801</ele>
        <time>2017-06-11T07:46:37Z</time>
      </trkpt>
      <trkpt lat="47.24669" lon="7.32421">
        <ele>802</ele>
        <time>2017-06-11T07:46:41Z</time>
      </trkpt>
      <trkpt lat="47.24675" lon="7.32415">
        <ele>803</ele>
        <time>2017-06-11T07:46:50Z</time>
      </trkpt>
      <trkpt lat="47.24681" lon="7.32409">
        <ele>804</ele>
        <time>2017-06-11T07:46:57Z</time>
      </trkpt>
      <trkpt lat="47.24686" lon="7.32401">
        <ele>805</ele>
        <time>2017-06-11T07:47:05Z</time>
      </trkpt>
      <trkpt lat="47.24693" lon="7.32396">
        <ele>806</ele>
        <time>2017-06-11T07:47:13Z</time>
      </trkpt>
      <trkpt lat="47.247" lon="7.32392">
        <ele>808</ele>
        <time>2017-06-11T07:47:22Z</time>
      </trkpt>
      <trkpt lat="47.24706" lon="7.32384">
        <ele>809</ele>
        <time>2017-06-11T07:47:31Z</time>
      </trkpt>
      <trkpt lat="47.24712" lon="7.32379">
        <ele>810</ele>
        <time>2017-06-11T07:47:39Z</time>
      </trkpt>
      <trkpt lat="47.24716" lon="7.32375">
        <ele>812</ele>
        <time>2017-06-11T07:47:44Z</time>
      </trkpt>
      <trkpt lat="47.24723" lon="7.3237">
        <ele>813</ele>
        <time>2017-06-11T07:47:50Z</time>
      </trkpt>
      <trkpt lat="47.24728" lon="7.32365">
        <ele>815</ele>
        <time>2017-06-11T07:47:56Z</time>
      </trkpt>
      <trkpt lat="47.24733" lon="7.32362">
        <ele>817</ele>
        <time>2017-06-11T07:48:01Z</time>
      </trkpt>
      <trkpt lat="47.24738" lon="7.32361">
        <ele>818</ele>
        <time>2017-06-11T07:48:04Z</time>
      </trkpt>
      <trkpt lat="47.24743" lon="7.32359">
        <ele>820</ele>
        <time>2017-06-11T07:48:08Z</time>
      </trkpt>
      <trkpt lat="47.24748" lon="7.32359">
        <ele>821</ele>
        <time>2017-06-11T07:48:12Z</time>
      </trkpt>
      <trkpt lat="47.24756" lon="7.32357">
        <ele>823</ele>
        <time>2017-06-11T07:48:19Z</time>
      </trkpt>
      <trkpt lat="47.24765" lon="7.32356">
        <ele>824</ele>
        <time>2017-06-11T07:48:26Z</time>
      </trkpt>
      <trkpt lat="47.24769" lon="7.32354">
        <ele>826</ele>
        <time>2017-06-11T07:48:29Z</time>
      </trkpt>
      <trkpt lat="47.24777" lon="7.32353">
        <ele>828</ele>
        <time>2017-06-11T07:48:34Z</time>
      </trkpt>
      <trkpt lat="47.24785" lon="7.32354">
        <ele>830</ele>
        <time>2017-06-11T07:48:42Z</time>
      </trkpt>
      <trkpt lat="47.24791" lon="7.32355">
        <ele>832</ele>
        <time>2017-06-11T07:48:46Z</time>
      </trkpt>
      <trkpt lat="47.24798" lon="7.32357">
        <ele>834</ele>
        <time>2017-06-11T07:48:55Z</time>
      </trkpt>
      <trkpt lat="47.24804" lon="7.32354">
        <ele>836</ele>
        <time>2017-06-11T07:49:04Z</time>
      </trkpt>
      <trkpt lat="47.24806" lon="7.32348">
        <ele>838</ele>
        <time>2017-06-11T07:49:08Z</time>
      </trkpt>
      <trkpt lat="47.24807" lon="7.32341">
        <ele>840</ele>
        <time>2017-06-11T07:49:16Z</time>
      </trkpt>
      <trkpt lat="47.24802" lon="7.32336">
        <ele>842</ele>
        <time>2017-06-11T07:49:24Z</time>
      </trkpt>
      <trkpt lat="47.24797" lon="7.32331">
        <ele>843</ele>
        <time>2017-06-11T07:49:28Z</time>
      </trkpt>
      <trkpt lat="47.24792" lon="7.32328">
        <ele>845</ele>
        <time>2017-06-11T07:49:32Z</time>
      </trkpt>
      <trkpt lat="47.24789" lon="7.32321">
        <ele>845</ele>
        <time>2017-06-11T07:49:35Z</time>
      </trkpt>
      <trkpt lat="47.24787" lon="7.32314">
        <ele>846</ele>
        <time>2017-06-11T07:49:38Z</time>
      </trkpt>
      <trkpt lat="47.24786" lon="7.32307">
        <ele>846</ele>
        <time>2017-06-11T07:49:41Z</time>
      </trkpt>
      <trkpt lat="47.24785" lon="7.32299">
        <ele>847</ele>
        <time>2017-06-11T07:49:44Z</time>
      </trkpt>
      <trkpt lat="47.24784" lon="7.32291">
        <ele>847</ele>
        <time>2017-06-11T07:49:47Z</time>
      </trkpt>
      <trkpt lat="47.24784" lon="7.32284">
        <ele>847</ele>
        <time>2017-06-11T07:49:49Z</time>
      </trkpt>
      <trkpt lat="47.24783" lon="7.32274">
        <ele>848</ele>
        <time>2017-06-11T07:49:52Z</time>
      </trkpt>
      <trkpt lat="47.24783" lon="7.32266">
        <ele>849</ele>
        <time>2017-06-11T07:49:55Z</time>
      </trkpt>
      <trkpt lat="47.24783" lon="7.32258">
        <ele>849</ele>
        <time>2017-06-11T07:49:58Z</time>
      </trkpt>
      <trkpt lat="47.24787" lon="7.32251">
        <ele>850</ele>
        <time>2017-06-11T07:50:02Z</time>
      </trkpt>
      <trkpt lat="47.2479" lon="7.32239">
        <ele>851</ele>
        <time>2017-06-11T07:50:08Z</time>
      </trkpt>
      <trkpt lat="47.24793" lon="7.32233">
        <ele>852</ele>
        <time>2017-06-11T07:50:10Z</time>
      </trkpt>
      <trkpt lat="47.24796" lon="7.32225">
        <ele>853</ele>
        <time>2017-06-11T07:50:13Z</time>
      </trkpt>
      <trkpt lat="47.24799" lon="7.32216">
        <ele>854</ele>
        <time>2017-06-11T07:50:16Z</time>
      </trkpt>
      <trkpt lat="47.248" lon="7.32208">
        <ele>855</ele>
        <time>2017-06-11T07:50:19Z</time>
      </trkpt>
      <trkpt lat="47.24802" lon="7.32198">
        <ele>856</ele>
        <time>2017-06-11T07:50:23Z</time>
      </trkpt>
      <trkpt lat="47.24806" lon="7.32187">
        <ele>857</ele>
        <time>2017-06-11T07:50:38Z</time>
      </trkpt>
      <trkpt lat="47.24812" lon="7.32187">
        <ele>858</ele>
        <time>2017-06-11T07:50:48Z</time>
      </trkpt>
      <trkpt lat="47.24818" lon="7.32185">
        <ele>859</ele>
        <time>2017-06-11T07:51:05Z</time>
      </trkpt>
      <trkpt lat="47.24819" lon="7.32179">
        <ele>861</ele>
        <time>2017-06-11T07:51:09Z</time>
      </trkpt>
      <trkpt lat="47.24822" lon="7.32173">
        <ele>863</ele>
        <time>2017-06-11T07:51:13Z</time>
      </trkpt>
      <trkpt lat="47.24827" lon="7.32167">
        <ele>864</ele>
        <time>2017-06-11T07:51:19Z</time>
      </trkpt>
      <trkpt lat="47.24831" lon="7.32167">
        <ele>865</ele>
        <time>2017-06-11T07:51:23Z</time>
      </trkpt>
      <trkpt lat="47.24838" lon="7.3217">
        <ele>866</ele>
        <time>2017-06-11T07:51:26Z</time>
      </trkpt>
      <trkpt lat="47.24843" lon="7.32168">
        <ele>866</ele>
        <time>2017-06-11T07:51:32Z</time>
      </trkpt>
      <trkpt lat="47.24849" lon="7.32167">
        <ele>866</ele>
        <time>2017-06-11T07:51:35Z</time>
      </trkpt>
      <trkpt lat="47.24853" lon="7.32166">
        <ele>867</ele>
        <time>2017-06-11T07:51:38Z</time>
      </trkpt>
      <trkpt lat="47.24857" lon="7.32163">
        <ele>867</ele>
        <time>2017-06-11T07:51:40Z</time>
      </trkpt>
      <trkpt lat="47.24863" lon="7.32163">
        <ele>866</ele>
        <time>2017-06-11T07:51:51Z</time>
      </trkpt>
      <trkpt lat="47.24869" lon="7.32164">
        <ele>866</ele>
        <time>2017-06-11T07:52:04Z</time>
      </trkpt>
      <trkpt lat="47.24875" lon="7.32158">
        <ele>866</ele>
        <time>2017-06-11T07:52:15Z</time>
      </trkpt>
      <trkpt lat="47.24879" lon="7.32156">
        <ele>866</ele>
        <time>2017-06-11T07:52:23Z</time>
      </trkpt>
      <trkpt lat="47.24882" lon="7.3215">
        <ele>865</ele>
        <time>2017-06-11T07:52:33Z</time>
      </trkpt>
      <trkpt lat="47.24883" lon="7.32143">
        <ele>865</ele>
        <time>2017-06-11T07:52:37Z</time>
      </trkpt>
      <trkpt lat="47.24883" lon="7.32136">
        <ele>865</ele>
        <time>2017-06-11T07:52:41Z</time>
      </trkpt>
      <trkpt lat="47.24883" lon="7.32127">
        <ele>865</ele>
        <time>2017-06-11T07:52:46Z</time>
      </trkpt>
      <trkpt lat="47.24884" lon="7.3212">
        <ele>865</ele>
        <time>2017-06-11T07:52:51Z</time>
      </trkpt>
      <trkpt lat="47.24888" lon="7.32123">
        <ele>865</ele>
        <time>2017-06-11T07:52:57Z</time>
      </trkpt>
      <trkpt lat="47.2489" lon="7.32122">
        <ele>865</ele>
        <time>2017-06-11T07:53:17Z</time>
      </trkpt>
      <trkpt lat="47.2488" lon="7.32114">
        <ele>859</ele>
        <time>2017-06-11T07:53:18Z</time>
      </trkpt>
      <trkpt lat="47.24887" lon="7.32106">
        <ele>850</ele>
        <time>2017-06-11T07:53:23Z</time>
      </trkpt>
      <trkpt lat="47.24892" lon="7.32103">
        <ele>841</ele>
        <time>2017-06-11T07:53:28Z</time>
      </trkpt>
      <trkpt lat="47.24898" lon="7.32101">
        <ele>831</ele>
        <time>2017-06-11T07:53:31Z</time>
      </trkpt>
      <trkpt lat="47.24903" lon="7.32098">
        <ele>823</ele>
        <time>2017-06-11T07:53:34Z</time>
      </trkpt>
      <trkpt lat="47.24909" lon="7.32094">
        <ele>821</ele>
        <time>2017-06-11T07:53:37Z</time>
      </trkpt>
      <trkpt lat="47.24914" lon="7.32091">
        <ele>822</ele>
        <time>2017-06-11T07:53:40Z</time>
      </trkpt>
      <trkpt lat="47.24919" lon="7.32091">
        <ele>824</ele>
        <time>2017-06-11T07:53:42Z</time>
      </trkpt>
      <trkpt lat="47.24923" lon="7.32094">
        <ele>828</ele>
        <time>2017-06-11T07:53:46Z</time>
      </trkpt>
      <trkpt lat="47.24928" lon="7.32095">
        <ele>832</ele>
        <time>2017-06-11T07:53:50Z</time>
      </trkpt>
      <trkpt lat="47.24933" lon="7.32093">
        <ele>835</ele>
        <time>2017-06-11T07:53:54Z</time>
      </trkpt>
      <trkpt lat="47.24938" lon="7.32091">
        <ele>837</ele>
        <time>2017-06-11T07:53:57Z</time>
      </trkpt>
      <trkpt lat="47.24942" lon="7.32092">
        <ele>838</ele>
        <time>2017-06-11T07:54:02Z</time>
      </trkpt>
      <trkpt lat="47.24945" lon="7.32098">
        <ele>838</ele>
        <time>2017-06-11T07:54:07Z</time>
      </trkpt>
      <trkpt lat="47.24949" lon="7.32104">
        <ele>837</ele>
        <time>2017-06-11T07:54:13Z</time>
      </trkpt>
      <trkpt lat="47.24953" lon="7.32107">
        <ele>837</ele>
        <time>2017-06-11T07:54:17Z</time>
      </trkpt>
      <trkpt lat="47.24957" lon="7.32113">
        <ele>837</ele>
        <time>2017-06-11T07:54:33Z</time>
      </trkpt>
      <trkpt lat="47.2496" lon="7.32119">
        <ele>838</ele>
        <time>2017-06-11T07:54:38Z</time>
      </trkpt>
      <trkpt lat="47.24963" lon="7.32123">
        <ele>839</ele>
        <time>2017-06-11T07:54:41Z</time>
      </trkpt>
      <trkpt lat="47.24964" lon="7.3213">
        <ele>840</ele>
        <time>2017-06-11T07:54:44Z</time>
      </trkpt>
      <trkpt lat="47.24963" lon="7.32137">
        <ele>841</ele>
        <time>2017-06-11T07:54:50Z</time>
      </trkpt>
      <trkpt lat="47.24962" lon="7.32143">
        <ele>842</ele>
        <time>2017-06-11T07:54:54Z</time>
      </trkpt>
      <trkpt lat="47.24963" lon="7.3215">
        <ele>842</ele>
        <time>2017-06-11T07:54:58Z</time>
      </trkpt>
      <trkpt lat="47.24968" lon="7.32154">
        <ele>841</ele>
        <time>2017-06-11T07:55:01Z</time>
      </trkpt>
      <trkpt lat="47.24971" lon="7.32161">
        <ele>841</ele>
        <time>2017-06-11T07:55:07Z</time>
      </trkpt>
      <trkpt lat="47.24969" lon="7.32167">
        <ele>840</ele>
        <time>2017-06-11T07:55:11Z</time>
      </trkpt>
      <trkpt lat="47.24969" lon="7.32174">
        <ele>840</ele>
        <time>2017-06-11T07:55:17Z</time>
      </trkpt>
      <trkpt lat="47.24963" lon="7.32171">
        <ele>840</ele>
        <time>2017-06-11T07:55:20Z</time>
      </trkpt>
      <trkpt lat="47.24959" lon="7.32176">
        <ele>840</ele>
        <time>2017-06-11T07:55:24Z</time>
      </trkpt>
      <trkpt lat="47.24955" lon="7.3218">
        <ele>841</ele>
        <time>2017-06-11T07:55:30Z</time>
      </trkpt>
      <trkpt lat="47.24949" lon="7.32177">
        <ele>841</ele>
        <time>2017-06-11T07:55:33Z</time>
      </trkpt>
      <trkpt lat="47.24945" lon="7.32178">
        <ele>843</ele>
        <time>2017-06-11T07:55:49Z</time>
      </trkpt>
      <trkpt lat="47.2494" lon="7.32179">
        <ele>844</ele>
        <time>2017-06-11T07:55:59Z</time>
      </trkpt>
      <trkpt lat="47.24935" lon="7.32181">
        <ele>845</ele>
        <time>2017-06-11T07:56:03Z</time>
      </trkpt>
      <trkpt lat="47.24931" lon="7.32184">
        <ele>846</ele>
        <time>2017-06-11T07:56:07Z</time>
      </trkpt>
      <trkpt lat="47.24928" lon="7.32192">
        <ele>847</ele>
        <time>2017-06-11T07:56:13Z</time>
      </trkpt>
      <trkpt lat="47.24923" lon="7.32193">
        <ele>848</ele>
        <time>2017-06-11T07:56:17Z</time>
      </trkpt>
      <trkpt lat="47.24919" lon="7.32193">
        <ele>849</ele>
        <time>2017-06-11T07:56:20Z</time>
      </trkpt>
      <trkpt lat="47.24914" lon="7.32197">
        <ele>850</ele>
        <time>2017-06-11T07:56:22Z</time>
      </trkpt>
      <trkpt lat="47.24913" lon="7.32199">
        <ele>851</ele>
        <time>2017-06-11T07:56:47Z</time>
      </trkpt>
      <trkpt lat="47.24911" lon="7.32208">
        <ele>855</ele>
        <time>2017-06-11T07:56:49Z</time>
      </trkpt>
      <trkpt lat="47.24901" lon="7.32175">
        <ele>863</ele>
        <time>2017-06-11T07:56:52Z</time>
      </trkpt>
      <trkpt lat="47.24897" lon="7.32166">
        <ele>872</ele>
        <time>2017-06-11T07:56:53Z</time>
      </trkpt>
      <trkpt lat="47.24897" lon="7.32154">
        <ele>884</ele>
        <time>2017-06-11T07:56:54Z</time>
      </trkpt>
      <trkpt lat="47.24897" lon="7.32137">
        <ele>894</ele>
        <time>2017-06-11T07:57:04Z</time>
      </trkpt>
      <trkpt lat="47.24897" lon="7.32127">
        <ele>903</ele>
        <time>2017-06-11T07:57:05Z</time>
      </trkpt>
      <trkpt lat="47.24899" lon="7.32119">
        <ele>907</ele>
        <time>2017-06-11T07:57:06Z</time>
      </trkpt>
      <trkpt lat="47.24897" lon="7.32111">
        <ele>910</ele>
        <time>2017-06-11T07:57:07Z</time>
      </trkpt>
      <trkpt lat="47.24899" lon="7.32103">
        <ele>912</ele>
        <time>2017-06-11T07:57:08Z</time>
      </trkpt>
      <trkpt lat="47.24896" lon="7.32096">
        <ele>915</ele>
        <time>2017-06-11T07:57:15Z</time>
      </trkpt>
      <trkpt lat="47.24891" lon="7.32093">
        <ele>918</ele>
        <time>2017-06-11T07:57:18Z</time>
      </trkpt>
      <trkpt lat="47.24887" lon="7.32088">
        <ele>920</ele>
        <time>2017-06-11T07:57:25Z</time>
      </trkpt>
      <trkpt lat="47.24882" lon="7.3209">
        <ele>921</ele>
        <time>2017-06-11T07:57:43Z</time>
      </trkpt>
      <trkpt lat="47.24881" lon="7.32099">
        <ele>921</ele>
        <time>2017-06-11T07:57:45Z</time>
      </trkpt>
      <trkpt lat="47.2488" lon="7.32106">
        <ele>921</ele>
        <time>2017-06-11T07:57:48Z</time>
      </trkpt>
      <trkpt lat="47.24876" lon="7.32111">
        <ele>921</ele>
        <time>2017-06-11T07:57:50Z</time>
      </trkpt>
      <trkpt lat="47.24873" lon="7.32116">
        <ele>920</ele>
        <time>2017-06-11T07:57:53Z</time>
      </trkpt>
      <trkpt lat="47.24872" lon="7.32124">
        <ele>920</ele>
        <time>2017-06-11T07:57:54Z</time>
      </trkpt>
      <trkpt lat="47.24869" lon="7.32144">
        <ele>918</ele>
        <time>2017-06-11T07:57:55Z</time>
      </trkpt>
      <trkpt lat="47.24868" lon="7.32153">
        <ele>917</ele>
        <time>2017-06-11T07:57:56Z</time>
      </trkpt>
      <trkpt lat="47.24867" lon="7.32161">
        <ele>915</ele>
        <time>2017-06-11T07:57:57Z</time>
      </trkpt>
      <trkpt lat="47.24869" lon="7.32169">
        <ele>913</ele>
        <time>2017-06-11T07:57:58Z</time>
      </trkpt>
      <trkpt lat="47.24868" lon="7.32177">
        <ele>911</ele>
        <time>2017-06-11T07:58:00Z</time>
      </trkpt>
      <trkpt lat="47.24874" lon="7.32189">
        <ele>908</ele>
        <time>2017-06-11T07:58:03Z</time>
      </trkpt>
      <trkpt lat="47.2487" lon="7.3219">
        <ele>903</ele>
        <time>2017-06-11T07:58:27Z</time>
      </trkpt>
      <trkpt lat="47.24864" lon="7.3219">
        <ele>898</ele>
        <time>2017-06-11T07:58:29Z</time>
      </trkpt>
      <trkpt lat="47.24859" lon="7.32189">
        <ele>893</ele>
        <time>2017-06-11T07:58:33Z</time>
      </trkpt>
      <trkpt lat="47.24854" lon="7.32187">
        <ele>888</ele>
        <time>2017-06-11T07:58:36Z</time>
      </trkpt>
      <trkpt lat="47.24849" lon="7.32186">
        <ele>884</ele>
        <time>2017-06-11T07:58:38Z</time>
      </trkpt>
      <trkpt lat="47.24844" lon="7.32186">
        <ele>884</ele>
        <time>2017-06-11T07:58:40Z</time>
      </trkpt>
      <trkpt lat="47.24839" lon="7.32185">
        <ele>884</ele>
        <time>2017-06-11T07:58:43Z</time>
      </trkpt>
      <trkpt lat="47.24833" lon="7.32184">
        <ele>884</ele>
        <time>2017-06-11T07:58:46Z</time>
      </trkpt>
      <trkpt lat="47.24828" lon="7.32184">
        <ele>884</ele>
        <time>2017-06-11T07:58:48Z</time>
      </trkpt>
      <trkpt lat="47.24822" lon="7.32183">
        <ele>884</ele>
        <time>2017-06-11T07:58:51Z</time>
      </trkpt>
      <trkpt lat="47.24815" lon="7.32181">
        <ele>883</ele>
        <time>2017-06-11T07:58:54Z</time>
      </trkpt>
      <trkpt lat="47.24811" lon="7.32179">
        <ele>883</ele>
        <time>2017-06-11T07:58:56Z</time>
      </trkpt>
      <trkpt lat="47.24806" lon="7.32177">
        <ele>883</ele>
        <time>2017-06-11T07:58:58Z</time>
      </trkpt>
      <trkpt lat="47.248" lon="7.32173">
        <ele>883</ele>
        <time>2017-06-11T07:59:01Z</time>
      </trkpt>
      <trkpt lat="47.24795" lon="7.3217">
        <ele>883</ele>
        <time>2017-06-11T07:59:04Z</time>
      </trkpt>
      <trkpt lat="47.2479" lon="7.32168">
        <ele>882</ele>
        <time>2017-06-11T07:59:06Z</time>
      </trkpt>
      <trkpt lat="47.24785" lon="7.32164">
        <ele>882</ele>
        <time>2017-06-11T07:59:08Z</time>
      </trkpt>
      <trkpt lat="47.24778" lon="7.32158">
        <ele>881</ele>
        <time>2017-06-11T07:59:10Z</time>
      </trkpt>
      <trkpt lat="47.24774" lon="7.32154">
        <ele>880</ele>
        <time>2017-06-11T07:59:14Z</time>
      </trkpt>
      <trkpt lat="47.24772" lon="7.32146">
        <ele>879</ele>
        <time>2017-06-11T07:59:17Z</time>
      </trkpt>
      <trkpt lat="47.24771" lon="7.32139">
        <ele>879</ele>
        <time>2017-06-11T07:59:20Z</time>
      </trkpt>
      <trkpt lat="47.2477" lon="7.32133">
        <ele>878</ele>
        <time>2017-06-11T07:59:23Z</time>
      </trkpt>
      <trkpt lat="47.24772" lon="7.32125">
        <ele>877</ele>
        <time>2017-06-11T07:59:28Z</time>
      </trkpt>
      <trkpt lat="47.24772" lon="7.32117">
        <ele>876</ele>
        <time>2017-06-11T07:59:32Z</time>
      </trkpt>
      <trkpt lat="47.24773" lon="7.3211">
        <ele>875</ele>
        <time>2017-06-11T07:59:35Z</time>
      </trkpt>
      <trkpt lat="47.24778" lon="7.32099">
        <ele>874</ele>
        <time>2017-06-11T07:59:45Z</time>
      </trkpt>
      <trkpt lat="47.24779" lon="7.3209">
        <ele>873</ele>
        <time>2017-06-11T07:59:49Z</time>
      </trkpt>
      <trkpt lat="47.24779" lon="7.32083">
        <ele>872</ele>
        <time>2017-06-11T07:59:53Z</time>
      </trkpt>
      <trkpt lat="47.2478" lon="7.32076">
        <ele>871</ele>
        <time>2017-06-11T07:59:57Z</time>
      </trkpt>
      <trkpt lat="47.24784" lon="7.32072">
        <ele>870</ele>
        <time>2017-06-11T08:00:02Z</time>
      </trkpt>
      <trkpt lat="47.24789" lon="7.32072">
        <ele>870</ele>
        <time>2017-06-11T08:00:06Z</time>
      </trkpt>
      <trkpt lat="47.24793" lon="7.32073">
        <ele>870</ele>
        <time>2017-06-11T08:00:09Z</time>
      </trkpt>
      <trkpt lat="47.24799" lon="7.32074">
        <ele>870</ele>
        <time>2017-06-11T08:00:12Z</time>
      </trkpt>
      <trkpt lat="47.24805" lon="7.32076">
        <ele>871</ele>
        <time>2017-06-11T08:00:15Z</time>
      </trkpt>
      <trkpt lat="47.2481" lon="7.32076">
        <ele>871</ele>
        <time>2017-06-11T08:00:18Z</time>
      </trkpt>
      <trkpt lat="47.24815" lon="7.32076">
        <ele>872</ele>
        <time>2017-06-11T08:00:21Z</time>
      </trkpt>
      <trkpt lat="47.2482" lon="7.32074">
        <ele>872</ele>
        <time>2017-06-11T08:00:25Z</time>
      </trkpt>
      <trkpt lat="47.24826" lon="7.32072">
        <ele>872</ele>
        <time>2017-06-11T08:00:30Z</time>
      </trkpt>
      <trkpt lat="47.2483" lon="7.32069">
        <ele>872</ele>
        <time>2017-06-11T08:00:34Z</time>
      </trkpt>
      <trkpt lat="47.24836" lon="7.32066">
        <ele>872</ele>
        <time>2017-06-11T08:00:38Z</time>
      </trkpt>
      <trkpt lat="47.2484" lon="7.32064">
        <ele>872</ele>
        <time>2017-06-11T08:00:41Z</time>
      </trkpt>
      <trkpt lat="47.24846" lon="7.32062">
        <ele>872</ele>
        <time>2017-06-11T08:00:45Z</time>
      </trkpt>
      <trkpt lat="47.24851" lon="7.32062">
        <ele>872</ele>
        <time>2017-06-11T08:00:48Z</time>
      </trkpt>
      <trkpt lat="47.24855" lon="7.3206">
        <ele>872</ele>
        <time>2017-06-11T08:00:51Z</time>
      </trkpt>
      <trkpt lat="47.2486" lon="7.32056">
        <ele>873</ele>
        <time>2017-06-11T08:00:54Z</time>
      </trkpt>
      <trkpt lat="47.24864" lon="7.32054">
        <ele>873</ele>
        <time>2017-06-11T08:01:01Z</time>
      </trkpt>
      <trkpt lat="47.2487" lon="7.32056">
        <ele>873</ele>
        <time>2017-06-11T08:01:19Z</time>
      </trkpt>
      <trkpt lat="47.24875" lon="7.32052">
        <ele>873</ele>
        <time>2017-06-11T08:01:23Z</time>
      </trkpt>
      <trkpt lat="47.2488" lon="7.32049">
        <ele>874</ele>
        <time>2017-06-11T08:01:27Z</time>
      </trkpt>
      <trkpt lat="47.24883" lon="7.32044">
        <ele>874</ele>
        <time>2017-06-11T08:01:32Z</time>
      </trkpt>
      <trkpt lat="47.24888" lon="7.32042">
        <ele>875</ele>
        <time>2017-06-11T08:01:37Z</time>
      </trkpt>
      <trkpt lat="47.24893" lon="7.32042">
        <ele>876</ele>
        <time>2017-06-11T08:01:40Z</time>
      </trkpt>
      <trkpt lat="47.24899" lon="7.3204">
        <ele>877</ele>
        <time>2017-06-11T08:01:44Z</time>
      </trkpt>
      <trkpt lat="47.24904" lon="7.32038">
        <ele>877</ele>
        <time>2017-06-11T08:01:48Z</time>
      </trkpt>
      <trkpt lat="47.24908" lon="7.32034">
        <ele>878</ele>
        <time>2017-06-11T08:01:53Z</time>
      </trkpt>
      <trkpt lat="47.24913" lon="7.3203">
        <ele>879</ele>
        <time>2017-06-11T08:01:58Z</time>
      </trkpt>
      <trkpt lat="47.24918" lon="7.32028">
        <ele>879</ele>
        <time>2017-06-11T08:02:03Z</time>
      </trkpt>
      <trkpt lat="47.24922" lon="7.32024">
        <ele>880</ele>
        <time>2017-06-11T08:02:08Z</time>
      </trkpt>
      <trkpt lat="47.24926" lon="7.32017">
        <ele>881</ele>
        <time>2017-06-11T08:02:15Z</time>
      </trkpt>
      <trkpt lat="47.24932" lon="7.32014">
        <ele>882</ele>
        <time>2017-06-11T08:02:23Z</time>
      </trkpt>
      <trkpt lat="47.24938" lon="7.32012">
        <ele>883</ele>
        <time>2017-06-11T08:02:27Z</time>
      </trkpt>
      <trkpt lat="47.24943" lon="7.32009">
        <ele>884</ele>
        <time>2017-06-11T08:02:31Z</time>
      </trkpt>
      <trkpt lat="47.24948" lon="7.32007">
        <ele>885</ele>
        <time>2017-06-11T08:02:36Z</time>
      </trkpt>
      <trkpt lat="47.24953" lon="7.32006">
        <ele>885</ele>
        <time>2017-06-11T08:02:41Z</time>
      </trkpt>
      <trkpt lat="47.24957" lon="7.32004">
        <ele>886</ele>
        <time>2017-06-11T08:02:46Z</time>
      </trkpt>
      <trkpt lat="47.24962" lon="7.32001">
        <ele>886</ele>
        <time>2017-06-11T08:02:51Z</time>
      </trkpt>
      <trkpt lat="47.24966" lon="7.31998">
        <ele>887</ele>
        <time>2017-06-11T08:02:57Z</time>
      </trkpt>
      <trkpt lat="47.2497" lon="7.31994">
        <ele>887</ele>
        <time>2017-06-11T08:03:02Z</time>
      </trkpt>
      <trkpt lat="47.24974" lon="7.31991">
        <ele>887</ele>
        <time>2017-06-11T08:03:06Z</time>
      </trkpt>
      <trkpt lat="47.2498" lon="7.31991">
        <ele>888</ele>
        <time>2017-06-11T08:03:10Z</time>
      </trkpt>
      <trkpt lat="47.24985" lon="7.31989">
        <ele>888</ele>
        <time>2017-06-11T08:03:14Z</time>
      </trkpt>
      <trkpt lat="47.2499" lon="7.31987">
        <ele>888</ele>
        <time>2017-06-11T08:03:18Z</time>
      </trkpt>
      <trkpt lat="47.24994" lon="7.31983">
        <ele>888</ele>
        <time>2017-06-11T08:03:22Z</time>
      </trkpt>
      <trkpt lat="47.24999" lon="7.31979">
        <ele>889</ele>
        <time>2017-06-11T08:03:26Z</time>
      </trkpt>
      <trkpt lat="47.25004" lon="7.31978">
        <ele>890</ele>
        <time>2017-06-11T08:03:29Z</time>
      </trkpt>
      <trkpt lat="47.25009" lon="7.31977">
        <ele>890</ele>
        <time>2017-06-11T08:03:32Z</time>
      </trkpt>
      <trkpt lat="47.25014" lon="7.31972">
        <ele>891</ele>
        <time>2017-06-11T08:03:36Z</time>
      </trkpt>
      <trkpt lat="47.25019" lon="7.31971">
        <ele>892</ele>
        <time>2017-06-11T08:03:39Z</time>
      </trkpt>
      <trkpt lat="47.25026" lon="7.3197">
        <ele>892</ele>
        <time>2017-06-11T08:03:42Z</time>
      </trkpt>
      <trkpt lat="47.25032" lon="7.31969">
        <ele>893</ele>
        <time>2017-06-11T08:03:45Z</time>
      </trkpt>
      <trkpt lat="47.25038" lon="7.31967">
        <ele>893</ele>
        <time>2017-06-11T08:03:48Z</time>
      </trkpt>
      <trkpt lat="47.25043" lon="7.31965">
        <ele>894</ele>
        <time>2017-06-11T08:03:51Z</time>
      </trkpt>
      <trkpt lat="47.25047" lon="7.3196">
        <ele>895</ele>
        <time>2017-06-11T08:03:54Z</time>
      </trkpt>
      <trkpt lat="47.25052" lon="7.31957">
        <ele>895</ele>
        <time>2017-06-11T08:03:57Z</time>
      </trkpt>
      <trkpt lat="47.25057" lon="7.31953">
        <ele>895</ele>
        <time>2017-06-11T08:04:00Z</time>
      </trkpt>
      <trkpt lat="47.25061" lon="7.31949">
        <ele>895</ele>
        <time>2017-06-11T08:04:03Z</time>
      </trkpt>
      <trkpt lat="47.25065" lon="7.31945">
        <ele>896</ele>
        <time>2017-06-11T08:04:06Z</time>
      </trkpt>
      <trkpt lat="47.25069" lon="7.31941">
        <ele>896</ele>
        <time>2017-06-11T08:04:09Z</time>
      </trkpt>
      <trkpt lat="47.25073" lon="7.31938">
        <ele>896</ele>
        <time>2017-06-11T08:04:12Z</time>
      </trkpt>
      <trkpt lat="47.25077" lon="7.31934">
        <ele>897</ele>
        <time>2017-06-11T08:04:15Z</time>
      </trkpt>
      <trkpt lat="47.25081" lon="7.31929">
        <ele>897</ele>
        <time>2017-06-11T08:04:19Z</time>
      </trkpt>
      <trkpt lat="47.25086" lon="7.31924">
        <ele>898</ele>
        <time>2017-06-11T08:04:23Z</time>
      </trkpt>
      <trkpt lat="47.2509" lon="7.3192">
        <ele>898</ele>
        <time>2017-06-11T08:04:26Z</time>
      </trkpt>
      <trkpt lat="47.25094" lon="7.31916">
        <ele>899</ele>
        <time>2017-06-11T08:04:29Z</time>
      </trkpt>
      <trkpt lat="47.25098" lon="7.31912">
        <ele>899</ele>
        <time>2017-06-11T08:04:32Z</time>
      </trkpt>
      <trkpt lat="47.25102" lon="7.31908">
        <ele>900</ele>
        <time>2017-06-11T08:04:35Z</time>
      </trkpt>
      <trkpt lat="47.25105" lon="7.31903">
        <ele>900</ele>
        <time>2017-06-11T08:04:38Z</time>
      </trkpt>
      <trkpt lat="47.25108" lon="7.31899">
        <ele>900</ele>
        <time>2017-06-11T08:04:41Z</time>
      </trkpt>
      <trkpt lat="47.25111" lon="7.31894">
        <ele>901</ele>
        <time>2017-06-11T08:04:44Z</time>
      </trkpt>
      <trkpt lat="47.25114" lon="7.31888">
        <ele>901</ele>
        <time>2017-06-11T08:04:47Z</time>
      </trkpt>
      <trkpt lat="47.25117" lon="7.31882">
        <ele>902</ele>
        <time>2017-06-11T08:04:50Z</time>
      </trkpt>
      <trkpt lat="47.25121" lon="7.31875">
        <ele>902</ele>
        <time>2017-06-11T08:04:54Z</time>
      </trkpt>
      <trkpt lat="47.25124" lon="7.3187">
        <ele>903</ele>
        <time>2017-06-11T08:04:57Z</time>
      </trkpt>
      <trkpt lat="47.25128" lon="7.31865">
        <ele>904</ele>
        <time>2017-06-11T08:05:00Z</time>
      </trkpt>
      <trkpt lat="47.25131" lon="7.31859">
        <ele>904</ele>
        <time>2017-06-11T08:05:03Z</time>
      </trkpt>
      <trkpt lat="47.25135" lon="7.31853">
        <ele>905</ele>
        <time>2017-06-11T08:05:07Z</time>
      </trkpt>
      <trkpt lat="47.25137" lon="7.31847">
        <ele>906</ele>
        <time>2017-06-11T08:05:10Z</time>
      </trkpt>
      <trkpt lat="47.2514" lon="7.3184">
        <ele>906</ele>
        <time>2017-06-11T08:05:15Z</time>
      </trkpt>
      <trkpt lat="47.25144" lon="7.31835">
        <ele>907</ele>
        <time>2017-06-11T08:05:20Z</time>
      </trkpt>
      <trkpt lat="47.25149" lon="7.3183">
        <ele>908</ele>
        <time>2017-06-11T08:05:23Z</time>
      </trkpt>
      <trkpt lat="47.25154" lon="7.31826">
        <ele>908</ele>
        <time>2017-06-11T08:05:26Z</time>
      </trkpt>
      <trkpt lat="47.25159" lon="7.31824">
        <ele>909</ele>
        <time>2017-06-11T08:05:29Z</time>
      </trkpt>
      <trkpt lat="47.25166" lon="7.31825">
        <ele>909</ele>
        <time>2017-06-11T08:05:38Z</time>
      </trkpt>
      <trkpt lat="47.25165" lon="7.31814">
        <ele>910</ele>
        <time>2017-06-11T08:05:46Z</time>
      </trkpt>
      <trkpt lat="47.25164" lon="7.31803">
        <ele>910</ele>
        <time>2017-06-11T08:05:52Z</time>
      </trkpt>
      <trkpt lat="47.25162" lon="7.31793">
        <ele>911</ele>
        <time>2017-06-11T08:05:55Z</time>
      </trkpt>
      <trkpt lat="47.25161" lon="7.31784">
        <ele>911</ele>
        <time>2017-06-11T08:05:57Z</time>
      </trkpt>
      <trkpt lat="47.25161" lon="7.31777">
        <ele>912</ele>
        <time>2017-06-11T08:05:59Z</time>
      </trkpt>
      <trkpt lat="47.2516" lon="7.31767">
        <ele>913</ele>
        <time>2017-06-11T08:06:02Z</time>
      </trkpt>
      <trkpt lat="47.25161" lon="7.31758">
        <ele>914</ele>
        <time>2017-06-11T08:06:05Z</time>
      </trkpt>
      <trkpt lat="47.2516" lon="7.3175">
        <ele>915</ele>
        <time>2017-06-11T08:06:08Z</time>
      </trkpt>
      <trkpt lat="47.2516" lon="7.31741">
        <ele>917</ele>
        <time>2017-06-11T08:06:12Z</time>
      </trkpt>
      <trkpt lat="47.25162" lon="7.31733">
        <ele>917</ele>
        <time>2017-06-11T08:06:17Z</time>
      </trkpt>
      <trkpt lat="47.25163" lon="7.31723">
        <ele>918</ele>
        <time>2017-06-11T08:06:26Z</time>
      </trkpt>
      <trkpt lat="47.25164" lon="7.31715">
        <ele>918</ele>
        <time>2017-06-11T08:06:30Z</time>
      </trkpt>
      <trkpt lat="47.25165" lon="7.31708">
        <ele>917</ele>
        <time>2017-06-11T08:06:33Z</time>
      </trkpt>
      <trkpt lat="47.25166" lon="7.317">
        <ele>917</ele>
        <time>2017-06-11T08:06:36Z</time>
      </trkpt>
      <trkpt lat="47.25167" lon="7.31692">
        <ele>918</ele>
        <time>2017-06-11T08:06:39Z</time>
      </trkpt>
      <trkpt lat="47.25169" lon="7.31682">
        <ele>918</ele>
        <time>2017-06-11T08:06:44Z</time>
      </trkpt>
      <trkpt lat="47.2517" lon="7.31674">
        <ele>919</ele>
        <time>2017-06-11T08:06:51Z</time>
      </trkpt>
      <trkpt lat="47.25172" lon="7.31665">
        <ele>919</ele>
        <time>2017-06-11T08:06:59Z</time>
      </trkpt>
      <trkpt lat="47.25174" lon="7.31659">
        <ele>919</ele>
        <time>2017-06-11T08:07:02Z</time>
      </trkpt>
      <trkpt lat="47.25177" lon="7.31652">
        <ele>919</ele>
        <time>2017-06-11T08:07:04Z</time>
      </trkpt>
      <trkpt lat="47.25181" lon="7.31645">
        <ele>918</ele>
        <time>2017-06-11T08:07:07Z</time>
      </trkpt>
      <trkpt lat="47.25177" lon="7.31649">
        <ele>917</ele>
        <time>2017-06-11T08:07:22Z</time>
      </trkpt>
      <trkpt lat="47.25173" lon="7.31654">
        <ele>916</ele>
        <time>2017-06-11T08:07:26Z</time>
      </trkpt>
      <trkpt lat="47.25168" lon="7.31655">
        <ele>915</ele>
        <time>2017-06-11T08:07:31Z</time>
      </trkpt>
      <trkpt lat="47.25163" lon="7.31656">
        <ele>914</ele>
        <time>2017-06-11T08:07:35Z</time>
      </trkpt>
      <trkpt lat="47.25159" lon="7.31658">
        <ele>913</ele>
        <time>2017-06-11T08:07:39Z</time>
      </trkpt>
      <trkpt lat="47.25153" lon="7.31662">
        <ele>913</ele>
        <time>2017-06-11T08:07:43Z</time>
      </trkpt>
      <trkpt lat="47.25149" lon="7.31665">
        <ele>912</ele>
        <time>2017-06-11T08:07:46Z</time>
      </trkpt>
      <trkpt lat="47.25145" lon="7.31667">
        <ele>912</ele>
        <time>2017-06-11T08:07:49Z</time>
      </trkpt>
      <trkpt lat="47.2514" lon="7.31671">
        <ele>912</ele>
        <time>2017-06-11T08:07:52Z</time>
      </trkpt>
      <trkpt lat="47.25136" lon="7.31673">
        <ele>912</ele>
        <time>2017-06-11T08:07:55Z</time>
      </trkpt>
      <trkpt lat="47.25132" lon="7.31677">
        <ele>911</ele>
        <time>2017-06-11T08:07:58Z</time>
      </trkpt>
      <trkpt lat="47.25127" lon="7.31681">
        <ele>911</ele>
        <time>2017-06-11T08:08:01Z</time>
      </trkpt>
      <trkpt lat="47.25125" lon="7.31688">
        <ele>911</ele>
        <time>2017-06-11T08:08:05Z</time>
      </trkpt>
      <trkpt lat="47.2512" lon="7.31694">
        <ele>911</ele>
        <time>2017-06-11T08:08:12Z</time>
      </trkpt>
      <trkpt lat="47.25115" lon="7.31694">
        <ele>911</ele>
        <time>2017-06-11T08:08:14Z</time>
      </trkpt>
      <trkpt lat="47.25114" lon="7.31687">
        <ele>911</ele>
        <time>2017-06-11T08:08:17Z</time>
      </trkpt>
      <trkpt lat="47.25118" lon="7.3168">
        <ele>911</ele>
        <time>2017-06-11T08:08:20Z</time>
      </trkpt>
      <trkpt lat="47.25121" lon="7.31675">
        <ele>911</ele>
        <time>2017-06-11T08:08:23Z</time>
      </trkpt>
      <trkpt lat="47.25125" lon="7.31671">
        <ele>911</ele>
        <time>2017-06-11T08:08:26Z</time>
      </trkpt>
      <trkpt lat="47.25129" lon="7.31665">
        <ele>912</ele>
        <time>2017-06-11T08:08:30Z</time>
      </trkpt>
      <trkpt lat="47.25134" lon="7.31662">
        <ele>912</ele>
        <time>2017-06-11T08:08:33Z</time>
      </trkpt>
      <trkpt lat="47.25137" lon="7.31656">
        <ele>913</ele>
        <time>2017-06-11T08:08:37Z</time>
      </trkpt>
      <trkpt lat="47.2514" lon="7.31651">
        <ele>914</ele>
        <time>2017-06-11T08:08:41Z</time>
      </trkpt>
      <trkpt lat="47.2514" lon="7.31643">
        <ele>914</ele>
        <time>2017-06-11T08:08:46Z</time>
      </trkpt>
      <trkpt lat="47.2514" lon="7.31636">
        <ele>915</ele>
        <time>2017-06-11T08:08:50Z</time>
      </trkpt>
      <trkpt lat="47.25139" lon="7.31629">
        <ele>915</ele>
        <time>2017-06-11T08:08:54Z</time>
      </trkpt>
      <trkpt lat="47.25138" lon="7.31621">
        <ele>916</ele>
        <time>2017-06-11T08:08:59Z</time>
      </trkpt>
      <trkpt lat="47.25137" lon="7.31613">
        <ele>917</ele>
        <time>2017-06-11T08:09:05Z</time>
      </trkpt>
      <trkpt lat="47.25138" lon="7.31605">
        <ele>918</ele>
        <time>2017-06-11T08:09:08Z</time>
      </trkpt>
      <trkpt lat="47.25139" lon="7.31598">
        <ele>918</ele>
        <time>2017-06-11T08:09:11Z</time>
      </trkpt>
      <trkpt lat="47.2514" lon="7.3159">
        <ele>919</ele>
        <time>2017-06-11T08:09:13Z</time>
      </trkpt>
      <trkpt lat="47.25139" lon="7.31583">
        <ele>919</ele>
        <time>2017-06-11T08:09:15Z</time>
      </trkpt>
      <trkpt lat="47.25139" lon="7.31577">
        <ele>919</ele>
        <time>2017-06-11T08:09:17Z</time>
      </trkpt>
      <trkpt lat="47.25138" lon="7.31568">
        <ele>919</ele>
        <time>2017-06-11T08:09:20Z</time>
      </trkpt>
      <trkpt lat="47.25139" lon="7.31559">
        <ele>919</ele>
        <time>2017-06-11T08:09:23Z</time>
      </trkpt>
      <trkpt lat="47.2514" lon="7.31552">
        <ele>920</ele>
        <time>2017-06-11T08:09:25Z</time>
      </trkpt>
      <trkpt lat="47.25139" lon="7.31544">
        <ele>920</ele>
        <time>2017-06-11T08:09:28Z</time>
      </trkpt>
      <trkpt lat="47.25139" lon="7.31536">
        <ele>920</ele>
        <time>2017-06-11T08:09:31Z</time>
      </trkpt>
      <trkpt lat="47.25139" lon="7.31527">
        <ele>921</ele>
        <time>2017-06-11T08:09:34Z</time>
      </trkpt>
      <trkpt lat="47.25139" lon="7.31519">
        <ele>921</ele>
        <time>2017-06-11T08:09:36Z</time>
      </trkpt>
      <trkpt lat="47.25139" lon="7.31513">
        <ele>921</ele>
        <time>2017-06-11T08:09:38Z</time>
      </trkpt>
      <trkpt lat="47.25139" lon="7.31505">
        <ele>921</ele>
        <time>2017-06-11T08:09:40Z</time>
      </trkpt>
      <trkpt lat="47.25139" lon="7.31499">
        <ele>921</ele>
        <time>2017-06-11T08:09:42Z</time>
      </trkpt>
      <trkpt lat="47.25139" lon="7.31491">
        <ele>921</ele>
        <time>2017-06-11T08:09:44Z</time>
      </trkpt>
      <trkpt lat="47.25139" lon="7.31484">
        <ele>921</ele>
        <time>2017-06-11T08:09:46Z</time>
      </trkpt>
      <trkpt lat="47.25139" lon="7.31477">
        <ele>921</ele>
        <time>2017-06-11T08:09:48Z</time>
      </trkpt>
      <trkpt lat="47.2514" lon="7.31469">
        <ele>921</ele>
        <time>2017-06-11T08:09:50Z</time>
      </trkpt>
      <trkpt lat="47.25142" lon="7.31462">
        <ele>921</ele>
        <time>2017-06-11T08:09:52Z</time>
      </trkpt>
      <trkpt lat="47.25143" lon="7.31456">
        <ele>921</ele>
        <time>2017-06-11T08:09:54Z</time>
      </trkpt>
      <trkpt lat="47.25145" lon="7.31449">
        <ele>921</ele>
        <time>2017-06-11T08:09:56Z</time>
      </trkpt>
      <trkpt lat="47.25147" lon="7.31442">
        <ele>921</ele>
        <time>2017-06-11T08:09:58Z</time>
      </trkpt>
      <trkpt lat="47.25148" lon="7.31435">
        <ele>921</ele>
        <time>2017-06-11T08:10:00Z</time>
      </trkpt>
      <trkpt lat="47.25151" lon="7.31428">
        <ele>921</ele>
        <time>2017-06-11T08:10:02Z</time>
      </trkpt>
      <trkpt lat="47.25153" lon="7.31421">
        <ele>921</ele>
        <time>2017-06-11T08:10:04Z</time>
      </trkpt>
      <trkpt lat="47.25154" lon="7.31415">
        <ele>921</ele>
        <time>2017-06-11T08:10:06Z</time>
      </trkpt>
      <trkpt lat="47.25155" lon="7.31408">
        <ele>920</ele>
        <time>2017-06-11T08:10:08Z</time>
      </trkpt>
      <trkpt lat="47.25156" lon="7.31401">
        <ele>920</ele>
        <time>2017-06-11T08:10:10Z</time>
      </trkpt>
      <trkpt lat="47.25158" lon="7.31395">
        <ele>920</ele>
        <time>2017-06-11T08:10:12Z</time>
      </trkpt>
      <trkpt lat="47.25161" lon="7.31389">
        <ele>919</ele>
        <time>2017-06-11T08:10:14Z</time>
      </trkpt>
      <trkpt lat="47.25165" lon="7.31385">
        <ele>919</ele>
        <time>2017-06-11T08:10:17Z</time>
      </trkpt>
      <trkpt lat="47.2517" lon="7.31385">
        <ele>919</ele>
        <time>2017-06-11T08:10:21Z</time>
      </trkpt>
      <trkpt lat="47.25175" lon="7.31387">
        <ele>919</ele>
        <time>2017-06-11T08:10:25Z</time>
      </trkpt>
      <trkpt lat="47.2518" lon="7.31388">
        <ele>918</ele>
        <time>2017-06-11T08:10:29Z</time>
      </trkpt>
      <trkpt lat="47.25184" lon="7.31387">
        <ele>918</ele>
        <time>2017-06-11T08:10:33Z</time>
      </trkpt>
      <trkpt lat="47.25189" lon="7.31385">
        <ele>918</ele>
        <time>2017-06-11T08:10:36Z</time>
      </trkpt>
      <trkpt lat="47.25193" lon="7.3138">
        <ele>918</ele>
        <time>2017-06-11T08:10:39Z</time>
      </trkpt>
      <trkpt lat="47.25196" lon="7.31375">
        <ele>918</ele>
        <time>2017-06-11T08:10:42Z</time>
      </trkpt>
      <trkpt lat="47.25199" lon="7.31369">
        <ele>919</ele>
        <time>2017-06-11T08:10:45Z</time>
      </trkpt>
      <trkpt lat="47.25201" lon="7.31364">
        <ele>919</ele>
        <time>2017-06-11T08:10:48Z</time>
      </trkpt>
      <trkpt lat="47.25204" lon="7.31358">
        <ele>919</ele>
        <time>2017-06-11T08:10:51Z</time>
      </trkpt>
      <trkpt lat="47.25206" lon="7.31352">
        <ele>919</ele>
        <time>2017-06-11T08:10:54Z</time>
      </trkpt>
      <trkpt lat="47.25209" lon="7.31346">
        <ele>920</ele>
        <time>2017-06-11T08:10:57Z</time>
      </trkpt>
      <trkpt lat="47.25212" lon="7.31341">
        <ele>920</ele>
        <time>2017-06-11T08:11:00Z</time>
      </trkpt>
      <trkpt lat="47.25214" lon="7.31335">
        <ele>920</ele>
        <time>2017-06-11T08:11:03Z</time>
      </trkpt>
      <trkpt lat="47.25217" lon="7.3133">
        <ele>920</ele>
        <time>2017-06-11T08:11:06Z</time>
      </trkpt>
      <trkpt lat="47.25222" lon="7.31325">
        <ele>921</ele>
        <time>2017-06-11T08:11:10Z</time>
      </trkpt>
      <trkpt lat="47.25226" lon="7.31321">
        <ele>921</ele>
        <time>2017-06-11T08:11:14Z</time>
      </trkpt>
      <trkpt lat="47.2523" lon="7.31318">
        <ele>922</ele>
        <time>2017-06-11T08:11:19Z</time>
      </trkpt>
      <trkpt lat="47.25235" lon="7.31315">
        <ele>923</ele>
        <time>2017-06-11T08:11:27Z</time>
      </trkpt>
      <trkpt lat="47.25238" lon="7.3131">
        <ele>924</ele>
        <time>2017-06-11T08:11:31Z</time>
      </trkpt>
      <trkpt lat="47.25242" lon="7.31303">
        <ele>925</ele>
        <time>2017-06-11T08:11:35Z</time>
      </trkpt>
      <trkpt lat="47.25246" lon="7.313">
        <ele>926</ele>
        <time>2017-06-11T08:11:39Z</time>
      </trkpt>
      <trkpt lat="47.2525" lon="7.31296">
        <ele>927</ele>
        <time>2017-06-11T08:11:43Z</time>
      </trkpt>
      <trkpt lat="47.25255" lon="7.31295">
        <ele>927</ele>
        <time>2017-06-11T08:11:48Z</time>
      </trkpt>
      <trkpt lat="47.2526" lon="7.31292">
        <ele>928</ele>
        <time>2017-06-11T08:11:53Z</time>
      </trkpt>
      <trkpt lat="47.25265" lon="7.31291">
        <ele>929</ele>
        <time>2017-06-11T08:11:57Z</time>
      </trkpt>
      <trkpt lat="47.2527" lon="7.31292">
        <ele>930</ele>
        <time>2017-06-11T08:12:02Z</time>
      </trkpt>
      <trkpt lat="47.25276" lon="7.31292">
        <ele>930</ele>
        <time>2017-06-11T08:12:06Z</time>
      </trkpt>
      <trkpt lat="47.25281" lon="7.31294">
        <ele>930</ele>
        <time>2017-06-11T08:12:10Z</time>
      </trkpt>
      <trkpt lat="47.25287" lon="7.31295">
        <ele>930</ele>
        <time>2017-06-11T08:12:14Z</time>
      </trkpt>
      <trkpt lat="47.25293" lon="7.31297">
        <ele>931</ele>
        <time>2017-06-11T08:12:18Z</time>
      </trkpt>
      <trkpt lat="47.25298" lon="7.31299">
        <ele>931</ele>
        <time>2017-06-11T08:12:20Z</time>
      </trkpt>
      <trkpt lat="47.25302" lon="7.31302">
        <ele>931</ele>
        <time>2017-06-11T08:12:22Z</time>
      </trkpt>
      <trkpt lat="47.25307" lon="7.31305">
        <ele>932</ele>
        <time>2017-06-11T08:12:25Z</time>
      </trkpt>
      <trkpt lat="47.25312" lon="7.31308">
        <ele>932</ele>
        <time>2017-06-11T08:12:28Z</time>
      </trkpt>
      <trkpt lat="47.25316" lon="7.3131">
        <ele>932</ele>
        <time>2017-06-11T08:12:30Z</time>
      </trkpt>
      <trkpt lat="47.25321" lon="7.31312">
        <ele>933</ele>
        <time>2017-06-11T08:12:33Z</time>
      </trkpt>
      <trkpt lat="47.25325" lon="7.31313">
        <ele>933</ele>
        <time>2017-06-11T08:12:36Z</time>
      </trkpt>
      <trkpt lat="47.2533" lon="7.31314">
        <ele>934</ele>
        <time>2017-06-11T08:12:39Z</time>
      </trkpt>
      <trkpt lat="47.25336" lon="7.31315">
        <ele>934</ele>
        <time>2017-06-11T08:12:42Z</time>
      </trkpt>
      <trkpt lat="47.25341" lon="7.31317">
        <ele>935</ele>
        <time>2017-06-11T08:12:46Z</time>
      </trkpt>
      <trkpt lat="47.25346" lon="7.31317">
        <ele>936</ele>
        <time>2017-06-11T08:12:49Z</time>
      </trkpt>
      <trkpt lat="47.25352" lon="7.31317">
        <ele>936</ele>
        <time>2017-06-11T08:12:56Z</time>
      </trkpt>
      <trkpt lat="47.25358" lon="7.31322">
        <ele>937</ele>
        <time>2017-06-11T08:13:04Z</time>
      </trkpt>
      <trkpt lat="47.25362" lon="7.31319">
        <ele>938</ele>
        <time>2017-06-11T08:13:10Z</time>
      </trkpt>
      <trkpt lat="47.25369" lon="7.31316">
        <ele>939</ele>
        <time>2017-06-11T08:13:13Z</time>
      </trkpt>
      <trkpt lat="47.25374" lon="7.3131">
        <ele>939</ele>
        <time>2017-06-11T08:13:16Z</time>
      </trkpt>
      <trkpt lat="47.25378" lon="7.31307">
        <ele>940</ele>
        <time>2017-06-11T08:13:18Z</time>
      </trkpt>
      <trkpt lat="47.25382" lon="7.31304">
        <ele>940</ele>
        <time>2017-06-11T08:13:20Z</time>
      </trkpt>
      <trkpt lat="47.25386" lon="7.313">
        <ele>940</ele>
        <time>2017-06-11T08:13:22Z</time>
      </trkpt>
      <trkpt lat="47.25391" lon="7.31296">
        <ele>940</ele>
        <time>2017-06-11T08:13:24Z</time>
      </trkpt>
      <trkpt lat="47.25395" lon="7.31292">
        <ele>940</ele>
        <time>2017-06-11T08:13:26Z</time>
      </trkpt>
      <trkpt lat="47.25398" lon="7.31287">
        <ele>940</ele>
        <time>2017-06-11T08:13:28Z</time>
      </trkpt>
      <trkpt lat="47.25401" lon="7.31282">
        <ele>940</ele>
        <time>2017-06-11T08:13:30Z</time>
      </trkpt>
      <trkpt lat="47.25405" lon="7.31278">
        <ele>941</ele>
        <time>2017-06-11T08:13:32Z</time>
      </trkpt>
      <trkpt lat="47.25409" lon="7.31274">
        <ele>941</ele>
        <time>2017-06-11T08:13:34Z</time>
      </trkpt>
      <trkpt lat="47.25414" lon="7.31269">
        <ele>941</ele>
        <time>2017-06-11T08:13:36Z</time>
      </trkpt>
      <trkpt lat="47.25418" lon="7.31265">
        <ele>941</ele>
        <time>2017-06-11T08:13:38Z</time>
      </trkpt>
      <trkpt lat="47.25422" lon="7.3126">
        <ele>941</ele>
        <time>2017-06-11T08:13:40Z</time>
      </trkpt>
      <trkpt lat="47.25426" lon="7.31254">
        <ele>941</ele>
        <time>2017-06-11T08:13:42Z</time>
      </trkpt>
      <trkpt lat="47.2543" lon="7.3125">
        <ele>941</ele>
        <time>2017-06-11T08:13:44Z</time>
      </trkpt>
      <trkpt lat="47.25433" lon="7.31244">
        <ele>941</ele>
        <time>2017-06-11T08:13:46Z</time>
      </trkpt>
      <trkpt lat="47.25436" lon="7.31239">
        <ele>941</ele>
        <time>2017-06-11T08:13:48Z</time>
      </trkpt>
      <trkpt lat="47.2544" lon="7.31234">
        <ele>941</ele>
        <time>2017-06-11T08:13:50Z</time>
      </trkpt>
      <trkpt lat="47.25444" lon="7.3123">
        <ele>941</ele>
        <time>2017-06-11T08:13:52Z</time>
      </trkpt>
      <trkpt lat="47.25449" lon="7.31227">
        <ele>941</ele>
        <time>2017-06-11T08:13:54Z</time>
      </trkpt>
      <trkpt lat="47.25454" lon="7.31223">
        <ele>941</ele>
        <time>2017-06-11T08:13:56Z</time>
      </trkpt>
      <trkpt lat="47.25458" lon="7.31219">
        <ele>940</ele>
        <time>2017-06-11T08:13:58Z</time>
      </trkpt>
      <trkpt lat="47.25463" lon="7.31215">
        <ele>940</ele>
        <time>2017-06-11T08:14:00Z</time>
      </trkpt>
      <trkpt lat="47.25467" lon="7.31211">
        <ele>940</ele>
        <time>2017-06-11T08:14:02Z</time>
      </trkpt>
      <trkpt lat="47.25471" lon="7.31206">
        <ele>939</ele>
        <time>2017-06-11T08:14:04Z</time>
      </trkpt>
      <trkpt lat="47.25475" lon="7.31203">
        <ele>939</ele>
        <time>2017-06-11T08:14:06Z</time>
      </trkpt>
      <trkpt lat="47.25479" lon="7.31199">
        <ele>939</ele>
        <time>2017-06-11T08:14:08Z</time>
      </trkpt>
      <trkpt lat="47.25483" lon="7.31196">
        <ele>939</ele>
        <time>2017-06-11T08:14:10Z</time>
      </trkpt>
      <trkpt lat="47.25488" lon="7.31193">
        <ele>938</ele>
        <time>2017-06-11T08:14:12Z</time>
      </trkpt>
      <trkpt lat="47.25492" lon="7.3119">
        <ele>938</ele>
        <time>2017-06-11T08:14:14Z</time>
      </trkpt>
      <trkpt lat="47.25497" lon="7.31187">
        <ele>938</ele>
        <time>2017-06-11T08:14:17Z</time>
      </trkpt>
      <trkpt lat="47.25501" lon="7.31183">
        <ele>938</ele>
        <time>2017-06-11T08:14:26Z</time>
      </trkpt>
      <trkpt lat="47.25505" lon="7.31179">
        <ele>938</ele>
        <time>2017-06-11T08:14:28Z</time>
      </trkpt>
      <trkpt lat="47.25509" lon="7.31171">
        <ele>937</ele>
        <time>2017-06-11T08:14:31Z</time>
      </trkpt>
      <trkpt lat="47.25512" lon="7.31163">
        <ele>937</ele>
        <time>2017-06-11T08:14:34Z</time>
      </trkpt>
      <trkpt lat="47.25515" lon="7.31155">
        <ele>937</ele>
        <time>2017-06-11T08:14:37Z</time>
      </trkpt>
      <trkpt lat="47.25517" lon="7.31146">
        <ele>937</ele>
        <time>2017-06-11T08:14:40Z</time>
      </trkpt>
      <trkpt lat="47.25519" lon="7.31138">
        <ele>938</ele>
        <time>2017-06-11T08:14:43Z</time>
      </trkpt>
      <trkpt lat="47.25521" lon="7.3113">
        <ele>938</ele>
        <time>2017-06-11T08:14:46Z</time>
      </trkpt>
      <trkpt lat="47.25522" lon="7.31123">
        <ele>938</ele>
        <time>2017-06-11T08:14:48Z</time>
      </trkpt>
      <trkpt lat="47.25522" lon="7.31114">
        <ele>938</ele>
        <time>2017-06-11T08:14:51Z</time>
      </trkpt>
      <trkpt lat="47.25522" lon="7.31107">
        <ele>938</ele>
        <time>2017-06-11T08:14:53Z</time>
      </trkpt>
      <trkpt lat="47.25522" lon="7.311">
        <ele>938</ele>
        <time>2017-06-11T08:14:55Z</time>
      </trkpt>
      <trkpt lat="47.25521" lon="7.3109">
        <ele>937</ele>
        <time>2017-06-11T08:14:58Z</time>
      </trkpt>
      <trkpt lat="47.2552" lon="7.31081">
        <ele>937</ele>
        <time>2017-06-11T08:15:01Z</time>
      </trkpt>
      <trkpt lat="47.25519" lon="7.31072">
        <ele>937</ele>
        <time>2017-06-11T08:15:04Z</time>
      </trkpt>
      <trkpt lat="47.25518" lon="7.31063">
        <ele>937</ele>
        <time>2017-06-11T08:15:07Z</time>
      </trkpt>
      <trkpt lat="47.25517" lon="7.31054">
        <ele>937</ele>
        <time>2017-06-11T08:15:10Z</time>
      </trkpt>
      <trkpt lat="47.25517" lon="7.31045">
        <ele>937</ele>
        <time>2017-06-11T08:15:13Z</time>
      </trkpt>
      <trkpt lat="47.25522" lon="7.31045">
        <ele>937</ele>
        <time>2017-06-11T08:15:17Z</time>
      </trkpt>
      <trkpt lat="47.25525" lon="7.31052">
        <ele>937</ele>
        <time>2017-06-11T08:15:20Z</time>
      </trkpt>
      <trkpt lat="47.25529" lon="7.31059">
        <ele>937</ele>
        <time>2017-06-11T08:15:23Z</time>
      </trkpt>
      <trkpt lat="47.25532" lon="7.31067">
        <ele>937</ele>
        <time>2017-06-11T08:15:26Z</time>
      </trkpt>
      <trkpt lat="47.25534" lon="7.31073">
        <ele>937</ele>
        <time>2017-06-11T08:15:28Z</time>
      </trkpt>
      <trkpt lat="47.25536" lon="7.31079">
        <ele>937</ele>
        <time>2017-06-11T08:15:30Z</time>
      </trkpt>
      <trkpt lat="47.25539" lon="7.31088">
        <ele>937</ele>
        <time>2017-06-11T08:15:33Z</time>
      </trkpt>
      <trkpt lat="47.25541" lon="7.31097">
        <ele>937</ele>
        <time>2017-06-11T08:15:36Z</time>
      </trkpt>
      <trkpt lat="47.25542" lon="7.31103">
        <ele>937</ele>
        <time>2017-06-11T08:15:38Z</time>
      </trkpt>
      <trkpt lat="47.25544" lon="7.3111">
        <ele>937</ele>
        <time>2017-06-11T08:15:40Z</time>
      </trkpt>
      <trkpt lat="47.25545" lon="7.31117">
        <ele>937</ele>
        <time>2017-06-11T08:15:42Z</time>
      </trkpt>
      <trkpt lat="47.25546" lon="7.31124">
        <ele>937</ele>
        <time>2017-06-11T08:15:44Z</time>
      </trkpt>
      <trkpt lat="47.25547" lon="7.3113">
        <ele>937</ele>
        <time>2017-06-11T08:15:46Z</time>
      </trkpt>
      <trkpt lat="47.25548" lon="7.3114">
        <ele>937</ele>
        <time>2017-06-11T08:15:49Z</time>
      </trkpt>
      <trkpt lat="47.25549" lon="7.31148">
        <ele>937</ele>
        <time>2017-06-11T08:15:51Z</time>
      </trkpt>
      <trkpt lat="47.2555" lon="7.31155">
        <ele>937</ele>
        <time>2017-06-11T08:15:53Z</time>
      </trkpt>
      <trkpt lat="47.2555" lon="7.31162">
        <ele>937</ele>
        <time>2017-06-11T08:15:55Z</time>
      </trkpt>
      <trkpt lat="47.2555" lon="7.31172">
        <ele>936</ele>
        <time>2017-06-11T08:15:58Z</time>
      </trkpt>
      <trkpt lat="47.25551" lon="7.31179">
        <ele>936</ele>
        <time>2017-06-11T08:16:00Z</time>
      </trkpt>
      <trkpt lat="47.25551" lon="7.31189">
        <ele>936</ele>
        <time>2017-06-11T08:16:03Z</time>
      </trkpt>
      <trkpt lat="47.2555" lon="7.31198">
        <ele>936</ele>
        <time>2017-06-11T08:16:06Z</time>
      </trkpt>
      <trkpt lat="47.25551" lon="7.31208">
        <ele>936</ele>
        <time>2017-06-11T08:16:09Z</time>
      </trkpt>
      <trkpt lat="47.25551" lon="7.31214">
        <ele>936</ele>
        <time>2017-06-11T08:16:11Z</time>
      </trkpt>
      <trkpt lat="47.25551" lon="7.31224">
        <ele>936</ele>
        <time>2017-06-11T08:16:14Z</time>
      </trkpt>
      <trkpt lat="47.25551" lon="7.31232">
        <ele>936</ele>
        <time>2017-06-11T08:16:17Z</time>
      </trkpt>
      <trkpt lat="47.2555" lon="7.31239">
        <ele>936</ele>
        <time>2017-06-11T08:16:20Z</time>
      </trkpt>
      <trkpt lat="47.2555" lon="7.31248">
        <ele>936</ele>
        <time>2017-06-11T08:16:23Z</time>
      </trkpt>
      <trkpt lat="47.2555" lon="7.31257">
        <ele>936</ele>
        <time>2017-06-11T08:16:26Z</time>
      </trkpt>
      <trkpt lat="47.25549" lon="7.31264">
        <ele>936</ele>
        <time>2017-06-11T08:16:30Z</time>
      </trkpt>
      <trkpt lat="47.25549" lon="7.31273">
        <ele>936</ele>
        <time>2017-06-11T08:16:34Z</time>
      </trkpt>
      <trkpt lat="47.25549" lon="7.3128">
        <ele>936</ele>
        <time>2017-06-11T08:16:37Z</time>
      </trkpt>
      <trkpt lat="47.2555" lon="7.31288">
        <ele>937</ele>
        <time>2017-06-11T08:16:41Z</time>
      </trkpt>
      <trkpt lat="47.2555" lon="7.31297">
        <ele>937</ele>
        <time>2017-06-11T08:16:46Z</time>
      </trkpt>
      <trkpt lat="47.25551" lon="7.31304">
        <ele>938</ele>
        <time>2017-06-11T08:16:49Z</time>
      </trkpt>
      <trkpt lat="47.25552" lon="7.31311">
        <ele>938</ele>
        <time>2017-06-11T08:16:52Z</time>
      </trkpt>
      <trkpt lat="47.25553" lon="7.31318">
        <ele>938</ele>
        <time>2017-06-11T08:16:55Z</time>
      </trkpt>
      <trkpt lat="47.25555" lon="7.31326">
        <ele>939</ele>
        <time>2017-06-11T08:16:58Z</time>
      </trkpt>
      <trkpt lat="47.25557" lon="7.31335">
        <ele>939</ele>
        <time>2017-06-11T08:17:01Z</time>
      </trkpt>
      <trkpt lat="47.25559" lon="7.31343">
        <ele>939</ele>
        <time>2017-06-11T08:17:04Z</time>
      </trkpt>
      <trkpt lat="47.25561" lon="7.31351">
        <ele>940</ele>
        <time>2017-06-11T08:17:07Z</time>
      </trkpt>
      <trkpt lat="47.25562" lon="7.31359">
        <ele>940</ele>
        <time>2017-06-11T08:17:10Z</time>
      </trkpt>
      <trkpt lat="47.25564" lon="7.31366">
        <ele>940</ele>
        <time>2017-06-11T08:17:13Z</time>
      </trkpt>
      <trkpt lat="47.25565" lon="7.31373">
        <ele>940</ele>
        <time>2017-06-11T08:17:16Z</time>
      </trkpt>
      <trkpt lat="47.25566" lon="7.3138">
        <ele>941</ele>
        <time>2017-06-11T08:17:19Z</time>
      </trkpt>
      <trkpt lat="47.25567" lon="7.31388">
        <ele>941</ele>
        <time>2017-06-11T08:17:23Z</time>
      </trkpt>
      <trkpt lat="47.25568" lon="7.31396">
        <ele>941</ele>
        <time>2017-06-11T08:17:27Z</time>
      </trkpt>
      <trkpt lat="47.25569" lon="7.31403">
        <ele>941</ele>
        <time>2017-06-11T08:17:30Z</time>
      </trkpt>
      <trkpt lat="47.2557" lon="7.31412">
        <ele>942</ele>
        <time>2017-06-11T08:17:33Z</time>
      </trkpt>
      <trkpt lat="47.2557" lon="7.31418">
        <ele>942</ele>
        <time>2017-06-11T08:17:36Z</time>
      </trkpt>
      <trkpt lat="47.2557" lon="7.31426">
        <ele>943</ele>
        <time>2017-06-11T08:17:39Z</time>
      </trkpt>
      <trkpt lat="47.2557" lon="7.31434">
        <ele>943</ele>
        <time>2017-06-11T08:17:43Z</time>
      </trkpt>
      <trkpt lat="47.2557" lon="7.31443">
        <ele>943</ele>
        <time>2017-06-11T08:17:47Z</time>
      </trkpt>
      <trkpt lat="47.2557" lon="7.3145">
        <ele>943</ele>
        <time>2017-06-11T08:17:50Z</time>
      </trkpt>
      <trkpt lat="47.2557" lon="7.31457">
        <ele>943</ele>
        <time>2017-06-11T08:17:53Z</time>
      </trkpt>
      <trkpt lat="47.25571" lon="7.31465">
        <ele>944</ele>
        <time>2017-06-11T08:17:56Z</time>
      </trkpt>
      <trkpt lat="47.25571" lon="7.31473">
        <ele>944</ele>
        <time>2017-06-11T08:18:00Z</time>
      </trkpt>
      <trkpt lat="47.25573" lon="7.31481">
        <ele>945</ele>
        <time>2017-06-11T08:18:04Z</time>
      </trkpt>
      <trkpt lat="47.25575" lon="7.31488">
        <ele>946</ele>
        <time>2017-06-11T08:18:08Z</time>
      </trkpt>
      <trkpt lat="47.25576" lon="7.31496">
        <ele>946</ele>
        <time>2017-06-11T08:18:12Z</time>
      </trkpt>
      <trkpt lat="47.25576" lon="7.31504">
        <ele>947</ele>
        <time>2017-06-11T08:18:16Z</time>
      </trkpt>
      <trkpt lat="47.25576" lon="7.31511">
        <ele>948</ele>
        <time>2017-06-11T08:18:19Z</time>
      </trkpt>
      <trkpt lat="47.25576" lon="7.31518">
        <ele>949</ele>
        <time>2017-06-11T08:18:22Z</time>
      </trkpt>
      <trkpt lat="47.25578" lon="7.31527">
        <ele>950</ele>
        <time>2017-06-11T08:18:26Z</time>
      </trkpt>
      <trkpt lat="47.25579" lon="7.31533">
        <ele>951</ele>
        <time>2017-06-11T08:18:29Z</time>
      </trkpt>
      <trkpt lat="47.2558" lon="7.31541">
        <ele>951</ele>
        <time>2017-06-11T08:18:32Z</time>
      </trkpt>
      <trkpt lat="47.25581" lon="7.31549">
        <ele>952</ele>
        <time>2017-06-11T08:18:36Z</time>
      </trkpt>
      <trkpt lat="47.25581" lon="7.31559">
        <ele>952</ele>
        <time>2017-06-11T08:18:40Z</time>
      </trkpt>
      <trkpt lat="47.25582" lon="7.31566">
        <ele>953</ele>
        <time>2017-06-11T08:18:43Z</time>
      </trkpt>
      <trkpt lat="47.25583" lon="7.31573">
        <ele>953</ele>
        <time>2017-06-11T08:18:46Z</time>
      </trkpt>
      <trkpt lat="47.25583" lon="7.3158">
        <ele>953</ele>
        <time>2017-06-11T08:18:49Z</time>
      </trkpt>
      <trkpt lat="47.25584" lon="7.31588">
        <ele>954</ele>
        <time>2017-06-11T08:18:52Z</time>
      </trkpt>
      <trkpt lat="47.25584" lon="7.31595">
        <ele>954</ele>
        <time>2017-06-11T08:18:55Z</time>
      </trkpt>
      <trkpt lat="47.25584" lon="7.31603">
        <ele>954</ele>
        <time>2017-06-11T08:18:58Z</time>
      </trkpt>
      <trkpt lat="47.25586" lon="7.31612">
        <ele>954</ele>
        <time>2017-06-11T08:19:01Z</time>
      </trkpt>
      <trkpt lat="47.25587" lon="7.3162">
        <ele>954</ele>
        <time>2017-06-11T08:19:03Z</time>
      </trkpt>
      <trkpt lat="47.25588" lon="7.31626">
        <ele>955</ele>
        <time>2017-06-11T08:19:05Z</time>
      </trkpt>
      <trkpt lat="47.25589" lon="7.31635">
        <ele>955</ele>
        <time>2017-06-11T08:19:08Z</time>
      </trkpt>
      <trkpt lat="47.2559" lon="7.31644">
        <ele>955</ele>
        <time>2017-06-11T08:19:11Z</time>
      </trkpt>
      <trkpt lat="47.2559" lon="7.31652">
        <ele>955</ele>
        <time>2017-06-11T08:19:14Z</time>
      </trkpt>
      <trkpt lat="47.2559" lon="7.31661">
        <ele>956</ele>
        <time>2017-06-11T08:19:17Z</time>
      </trkpt>
      <trkpt lat="47.25591" lon="7.31667">
        <ele>956</ele>
        <time>2017-06-11T08:19:19Z</time>
      </trkpt>
      <trkpt lat="47.25593" lon="7.31674">
        <ele>956</ele>
        <time>2017-06-11T08:19:21Z</time>
      </trkpt>
      <trkpt lat="47.25595" lon="7.31681">
        <ele>956</ele>
        <time>2017-06-11T08:19:23Z</time>
      </trkpt>
      <trkpt lat="47.25597" lon="7.31688">
        <ele>957</ele>
        <time>2017-06-11T08:19:25Z</time>
      </trkpt>
      <trkpt lat="47.256" lon="7.31696">
        <ele>957</ele>
        <time>2017-06-11T08:19:28Z</time>
      </trkpt>
      <trkpt lat="47.25601" lon="7.31704">
        <ele>957</ele>
        <time>2017-06-11T08:19:31Z</time>
      </trkpt>
      <trkpt lat="47.25602" lon="7.3171">
        <ele>958</ele>
        <time>2017-06-11T08:19:34Z</time>
      </trkpt>
      <trkpt lat="47.25604" lon="7.31718">
        <ele>959</ele>
        <time>2017-06-11T08:19:37Z</time>
      </trkpt>
      <trkpt lat="47.25605" lon="7.31725">
        <ele>959</ele>
        <time>2017-06-11T08:19:39Z</time>
      </trkpt>
      <trkpt lat="47.25608" lon="7.31731">
        <ele>960</ele>
        <time>2017-06-11T08:19:41Z</time>
      </trkpt>
      <trkpt lat="47.25611" lon="7.31739">
        <ele>961</ele>
        <time>2017-06-11T08:19:44Z</time>
      </trkpt>
      <trkpt lat="47.25613" lon="7.31745">
        <ele>961</ele>
        <time>2017-06-11T08:19:47Z</time>
      </trkpt>
      <trkpt lat="47.25614" lon="7.31753">
        <ele>962</ele>
        <time>2017-06-11T08:19:50Z</time>
      </trkpt>
      <trkpt lat="47.25617" lon="7.3176">
        <ele>962</ele>
        <time>2017-06-11T08:19:53Z</time>
      </trkpt>
      <trkpt lat="47.25619" lon="7.31768">
        <ele>963</ele>
        <time>2017-06-11T08:19:56Z</time>
      </trkpt>
      <trkpt lat="47.2562" lon="7.31776">
        <ele>963</ele>
        <time>2017-06-11T08:19:59Z</time>
      </trkpt>
      <trkpt lat="47.2562" lon="7.31783">
        <ele>964</ele>
        <time>2017-06-11T08:20:01Z</time>
      </trkpt>
      <trkpt lat="47.25621" lon="7.31793">
        <ele>964</ele>
        <time>2017-06-11T08:20:04Z</time>
      </trkpt>
      <trkpt lat="47.25621" lon="7.318">
        <ele>964</ele>
        <time>2017-06-11T08:20:06Z</time>
      </trkpt>
      <trkpt lat="47.25622" lon="7.3181">
        <ele>965</ele>
        <time>2017-06-11T08:20:09Z</time>
      </trkpt>
      <trkpt lat="47.25623" lon="7.31816">
        <ele>965</ele>
        <time>2017-06-11T08:20:11Z</time>
      </trkpt>
      <trkpt lat="47.25624" lon="7.31823">
        <ele>965</ele>
        <time>2017-06-11T08:20:13Z</time>
      </trkpt>
      <trkpt lat="47.25625" lon="7.3183">
        <ele>965</ele>
        <time>2017-06-11T08:20:15Z</time>
      </trkpt>
      <trkpt lat="47.25626" lon="7.31837">
        <ele>965</ele>
        <time>2017-06-11T08:20:17Z</time>
      </trkpt>
      <trkpt lat="47.25627" lon="7.31844">
        <ele>965</ele>
        <time>2017-06-11T08:20:19Z</time>
      </trkpt>
      <trkpt lat="47.25628" lon="7.31851">
        <ele>965</ele>
        <time>2017-06-11T08:20:21Z</time>
      </trkpt>
      <trkpt lat="47.25629" lon="7.31857">
        <ele>965</ele>
        <time>2017-06-11T08:20:23Z</time>
      </trkpt>
      <trkpt lat="47.2563" lon="7.31867">
        <ele>965</ele>
        <time>2017-06-11T08:20:26Z</time>
      </trkpt>
      <trkpt lat="47.25631" lon="7.31876">
        <ele>965</ele>
        <time>2017-06-11T08:20:29Z</time>
      </trkpt>
      <trkpt lat="47.25632" lon="7.31883">
        <ele>965</ele>
        <time>2017-06-11T08:20:31Z</time>
      </trkpt>
      <trkpt lat="47.25633" lon="7.31892">
        <ele>965</ele>
        <time>2017-06-11T08:20:34Z</time>
      </trkpt>
      <trkpt lat="47.25634" lon="7.31901">
        <ele>965</ele>
        <time>2017-06-11T08:20:37Z</time>
      </trkpt>
      <trkpt lat="47.25634" lon="7.31911">
        <ele>964</ele>
        <time>2017-06-11T08:20:40Z</time>
      </trkpt>
      <trkpt lat="47.25634" lon="7.3192">
        <ele>964</ele>
        <time>2017-06-11T08:20:43Z</time>
      </trkpt>
      <trkpt lat="47.25633" lon="7.3193">
        <ele>964</ele>
        <time>2017-06-11T08:20:46Z</time>
      </trkpt>
      <trkpt lat="47.25632" lon="7.31939">
        <ele>964</ele>
        <time>2017-06-11T08:20:49Z</time>
      </trkpt>
      <trkpt lat="47.25631" lon="7.31949">
        <ele>964</ele>
        <time>2017-06-11T08:20:52Z</time>
      </trkpt>
      <trkpt lat="47.25629" lon="7.31958">
        <ele>964</ele>
        <time>2017-06-11T08:20:55Z</time>
      </trkpt>
      <trkpt lat="47.25628" lon="7.31967">
        <ele>964</ele>
        <time>2017-06-11T08:20:58Z</time>
      </trkpt>
      <trkpt lat="47.25627" lon="7.31976">
        <ele>964</ele>
        <time>2017-06-11T08:21:01Z</time>
      </trkpt>
      <trkpt lat="47.25625" lon="7.31982">
        <ele>964</ele>
        <time>2017-06-11T08:21:03Z</time>
      </trkpt>
      <trkpt lat="47.25623" lon="7.31988">
        <ele>964</ele>
        <time>2017-06-11T08:21:05Z</time>
      </trkpt>
      <trkpt lat="47.2562" lon="7.31997">
        <ele>964</ele>
        <time>2017-06-11T08:21:08Z</time>
      </trkpt>
      <trkpt lat="47.25617" lon="7.32003">
        <ele>964</ele>
        <time>2017-06-11T08:21:10Z</time>
      </trkpt>
      <trkpt lat="47.25616" lon="7.32011">
        <ele>964</ele>
        <time>2017-06-11T08:21:13Z</time>
      </trkpt>
      <trkpt lat="47.25614" lon="7.3202">
        <ele>964</ele>
        <time>2017-06-11T08:21:16Z</time>
      </trkpt>
      <trkpt lat="47.2561" lon="7.32028">
        <ele>964</ele>
        <time>2017-06-11T08:21:19Z</time>
      </trkpt>
      <trkpt lat="47.25607" lon="7.32034">
        <ele>964</ele>
        <time>2017-06-11T08:21:21Z</time>
      </trkpt>
      <trkpt lat="47.25604" lon="7.32039">
        <ele>964</ele>
        <time>2017-06-11T08:21:23Z</time>
      </trkpt>
      <trkpt lat="47.25601" lon="7.32046">
        <ele>964</ele>
        <time>2017-06-11T08:21:25Z</time>
      </trkpt>
      <trkpt lat="47.25597" lon="7.32052">
        <ele>964</ele>
        <time>2017-06-11T08:21:27Z</time>
      </trkpt>
      <trkpt lat="47.25593" lon="7.32059">
        <ele>964</ele>
        <time>2017-06-11T08:21:30Z</time>
      </trkpt>
      <trkpt lat="47.25591" lon="7.32064">
        <ele>964</ele>
        <time>2017-06-11T08:21:32Z</time>
      </trkpt>
      <trkpt lat="47.25587" lon="7.32072">
        <ele>964</ele>
        <time>2017-06-11T08:21:35Z</time>
      </trkpt>
      <trkpt lat="47.25586" lon="7.32078">
        <ele>964</ele>
        <time>2017-06-11T08:21:38Z</time>
      </trkpt>
      <trkpt lat="47.25583" lon="7.32084">
        <ele>964</ele>
        <time>2017-06-11T08:21:40Z</time>
      </trkpt>
      <trkpt lat="47.2558" lon="7.32089">
        <ele>964</ele>
        <time>2017-06-11T08:21:42Z</time>
      </trkpt>
      <trkpt lat="47.25576" lon="7.32095">
        <ele>964</ele>
        <time>2017-06-11T08:21:45Z</time>
      </trkpt>
      <trkpt lat="47.25571" lon="7.32102">
        <ele>965</ele>
        <time>2017-06-11T08:21:48Z</time>
      </trkpt>
      <trkpt lat="47.25568" lon="7.32108">
        <ele>965</ele>
        <time>2017-06-11T08:21:50Z</time>
      </trkpt>
      <trkpt lat="47.25566" lon="7.32115">
        <ele>965</ele>
        <time>2017-06-11T08:21:52Z</time>
      </trkpt>
      <trkpt lat="47.25565" lon="7.32122">
        <ele>966</ele>
        <time>2017-06-11T08:21:54Z</time>
      </trkpt>
      <trkpt lat="47.25563" lon="7.32129">
        <ele>966</ele>
        <time>2017-06-11T08:21:56Z</time>
      </trkpt>
      <trkpt lat="47.25562" lon="7.32136">
        <ele>966</ele>
        <time>2017-06-11T08:21:58Z</time>
      </trkpt>
      <trkpt lat="47.2556" lon="7.32143">
        <ele>966</ele>
        <time>2017-06-11T08:22:00Z</time>
      </trkpt>
      <trkpt lat="47.25559" lon="7.32151">
        <ele>966</ele>
        <time>2017-06-11T08:22:02Z</time>
      </trkpt>
      <trkpt lat="47.25557" lon="7.32158">
        <ele>966</ele>
        <time>2017-06-11T08:22:04Z</time>
      </trkpt>
      <trkpt lat="47.25554" lon="7.32167">
        <ele>966</ele>
        <time>2017-06-11T08:22:07Z</time>
      </trkpt>
      <trkpt lat="47.25552" lon="7.32173">
        <ele>966</ele>
        <time>2017-06-11T08:22:09Z</time>
      </trkpt>
      <trkpt lat="47.25549" lon="7.32179">
        <ele>966</ele>
        <time>2017-06-11T08:22:11Z</time>
      </trkpt>
      <trkpt lat="47.25547" lon="7.32186">
        <ele>966</ele>
        <time>2017-06-11T08:22:13Z</time>
      </trkpt>
      <trkpt lat="47.25544" lon="7.32192">
        <ele>966</ele>
        <time>2017-06-11T08:22:15Z</time>
      </trkpt>
      <trkpt lat="47.25542" lon="7.32199">
        <ele>966</ele>
        <time>2017-06-11T08:22:17Z</time>
      </trkpt>
      <trkpt lat="47.2554" lon="7.32205">
        <ele>967</ele>
        <time>2017-06-11T08:22:19Z</time>
      </trkpt>
      <trkpt lat="47.25537" lon="7.32213">
        <ele>967</ele>
        <time>2017-06-11T08:22:22Z</time>
      </trkpt>
      <trkpt lat="47.25534" lon="7.32221">
        <ele>967</ele>
        <time>2017-06-11T08:22:25Z</time>
      </trkpt>
      <trkpt lat="47.25531" lon="7.3223">
        <ele>967</ele>
        <time>2017-06-11T08:22:28Z</time>
      </trkpt>
      <trkpt lat="47.25527" lon="7.32237">
        <ele>967</ele>
        <time>2017-06-11T08:22:31Z</time>
      </trkpt>
      <trkpt lat="47.25525" lon="7.32243">
        <ele>967</ele>
        <time>2017-06-11T08:22:34Z</time>
      </trkpt>
      <trkpt lat="47.25523" lon="7.32251">
        <ele>967</ele>
        <time>2017-06-11T08:22:38Z</time>
      </trkpt>
      <trkpt lat="47.25521" lon="7.32259">
        <ele>967</ele>
        <time>2017-06-11T08:22:42Z</time>
      </trkpt>
      <trkpt lat="47.2552" lon="7.32266">
        <ele>967</ele>
        <time>2017-06-11T08:22:46Z</time>
      </trkpt>
      <trkpt lat="47.25519" lon="7.32273">
        <ele>967</ele>
        <time>2017-06-11T08:22:52Z</time>
      </trkpt>
      <trkpt lat="47.25519" lon="7.32281">
        <ele>968</ele>
        <time>2017-06-11T08:22:56Z</time>
      </trkpt>
      <trkpt lat="47.25519" lon="7.32288">
        <ele>968</ele>
        <time>2017-06-11T08:22:59Z</time>
      </trkpt>
      <trkpt lat="47.25518" lon="7.32295">
        <ele>969</ele>
        <time>2017-06-11T08:23:02Z</time>
      </trkpt>
      <trkpt lat="47.25518" lon="7.32303">
        <ele>970</ele>
        <time>2017-06-11T08:23:05Z</time>
      </trkpt>
      <trkpt lat="47.25516" lon="7.32309">
        <ele>970</ele>
        <time>2017-06-11T08:23:08Z</time>
      </trkpt>
      <trkpt lat="47.25515" lon="7.32316">
        <ele>971</ele>
        <time>2017-06-11T08:23:11Z</time>
      </trkpt>
      <trkpt lat="47.25515" lon="7.32324">
        <ele>971</ele>
        <time>2017-06-11T08:23:15Z</time>
      </trkpt>
      <trkpt lat="47.25517" lon="7.32331">
        <ele>972</ele>
        <time>2017-06-11T08:23:18Z</time>
      </trkpt>
      <trkpt lat="47.25515" lon="7.32339">
        <ele>973</ele>
        <time>2017-06-11T08:23:23Z</time>
      </trkpt>
      <trkpt lat="47.25515" lon="7.32348">
        <ele>974</ele>
        <time>2017-06-11T08:23:27Z</time>
      </trkpt>
      <trkpt lat="47.25515" lon="7.32356">
        <ele>974</ele>
        <time>2017-06-11T08:23:31Z</time>
      </trkpt>
      <trkpt lat="47.25517" lon="7.32363">
        <ele>975</ele>
        <time>2017-06-11T08:23:35Z</time>
      </trkpt>
      <trkpt lat="47.25518" lon="7.3237">
        <ele>975</ele>
        <time>2017-06-11T08:23:39Z</time>
      </trkpt>
      <trkpt lat="47.2552" lon="7.32379">
        <ele>975</ele>
        <time>2017-06-11T08:23:43Z</time>
      </trkpt>
      <trkpt lat="47.25521" lon="7.32386">
        <ele>975</ele>
        <time>2017-06-11T08:23:47Z</time>
      </trkpt>
      <trkpt lat="47.25522" lon="7.32394">
        <ele>976</ele>
        <time>2017-06-11T08:23:51Z</time>
      </trkpt>
      <trkpt lat="47.25522" lon="7.32401">
        <ele>976</ele>
        <time>2017-06-11T08:23:54Z</time>
      </trkpt>
      <trkpt lat="47.25522" lon="7.32408">
        <ele>976</ele>
        <time>2017-06-11T08:23:57Z</time>
      </trkpt>
      <trkpt lat="47.25522" lon="7.32415">
        <ele>977</ele>
        <time>2017-06-11T08:24:00Z</time>
      </trkpt>
      <trkpt lat="47.25524" lon="7.32421">
        <ele>977</ele>
        <time>2017-06-11T08:24:03Z</time>
      </trkpt>
      <trkpt lat="47.25525" lon="7.32428">
        <ele>977</ele>
        <time>2017-06-11T08:24:06Z</time>
      </trkpt>
      <trkpt lat="47.25525" lon="7.32436">
        <ele>978</ele>
        <time>2017-06-11T08:24:09Z</time>
      </trkpt>
      <trkpt lat="47.25526" lon="7.32443">
        <ele>978</ele>
        <time>2017-06-11T08:24:12Z</time>
      </trkpt>
      <trkpt lat="47.25528" lon="7.32449">
        <ele>978</ele>
        <time>2017-06-11T08:24:15Z</time>
      </trkpt>
      <trkpt lat="47.2553" lon="7.32456">
        <ele>979</ele>
        <time>2017-06-11T08:24:18Z</time>
      </trkpt>
      <trkpt lat="47.25531" lon="7.32462">
        <ele>979</ele>
        <time>2017-06-11T08:24:21Z</time>
      </trkpt>
      <trkpt lat="47.25531" lon="7.32469">
        <ele>979</ele>
        <time>2017-06-11T08:24:24Z</time>
      </trkpt>
      <trkpt lat="47.25531" lon="7.32477">
        <ele>979</ele>
        <time>2017-06-11T08:24:27Z</time>
      </trkpt>
      <trkpt lat="47.25531" lon="7.32485">
        <ele>979</ele>
        <time>2017-06-11T08:24:30Z</time>
      </trkpt>
      <trkpt lat="47.25531" lon="7.32492">
        <ele>979</ele>
        <time>2017-06-11T08:24:33Z</time>
      </trkpt>
      <trkpt lat="47.25531" lon="7.32499">
        <ele>979</ele>
        <time>2017-06-11T08:24:36Z</time>
      </trkpt>
      <trkpt lat="47.2553" lon="7.32506">
        <ele>979</ele>
        <time>2017-06-11T08:24:39Z</time>
      </trkpt>
      <trkpt lat="47.25528" lon="7.32515">
        <ele>979</ele>
        <time>2017-06-11T08:24:42Z</time>
      </trkpt>
      <trkpt lat="47.25527" lon="7.32522">
        <ele>979</ele>
        <time>2017-06-11T08:24:45Z</time>
      </trkpt>
      <trkpt lat="47.25525" lon="7.32529">
        <ele>979</ele>
        <time>2017-06-11T08:24:48Z</time>
      </trkpt>
      <trkpt lat="47.25523" lon="7.32537">
        <ele>980</ele>
        <time>2017-06-11T08:24:51Z</time>
      </trkpt>
      <trkpt lat="47.25521" lon="7.32544">
        <ele>980</ele>
        <time>2017-06-11T08:24:54Z</time>
      </trkpt>
      <trkpt lat="47.2552" lon="7.32552">
        <ele>980</ele>
        <time>2017-06-11T08:24:57Z</time>
      </trkpt>
      <trkpt lat="47.25518" lon="7.32559">
        <ele>981</ele>
        <time>2017-06-11T08:25:00Z</time>
      </trkpt>
      <trkpt lat="47.25517" lon="7.32567">
        <ele>981</ele>
        <time>2017-06-11T08:25:03Z</time>
      </trkpt>
      <trkpt lat="47.25516" lon="7.32575">
        <ele>981</ele>
        <time>2017-06-11T08:25:07Z</time>
      </trkpt>
      <trkpt lat="47.25516" lon="7.32582">
        <ele>981</ele>
        <time>2017-06-11T08:25:10Z</time>
      </trkpt>
      <trkpt lat="47.25515" lon="7.3259">
        <ele>981</ele>
        <time>2017-06-11T08:25:13Z</time>
      </trkpt>
      <trkpt lat="47.25514" lon="7.32598">
        <ele>981</ele>
        <time>2017-06-11T08:25:16Z</time>
      </trkpt>
      <trkpt lat="47.25512" lon="7.32606">
        <ele>981</ele>
        <time>2017-06-11T08:25:19Z</time>
      </trkpt>
      <trkpt lat="47.2551" lon="7.32614">
        <ele>982</ele>
        <time>2017-06-11T08:25:22Z</time>
      </trkpt>
      <trkpt lat="47.25509" lon="7.32621">
        <ele>982</ele>
        <time>2017-06-11T08:25:26Z</time>
      </trkpt>
      <trkpt lat="47.25508" lon="7.32629">
        <ele>982</ele>
        <time>2017-06-11T08:25:31Z</time>
      </trkpt>
      <trkpt lat="47.25505" lon="7.32636">
        <ele>983</ele>
        <time>2017-06-11T08:25:34Z</time>
      </trkpt>
      <trkpt lat="47.25502" lon="7.32643">
        <ele>983</ele>
        <time>2017-06-11T08:25:37Z</time>
      </trkpt>
      <trkpt lat="47.255" lon="7.32649">
        <ele>983</ele>
        <time>2017-06-11T08:25:40Z</time>
      </trkpt>
      <trkpt lat="47.25497" lon="7.32656">
        <ele>984</ele>
        <time>2017-06-11T08:25:45Z</time>
      </trkpt>
      <trkpt lat="47.25495" lon="7.32662">
        <ele>984</ele>
        <time>2017-06-11T08:25:48Z</time>
      </trkpt>
      <trkpt lat="47.25493" lon="7.3267">
        <ele>985</ele>
        <time>2017-06-11T08:25:52Z</time>
      </trkpt>
      <trkpt lat="47.25489" lon="7.32677">
        <ele>985</ele>
        <time>2017-06-11T08:25:55Z</time>
      </trkpt>
      <trkpt lat="47.25487" lon="7.32683">
        <ele>986</ele>
        <time>2017-06-11T08:25:58Z</time>
      </trkpt>
      <trkpt lat="47.25484" lon="7.3269">
        <ele>986</ele>
        <time>2017-06-11T08:26:01Z</time>
      </trkpt>
      <trkpt lat="47.25482" lon="7.32696">
        <ele>986</ele>
        <time>2017-06-11T08:26:04Z</time>
      </trkpt>
      <trkpt lat="47.2548" lon="7.32702">
        <ele>986</ele>
        <time>2017-06-11T08:26:07Z</time>
      </trkpt>
      <trkpt lat="47.25477" lon="7.32709">
        <ele>986</ele>
        <time>2017-06-11T08:26:11Z</time>
      </trkpt>
      <trkpt lat="47.25474" lon="7.32715">
        <ele>987</ele>
        <time>2017-06-11T08:26:14Z</time>
      </trkpt>
      <trkpt lat="47.25472" lon="7.3272">
        <ele>987</ele>
        <time>2017-06-11T08:26:17Z</time>
      </trkpt>
      <trkpt lat="47.25468" lon="7.32729">
        <ele>987</ele>
        <time>2017-06-11T08:26:21Z</time>
      </trkpt>
      <trkpt lat="47.25467" lon="7.32736">
        <ele>987</ele>
        <time>2017-06-11T08:26:25Z</time>
      </trkpt>
      <trkpt lat="47.25465" lon="7.32742">
        <ele>987</ele>
        <time>2017-06-11T08:26:28Z</time>
      </trkpt>
      <trkpt lat="47.25461" lon="7.32749">
        <ele>988</ele>
        <time>2017-06-11T08:26:31Z</time>
      </trkpt>
      <trkpt lat="47.25458" lon="7.32754">
        <ele>988</ele>
        <time>2017-06-11T08:26:34Z</time>
      </trkpt>
      <trkpt lat="47.25455" lon="7.32761">
        <ele>989</ele>
        <time>2017-06-11T08:26:37Z</time>
      </trkpt>
      <trkpt lat="47.25453" lon="7.32767">
        <ele>989</ele>
        <time>2017-06-11T08:26:40Z</time>
      </trkpt>
      <trkpt lat="47.25451" lon="7.32773">
        <ele>990</ele>
        <time>2017-06-11T08:26:43Z</time>
      </trkpt>
      <trkpt lat="47.25448" lon="7.32779">
        <ele>990</ele>
        <time>2017-06-11T08:26:46Z</time>
      </trkpt>
      <trkpt lat="47.25446" lon="7.32786">
        <ele>990</ele>
        <time>2017-06-11T08:26:49Z</time>
      </trkpt>
      <trkpt lat="47.25443" lon="7.32792">
        <ele>991</ele>
        <time>2017-06-11T08:26:52Z</time>
      </trkpt>
      <trkpt lat="47.25441" lon="7.32799">
        <ele>991</ele>
        <time>2017-06-11T08:26:55Z</time>
      </trkpt>
      <trkpt lat="47.2544" lon="7.32806">
        <ele>991</ele>
        <time>2017-06-11T08:26:59Z</time>
      </trkpt>
      <trkpt lat="47.25441" lon="7.32813">
        <ele>992</ele>
        <time>2017-06-11T08:27:02Z</time>
      </trkpt>
      <trkpt lat="47.25441" lon="7.3282">
        <ele>992</ele>
        <time>2017-06-11T08:27:05Z</time>
      </trkpt>
      <trkpt lat="47.25444" lon="7.32826">
        <ele>993</ele>
        <time>2017-06-11T08:27:08Z</time>
      </trkpt>
      <trkpt lat="47.25447" lon="7.32832">
        <ele>993</ele>
        <time>2017-06-11T08:27:11Z</time>
      </trkpt>
      <trkpt lat="47.2545" lon="7.32839">
        <ele>994</ele>
        <time>2017-06-11T08:27:15Z</time>
      </trkpt>
      <trkpt lat="47.25453" lon="7.32845">
        <ele>995</ele>
        <time>2017-06-11T08:27:18Z</time>
      </trkpt>
      <trkpt lat="47.25455" lon="7.32852">
        <ele>995</ele>
        <time>2017-06-11T08:27:22Z</time>
      </trkpt>
      <trkpt lat="47.25457" lon="7.32858">
        <ele>996</ele>
        <time>2017-06-11T08:27:26Z</time>
      </trkpt>
      <trkpt lat="47.25457" lon="7.32867">
        <ele>997</ele>
        <time>2017-06-11T08:27:30Z</time>
      </trkpt>
      <trkpt lat="47.25458" lon="7.32875">
        <ele>998</ele>
        <time>2017-06-11T08:27:33Z</time>
      </trkpt>
      <trkpt lat="47.25459" lon="7.32882">
        <ele>999</ele>
        <time>2017-06-11T08:27:35Z</time>
      </trkpt>
      <trkpt lat="47.25461" lon="7.32888">
        <ele>1000</ele>
        <time>2017-06-11T08:27:37Z</time>
      </trkpt>
      <trkpt lat="47.25461" lon="7.32895">
        <ele>1001</ele>
        <time>2017-06-11T08:27:40Z</time>
      </trkpt>
      <trkpt lat="47.25461" lon="7.32903">
        <ele>1002</ele>
        <time>2017-06-11T08:27:42Z</time>
      </trkpt>
      <trkpt lat="47.2546" lon="7.32911">
        <ele>1002</ele>
        <time>2017-06-11T08:27:45Z</time>
      </trkpt>
      <trkpt lat="47.25459" lon="7.32919">
        <ele>1003</ele>
        <time>2017-06-11T08:27:48Z</time>
      </trkpt>
      <trkpt lat="47.25459" lon="7.32927">
        <ele>1003</ele>
        <time>2017-06-11T08:27:50Z</time>
      </trkpt>
      <trkpt lat="47.25458" lon="7.32934">
        <ele>1004</ele>
        <time>2017-06-11T08:27:52Z</time>
      </trkpt>
      <trkpt lat="47.25457" lon="7.32941">
        <ele>1004</ele>
        <time>2017-06-11T08:27:54Z</time>
      </trkpt>
      <trkpt lat="47.25456" lon="7.32949">
        <ele>1004</ele>
        <time>2017-06-11T08:27:56Z</time>
      </trkpt>
      <trkpt lat="47.25454" lon="7.32957">
        <ele>1004</ele>
        <time>2017-06-11T08:27:58Z</time>
      </trkpt>
      <trkpt lat="47.25453" lon="7.32964">
        <ele>1004</ele>
        <time>2017-06-11T08:28:00Z</time>
      </trkpt>
      <trkpt lat="47.25451" lon="7.32972">
        <ele>1004</ele>
        <time>2017-06-11T08:28:02Z</time>
      </trkpt>
      <trkpt lat="47.2545" lon="7.32979">
        <ele>1004</ele>
        <time>2017-06-11T08:28:04Z</time>
      </trkpt>
      <trkpt lat="47.25449" lon="7.32986">
        <ele>1004</ele>
        <time>2017-06-11T08:28:06Z</time>
      </trkpt>
      <trkpt lat="47.25448" lon="7.32994">
        <ele>1004</ele>
        <time>2017-06-11T08:28:08Z</time>
      </trkpt>
      <trkpt lat="47.25446" lon="7.33">
        <ele>1004</ele>
        <time>2017-06-11T08:28:10Z</time>
      </trkpt>
      <trkpt lat="47.25444" lon="7.3301">
        <ele>1003</ele>
        <time>2017-06-11T08:28:13Z</time>
      </trkpt>
      <trkpt lat="47.25443" lon="7.33017">
        <ele>1003</ele>
        <time>2017-06-11T08:28:15Z</time>
      </trkpt>
      <trkpt lat="47.2544" lon="7.33024">
        <ele>1003</ele>
        <time>2017-06-11T08:28:17Z</time>
      </trkpt>
      <trkpt lat="47.25439" lon="7.33031">
        <ele>1003</ele>
        <time>2017-06-11T08:28:19Z</time>
      </trkpt>
      <trkpt lat="47.25437" lon="7.3304">
        <ele>1003</ele>
        <time>2017-06-11T08:28:22Z</time>
      </trkpt>
      <trkpt lat="47.25436" lon="7.33047">
        <ele>1003</ele>
        <time>2017-06-11T08:28:24Z</time>
      </trkpt>
      <trkpt lat="47.25434" lon="7.33053">
        <ele>1003</ele>
        <time>2017-06-11T08:28:26Z</time>
      </trkpt>
      <trkpt lat="47.25432" lon="7.33062">
        <ele>1003</ele>
        <time>2017-06-11T08:28:29Z</time>
      </trkpt>
      <trkpt lat="47.2543" lon="7.3307">
        <ele>1003</ele>
        <time>2017-06-11T08:28:32Z</time>
      </trkpt>
      <trkpt lat="47.25429" lon="7.33078">
        <ele>1003</ele>
        <time>2017-06-11T08:28:35Z</time>
      </trkpt>
      <trkpt lat="47.25427" lon="7.33086">
        <ele>1003</ele>
        <time>2017-06-11T08:28:38Z</time>
      </trkpt>
      <trkpt lat="47.25425" lon="7.33092">
        <ele>1003</ele>
        <time>2017-06-11T08:28:41Z</time>
      </trkpt>
      <trkpt lat="47.25425" lon="7.331">
        <ele>1002</ele>
        <time>2017-06-11T08:28:44Z</time>
      </trkpt>
      <trkpt lat="47.25423" lon="7.33107">
        <ele>1002</ele>
        <time>2017-06-11T08:28:47Z</time>
      </trkpt>
      <trkpt lat="47.2542" lon="7.33114">
        <ele>1002</ele>
        <time>2017-06-11T08:28:50Z</time>
      </trkpt>
      <trkpt lat="47.25416" lon="7.3312">
        <ele>1003</ele>
        <time>2017-06-11T08:28:53Z</time>
      </trkpt>
      <trkpt lat="47.25412" lon="7.33127">
        <ele>1003</ele>
        <time>2017-06-11T08:28:56Z</time>
      </trkpt>
      <trkpt lat="47.2541" lon="7.33135">
        <ele>1003</ele>
        <time>2017-06-11T08:29:00Z</time>
      </trkpt>
      <trkpt lat="47.25409" lon="7.33142">
        <ele>1003</ele>
        <time>2017-06-11T08:29:04Z</time>
      </trkpt>
      <trkpt lat="47.25407" lon="7.33149">
        <ele>1004</ele>
        <time>2017-06-11T08:29:07Z</time>
      </trkpt>
      <trkpt lat="47.25405" lon="7.33155">
        <ele>1004</ele>
        <time>2017-06-11T08:29:09Z</time>
      </trkpt>
      <trkpt lat="47.25403" lon="7.33162">
        <ele>1004</ele>
        <time>2017-06-11T08:29:11Z</time>
      </trkpt>
      <trkpt lat="47.25399" lon="7.3317">
        <ele>1004</ele>
        <time>2017-06-11T08:29:14Z</time>
      </trkpt>
      <trkpt lat="47.25397" lon="7.33178">
        <ele>1005</ele>
        <time>2017-06-11T08:29:17Z</time>
      </trkpt>
      <trkpt lat="47.25394" lon="7.33185">
        <ele>1005</ele>
        <time>2017-06-11T08:29:19Z</time>
      </trkpt>
      <trkpt lat="47.25393" lon="7.33193">
        <ele>1005</ele>
        <time>2017-06-11T08:29:21Z</time>
      </trkpt>
      <trkpt lat="47.25391" lon="7.33199">
        <ele>1005</ele>
        <time>2017-06-11T08:29:23Z</time>
      </trkpt>
      <trkpt lat="47.2539" lon="7.33207">
        <ele>1006</ele>
        <time>2017-06-11T08:29:25Z</time>
      </trkpt>
      <trkpt lat="47.25387" lon="7.33217">
        <ele>1006</ele>
        <time>2017-06-11T08:29:28Z</time>
      </trkpt>
      <trkpt lat="47.25385" lon="7.33225">
        <ele>1006</ele>
        <time>2017-06-11T08:29:30Z</time>
      </trkpt>
      <trkpt lat="47.25383" lon="7.33231">
        <ele>1006</ele>
        <time>2017-06-11T08:29:32Z</time>
      </trkpt>
      <trkpt lat="47.25382" lon="7.33238">
        <ele>1007</ele>
        <time>2017-06-11T08:29:34Z</time>
      </trkpt>
      <trkpt lat="47.25379" lon="7.33244">
        <ele>1007</ele>
        <time>2017-06-11T08:29:36Z</time>
      </trkpt>
      <trkpt lat="47.25376" lon="7.3325">
        <ele>1007</ele>
        <time>2017-06-11T08:29:38Z</time>
      </trkpt>
      <trkpt lat="47.25374" lon="7.33257">
        <ele>1007</ele>
        <time>2017-06-11T08:29:40Z</time>
      </trkpt>
      <trkpt lat="47.2537" lon="7.33263">
        <ele>1007</ele>
        <time>2017-06-11T08:29:42Z</time>
      </trkpt>
      <trkpt lat="47.25366" lon="7.33269">
        <ele>1007</ele>
        <time>2017-06-11T08:29:44Z</time>
      </trkpt>
      <trkpt lat="47.25363" lon="7.33273">
        <ele>1007</ele>
        <time>2017-06-11T08:29:46Z</time>
      </trkpt>
      <trkpt lat="47.25359" lon="7.33279">
        <ele>1007</ele>
        <time>2017-06-11T08:29:53Z</time>
      </trkpt>
      <trkpt lat="47.25355" lon="7.33282">
        <ele>1007</ele>
        <time>2017-06-11T08:29:58Z</time>
      </trkpt>
      <trkpt lat="47.25356" lon="7.33282">
        <ele>1008</ele>
        <time>2017-06-11T08:30:17Z</time>
      </trkpt>
      <trkpt lat="47.25354" lon="7.33268">
        <ele>1010</ele>
        <time>2017-06-11T08:30:18Z</time>
      </trkpt>
      <trkpt lat="47.25358" lon="7.3327">
        <ele>1012</ele>
        <time>2017-06-11T08:30:20Z</time>
      </trkpt>
      <trkpt lat="47.25364" lon="7.33267">
        <ele>1014</ele>
        <time>2017-06-11T08:30:22Z</time>
      </trkpt>
      <trkpt lat="47.25367" lon="7.33263">
        <ele>1015</ele>
        <time>2017-06-11T08:30:24Z</time>
      </trkpt>
      <trkpt lat="47.25372" lon="7.33256">
        <ele>1016</ele>
        <time>2017-06-11T08:30:26Z</time>
      </trkpt>
      <trkpt lat="47.25376" lon="7.33249">
        <ele>1015</ele>
        <time>2017-06-11T08:30:28Z</time>
      </trkpt>
      <trkpt lat="47.2538" lon="7.33241">
        <ele>1014</ele>
        <time>2017-06-11T08:30:30Z</time>
      </trkpt>
      <trkpt lat="47.25382" lon="7.33234">
        <ele>1012</ele>
        <time>2017-06-11T08:30:32Z</time>
      </trkpt>
      <trkpt lat="47.25384" lon="7.33226">
        <ele>1011</ele>
        <time>2017-06-11T08:30:34Z</time>
      </trkpt>
      <trkpt lat="47.25386" lon="7.33217">
        <ele>1010</ele>
        <time>2017-06-11T08:30:36Z</time>
      </trkpt>
      <trkpt lat="47.25387" lon="7.33211">
        <ele>1010</ele>
        <time>2017-06-11T08:30:38Z</time>
      </trkpt>
      <trkpt lat="47.25388" lon="7.33204">
        <ele>1009</ele>
        <time>2017-06-11T08:30:40Z</time>
      </trkpt>
      <trkpt lat="47.2539" lon="7.33196">
        <ele>1009</ele>
        <time>2017-06-11T08:30:42Z</time>
      </trkpt>
      <trkpt lat="47.25391" lon="7.33188">
        <ele>1009</ele>
        <time>2017-06-11T08:30:44Z</time>
      </trkpt>
      <trkpt lat="47.25393" lon="7.3318">
        <ele>1009</ele>
        <time>2017-06-11T08:30:46Z</time>
      </trkpt>
      <trkpt lat="47.25395" lon="7.33173">
        <ele>1009</ele>
        <time>2017-06-11T08:30:48Z</time>
      </trkpt>
      <trkpt lat="47.25397" lon="7.33167">
        <ele>1009</ele>
        <time>2017-06-11T08:30:50Z</time>
      </trkpt>
      <trkpt lat="47.25399" lon="7.3316">
        <ele>1009</ele>
        <time>2017-06-11T08:30:52Z</time>
      </trkpt>
      <trkpt lat="47.25401" lon="7.33153">
        <ele>1008</ele>
        <time>2017-06-11T08:30:54Z</time>
      </trkpt>
      <trkpt lat="47.25404" lon="7.33145">
        <ele>1008</ele>
        <time>2017-06-11T08:30:56Z</time>
      </trkpt>
      <trkpt lat="47.25406" lon="7.33138">
        <ele>1008</ele>
        <time>2017-06-11T08:30:58Z</time>
      </trkpt>
      <trkpt lat="47.25409" lon="7.33132">
        <ele>1008</ele>
        <time>2017-06-11T08:31:00Z</time>
      </trkpt>
      <trkpt lat="47.25411" lon="7.33126">
        <ele>1008</ele>
        <time>2017-06-11T08:31:02Z</time>
      </trkpt>
      <trkpt lat="47.25413" lon="7.33121">
        <ele>1008</ele>
        <time>2017-06-11T08:31:04Z</time>
      </trkpt>
      <trkpt lat="47.25416" lon="7.33115">
        <ele>1008</ele>
        <time>2017-06-11T08:31:06Z</time>
      </trkpt>
      <trkpt lat="47.25419" lon="7.33108">
        <ele>1008</ele>
        <time>2017-06-11T08:31:08Z</time>
      </trkpt>
      <trkpt lat="47.25422" lon="7.33101">
        <ele>1008</ele>
        <time>2017-06-11T08:31:10Z</time>
      </trkpt>
      <trkpt lat="47.25425" lon="7.33093">
        <ele>1008</ele>
        <time>2017-06-11T08:31:12Z</time>
      </trkpt>
      <trkpt lat="47.25427" lon="7.33086">
        <ele>1008</ele>
        <time>2017-06-11T08:31:14Z</time>
      </trkpt>
      <trkpt lat="47.25429" lon="7.33079">
        <ele>1008</ele>
        <time>2017-06-11T08:31:16Z</time>
      </trkpt>
      <trkpt lat="47.25431" lon="7.33073">
        <ele>1008</ele>
        <time>2017-06-11T08:31:18Z</time>
      </trkpt>
      <trkpt lat="47.25432" lon="7.33066">
        <ele>1007</ele>
        <time>2017-06-11T08:31:20Z</time>
      </trkpt>
      <trkpt lat="47.25433" lon="7.33059">
        <ele>1007</ele>
        <time>2017-06-11T08:31:22Z</time>
      </trkpt>
      <trkpt lat="47.25435" lon="7.33052">
        <ele>1007</ele>
        <time>2017-06-11T08:31:24Z</time>
      </trkpt>
      <trkpt lat="47.25436" lon="7.33044">
        <ele>1007</ele>
        <time>2017-06-11T08:31:26Z</time>
      </trkpt>
      <trkpt lat="47.25437" lon="7.33036">
        <ele>1007</ele>
        <time>2017-06-11T08:31:28Z</time>
      </trkpt>
      <trkpt lat="47.25439" lon="7.33029">
        <ele>1007</ele>
        <time>2017-06-11T08:31:30Z</time>
      </trkpt>
      <trkpt lat="47.2544" lon="7.33022">
        <ele>1006</ele>
        <time>2017-06-11T08:31:32Z</time>
      </trkpt>
      <trkpt lat="47.25441" lon="7.33015">
        <ele>1006</ele>
        <time>2017-06-11T08:31:34Z</time>
      </trkpt>
      <trkpt lat="47.25442" lon="7.33008">
        <ele>1006</ele>
        <time>2017-06-11T08:31:36Z</time>
      </trkpt>
      <trkpt lat="47.25444" lon="7.33001">
        <ele>1006</ele>
        <time>2017-06-11T08:31:38Z</time>
      </trkpt>
      <trkpt lat="47.25446" lon="7.32993">
        <ele>1006</ele>
        <time>2017-06-11T08:31:40Z</time>
      </trkpt>
      <trkpt lat="47.25448" lon="7.32986">
        <ele>1006</ele>
        <time>2017-06-11T08:31:42Z</time>
      </trkpt>
      <trkpt lat="47.25448" lon="7.32979">
        <ele>1006</ele>
        <time>2017-06-11T08:31:44Z</time>
      </trkpt>
      <trkpt lat="47.25449" lon="7.32972">
        <ele>1006</ele>
        <time>2017-06-11T08:31:46Z</time>
      </trkpt>
      <trkpt lat="47.2545" lon="7.32965">
        <ele>1006</ele>
        <time>2017-06-11T08:31:48Z</time>
      </trkpt>
      <trkpt lat="47.25452" lon="7.32959">
        <ele>1005</ele>
        <time>2017-06-11T08:31:50Z</time>
      </trkpt>
      <trkpt lat="47.25454" lon="7.32952">
        <ele>1005</ele>
        <time>2017-06-11T08:31:52Z</time>
      </trkpt>
      <trkpt lat="47.25455" lon="7.32944">
        <ele>1005</ele>
        <time>2017-06-11T08:31:55Z</time>
      </trkpt>
      <trkpt lat="47.25457" lon="7.32935">
        <ele>1005</ele>
        <time>2017-06-11T08:31:58Z</time>
      </trkpt>
      <trkpt lat="47.25457" lon="7.32928">
        <ele>1005</ele>
        <time>2017-06-11T08:32:00Z</time>
      </trkpt>
      <trkpt lat="47.25459" lon="7.32922">
        <ele>1004</ele>
        <time>2017-06-11T08:32:02Z</time>
      </trkpt>
      <trkpt lat="47.2546" lon="7.32915">
        <ele>1004</ele>
        <time>2017-06-11T08:32:04Z</time>
      </trkpt>
      <trkpt lat="47.25461" lon="7.32905">
        <ele>1004</ele>
        <time>2017-06-11T08:32:07Z</time>
      </trkpt>
      <trkpt lat="47.25462" lon="7.32897">
        <ele>1004</ele>
        <time>2017-06-11T08:32:10Z</time>
      </trkpt>
      <trkpt lat="47.25461" lon="7.3289">
        <ele>1004</ele>
        <time>2017-06-11T08:32:12Z</time>
      </trkpt>
      <trkpt lat="47.2546" lon="7.32883">
        <ele>1004</ele>
        <time>2017-06-11T08:32:14Z</time>
      </trkpt>
      <trkpt lat="47.2546" lon="7.32874">
        <ele>1004</ele>
        <time>2017-06-11T08:32:17Z</time>
      </trkpt>
      <trkpt lat="47.2546" lon="7.32864">
        <ele>1004</ele>
        <time>2017-06-11T08:32:20Z</time>
      </trkpt>
      <trkpt lat="47.25462" lon="7.32858">
        <ele>1003</ele>
        <time>2017-06-11T08:32:23Z</time>
      </trkpt>
      <trkpt lat="47.25467" lon="7.32857">
        <ele>1003</ele>
        <time>2017-06-11T08:32:27Z</time>
      </trkpt>
      <trkpt lat="47.25472" lon="7.32857">
        <ele>1003</ele>
        <time>2017-06-11T08:32:30Z</time>
      </trkpt>
      <trkpt lat="47.25478" lon="7.32858">
        <ele>1003</ele>
        <time>2017-06-11T08:32:33Z</time>
      </trkpt>
      <trkpt lat="47.25484" lon="7.3286">
        <ele>1003</ele>
        <time>2017-06-11T08:32:36Z</time>
      </trkpt>
      <trkpt lat="47.25491" lon="7.32863">
        <ele>1003</ele>
        <time>2017-06-11T08:32:39Z</time>
      </trkpt>
      <trkpt lat="47.25496" lon="7.32865">
        <ele>1003</ele>
        <time>2017-06-11T08:32:42Z</time>
      </trkpt>
      <trkpt lat="47.25502" lon="7.32868">
        <ele>1003</ele>
        <time>2017-06-11T08:32:45Z</time>
      </trkpt>
      <trkpt lat="47.25508" lon="7.32873">
        <ele>1003</ele>
        <time>2017-06-11T08:32:48Z</time>
      </trkpt>
      <trkpt lat="47.25512" lon="7.32876">
        <ele>1003</ele>
        <time>2017-06-11T08:32:50Z</time>
      </trkpt>
      <trkpt lat="47.25518" lon="7.32879">
        <ele>1003</ele>
        <time>2017-06-11T08:32:53Z</time>
      </trkpt>
      <trkpt lat="47.25523" lon="7.32881">
        <ele>1003</ele>
        <time>2017-06-11T08:32:55Z</time>
      </trkpt>
      <trkpt lat="47.25528" lon="7.32884">
        <ele>1003</ele>
        <time>2017-06-11T08:32:58Z</time>
      </trkpt>
      <trkpt lat="47.25532" lon="7.32886">
        <ele>1003</ele>
        <time>2017-06-11T08:33:01Z</time>
      </trkpt>
      <trkpt lat="47.25527" lon="7.32884">
        <ele>1004</ele>
        <time>2017-06-11T08:33:14Z</time>
      </trkpt>
      <trkpt lat="47.25523" lon="7.3288">
        <ele>1004</ele>
        <time>2017-06-11T08:33:19Z</time>
      </trkpt>
      <trkpt lat="47.25517" lon="7.3288">
        <ele>1004</ele>
        <time>2017-06-11T08:33:24Z</time>
      </trkpt>
      <trkpt lat="47.25512" lon="7.32877">
        <ele>1005</ele>
        <time>2017-06-11T08:33:27Z</time>
      </trkpt>
      <trkpt lat="47.25508" lon="7.32873">
        <ele>1006</ele>
        <time>2017-06-11T08:33:30Z</time>
      </trkpt>
      <trkpt lat="47.25502" lon="7.32868">
        <ele>1006</ele>
        <time>2017-06-11T08:33:33Z</time>
      </trkpt>
      <trkpt lat="47.25497" lon="7.32867">
        <ele>1006</ele>
        <time>2017-06-11T08:33:35Z</time>
      </trkpt>
      <trkpt lat="47.25493" lon="7.32865">
        <ele>1006</ele>
        <time>2017-06-11T08:33:37Z</time>
      </trkpt>
      <trkpt lat="47.25487" lon="7.32863">
        <ele>1006</ele>
        <time>2017-06-11T08:33:40Z</time>
      </trkpt>
      <trkpt lat="47.25482" lon="7.32863">
        <ele>1006</ele>
        <time>2017-06-11T08:33:43Z</time>
      </trkpt>
      <trkpt lat="47.25477" lon="7.32862">
        <ele>1005</ele>
        <time>2017-06-11T08:33:46Z</time>
      </trkpt>
      <trkpt lat="47.2547" lon="7.32858">
        <ele>1005</ele>
        <time>2017-06-11T08:33:49Z</time>
      </trkpt>
      <trkpt lat="47.25467" lon="7.32851">
        <ele>1005</ele>
        <time>2017-06-11T08:33:51Z</time>
      </trkpt>
      <trkpt lat="47.25465" lon="7.32845">
        <ele>1004</ele>
        <time>2017-06-11T08:33:53Z</time>
      </trkpt>
      <trkpt lat="47.2547" lon="7.3284">
        <ele>1004</ele>
        <time>2017-06-11T08:33:56Z</time>
      </trkpt>
      <trkpt lat="47.25475" lon="7.32836">
        <ele>1004</ele>
        <time>2017-06-11T08:33:59Z</time>
      </trkpt>
      <trkpt lat="47.2548" lon="7.32832">
        <ele>1003</ele>
        <time>2017-06-11T08:34:02Z</time>
      </trkpt>
      <trkpt lat="47.25485" lon="7.32828">
        <ele>1003</ele>
        <time>2017-06-11T08:34:04Z</time>
      </trkpt>
      <trkpt lat="47.25489" lon="7.32824">
        <ele>1003</ele>
        <time>2017-06-11T08:34:06Z</time>
      </trkpt>
      <trkpt lat="47.25494" lon="7.32822">
        <ele>1002</ele>
        <time>2017-06-11T08:34:08Z</time>
      </trkpt>
      <trkpt lat="47.25499" lon="7.32818">
        <ele>1002</ele>
        <time>2017-06-11T08:34:10Z</time>
      </trkpt>
      <trkpt lat="47.25503" lon="7.32814">
        <ele>1002</ele>
        <time>2017-06-11T08:34:12Z</time>
      </trkpt>
      <trkpt lat="47.25508" lon="7.3281">
        <ele>1002</ele>
        <time>2017-06-11T08:34:14Z</time>
      </trkpt>
      <trkpt lat="47.25512" lon="7.32806">
        <ele>1002</ele>
        <time>2017-06-11T08:34:16Z</time>
      </trkpt>
      <trkpt lat="47.25517" lon="7.32801">
        <ele>1002</ele>
        <time>2017-06-11T08:34:18Z</time>
      </trkpt>
      <trkpt lat="47.25522" lon="7.32798">
        <ele>1002</ele>
        <time>2017-06-11T08:34:20Z</time>
      </trkpt>
      <trkpt lat="47.25526" lon="7.32795">
        <ele>1002</ele>
        <time>2017-06-11T08:34:22Z</time>
      </trkpt>
      <trkpt lat="47.2553" lon="7.3279">
        <ele>1001</ele>
        <time>2017-06-11T08:34:24Z</time>
      </trkpt>
      <trkpt lat="47.25536" lon="7.32785">
        <ele>1001</ele>
        <time>2017-06-11T08:34:26Z</time>
      </trkpt>
      <trkpt lat="47.2554" lon="7.32781">
        <ele>1001</ele>
        <time>2017-06-11T08:34:28Z</time>
      </trkpt>
      <trkpt lat="47.25545" lon="7.32777">
        <ele>1001</ele>
        <time>2017-06-11T08:34:30Z</time>
      </trkpt>
      <trkpt lat="47.25549" lon="7.32774">
        <ele>1001</ele>
        <time>2017-06-11T08:34:32Z</time>
      </trkpt>
      <trkpt lat="47.25554" lon="7.32772">
        <ele>1001</ele>
        <time>2017-06-11T08:34:34Z</time>
      </trkpt>
      <trkpt lat="47.2556" lon="7.32771">
        <ele>1000</ele>
        <time>2017-06-11T08:34:37Z</time>
      </trkpt>
      <trkpt lat="47.25565" lon="7.32774">
        <ele>1000</ele>
        <time>2017-06-11T08:34:39Z</time>
      </trkpt>
      <trkpt lat="47.25571" lon="7.32778">
        <ele>1000</ele>
        <time>2017-06-11T08:34:41Z</time>
      </trkpt>
      <trkpt lat="47.25576" lon="7.32784">
        <ele>1000</ele>
        <time>2017-06-11T08:34:44Z</time>
      </trkpt>
      <trkpt lat="47.25582" lon="7.32789">
        <ele>1000</ele>
        <time>2017-06-11T08:34:47Z</time>
      </trkpt>
      <trkpt lat="47.25586" lon="7.3279">
        <ele>1000</ele>
        <time>2017-06-11T08:34:49Z</time>
      </trkpt>
      <trkpt lat="47.25592" lon="7.3279">
        <ele>1000</ele>
        <time>2017-06-11T08:34:51Z</time>
      </trkpt>
      <trkpt lat="47.25598" lon="7.32788">
        <ele>1000</ele>
        <time>2017-06-11T08:34:53Z</time>
      </trkpt>
      <trkpt lat="47.25603" lon="7.32788">
        <ele>1000</ele>
        <time>2017-06-11T08:34:55Z</time>
      </trkpt>
      <trkpt lat="47.2561" lon="7.32786">
        <ele>1000</ele>
        <time>2017-06-11T08:34:58Z</time>
      </trkpt>
      <trkpt lat="47.25615" lon="7.32785">
        <ele>999</ele>
        <time>2017-06-11T08:35:00Z</time>
      </trkpt>
      <trkpt lat="47.25621" lon="7.32782">
        <ele>999</ele>
        <time>2017-06-11T08:35:02Z</time>
      </trkpt>
      <trkpt lat="47.25627" lon="7.32781">
        <ele>999</ele>
        <time>2017-06-11T08:35:04Z</time>
      </trkpt>
      <trkpt lat="47.25632" lon="7.3278">
        <ele>999</ele>
        <time>2017-06-11T08:35:06Z</time>
      </trkpt>
      <trkpt lat="47.25637" lon="7.32778">
        <ele>999</ele>
        <time>2017-06-11T08:35:08Z</time>
      </trkpt>
      <trkpt lat="47.25643" lon="7.32776">
        <ele>999</ele>
        <time>2017-06-11T08:35:10Z</time>
      </trkpt>
      <trkpt lat="47.25649" lon="7.32777">
        <ele>999</ele>
        <time>2017-06-11T08:35:13Z</time>
      </trkpt>
      <trkpt lat="47.25655" lon="7.32777">
        <ele>999</ele>
        <time>2017-06-11T08:35:16Z</time>
      </trkpt>
      <trkpt lat="47.2566" lon="7.32776">
        <ele>999</ele>
        <time>2017-06-11T08:35:18Z</time>
      </trkpt>
      <trkpt lat="47.25666" lon="7.32775">
        <ele>999</ele>
        <time>2017-06-11T08:35:21Z</time>
      </trkpt>
      <trkpt lat="47.25671" lon="7.32774">
        <ele>999</ele>
        <time>2017-06-11T08:35:23Z</time>
      </trkpt>
      <trkpt lat="47.25678" lon="7.32776">
        <ele>999</ele>
        <time>2017-06-11T08:35:26Z</time>
      </trkpt>
      <trkpt lat="47.25683" lon="7.32781">
        <ele>999</ele>
        <time>2017-06-11T08:35:29Z</time>
      </trkpt>
      <trkpt lat="47.25687" lon="7.32787">
        <ele>998</ele>
        <time>2017-06-11T08:35:31Z</time>
      </trkpt>
      <trkpt lat="47.25691" lon="7.32793">
        <ele>998</ele>
        <time>2017-06-11T08:35:34Z</time>
      </trkpt>
      <trkpt lat="47.25694" lon="7.328">
        <ele>998</ele>
        <time>2017-06-11T08:35:37Z</time>
      </trkpt>
      <trkpt lat="47.25696" lon="7.32806">
        <ele>998</ele>
        <time>2017-06-11T08:35:40Z</time>
      </trkpt>
      <trkpt lat="47.25697" lon="7.32812">
        <ele>998</ele>
        <time>2017-06-11T08:35:43Z</time>
      </trkpt>
      <trkpt lat="47.257" lon="7.3282">
        <ele>998</ele>
        <time>2017-06-11T08:35:47Z</time>
      </trkpt>
      <trkpt lat="47.25703" lon="7.32826">
        <ele>998</ele>
        <time>2017-06-11T08:35:50Z</time>
      </trkpt>
      <trkpt lat="47.25707" lon="7.32832">
        <ele>998</ele>
        <time>2017-06-11T08:35:53Z</time>
      </trkpt>
      <trkpt lat="47.25711" lon="7.32837">
        <ele>998</ele>
        <time>2017-06-11T08:35:56Z</time>
      </trkpt>
      <trkpt lat="47.25715" lon="7.32844">
        <ele>998</ele>
        <time>2017-06-11T08:35:59Z</time>
      </trkpt>
      <trkpt lat="47.25719" lon="7.32851">
        <ele>998</ele>
        <time>2017-06-11T08:36:02Z</time>
      </trkpt>
      <trkpt lat="47.25722" lon="7.32856">
        <ele>998</ele>
        <time>2017-06-11T08:36:05Z</time>
      </trkpt>
      <trkpt lat="47.25726" lon="7.32864">
        <ele>998</ele>
        <time>2017-06-11T08:36:08Z</time>
      </trkpt>
      <trkpt lat="47.2573" lon="7.3287">
        <ele>998</ele>
        <time>2017-06-11T08:36:11Z</time>
      </trkpt>
      <trkpt lat="47.25733" lon="7.32875">
        <ele>997</ele>
        <time>2017-06-11T08:36:13Z</time>
      </trkpt>
      <trkpt lat="47.25737" lon="7.32881">
        <ele>997</ele>
        <time>2017-06-11T08:36:16Z</time>
      </trkpt>
      <trkpt lat="47.25742" lon="7.32888">
        <ele>997</ele>
        <time>2017-06-11T08:36:19Z</time>
      </trkpt>
      <trkpt lat="47.25745" lon="7.32893">
        <ele>997</ele>
        <time>2017-06-11T08:36:21Z</time>
      </trkpt>
      <trkpt lat="47.2575" lon="7.329">
        <ele>997</ele>
        <time>2017-06-11T08:36:24Z</time>
      </trkpt>
      <trkpt lat="47.25753" lon="7.32907">
        <ele>997</ele>
        <time>2017-06-11T08:36:27Z</time>
      </trkpt>
      <trkpt lat="47.25755" lon="7.32913">
        <ele>997</ele>
        <time>2017-06-11T08:36:29Z</time>
      </trkpt>
      <trkpt lat="47.25758" lon="7.32922">
        <ele>997</ele>
        <time>2017-06-11T08:36:32Z</time>
      </trkpt>
      <trkpt lat="47.2576" lon="7.32929">
        <ele>997</ele>
        <time>2017-06-11T08:36:34Z</time>
      </trkpt>
      <trkpt lat="47.25763" lon="7.32935">
        <ele>997</ele>
        <time>2017-06-11T08:36:36Z</time>
      </trkpt>
      <trkpt lat="47.25764" lon="7.32944">
        <ele>997</ele>
        <time>2017-06-11T08:36:39Z</time>
      </trkpt>
      <trkpt lat="47.25765" lon="7.32952">
        <ele>996</ele>
        <time>2017-06-11T08:36:41Z</time>
      </trkpt>
      <trkpt lat="47.25767" lon="7.32959">
        <ele>996</ele>
        <time>2017-06-11T08:36:43Z</time>
      </trkpt>
      <trkpt lat="47.25768" lon="7.32965">
        <ele>996</ele>
        <time>2017-06-11T08:36:45Z</time>
      </trkpt>
      <trkpt lat="47.25771" lon="7.32973">
        <ele>996</ele>
        <time>2017-06-11T08:36:48Z</time>
      </trkpt>
      <trkpt lat="47.25774" lon="7.32982">
        <ele>995</ele>
        <time>2017-06-11T08:36:51Z</time>
      </trkpt>
      <trkpt lat="47.25777" lon="7.32989">
        <ele>995</ele>
        <time>2017-06-11T08:36:54Z</time>
      </trkpt>
      <trkpt lat="47.25777" lon="7.32997">
        <ele>995</ele>
        <time>2017-06-11T08:36:57Z</time>
      </trkpt>
      <trkpt lat="47.2578" lon="7.33005">
        <ele>994</ele>
        <time>2017-06-11T08:37:00Z</time>
      </trkpt>
      <trkpt lat="47.25782" lon="7.33011">
        <ele>994</ele>
        <time>2017-06-11T08:37:02Z</time>
      </trkpt>
      <trkpt lat="47.25786" lon="7.33018">
        <ele>994</ele>
        <time>2017-06-11T08:37:04Z</time>
      </trkpt>
      <trkpt lat="47.2579" lon="7.33026">
        <ele>993</ele>
        <time>2017-06-11T08:37:06Z</time>
      </trkpt>
      <trkpt lat="47.25793" lon="7.33032">
        <ele>993</ele>
        <time>2017-06-11T08:37:08Z</time>
      </trkpt>
      <trkpt lat="47.25796" lon="7.33037">
        <ele>993</ele>
        <time>2017-06-11T08:37:10Z</time>
      </trkpt>
      <trkpt lat="47.25799" lon="7.33043">
        <ele>992</ele>
        <time>2017-06-11T08:37:12Z</time>
      </trkpt>
      <trkpt lat="47.25802" lon="7.33051">
        <ele>992</ele>
        <time>2017-06-11T08:37:15Z</time>
      </trkpt>
      <trkpt lat="47.25803" lon="7.3306">
        <ele>993</ele>
        <time>2017-06-11T08:37:18Z</time>
      </trkpt>
      <trkpt lat="47.25805" lon="7.33068">
        <ele>993</ele>
        <time>2017-06-11T08:37:20Z</time>
      </trkpt>
      <trkpt lat="47.25807" lon="7.33077">
        <ele>994</ele>
        <time>2017-06-11T08:37:23Z</time>
      </trkpt>
      <trkpt lat="47.25809" lon="7.33083">
        <ele>994</ele>
        <time>2017-06-11T08:37:25Z</time>
      </trkpt>
      <trkpt lat="47.2581" lon="7.33091">
        <ele>994</ele>
        <time>2017-06-11T08:37:28Z</time>
      </trkpt>
      <trkpt lat="47.25811" lon="7.33099">
        <ele>994</ele>
        <time>2017-06-11T08:37:31Z</time>
      </trkpt>
      <trkpt lat="47.25813" lon="7.33107">
        <ele>994</ele>
        <time>2017-06-11T08:37:34Z</time>
      </trkpt>
      <trkpt lat="47.25814" lon="7.33114">
        <ele>995</ele>
        <time>2017-06-11T08:37:37Z</time>
      </trkpt>
      <trkpt lat="47.25816" lon="7.33121">
        <ele>995</ele>
        <time>2017-06-11T08:37:39Z</time>
      </trkpt>
      <trkpt lat="47.2582" lon="7.33129">
        <ele>995</ele>
        <time>2017-06-11T08:37:42Z</time>
      </trkpt>
      <trkpt lat="47.25822" lon="7.33136">
        <ele>995</ele>
        <time>2017-06-11T08:37:44Z</time>
      </trkpt>
      <trkpt lat="47.25825" lon="7.33143">
        <ele>995</ele>
        <time>2017-06-11T08:37:46Z</time>
      </trkpt>
      <trkpt lat="47.25827" lon="7.33149">
        <ele>995</ele>
        <time>2017-06-11T08:37:48Z</time>
      </trkpt>
      <trkpt lat="47.25829" lon="7.33157">
        <ele>995</ele>
        <time>2017-06-11T08:37:51Z</time>
      </trkpt>
      <trkpt lat="47.2583" lon="7.33165">
        <ele>995</ele>
        <time>2017-06-11T08:37:54Z</time>
      </trkpt>
      <trkpt lat="47.25831" lon="7.33172">
        <ele>995</ele>
        <time>2017-06-11T08:37:57Z</time>
      </trkpt>
      <trkpt lat="47.25832" lon="7.33179">
        <ele>995</ele>
        <time>2017-06-11T08:38:02Z</time>
      </trkpt>
      <trkpt lat="47.25833" lon="7.33188">
        <ele>994</ele>
        <time>2017-06-11T08:38:06Z</time>
      </trkpt>
      <trkpt lat="47.25833" lon="7.33197">
        <ele>994</ele>
        <time>2017-06-11T08:38:09Z</time>
      </trkpt>
      <trkpt lat="47.25832" lon="7.33208">
        <ele>994</ele>
        <time>2017-06-11T08:38:12Z</time>
      </trkpt>
      <trkpt lat="47.25834" lon="7.33215">
        <ele>993</ele>
        <time>2017-06-11T08:38:16Z</time>
      </trkpt>
      <trkpt lat="47.25832" lon="7.33222">
        <ele>993</ele>
        <time>2017-06-11T08:38:22Z</time>
      </trkpt>
      <trkpt lat="47.25829" lon="7.33228">
        <ele>992</ele>
        <time>2017-06-11T08:38:27Z</time>
      </trkpt>
      <trkpt lat="47.25829" lon="7.33236">
        <ele>992</ele>
        <time>2017-06-11T08:38:32Z</time>
      </trkpt>
      <trkpt lat="47.25829" lon="7.33244">
        <ele>993</ele>
        <time>2017-06-11T08:38:35Z</time>
      </trkpt>
      <trkpt lat="47.25827" lon="7.33252">
        <ele>994</ele>
        <time>2017-06-11T08:38:38Z</time>
      </trkpt>
      <trkpt lat="47.25825" lon="7.33259">
        <ele>995</ele>
        <time>2017-06-11T08:38:40Z</time>
      </trkpt>
      <trkpt lat="47.25824" lon="7.33266">
        <ele>996</ele>
        <time>2017-06-11T08:38:43Z</time>
      </trkpt>
      <trkpt lat="47.25822" lon="7.33272">
        <ele>998</ele>
        <time>2017-06-11T08:38:46Z</time>
      </trkpt>
      <trkpt lat="47.25822" lon="7.3328">
        <ele>999</ele>
        <time>2017-06-11T08:38:50Z</time>
      </trkpt>
      <trkpt lat="47.25822" lon="7.33289">
        <ele>1000</ele>
        <time>2017-06-11T08:38:53Z</time>
      </trkpt>
      <trkpt lat="47.25821" lon="7.33296">
        <ele>1002</ele>
        <time>2017-06-11T08:38:56Z</time>
      </trkpt>
      <trkpt lat="47.25821" lon="7.33304">
        <ele>1003</ele>
        <time>2017-06-11T08:38:59Z</time>
      </trkpt>
      <trkpt lat="47.25822" lon="7.33312">
        <ele>1004</ele>
        <time>2017-06-11T08:39:02Z</time>
      </trkpt>
      <trkpt lat="47.25822" lon="7.3332">
        <ele>1005</ele>
        <time>2017-06-11T08:39:05Z</time>
      </trkpt>
      <trkpt lat="47.25822" lon="7.33329">
        <ele>1006</ele>
        <time>2017-06-11T08:39:08Z</time>
      </trkpt>
      <trkpt lat="47.25818" lon="7.33336">
        <ele>1007</ele>
        <time>2017-06-11T08:39:11Z</time>
      </trkpt>
      <trkpt lat="47.25816" lon="7.33343">
        <ele>1008</ele>
        <time>2017-06-11T08:39:14Z</time>
      </trkpt>
      <trkpt lat="47.25816" lon="7.3335">
        <ele>1009</ele>
        <time>2017-06-11T08:39:17Z</time>
      </trkpt>
      <trkpt lat="47.25816" lon="7.33358">
        <ele>1011</ele>
        <time>2017-06-11T08:39:21Z</time>
      </trkpt>
      <trkpt lat="47.25814" lon="7.33367">
        <ele>1012</ele>
        <time>2017-06-11T08:39:24Z</time>
      </trkpt>
      <trkpt lat="47.25813" lon="7.33374">
        <ele>1013</ele>
        <time>2017-06-11T08:39:27Z</time>
      </trkpt>
      <trkpt lat="47.25811" lon="7.33381">
        <ele>1014</ele>
        <time>2017-06-11T08:39:29Z</time>
      </trkpt>
      <trkpt lat="47.2581" lon="7.33388">
        <ele>1015</ele>
        <time>2017-06-11T08:39:32Z</time>
      </trkpt>
      <trkpt lat="47.25808" lon="7.33396">
        <ele>1015</ele>
        <time>2017-06-11T08:39:35Z</time>
      </trkpt>
      <trkpt lat="47.25807" lon="7.33405">
        <ele>1015</ele>
        <time>2017-06-11T08:39:38Z</time>
      </trkpt>
      <trkpt lat="47.25805" lon="7.33413">
        <ele>1015</ele>
        <time>2017-06-11T08:39:41Z</time>
      </trkpt>
      <trkpt lat="47.25802" lon="7.33421">
        <ele>1016</ele>
        <time>2017-06-11T08:39:44Z</time>
      </trkpt>
      <trkpt lat="47.258" lon="7.33428">
        <ele>1016</ele>
        <time>2017-06-11T08:39:48Z</time>
      </trkpt>
      <trkpt lat="47.25799" lon="7.33435">
        <ele>1016</ele>
        <time>2017-06-11T08:39:51Z</time>
      </trkpt>
      <trkpt lat="47.25799" lon="7.33444">
        <ele>1017</ele>
        <time>2017-06-11T08:39:54Z</time>
      </trkpt>
      <trkpt lat="47.25799" lon="7.33453">
        <ele>1017</ele>
        <time>2017-06-11T08:39:57Z</time>
      </trkpt>
      <trkpt lat="47.25801" lon="7.33461">
        <ele>1017</ele>
        <time>2017-06-11T08:40:00Z</time>
      </trkpt>
      <trkpt lat="47.25803" lon="7.33468">
        <ele>1017</ele>
        <time>2017-06-11T08:40:03Z</time>
      </trkpt>
      <trkpt lat="47.25806" lon="7.33475">
        <ele>1018</ele>
        <time>2017-06-11T08:40:06Z</time>
      </trkpt>
      <trkpt lat="47.25808" lon="7.33482">
        <ele>1018</ele>
        <time>2017-06-11T08:40:09Z</time>
      </trkpt>
      <trkpt lat="47.2581" lon="7.33488">
        <ele>1019</ele>
        <time>2017-06-11T08:40:12Z</time>
      </trkpt>
      <trkpt lat="47.25812" lon="7.33496">
        <ele>1019</ele>
        <time>2017-06-11T08:40:15Z</time>
      </trkpt>
      <trkpt lat="47.25814" lon="7.33504">
        <ele>1020</ele>
        <time>2017-06-11T08:40:19Z</time>
      </trkpt>
      <trkpt lat="47.25815" lon="7.33512">
        <ele>1021</ele>
        <time>2017-06-11T08:40:22Z</time>
      </trkpt>
      <trkpt lat="47.25816" lon="7.33519">
        <ele>1021</ele>
        <time>2017-06-11T08:40:25Z</time>
      </trkpt>
      <trkpt lat="47.25818" lon="7.33527">
        <ele>1022</ele>
        <time>2017-06-11T08:40:29Z</time>
      </trkpt>
      <trkpt lat="47.25818" lon="7.33536">
        <ele>1022</ele>
        <time>2017-06-11T08:40:33Z</time>
      </trkpt>
      <trkpt lat="47.25818" lon="7.33544">
        <ele>1022</ele>
        <time>2017-06-11T08:40:36Z</time>
      </trkpt>
      <trkpt lat="47.25819" lon="7.33552">
        <ele>1023</ele>
        <time>2017-06-11T08:40:39Z</time>
      </trkpt>
      <trkpt lat="47.25819" lon="7.3356">
        <ele>1023</ele>
        <time>2017-06-11T08:40:42Z</time>
      </trkpt>
      <trkpt lat="47.25819" lon="7.33568">
        <ele>1023</ele>
        <time>2017-06-11T08:40:45Z</time>
      </trkpt>
      <trkpt lat="47.25819" lon="7.33575">
        <ele>1023</ele>
        <time>2017-06-11T08:40:48Z</time>
      </trkpt>
      <trkpt lat="47.25821" lon="7.33584">
        <ele>1023</ele>
        <time>2017-06-11T08:40:51Z</time>
      </trkpt>
      <trkpt lat="47.25821" lon="7.33593">
        <ele>1022</ele>
        <time>2017-06-11T08:40:54Z</time>
      </trkpt>
      <trkpt lat="47.25822" lon="7.33599">
        <ele>1022</ele>
        <time>2017-06-11T08:40:56Z</time>
      </trkpt>
      <trkpt lat="47.25822" lon="7.33606">
        <ele>1022</ele>
        <time>2017-06-11T08:40:59Z</time>
      </trkpt>
      <trkpt lat="47.25822" lon="7.33614">
        <ele>1022</ele>
        <time>2017-06-11T08:41:02Z</time>
      </trkpt>
      <trkpt lat="47.25822" lon="7.33621">
        <ele>1022</ele>
        <time>2017-06-11T08:41:05Z</time>
      </trkpt>
      <trkpt lat="47.25822" lon="7.33628">
        <ele>1022</ele>
        <time>2017-06-11T08:41:08Z</time>
      </trkpt>
      <trkpt lat="47.25824" lon="7.33636">
        <ele>1021</ele>
        <time>2017-06-11T08:41:12Z</time>
      </trkpt>
      <trkpt lat="47.25825" lon="7.33644">
        <ele>1022</ele>
        <time>2017-06-11T08:41:15Z</time>
      </trkpt>
      <trkpt lat="47.25826" lon="7.33652">
        <ele>1022</ele>
        <time>2017-06-11T08:41:19Z</time>
      </trkpt>
      <trkpt lat="47.25826" lon="7.3366">
        <ele>1022</ele>
        <time>2017-06-11T08:41:23Z</time>
      </trkpt>
      <trkpt lat="47.25827" lon="7.33668">
        <ele>1023</ele>
        <time>2017-06-11T08:41:27Z</time>
      </trkpt>
      <trkpt lat="47.25829" lon="7.33676">
        <ele>1024</ele>
        <time>2017-06-11T08:41:31Z</time>
      </trkpt>
      <trkpt lat="47.25829" lon="7.33683">
        <ele>1025</ele>
        <time>2017-06-11T08:41:35Z</time>
      </trkpt>
      <trkpt lat="47.25831" lon="7.3369">
        <ele>1026</ele>
        <time>2017-06-11T08:41:37Z</time>
      </trkpt>
      <trkpt lat="47.2583" lon="7.33699">
        <ele>1027</ele>
        <time>2017-06-11T08:41:40Z</time>
      </trkpt>
      <trkpt lat="47.25829" lon="7.33705">
        <ele>1028</ele>
        <time>2017-06-11T08:41:43Z</time>
      </trkpt>
      <trkpt lat="47.25827" lon="7.33712">
        <ele>1028</ele>
        <time>2017-06-11T08:41:46Z</time>
      </trkpt>
      <trkpt lat="47.25826" lon="7.33719">
        <ele>1029</ele>
        <time>2017-06-11T08:41:50Z</time>
      </trkpt>
      <trkpt lat="47.25824" lon="7.33727">
        <ele>1029</ele>
        <time>2017-06-11T08:41:54Z</time>
      </trkpt>
      <trkpt lat="47.25821" lon="7.33733">
        <ele>1030</ele>
        <time>2017-06-11T08:41:59Z</time>
      </trkpt>
      <trkpt lat="47.25816" lon="7.33738">
        <ele>1030</ele>
        <time>2017-06-11T08:42:04Z</time>
      </trkpt>
      <trkpt lat="47.25812" lon="7.33743">
        <ele>1030</ele>
        <time>2017-06-11T08:42:08Z</time>
      </trkpt>
      <trkpt lat="47.25809" lon="7.33749">
        <ele>1030</ele>
        <time>2017-06-11T08:42:12Z</time>
      </trkpt>
      <trkpt lat="47.25804" lon="7.33754">
        <ele>1030</ele>
        <time>2017-06-11T08:42:16Z</time>
      </trkpt>
      <trkpt lat="47.258" lon="7.33759">
        <ele>1030</ele>
        <time>2017-06-11T08:42:21Z</time>
      </trkpt>
      <trkpt lat="47.25796" lon="7.33763">
        <ele>1031</ele>
        <time>2017-06-11T08:42:25Z</time>
      </trkpt>
      <trkpt lat="47.25791" lon="7.33768">
        <ele>1032</ele>
        <time>2017-06-11T08:42:29Z</time>
      </trkpt>
      <trkpt lat="47.25787" lon="7.33771">
        <ele>1033</ele>
        <time>2017-06-11T08:42:32Z</time>
      </trkpt>
      <trkpt lat="47.25784" lon="7.33775">
        <ele>1034</ele>
        <time>2017-06-11T08:42:36Z</time>
      </trkpt>
      <trkpt lat="47.25782" lon="7.33783">
        <ele>1035</ele>
        <time>2017-06-11T08:42:41Z</time>
      </trkpt>
      <trkpt lat="47.25779" lon="7.33792">
        <ele>1036</ele>
        <time>2017-06-11T08:42:47Z</time>
      </trkpt>
      <trkpt lat="47.25774" lon="7.33795">
        <ele>1037</ele>
        <time>2017-06-11T08:42:50Z</time>
      </trkpt>
      <trkpt lat="47.25771" lon="7.33799">
        <ele>1038</ele>
        <time>2017-06-11T08:42:54Z</time>
      </trkpt>
      <trkpt lat="47.25769" lon="7.33802">
        <ele>1039</ele>
        <time>2017-06-11T08:43:17Z</time>
      </trkpt>
      <trkpt lat="47.25772" lon="7.33816">
        <ele>1040</ele>
        <time>2017-06-11T08:43:39Z</time>
      </trkpt>
      <trkpt lat="47.25769" lon="7.33818">
        <ele>1040</ele>
        <time>2017-06-11T08:44:06Z</time>
      </trkpt>
      <trkpt lat="47.2577" lon="7.33803">
        <ele>1041</ele>
        <time>2017-06-11T08:44:33Z</time>
      </trkpt>
      <trkpt lat="47.25768" lon="7.33804">
        <ele>1043</ele>
        <time>2017-06-11T08:45:01Z</time>
      </trkpt>
      <trkpt lat="47.25767" lon="7.33814">
        <ele>1043</ele>
        <time>2017-06-11T08:45:22Z</time>
      </trkpt>
      <trkpt lat="47.25763" lon="7.33804">
        <ele>1044</ele>
        <time>2017-06-11T08:45:26Z</time>
      </trkpt>
      <trkpt lat="47.25763" lon="7.33804">
        <ele>1045</ele>
        <time>2017-06-11T08:45:50Z</time>
      </trkpt>
      <trkpt lat="47.25758" lon="7.33802">
        <ele>1047</ele>
        <time>2017-06-11T08:45:53Z</time>
      </trkpt>
      <trkpt lat="47.25762" lon="7.33809">
        <ele>1047</ele>
        <time>2017-06-11T08:45:56Z</time>
      </trkpt>
      <trkpt lat="47.25766" lon="7.33818">
        <ele>1047</ele>
        <time>2017-06-11T08:45:59Z</time>
      </trkpt>
      <trkpt lat="47.25768" lon="7.33817">
        <ele>1046</ele>
        <time>2017-06-11T08:46:20Z</time>
      </trkpt>
      <trkpt lat="47.25769" lon="7.33808">
        <ele>1043</ele>
        <time>2017-06-11T08:47:33Z</time>
      </trkpt>
      <trkpt lat="47.25769" lon="7.33798">
        <ele>1040</ele>
        <time>2017-06-11T08:47:38Z</time>
      </trkpt>
      <trkpt lat="47.2577" lon="7.33786">
        <ele>1037</ele>
        <time>2017-06-11T08:47:48Z</time>
      </trkpt>
      <trkpt lat="47.25774" lon="7.33773">
        <ele>1036</ele>
        <time>2017-06-11T08:48:00Z</time>
      </trkpt>
      <trkpt lat="47.25777" lon="7.33768">
        <ele>1035</ele>
        <time>2017-06-11T08:48:04Z</time>
      </trkpt>
      <trkpt lat="47.25782" lon="7.33765">
        <ele>1035</ele>
        <time>2017-06-11T08:48:08Z</time>
      </trkpt>
      <trkpt lat="47.25785" lon="7.33759">
        <ele>1034</ele>
        <time>2017-06-11T08:48:13Z</time>
      </trkpt>
      <trkpt lat="47.25789" lon="7.33754">
        <ele>1034</ele>
        <time>2017-06-11T08:48:17Z</time>
      </trkpt>
      <trkpt lat="47.25792" lon="7.33748">
        <ele>1034</ele>
        <time>2017-06-11T08:48:20Z</time>
      </trkpt>
      <trkpt lat="47.25796" lon="7.33743">
        <ele>1034</ele>
        <time>2017-06-11T08:48:24Z</time>
      </trkpt>
      <trkpt lat="47.25801" lon="7.3374">
        <ele>1033</ele>
        <time>2017-06-11T08:48:29Z</time>
      </trkpt>
      <trkpt lat="47.25806" lon="7.33738">
        <ele>1033</ele>
        <time>2017-06-11T08:48:36Z</time>
      </trkpt>
      <trkpt lat="47.2581" lon="7.33734">
        <ele>1033</ele>
        <time>2017-06-11T08:48:40Z</time>
      </trkpt>
      <trkpt lat="47.25813" lon="7.33729">
        <ele>1033</ele>
        <time>2017-06-11T08:48:45Z</time>
      </trkpt>
      <trkpt lat="47.25816" lon="7.33725">
        <ele>1032</ele>
        <time>2017-06-11T08:49:00Z</time>
      </trkpt>
      <trkpt lat="47.25812" lon="7.33697">
        <ele>1031</ele>
        <time>2017-06-11T08:49:15Z</time>
      </trkpt>
      <trkpt lat="47.25822" lon="7.33679">
        <ele>1029</ele>
        <time>2017-06-11T08:49:16Z</time>
      </trkpt>
      <trkpt lat="47.25825" lon="7.33668">
        <ele>1030</ele>
        <time>2017-06-11T08:49:18Z</time>
      </trkpt>
      <trkpt lat="47.25822" lon="7.33661">
        <ele>1030</ele>
        <time>2017-06-11T08:49:20Z</time>
      </trkpt>
      <trkpt lat="47.25819" lon="7.33655">
        <ele>1030</ele>
        <time>2017-06-11T08:49:22Z</time>
      </trkpt>
      <trkpt lat="47.25815" lon="7.33652">
        <ele>1032</ele>
        <time>2017-06-11T08:49:24Z</time>
      </trkpt>
      <trkpt lat="47.25811" lon="7.33648">
        <ele>1033</ele>
        <time>2017-06-11T08:49:27Z</time>
      </trkpt>
      <trkpt lat="47.25807" lon="7.33643">
        <ele>1033</ele>
        <time>2017-06-11T08:49:30Z</time>
      </trkpt>
      <trkpt lat="47.25805" lon="7.33634">
        <ele>1034</ele>
        <time>2017-06-11T08:49:33Z</time>
      </trkpt>
      <trkpt lat="47.25805" lon="7.33625">
        <ele>1035</ele>
        <time>2017-06-11T08:49:35Z</time>
      </trkpt>
      <trkpt lat="47.25806" lon="7.33616">
        <ele>1036</ele>
        <time>2017-06-11T08:49:37Z</time>
      </trkpt>
      <trkpt lat="47.25806" lon="7.33607">
        <ele>1037</ele>
        <time>2017-06-11T08:49:39Z</time>
      </trkpt>
      <trkpt lat="47.25806" lon="7.336">
        <ele>1038</ele>
        <time>2017-06-11T08:49:41Z</time>
      </trkpt>
      <trkpt lat="47.25806" lon="7.33589">
        <ele>1038</ele>
        <time>2017-06-11T08:49:44Z</time>
      </trkpt>
      <trkpt lat="47.25808" lon="7.33583">
        <ele>1038</ele>
        <time>2017-06-11T08:49:46Z</time>
      </trkpt>
      <trkpt lat="47.25808" lon="7.33574">
        <ele>1038</ele>
        <time>2017-06-11T08:49:48Z</time>
      </trkpt>
      <trkpt lat="47.25807" lon="7.33565">
        <ele>1037</ele>
        <time>2017-06-11T08:49:50Z</time>
      </trkpt>
      <trkpt lat="47.25806" lon="7.33557">
        <ele>1035</ele>
        <time>2017-06-11T08:49:52Z</time>
      </trkpt>
      <trkpt lat="47.25805" lon="7.33549">
        <ele>1034</ele>
        <time>2017-06-11T08:49:54Z</time>
      </trkpt>
      <trkpt lat="47.25804" lon="7.33542">
        <ele>1033</ele>
        <time>2017-06-11T08:49:56Z</time>
      </trkpt>
      <trkpt lat="47.25804" lon="7.33534">
        <ele>1032</ele>
        <time>2017-06-11T08:49:58Z</time>
      </trkpt>
      <trkpt lat="47.25804" lon="7.33527">
        <ele>1031</ele>
        <time>2017-06-11T08:50:00Z</time>
      </trkpt>
      <trkpt lat="47.25802" lon="7.3352">
        <ele>1031</ele>
        <time>2017-06-11T08:50:02Z</time>
      </trkpt>
      <trkpt lat="47.25799" lon="7.33512">
        <ele>1030</ele>
        <time>2017-06-11T08:50:04Z</time>
      </trkpt>
      <trkpt lat="47.25798" lon="7.33504">
        <ele>1030</ele>
        <time>2017-06-11T08:50:06Z</time>
      </trkpt>
      <trkpt lat="47.25795" lon="7.33496">
        <ele>1030</ele>
        <time>2017-06-11T08:50:08Z</time>
      </trkpt>
      <trkpt lat="47.25794" lon="7.33489">
        <ele>1030</ele>
        <time>2017-06-11T08:50:10Z</time>
      </trkpt>
      <trkpt lat="47.25793" lon="7.33482">
        <ele>1029</ele>
        <time>2017-06-11T08:50:12Z</time>
      </trkpt>
      <trkpt lat="47.25792" lon="7.33474">
        <ele>1029</ele>
        <time>2017-06-11T08:50:14Z</time>
      </trkpt>
      <trkpt lat="47.25792" lon="7.33465">
        <ele>1029</ele>
        <time>2017-06-11T08:50:16Z</time>
      </trkpt>
      <trkpt lat="47.25791" lon="7.33457">
        <ele>1029</ele>
        <time>2017-06-11T08:50:18Z</time>
      </trkpt>
      <trkpt lat="47.25791" lon="7.3345">
        <ele>1029</ele>
        <time>2017-06-11T08:50:20Z</time>
      </trkpt>
      <trkpt lat="47.25792" lon="7.33443">
        <ele>1028</ele>
        <time>2017-06-11T08:50:22Z</time>
      </trkpt>
      <trkpt lat="47.25792" lon="7.33436">
        <ele>1028</ele>
        <time>2017-06-11T08:50:25Z</time>
      </trkpt>
      <trkpt lat="47.25794" lon="7.33429">
        <ele>1028</ele>
        <time>2017-06-11T08:50:29Z</time>
      </trkpt>
      <trkpt lat="47.25792" lon="7.3342">
        <ele>1028</ele>
        <time>2017-06-11T08:50:33Z</time>
      </trkpt>
      <trkpt lat="47.25792" lon="7.33414">
        <ele>1028</ele>
        <time>2017-06-11T08:50:35Z</time>
      </trkpt>
      <trkpt lat="47.25793" lon="7.33404">
        <ele>1028</ele>
        <time>2017-06-11T08:50:38Z</time>
      </trkpt>
      <trkpt lat="47.25794" lon="7.33396">
        <ele>1028</ele>
        <time>2017-06-11T08:50:40Z</time>
      </trkpt>
      <trkpt lat="47.25796" lon="7.33388">
        <ele>1028</ele>
        <time>2017-06-11T08:50:42Z</time>
      </trkpt>
      <trkpt lat="47.25797" lon="7.3338">
        <ele>1027</ele>
        <time>2017-06-11T08:50:44Z</time>
      </trkpt>
      <trkpt lat="47.25798" lon="7.33372">
        <ele>1027</ele>
        <time>2017-06-11T08:50:46Z</time>
      </trkpt>
      <trkpt lat="47.25799" lon="7.33365">
        <ele>1026</ele>
        <time>2017-06-11T08:50:48Z</time>
      </trkpt>
      <trkpt lat="47.25801" lon="7.33358">
        <ele>1026</ele>
        <time>2017-06-11T08:50:50Z</time>
      </trkpt>
      <trkpt lat="47.25802" lon="7.3335">
        <ele>1026</ele>
        <time>2017-06-11T08:50:52Z</time>
      </trkpt>
      <trkpt lat="47.25803" lon="7.33342">
        <ele>1026</ele>
        <time>2017-06-11T08:50:54Z</time>
      </trkpt>
      <trkpt lat="47.25805" lon="7.33334">
        <ele>1026</ele>
        <time>2017-06-11T08:50:56Z</time>
      </trkpt>
      <trkpt lat="47.25806" lon="7.33325">
        <ele>1026</ele>
        <time>2017-06-11T08:50:58Z</time>
      </trkpt>
      <trkpt lat="47.25806" lon="7.33317">
        <ele>1027</ele>
        <time>2017-06-11T08:51:00Z</time>
      </trkpt>
      <trkpt lat="47.25805" lon="7.33307">
        <ele>1027</ele>
        <time>2017-06-11T08:51:02Z</time>
      </trkpt>
      <trkpt lat="47.25807" lon="7.33296">
        <ele>1027</ele>
        <time>2017-06-11T08:51:04Z</time>
      </trkpt>
      <trkpt lat="47.25808" lon="7.33289">
        <ele>1027</ele>
        <time>2017-06-11T08:51:05Z</time>
      </trkpt>
      <trkpt lat="47.25809" lon="7.33271">
        <ele>1027</ele>
        <time>2017-06-11T08:51:06Z</time>
      </trkpt>
      <trkpt lat="47.2581" lon="7.33263">
        <ele>1026</ele>
        <time>2017-06-11T08:51:07Z</time>
      </trkpt>
      <trkpt lat="47.25814" lon="7.33256">
        <ele>1026</ele>
        <time>2017-06-11T08:51:08Z</time>
      </trkpt>
      <trkpt lat="47.25818" lon="7.33251">
        <ele>1026</ele>
        <time>2017-06-11T08:51:10Z</time>
      </trkpt>
      <trkpt lat="47.25824" lon="7.33246">
        <ele>1026</ele>
        <time>2017-06-11T08:51:12Z</time>
      </trkpt>
      <trkpt lat="47.25832" lon="7.33247">
        <ele>1025</ele>
        <time>2017-06-11T08:51:16Z</time>
      </trkpt>
      <trkpt lat="47.25837" lon="7.33248">
        <ele>1024</ele>
        <time>2017-06-11T08:51:18Z</time>
      </trkpt>
      <trkpt lat="47.25841" lon="7.3325">
        <ele>1024</ele>
        <time>2017-06-11T08:51:20Z</time>
      </trkpt>
      <trkpt lat="47.25844" lon="7.33256">
        <ele>1023</ele>
        <time>2017-06-11T08:51:22Z</time>
      </trkpt>
      <trkpt lat="47.25849" lon="7.33263">
        <ele>1023</ele>
        <time>2017-06-11T08:51:25Z</time>
      </trkpt>
      <trkpt lat="47.25852" lon="7.3327">
        <ele>1022</ele>
        <time>2017-06-11T08:51:27Z</time>
      </trkpt>
      <trkpt lat="47.25856" lon="7.33277">
        <ele>1021</ele>
        <time>2017-06-11T08:51:30Z</time>
      </trkpt>
      <trkpt lat="47.2586" lon="7.33286">
        <ele>1021</ele>
        <time>2017-06-11T08:51:33Z</time>
      </trkpt>
      <trkpt lat="47.25863" lon="7.33293">
        <ele>1021</ele>
        <time>2017-06-11T08:51:35Z</time>
      </trkpt>
      <trkpt lat="47.25865" lon="7.333">
        <ele>1021</ele>
        <time>2017-06-11T08:51:37Z</time>
      </trkpt>
      <trkpt lat="47.25868" lon="7.33305">
        <ele>1021</ele>
        <time>2017-06-11T08:51:39Z</time>
      </trkpt>
      <trkpt lat="47.2587" lon="7.33311">
        <ele>1021</ele>
        <time>2017-06-11T08:51:41Z</time>
      </trkpt>
      <trkpt lat="47.25872" lon="7.33318">
        <ele>1021</ele>
        <time>2017-06-11T08:51:43Z</time>
      </trkpt>
      <trkpt lat="47.25874" lon="7.33324">
        <ele>1020</ele>
        <time>2017-06-11T08:51:45Z</time>
      </trkpt>
      <trkpt lat="47.25877" lon="7.33331">
        <ele>1020</ele>
        <time>2017-06-11T08:51:47Z</time>
      </trkpt>
      <trkpt lat="47.25879" lon="7.33338">
        <ele>1020</ele>
        <time>2017-06-11T08:51:49Z</time>
      </trkpt>
      <trkpt lat="47.25882" lon="7.33346">
        <ele>1019</ele>
        <time>2017-06-11T08:51:52Z</time>
      </trkpt>
      <trkpt lat="47.25884" lon="7.33353">
        <ele>1019</ele>
        <time>2017-06-11T08:51:54Z</time>
      </trkpt>
      <trkpt lat="47.25886" lon="7.33359">
        <ele>1018</ele>
        <time>2017-06-11T08:51:56Z</time>
      </trkpt>
      <trkpt lat="47.2589" lon="7.33366">
        <ele>1018</ele>
        <time>2017-06-11T08:51:58Z</time>
      </trkpt>
      <trkpt lat="47.25892" lon="7.33373">
        <ele>1018</ele>
        <time>2017-06-11T08:52:00Z</time>
      </trkpt>
      <trkpt lat="47.25896" lon="7.33378">
        <ele>1017</ele>
        <time>2017-06-11T08:52:02Z</time>
      </trkpt>
      <trkpt lat="47.259" lon="7.33384">
        <ele>1017</ele>
        <time>2017-06-11T08:52:04Z</time>
      </trkpt>
      <trkpt lat="47.25903" lon="7.33393">
        <ele>1017</ele>
        <time>2017-06-11T08:52:07Z</time>
      </trkpt>
      <trkpt lat="47.25905" lon="7.33399">
        <ele>1016</ele>
        <time>2017-06-11T08:52:09Z</time>
      </trkpt>
      <trkpt lat="47.25908" lon="7.33407">
        <ele>1016</ele>
        <time>2017-06-11T08:52:12Z</time>
      </trkpt>
      <trkpt lat="47.25909" lon="7.33415">
        <ele>1015</ele>
        <time>2017-06-11T08:52:15Z</time>
      </trkpt>
      <trkpt lat="47.25912" lon="7.33422">
        <ele>1015</ele>
        <time>2017-06-11T08:52:18Z</time>
      </trkpt>
      <trkpt lat="47.25914" lon="7.3343">
        <ele>1015</ele>
        <time>2017-06-11T08:52:21Z</time>
      </trkpt>
      <trkpt lat="47.25915" lon="7.33438">
        <ele>1014</ele>
        <time>2017-06-11T08:52:33Z</time>
      </trkpt>
      <trkpt lat="47.25918" lon="7.33443">
        <ele>1014</ele>
        <time>2017-06-11T08:52:38Z</time>
      </trkpt>
      <trkpt lat="47.25922" lon="7.33446">
        <ele>1013</ele>
        <time>2017-06-11T08:52:42Z</time>
      </trkpt>
      <trkpt lat="47.25928" lon="7.33451">
        <ele>1013</ele>
        <time>2017-06-11T08:52:45Z</time>
      </trkpt>
      <trkpt lat="47.25934" lon="7.33457">
        <ele>1012</ele>
        <time>2017-06-11T08:52:48Z</time>
      </trkpt>
      <trkpt lat="47.25937" lon="7.33462">
        <ele>1011</ele>
        <time>2017-06-11T08:52:50Z</time>
      </trkpt>
      <trkpt lat="47.25942" lon="7.3347">
        <ele>1010</ele>
        <time>2017-06-11T08:52:52Z</time>
      </trkpt>
      <trkpt lat="47.25945" lon="7.33478">
        <ele>1008</ele>
        <time>2017-06-11T08:52:54Z</time>
      </trkpt>
      <trkpt lat="47.2595" lon="7.33486">
        <ele>1007</ele>
        <time>2017-06-11T08:52:56Z</time>
      </trkpt>
      <trkpt lat="47.25953" lon="7.33495">
        <ele>1005</ele>
        <time>2017-06-11T08:52:58Z</time>
      </trkpt>
      <trkpt lat="47.25956" lon="7.33507">
        <ele>1002</ele>
        <time>2017-06-11T08:53:00Z</time>
      </trkpt>
      <trkpt lat="47.2596" lon="7.33515">
        <ele>999</ele>
        <time>2017-06-11T08:53:02Z</time>
      </trkpt>
      <trkpt lat="47.25964" lon="7.33524">
        <ele>996</ele>
        <time>2017-06-11T08:53:04Z</time>
      </trkpt>
      <trkpt lat="47.25967" lon="7.33532">
        <ele>994</ele>
        <time>2017-06-11T08:53:06Z</time>
      </trkpt>
      <trkpt lat="47.25969" lon="7.3354">
        <ele>993</ele>
        <time>2017-06-11T08:53:08Z</time>
      </trkpt>
      <trkpt lat="47.2597" lon="7.33547">
        <ele>992</ele>
        <time>2017-06-11T08:53:10Z</time>
      </trkpt>
      <trkpt lat="47.25971" lon="7.33557">
        <ele>992</ele>
        <time>2017-06-11T08:53:14Z</time>
      </trkpt>
      <trkpt lat="47.2597" lon="7.33563">
        <ele>993</ele>
        <time>2017-06-11T08:53:16Z</time>
      </trkpt>
      <trkpt lat="47.25971" lon="7.33571">
        <ele>993</ele>
        <time>2017-06-11T08:53:18Z</time>
      </trkpt>
      <trkpt lat="47.25971" lon="7.33581">
        <ele>993</ele>
        <time>2017-06-11T08:53:20Z</time>
      </trkpt>
      <trkpt lat="47.25973" lon="7.3359">
        <ele>993</ele>
        <time>2017-06-11T08:53:21Z</time>
      </trkpt>
      <trkpt lat="47.25974" lon="7.33597">
        <ele>993</ele>
        <time>2017-06-11T08:53:22Z</time>
      </trkpt>
      <trkpt lat="47.25975" lon="7.33606">
        <ele>992</ele>
        <time>2017-06-11T08:53:24Z</time>
      </trkpt>
      <trkpt lat="47.25972" lon="7.33614">
        <ele>992</ele>
        <time>2017-06-11T08:53:26Z</time>
      </trkpt>
      <trkpt lat="47.25971" lon="7.33623">
        <ele>992</ele>
        <time>2017-06-11T08:53:29Z</time>
      </trkpt>
      <trkpt lat="47.25969" lon="7.33631">
        <ele>991</ele>
        <time>2017-06-11T08:53:32Z</time>
      </trkpt>
      <trkpt lat="47.25971" lon="7.33639">
        <ele>990</ele>
        <time>2017-06-11T08:53:35Z</time>
      </trkpt>
      <trkpt lat="47.25973" lon="7.33645">
        <ele>990</ele>
        <time>2017-06-11T08:53:38Z</time>
      </trkpt>
      <trkpt lat="47.25978" lon="7.33653">
        <ele>989</ele>
        <time>2017-06-11T08:53:41Z</time>
      </trkpt>
      <trkpt lat="47.25982" lon="7.3366">
        <ele>989</ele>
        <time>2017-06-11T08:53:43Z</time>
      </trkpt>
      <trkpt lat="47.25985" lon="7.33666">
        <ele>989</ele>
        <time>2017-06-11T08:53:45Z</time>
      </trkpt>
      <trkpt lat="47.25988" lon="7.33672">
        <ele>989</ele>
        <time>2017-06-11T08:53:47Z</time>
      </trkpt>
      <trkpt lat="47.25992" lon="7.33679">
        <ele>988</ele>
        <time>2017-06-11T08:53:49Z</time>
      </trkpt>
      <trkpt lat="47.25995" lon="7.33687">
        <ele>988</ele>
        <time>2017-06-11T08:53:51Z</time>
      </trkpt>
      <trkpt lat="47.25997" lon="7.33694">
        <ele>988</ele>
        <time>2017-06-11T08:53:53Z</time>
      </trkpt>
      <trkpt lat="47.26001" lon="7.33702">
        <ele>988</ele>
        <time>2017-06-11T08:53:56Z</time>
      </trkpt>
      <trkpt lat="47.26006" lon="7.33709">
        <ele>987</ele>
        <time>2017-06-11T08:53:58Z</time>
      </trkpt>
      <trkpt lat="47.2601" lon="7.33715">
        <ele>986</ele>
        <time>2017-06-11T08:54:00Z</time>
      </trkpt>
      <trkpt lat="47.26014" lon="7.3372">
        <ele>986</ele>
        <time>2017-06-11T08:54:02Z</time>
      </trkpt>
      <trkpt lat="47.26018" lon="7.33727">
        <ele>985</ele>
        <time>2017-06-11T08:54:04Z</time>
      </trkpt>
      <trkpt lat="47.26021" lon="7.33733">
        <ele>985</ele>
        <time>2017-06-11T08:54:06Z</time>
      </trkpt>
      <trkpt lat="47.26024" lon="7.33739">
        <ele>984</ele>
        <time>2017-06-11T08:54:08Z</time>
      </trkpt>
      <trkpt lat="47.26027" lon="7.33746">
        <ele>984</ele>
        <time>2017-06-11T08:54:10Z</time>
      </trkpt>
      <trkpt lat="47.2603" lon="7.33753">
        <ele>984</ele>
        <time>2017-06-11T08:54:12Z</time>
      </trkpt>
      <trkpt lat="47.26032" lon="7.33759">
        <ele>983</ele>
        <time>2017-06-11T08:54:14Z</time>
      </trkpt>
      <trkpt lat="47.26033" lon="7.33766">
        <ele>982</ele>
        <time>2017-06-11T08:54:16Z</time>
      </trkpt>
      <trkpt lat="47.26034" lon="7.33773">
        <ele>981</ele>
        <time>2017-06-11T08:54:18Z</time>
      </trkpt>
      <trkpt lat="47.26035" lon="7.33781">
        <ele>981</ele>
        <time>2017-06-11T08:54:21Z</time>
      </trkpt>
      <trkpt lat="47.26037" lon="7.33788">
        <ele>980</ele>
        <time>2017-06-11T08:54:23Z</time>
      </trkpt>
      <trkpt lat="47.2604" lon="7.33796">
        <ele>979</ele>
        <time>2017-06-11T08:54:25Z</time>
      </trkpt>
      <trkpt lat="47.26043" lon="7.33805">
        <ele>978</ele>
        <time>2017-06-11T08:54:27Z</time>
      </trkpt>
      <trkpt lat="47.26046" lon="7.33811">
        <ele>978</ele>
        <time>2017-06-11T08:54:29Z</time>
      </trkpt>
      <trkpt lat="47.26048" lon="7.33819">
        <ele>977</ele>
        <time>2017-06-11T08:54:31Z</time>
      </trkpt>
      <trkpt lat="47.26051" lon="7.33826">
        <ele>976</ele>
        <time>2017-06-11T08:54:33Z</time>
      </trkpt>
      <trkpt lat="47.26054" lon="7.33831">
        <ele>975</ele>
        <time>2017-06-11T08:54:35Z</time>
      </trkpt>
      <trkpt lat="47.26057" lon="7.33838">
        <ele>974</ele>
        <time>2017-06-11T08:54:37Z</time>
      </trkpt>
      <trkpt lat="47.26061" lon="7.33844">
        <ele>973</ele>
        <time>2017-06-11T08:54:39Z</time>
      </trkpt>
      <trkpt lat="47.26065" lon="7.33853">
        <ele>972</ele>
        <time>2017-06-11T08:54:41Z</time>
      </trkpt>
      <trkpt lat="47.26069" lon="7.33861">
        <ele>971</ele>
        <time>2017-06-11T08:54:43Z</time>
      </trkpt>
      <trkpt lat="47.26072" lon="7.33869">
        <ele>970</ele>
        <time>2017-06-11T08:54:45Z</time>
      </trkpt>
      <trkpt lat="47.26075" lon="7.33876">
        <ele>969</ele>
        <time>2017-06-11T08:54:47Z</time>
      </trkpt>
      <trkpt lat="47.26077" lon="7.33883">
        <ele>967</ele>
        <time>2017-06-11T08:54:49Z</time>
      </trkpt>
      <trkpt lat="47.26082" lon="7.33889">
        <ele>966</ele>
        <time>2017-06-11T08:54:51Z</time>
      </trkpt>
      <trkpt lat="47.26084" lon="7.33896">
        <ele>965</ele>
        <time>2017-06-11T08:54:53Z</time>
      </trkpt>
      <trkpt lat="47.26087" lon="7.33903">
        <ele>964</ele>
        <time>2017-06-11T08:54:55Z</time>
      </trkpt>
      <trkpt lat="47.2609" lon="7.33911">
        <ele>963</ele>
        <time>2017-06-11T08:54:58Z</time>
      </trkpt>
      <trkpt lat="47.26093" lon="7.33916">
        <ele>962</ele>
        <time>2017-06-11T08:55:00Z</time>
      </trkpt>
      <trkpt lat="47.26095" lon="7.33923">
        <ele>962</ele>
        <time>2017-06-11T08:55:02Z</time>
      </trkpt>
      <trkpt lat="47.26098" lon="7.33932">
        <ele>961</ele>
        <time>2017-06-11T08:55:04Z</time>
      </trkpt>
      <trkpt lat="47.26101" lon="7.33941">
        <ele>960</ele>
        <time>2017-06-11T08:55:06Z</time>
      </trkpt>
      <trkpt lat="47.26105" lon="7.33948">
        <ele>959</ele>
        <time>2017-06-11T08:55:08Z</time>
      </trkpt>
      <trkpt lat="47.26107" lon="7.33956">
        <ele>958</ele>
        <time>2017-06-11T08:55:10Z</time>
      </trkpt>
      <trkpt lat="47.26107" lon="7.33962">
        <ele>958</ele>
        <time>2017-06-11T08:55:12Z</time>
      </trkpt>
      <trkpt lat="47.26111" lon="7.33969">
        <ele>957</ele>
        <time>2017-06-11T08:55:15Z</time>
      </trkpt>
      <trkpt lat="47.26113" lon="7.33975">
        <ele>956</ele>
        <time>2017-06-11T08:55:17Z</time>
      </trkpt>
      <trkpt lat="47.26116" lon="7.33981">
        <ele>955</ele>
        <time>2017-06-11T08:55:19Z</time>
      </trkpt>
      <trkpt lat="47.26119" lon="7.3399">
        <ele>955</ele>
        <time>2017-06-11T08:55:22Z</time>
      </trkpt>
      <trkpt lat="47.26121" lon="7.33999">
        <ele>954</ele>
        <time>2017-06-11T08:55:24Z</time>
      </trkpt>
      <trkpt lat="47.2612" lon="7.34011">
        <ele>953</ele>
        <time>2017-06-11T08:55:26Z</time>
      </trkpt>
      <trkpt lat="47.2612" lon="7.3402">
        <ele>952</ele>
        <time>2017-06-11T08:55:28Z</time>
      </trkpt>
      <trkpt lat="47.26122" lon="7.3403">
        <ele>952</ele>
        <time>2017-06-11T08:55:31Z</time>
      </trkpt>
      <trkpt lat="47.26123" lon="7.34038">
        <ele>951</ele>
        <time>2017-06-11T08:55:35Z</time>
      </trkpt>
      <trkpt lat="47.26122" lon="7.34045">
        <ele>951</ele>
        <time>2017-06-11T08:55:38Z</time>
      </trkpt>
      <trkpt lat="47.26119" lon="7.34052">
        <ele>950</ele>
        <time>2017-06-11T08:55:41Z</time>
      </trkpt>
      <trkpt lat="47.26123" lon="7.34061">
        <ele>950</ele>
        <time>2017-06-11T08:55:44Z</time>
      </trkpt>
      <trkpt lat="47.26127" lon="7.34067">
        <ele>950</ele>
        <time>2017-06-11T08:55:46Z</time>
      </trkpt>
      <trkpt lat="47.26131" lon="7.34063">
        <ele>949</ele>
        <time>2017-06-11T08:55:52Z</time>
      </trkpt>
      <trkpt lat="47.26133" lon="7.34054">
        <ele>949</ele>
        <time>2017-06-11T08:55:56Z</time>
      </trkpt>
      <trkpt lat="47.26135" lon="7.34046">
        <ele>948</ele>
        <time>2017-06-11T08:55:58Z</time>
      </trkpt>
      <trkpt lat="47.26136" lon="7.34039">
        <ele>948</ele>
        <time>2017-06-11T08:56:00Z</time>
      </trkpt>
      <trkpt lat="47.26138" lon="7.34032">
        <ele>948</ele>
        <time>2017-06-11T08:56:02Z</time>
      </trkpt>
      <trkpt lat="47.26139" lon="7.34025">
        <ele>948</ele>
        <time>2017-06-11T08:56:04Z</time>
      </trkpt>
      <trkpt lat="47.2614" lon="7.34017">
        <ele>948</ele>
        <time>2017-06-11T08:56:06Z</time>
      </trkpt>
      <trkpt lat="47.26142" lon="7.3401">
        <ele>948</ele>
        <time>2017-06-11T08:56:08Z</time>
      </trkpt>
      <trkpt lat="47.26143" lon="7.34002">
        <ele>947</ele>
        <time>2017-06-11T08:56:10Z</time>
      </trkpt>
      <trkpt lat="47.26142" lon="7.33994">
        <ele>947</ele>
        <time>2017-06-11T08:56:12Z</time>
      </trkpt>
      <trkpt lat="47.26142" lon="7.33986">
        <ele>947</ele>
        <time>2017-06-11T08:56:14Z</time>
      </trkpt>
      <trkpt lat="47.26144" lon="7.3398">
        <ele>946</ele>
        <time>2017-06-11T08:56:15Z</time>
      </trkpt>
      <trkpt lat="47.26148" lon="7.33966">
        <ele>946</ele>
        <time>2017-06-11T08:56:16Z</time>
      </trkpt>
      <trkpt lat="47.26155" lon="7.33954">
        <ele>945</ele>
        <time>2017-06-11T08:56:17Z</time>
      </trkpt>
      <trkpt lat="47.2616" lon="7.33948">
        <ele>945</ele>
        <time>2017-06-11T08:56:18Z</time>
      </trkpt>
      <trkpt lat="47.26161" lon="7.33941">
        <ele>944</ele>
        <time>2017-06-11T08:56:19Z</time>
      </trkpt>
      <trkpt lat="47.26164" lon="7.33933">
        <ele>943</ele>
        <time>2017-06-11T08:56:21Z</time>
      </trkpt>
      <trkpt lat="47.26164" lon="7.33925">
        <ele>942</ele>
        <time>2017-06-11T08:56:23Z</time>
      </trkpt>
      <trkpt lat="47.26164" lon="7.33918">
        <ele>941</ele>
        <time>2017-06-11T08:56:25Z</time>
      </trkpt>
      <trkpt lat="47.26165" lon="7.33909">
        <ele>940</ele>
        <time>2017-06-11T08:56:28Z</time>
      </trkpt>
      <trkpt lat="47.26165" lon="7.33899">
        <ele>939</ele>
        <time>2017-06-11T08:56:31Z</time>
      </trkpt>
      <trkpt lat="47.26167" lon="7.33892">
        <ele>937</ele>
        <time>2017-06-11T08:56:33Z</time>
      </trkpt>
      <trkpt lat="47.26167" lon="7.33884">
        <ele>936</ele>
        <time>2017-06-11T08:56:36Z</time>
      </trkpt>
      <trkpt lat="47.26167" lon="7.33876">
        <ele>935</ele>
        <time>2017-06-11T08:56:43Z</time>
      </trkpt>
      <trkpt lat="47.2617" lon="7.33868">
        <ele>933</ele>
        <time>2017-06-11T08:56:46Z</time>
      </trkpt>
      <trkpt lat="47.26171" lon="7.33859">
        <ele>932</ele>
        <time>2017-06-11T08:56:49Z</time>
      </trkpt>
      <trkpt lat="47.26172" lon="7.33851">
        <ele>931</ele>
        <time>2017-06-11T08:56:51Z</time>
      </trkpt>
      <trkpt lat="47.26173" lon="7.33844">
        <ele>930</ele>
        <time>2017-06-11T08:56:53Z</time>
      </trkpt>
      <trkpt lat="47.26173" lon="7.33836">
        <ele>930</ele>
        <time>2017-06-11T08:56:55Z</time>
      </trkpt>
      <trkpt lat="47.26173" lon="7.33828">
        <ele>930</ele>
        <time>2017-06-11T08:56:57Z</time>
      </trkpt>
      <trkpt lat="47.26174" lon="7.33819">
        <ele>930</ele>
        <time>2017-06-11T08:56:59Z</time>
      </trkpt>
      <trkpt lat="47.26175" lon="7.33811">
        <ele>930</ele>
        <time>2017-06-11T08:57:01Z</time>
      </trkpt>
      <trkpt lat="47.26178" lon="7.33802">
        <ele>929</ele>
        <time>2017-06-11T08:57:04Z</time>
      </trkpt>
      <trkpt lat="47.26179" lon="7.33794">
        <ele>929</ele>
        <time>2017-06-11T08:57:06Z</time>
      </trkpt>
      <trkpt lat="47.2618" lon="7.33787">
        <ele>928</ele>
        <time>2017-06-11T08:57:08Z</time>
      </trkpt>
      <trkpt lat="47.26181" lon="7.33781">
        <ele>928</ele>
        <time>2017-06-11T08:57:09Z</time>
      </trkpt>
      <trkpt lat="47.26181" lon="7.33774">
        <ele>927</ele>
        <time>2017-06-11T08:57:10Z</time>
      </trkpt>
      <trkpt lat="47.26181" lon="7.33765">
        <ele>927</ele>
        <time>2017-06-11T08:57:12Z</time>
      </trkpt>
      <trkpt lat="47.2618" lon="7.33757">
        <ele>926</ele>
        <time>2017-06-11T08:57:14Z</time>
      </trkpt>
      <trkpt lat="47.26179" lon="7.3375">
        <ele>926</ele>
        <time>2017-06-11T08:57:16Z</time>
      </trkpt>
      <trkpt lat="47.26178" lon="7.33741">
        <ele>925</ele>
        <time>2017-06-11T08:57:18Z</time>
      </trkpt>
      <trkpt lat="47.26178" lon="7.33732">
        <ele>925</ele>
        <time>2017-06-11T08:57:20Z</time>
      </trkpt>
      <trkpt lat="47.26178" lon="7.33724">
        <ele>924</ele>
        <time>2017-06-11T08:57:22Z</time>
      </trkpt>
      <trkpt lat="47.26178" lon="7.33717">
        <ele>924</ele>
        <time>2017-06-11T08:57:24Z</time>
      </trkpt>
      <trkpt lat="47.26178" lon="7.33711">
        <ele>924</ele>
        <time>2017-06-11T08:57:28Z</time>
      </trkpt>
      <trkpt lat="47.26181" lon="7.33705">
        <ele>923</ele>
        <time>2017-06-11T08:57:34Z</time>
      </trkpt>
      <trkpt lat="47.26188" lon="7.33702">
        <ele>923</ele>
        <time>2017-06-11T08:57:37Z</time>
      </trkpt>
      <trkpt lat="47.26194" lon="7.33705">
        <ele>922</ele>
        <time>2017-06-11T08:57:40Z</time>
      </trkpt>
      <trkpt lat="47.26198" lon="7.3371">
        <ele>921</ele>
        <time>2017-06-11T08:57:43Z</time>
      </trkpt>
      <trkpt lat="47.26202" lon="7.33717">
        <ele>921</ele>
        <time>2017-06-11T08:57:47Z</time>
      </trkpt>
      <trkpt lat="47.26205" lon="7.33723">
        <ele>920</ele>
        <time>2017-06-11T08:57:49Z</time>
      </trkpt>
      <trkpt lat="47.26208" lon="7.33728">
        <ele>919</ele>
        <time>2017-06-11T08:57:52Z</time>
      </trkpt>
      <trkpt lat="47.2621" lon="7.33735">
        <ele>918</ele>
        <time>2017-06-11T08:57:56Z</time>
      </trkpt>
      <trkpt lat="47.26214" lon="7.33742">
        <ele>917</ele>
        <time>2017-06-11T08:57:59Z</time>
      </trkpt>
      <trkpt lat="47.26218" lon="7.33749">
        <ele>916</ele>
        <time>2017-06-11T08:58:02Z</time>
      </trkpt>
      <trkpt lat="47.26223" lon="7.33754">
        <ele>916</ele>
        <time>2017-06-11T08:58:05Z</time>
      </trkpt>
      <trkpt lat="47.26229" lon="7.3376">
        <ele>916</ele>
        <time>2017-06-11T08:58:08Z</time>
      </trkpt>
      <trkpt lat="47.26233" lon="7.33768">
        <ele>915</ele>
        <time>2017-06-11T08:58:11Z</time>
      </trkpt>
      <trkpt lat="47.26235" lon="7.33774">
        <ele>915</ele>
        <time>2017-06-11T08:58:13Z</time>
      </trkpt>
      <trkpt lat="47.26237" lon="7.33782">
        <ele>915</ele>
        <time>2017-06-11T08:58:15Z</time>
      </trkpt>
      <trkpt lat="47.2624" lon="7.33787">
        <ele>915</ele>
        <time>2017-06-11T08:58:18Z</time>
      </trkpt>
      <trkpt lat="47.26243" lon="7.33793">
        <ele>915</ele>
        <time>2017-06-11T08:58:21Z</time>
      </trkpt>
      <trkpt lat="47.26246" lon="7.338">
        <ele>914</ele>
        <time>2017-06-11T08:58:23Z</time>
      </trkpt>
      <trkpt lat="47.26251" lon="7.33807">
        <ele>914</ele>
        <time>2017-06-11T08:58:25Z</time>
      </trkpt>
      <trkpt lat="47.26253" lon="7.33816">
        <ele>913</ele>
        <time>2017-06-11T08:58:28Z</time>
      </trkpt>
      <trkpt lat="47.26255" lon="7.33822">
        <ele>912</ele>
        <time>2017-06-11T08:58:31Z</time>
      </trkpt>
      <trkpt lat="47.2626" lon="7.33827">
        <ele>911</ele>
        <time>2017-06-11T08:58:34Z</time>
      </trkpt>
      <trkpt lat="47.26264" lon="7.3383">
        <ele>910</ele>
        <time>2017-06-11T08:58:37Z</time>
      </trkpt>
      <trkpt lat="47.26269" lon="7.33834">
        <ele>910</ele>
        <time>2017-06-11T08:58:40Z</time>
      </trkpt>
      <trkpt lat="47.26273" lon="7.33838">
        <ele>909</ele>
        <time>2017-06-11T08:58:42Z</time>
      </trkpt>
      <trkpt lat="47.26276" lon="7.33844">
        <ele>908</ele>
        <time>2017-06-11T08:58:44Z</time>
      </trkpt>
      <trkpt lat="47.26279" lon="7.33851">
        <ele>908</ele>
        <time>2017-06-11T08:58:46Z</time>
      </trkpt>
      <trkpt lat="47.26282" lon="7.33857">
        <ele>907</ele>
        <time>2017-06-11T08:58:48Z</time>
      </trkpt>
      <trkpt lat="47.26284" lon="7.33867">
        <ele>906</ele>
        <time>2017-06-11T08:58:50Z</time>
      </trkpt>
      <trkpt lat="47.26288" lon="7.33873">
        <ele>906</ele>
        <time>2017-06-11T08:58:52Z</time>
      </trkpt>
      <trkpt lat="47.26289" lon="7.33882">
        <ele>905</ele>
        <time>2017-06-11T08:58:55Z</time>
      </trkpt>
      <trkpt lat="47.26291" lon="7.33889">
        <ele>903</ele>
        <time>2017-06-11T08:58:58Z</time>
      </trkpt>
      <trkpt lat="47.26289" lon="7.33897">
        <ele>902</ele>
        <time>2017-06-11T08:59:03Z</time>
      </trkpt>
      <trkpt lat="47.2629" lon="7.33905">
        <ele>900</ele>
        <time>2017-06-11T08:59:07Z</time>
      </trkpt>
      <trkpt lat="47.2629" lon="7.33912">
        <ele>898</ele>
        <time>2017-06-11T08:59:11Z</time>
      </trkpt>
      <trkpt lat="47.2629" lon="7.3392">
        <ele>895</ele>
        <time>2017-06-11T08:59:15Z</time>
      </trkpt>
      <trkpt lat="47.26294" lon="7.3393">
        <ele>892</ele>
        <time>2017-06-11T08:59:21Z</time>
      </trkpt>
      <trkpt lat="47.26303" lon="7.33935">
        <ele>888</ele>
        <time>2017-06-11T08:59:27Z</time>
      </trkpt>
      <trkpt lat="47.26308" lon="7.33936">
        <ele>885</ele>
        <time>2017-06-11T08:59:29Z</time>
      </trkpt>
      <trkpt lat="47.26313" lon="7.33935">
        <ele>883</ele>
        <time>2017-06-11T08:59:32Z</time>
      </trkpt>
      <trkpt lat="47.26318" lon="7.33932">
        <ele>881</ele>
        <time>2017-06-11T08:59:34Z</time>
      </trkpt>
      <trkpt lat="47.26322" lon="7.33926">
        <ele>880</ele>
        <time>2017-06-11T08:59:37Z</time>
      </trkpt>
      <trkpt lat="47.26326" lon="7.33922">
        <ele>879</ele>
        <time>2017-06-11T08:59:39Z</time>
      </trkpt>
      <trkpt lat="47.26331" lon="7.33917">
        <ele>878</ele>
        <time>2017-06-11T08:59:41Z</time>
      </trkpt>
      <trkpt lat="47.26341" lon="7.33908">
        <ele>877</ele>
        <time>2017-06-11T08:59:43Z</time>
      </trkpt>
      <trkpt lat="47.26346" lon="7.33905">
        <ele>876</ele>
        <time>2017-06-11T08:59:44Z</time>
      </trkpt>
      <trkpt lat="47.2635" lon="7.33903">
        <ele>875</ele>
        <time>2017-06-11T08:59:45Z</time>
      </trkpt>
      <trkpt lat="47.26358" lon="7.33898">
        <ele>874</ele>
        <time>2017-06-11T08:59:47Z</time>
      </trkpt>
      <trkpt lat="47.26365" lon="7.33896">
        <ele>873</ele>
        <time>2017-06-11T08:59:49Z</time>
      </trkpt>
      <trkpt lat="47.26372" lon="7.33897">
        <ele>871</ele>
        <time>2017-06-11T08:59:51Z</time>
      </trkpt>
      <trkpt lat="47.26375" lon="7.33903">
        <ele>870</ele>
        <time>2017-06-11T08:59:53Z</time>
      </trkpt>
      <trkpt lat="47.26377" lon="7.33909">
        <ele>869</ele>
        <time>2017-06-11T08:59:55Z</time>
      </trkpt>
      <trkpt lat="47.26379" lon="7.33917">
        <ele>867</ele>
        <time>2017-06-11T08:59:58Z</time>
      </trkpt>
      <trkpt lat="47.26381" lon="7.33924">
        <ele>866</ele>
        <time>2017-06-11T09:00:00Z</time>
      </trkpt>
      <trkpt lat="47.26383" lon="7.33931">
        <ele>865</ele>
        <time>2017-06-11T09:00:02Z</time>
      </trkpt>
      <trkpt lat="47.26384" lon="7.33939">
        <ele>864</ele>
        <time>2017-06-11T09:00:04Z</time>
      </trkpt>
      <trkpt lat="47.26385" lon="7.33948">
        <ele>863</ele>
        <time>2017-06-11T09:00:06Z</time>
      </trkpt>
      <trkpt lat="47.26387" lon="7.33957">
        <ele>862</ele>
        <time>2017-06-11T09:00:08Z</time>
      </trkpt>
      <trkpt lat="47.26388" lon="7.33966">
        <ele>861</ele>
        <time>2017-06-11T09:00:10Z</time>
      </trkpt>
      <trkpt lat="47.26389" lon="7.33973">
        <ele>859</ele>
        <time>2017-06-11T09:00:12Z</time>
      </trkpt>
      <trkpt lat="47.26391" lon="7.33982">
        <ele>858</ele>
        <time>2017-06-11T09:00:15Z</time>
      </trkpt>
      <trkpt lat="47.26397" lon="7.33984">
        <ele>856</ele>
        <time>2017-06-11T09:00:20Z</time>
      </trkpt>
      <trkpt lat="47.26403" lon="7.33986">
        <ele>854</ele>
        <time>2017-06-11T09:00:24Z</time>
      </trkpt>
      <trkpt lat="47.26407" lon="7.33981">
        <ele>851</ele>
        <time>2017-06-11T09:00:33Z</time>
      </trkpt>
      <trkpt lat="47.26412" lon="7.33979">
        <ele>848</ele>
        <time>2017-06-11T09:00:37Z</time>
      </trkpt>
      <trkpt lat="47.26416" lon="7.33976">
        <ele>846</ele>
        <time>2017-06-11T09:00:40Z</time>
      </trkpt>
      <trkpt lat="47.26421" lon="7.33973">
        <ele>844</ele>
        <time>2017-06-11T09:00:43Z</time>
      </trkpt>
      <trkpt lat="47.26426" lon="7.3397">
        <ele>843</ele>
        <time>2017-06-11T09:00:45Z</time>
      </trkpt>
      <trkpt lat="47.26431" lon="7.33965">
        <ele>842</ele>
        <time>2017-06-11T09:00:47Z</time>
      </trkpt>
      <trkpt lat="47.26435" lon="7.33961">
        <ele>841</ele>
        <time>2017-06-11T09:00:49Z</time>
      </trkpt>
      <trkpt lat="47.26439" lon="7.33957">
        <ele>841</ele>
        <time>2017-06-11T09:00:51Z</time>
      </trkpt>
      <trkpt lat="47.26444" lon="7.33956">
        <ele>840</ele>
        <time>2017-06-11T09:00:53Z</time>
      </trkpt>
      <trkpt lat="47.26448" lon="7.33953">
        <ele>839</ele>
        <time>2017-06-11T09:00:55Z</time>
      </trkpt>
      <trkpt lat="47.26453" lon="7.33949">
        <ele>838</ele>
        <time>2017-06-11T09:00:58Z</time>
      </trkpt>
      <trkpt lat="47.26454" lon="7.33942">
        <ele>837</ele>
        <time>2017-06-11T09:01:01Z</time>
      </trkpt>
      <trkpt lat="47.26457" lon="7.33936">
        <ele>836</ele>
        <time>2017-06-11T09:01:03Z</time>
      </trkpt>
      <trkpt lat="47.26459" lon="7.33929">
        <ele>834</ele>
        <time>2017-06-11T09:01:05Z</time>
      </trkpt>
      <trkpt lat="47.26461" lon="7.3392">
        <ele>834</ele>
        <time>2017-06-11T09:01:07Z</time>
      </trkpt>
      <trkpt lat="47.26463" lon="7.33912">
        <ele>833</ele>
        <time>2017-06-11T09:01:09Z</time>
      </trkpt>
      <trkpt lat="47.26465" lon="7.33906">
        <ele>832</ele>
        <time>2017-06-11T09:01:11Z</time>
      </trkpt>
      <trkpt lat="47.26466" lon="7.33899">
        <ele>832</ele>
        <time>2017-06-11T09:01:14Z</time>
      </trkpt>
      <trkpt lat="47.26469" lon="7.33891">
        <ele>831</ele>
        <time>2017-06-11T09:01:17Z</time>
      </trkpt>
      <trkpt lat="47.26472" lon="7.33882">
        <ele>830</ele>
        <time>2017-06-11T09:01:19Z</time>
      </trkpt>
      <trkpt lat="47.26476" lon="7.33875">
        <ele>829</ele>
        <time>2017-06-11T09:01:21Z</time>
      </trkpt>
      <trkpt lat="47.26481" lon="7.33867">
        <ele>828</ele>
        <time>2017-06-11T09:01:23Z</time>
      </trkpt>
      <trkpt lat="47.26487" lon="7.33863">
        <ele>827</ele>
        <time>2017-06-11T09:01:25Z</time>
      </trkpt>
      <trkpt lat="47.26494" lon="7.33862">
        <ele>826</ele>
        <time>2017-06-11T09:01:27Z</time>
      </trkpt>
      <trkpt lat="47.26498" lon="7.33862">
        <ele>825</ele>
        <time>2017-06-11T09:01:29Z</time>
      </trkpt>
      <trkpt lat="47.26505" lon="7.33866">
        <ele>824</ele>
        <time>2017-06-11T09:01:32Z</time>
      </trkpt>
      <trkpt lat="47.2651" lon="7.33869">
        <ele>823</ele>
        <time>2017-06-11T09:01:36Z</time>
      </trkpt>
      <trkpt lat="47.26514" lon="7.33876">
        <ele>821</ele>
        <time>2017-06-11T09:01:42Z</time>
      </trkpt>
      <trkpt lat="47.26519" lon="7.33876">
        <ele>820</ele>
        <time>2017-06-11T09:01:46Z</time>
      </trkpt>
      <trkpt lat="47.26523" lon="7.33881">
        <ele>818</ele>
        <time>2017-06-11T09:01:49Z</time>
      </trkpt>
      <trkpt lat="47.26527" lon="7.33886">
        <ele>816</ele>
        <time>2017-06-11T09:01:52Z</time>
      </trkpt>
      <trkpt lat="47.26531" lon="7.33892">
        <ele>815</ele>
        <time>2017-06-11T09:01:55Z</time>
      </trkpt>
      <trkpt lat="47.26534" lon="7.33898">
        <ele>814</ele>
        <time>2017-06-11T09:01:58Z</time>
      </trkpt>
      <trkpt lat="47.26537" lon="7.33903">
        <ele>813</ele>
        <time>2017-06-11T09:02:01Z</time>
      </trkpt>
      <trkpt lat="47.26539" lon="7.3391">
        <ele>813</ele>
        <time>2017-06-11T09:02:03Z</time>
      </trkpt>
      <trkpt lat="47.26542" lon="7.33918">
        <ele>812</ele>
        <time>2017-06-11T09:02:06Z</time>
      </trkpt>
      <trkpt lat="47.26545" lon="7.33924">
        <ele>812</ele>
        <time>2017-06-11T09:02:08Z</time>
      </trkpt>
      <trkpt lat="47.26548" lon="7.3393">
        <ele>812</ele>
        <time>2017-06-11T09:02:10Z</time>
      </trkpt>
      <trkpt lat="47.26551" lon="7.33937">
        <ele>811</ele>
        <time>2017-06-11T09:02:12Z</time>
      </trkpt>
      <trkpt lat="47.26555" lon="7.33943">
        <ele>811</ele>
        <time>2017-06-11T09:02:14Z</time>
      </trkpt>
      <trkpt lat="47.26558" lon="7.33949">
        <ele>811</ele>
        <time>2017-06-11T09:02:16Z</time>
      </trkpt>
      <trkpt lat="47.26563" lon="7.33955">
        <ele>810</ele>
        <time>2017-06-11T09:02:19Z</time>
      </trkpt>
      <trkpt lat="47.26566" lon="7.33959">
        <ele>810</ele>
        <time>2017-06-11T09:02:21Z</time>
      </trkpt>
      <trkpt lat="47.26569" lon="7.33965">
        <ele>810</ele>
        <time>2017-06-11T09:02:23Z</time>
      </trkpt>
      <trkpt lat="47.26574" lon="7.3397">
        <ele>810</ele>
        <time>2017-06-11T09:02:26Z</time>
      </trkpt>
      <trkpt lat="47.2658" lon="7.33974">
        <ele>810</ele>
        <time>2017-06-11T09:02:29Z</time>
      </trkpt>
      <trkpt lat="47.26584" lon="7.33978">
        <ele>809</ele>
        <time>2017-06-11T09:02:31Z</time>
      </trkpt>
      <trkpt lat="47.26589" lon="7.33984">
        <ele>809</ele>
        <time>2017-06-11T09:02:34Z</time>
      </trkpt>
      <trkpt lat="47.26595" lon="7.3399">
        <ele>809</ele>
        <time>2017-06-11T09:02:37Z</time>
      </trkpt>
      <trkpt lat="47.26598" lon="7.33995">
        <ele>808</ele>
        <time>2017-06-11T09:02:39Z</time>
      </trkpt>
      <trkpt lat="47.26603" lon="7.34001">
        <ele>808</ele>
        <time>2017-06-11T09:02:42Z</time>
      </trkpt>
      <trkpt lat="47.26607" lon="7.34006">
        <ele>808</ele>
        <time>2017-06-11T09:02:44Z</time>
      </trkpt>
      <trkpt lat="47.26611" lon="7.34013">
        <ele>807</ele>
        <time>2017-06-11T09:02:46Z</time>
      </trkpt>
      <trkpt lat="47.26614" lon="7.34019">
        <ele>807</ele>
        <time>2017-06-11T09:02:48Z</time>
      </trkpt>
      <trkpt lat="47.26619" lon="7.34025">
        <ele>807</ele>
        <time>2017-06-11T09:02:51Z</time>
      </trkpt>
      <trkpt lat="47.26623" lon="7.34031">
        <ele>806</ele>
        <time>2017-06-11T09:02:53Z</time>
      </trkpt>
      <trkpt lat="47.26627" lon="7.3404">
        <ele>805</ele>
        <time>2017-06-11T09:02:55Z</time>
      </trkpt>
      <trkpt lat="47.26631" lon="7.34046">
        <ele>804</ele>
        <time>2017-06-11T09:02:58Z</time>
      </trkpt>
      <trkpt lat="47.26637" lon="7.34058">
        <ele>803</ele>
        <time>2017-06-11T09:03:03Z</time>
      </trkpt>
      <trkpt lat="47.2664" lon="7.34066">
        <ele>801</ele>
        <time>2017-06-11T09:03:06Z</time>
      </trkpt>
      <trkpt lat="47.26642" lon="7.34073">
        <ele>799</ele>
        <time>2017-06-11T09:03:11Z</time>
      </trkpt>
      <trkpt lat="47.26643" lon="7.34081">
        <ele>797</ele>
        <time>2017-06-11T09:03:14Z</time>
      </trkpt>
      <trkpt lat="47.26645" lon="7.34089">
        <ele>796</ele>
        <time>2017-06-11T09:03:16Z</time>
      </trkpt>
      <trkpt lat="47.26643" lon="7.34099">
        <ele>795</ele>
        <time>2017-06-11T09:03:19Z</time>
      </trkpt>
      <trkpt lat="47.26643" lon="7.34107">
        <ele>794</ele>
        <time>2017-06-11T09:03:22Z</time>
      </trkpt>
      <trkpt lat="47.26646" lon="7.34114">
        <ele>794</ele>
        <time>2017-06-11T09:03:27Z</time>
      </trkpt>
      <trkpt lat="47.26651" lon="7.34118">
        <ele>794</ele>
        <time>2017-06-11T09:03:32Z</time>
      </trkpt>
      <trkpt lat="47.26654" lon="7.34126">
        <ele>793</ele>
        <time>2017-06-11T09:03:36Z</time>
      </trkpt>
      <trkpt lat="47.26654" lon="7.34139">
        <ele>792</ele>
        <time>2017-06-11T09:03:39Z</time>
      </trkpt>
      <trkpt lat="47.26656" lon="7.34147">
        <ele>791</ele>
        <time>2017-06-11T09:03:41Z</time>
      </trkpt>
      <trkpt lat="47.26661" lon="7.34148">
        <ele>789</ele>
        <time>2017-06-11T09:03:47Z</time>
      </trkpt>
      <trkpt lat="47.26666" lon="7.34147">
        <ele>787</ele>
        <time>2017-06-11T09:03:51Z</time>
      </trkpt>
      <trkpt lat="47.26669" lon="7.34143">
        <ele>784</ele>
        <time>2017-06-11T09:03:57Z</time>
      </trkpt>
      <trkpt lat="47.26674" lon="7.3414">
        <ele>782</ele>
        <time>2017-06-11T09:04:00Z</time>
      </trkpt>
      <trkpt lat="47.26678" lon="7.34134">
        <ele>781</ele>
        <time>2017-06-11T09:04:04Z</time>
      </trkpt>
      <trkpt lat="47.26682" lon="7.34131">
        <ele>779</ele>
        <time>2017-06-11T09:04:09Z</time>
      </trkpt>
      <trkpt lat="47.26686" lon="7.34125">
        <ele>776</ele>
        <time>2017-06-11T09:04:14Z</time>
      </trkpt>
      <trkpt lat="47.26689" lon="7.3412">
        <ele>774</ele>
        <time>2017-06-11T09:04:20Z</time>
      </trkpt>
      <trkpt lat="47.2669" lon="7.34113">
        <ele>771</ele>
        <time>2017-06-11T09:04:22Z</time>
      </trkpt>
      <trkpt lat="47.26691" lon="7.34105">
        <ele>769</ele>
        <time>2017-06-11T09:04:24Z</time>
      </trkpt>
      <trkpt lat="47.26693" lon="7.34098">
        <ele>768</ele>
        <time>2017-06-11T09:04:26Z</time>
      </trkpt>
      <trkpt lat="47.26695" lon="7.3409">
        <ele>767</ele>
        <time>2017-06-11T09:04:28Z</time>
      </trkpt>
      <trkpt lat="47.26695" lon="7.34084">
        <ele>767</ele>
        <time>2017-06-11T09:04:30Z</time>
      </trkpt>
      <trkpt lat="47.26697" lon="7.34075">
        <ele>766</ele>
        <time>2017-06-11T09:04:33Z</time>
      </trkpt>
      <trkpt lat="47.26698" lon="7.34067">
        <ele>766</ele>
        <time>2017-06-11T09:04:36Z</time>
      </trkpt>
      <trkpt lat="47.26698" lon="7.34059">
        <ele>765</ele>
        <time>2017-06-11T09:04:40Z</time>
      </trkpt>
      <trkpt lat="47.26703" lon="7.34051">
        <ele>765</ele>
        <time>2017-06-11T09:04:43Z</time>
      </trkpt>
      <trkpt lat="47.26708" lon="7.3405">
        <ele>765</ele>
        <time>2017-06-11T09:04:45Z</time>
      </trkpt>
      <trkpt lat="47.26714" lon="7.34051">
        <ele>764</ele>
        <time>2017-06-11T09:04:47Z</time>
      </trkpt>
      <trkpt lat="47.2672" lon="7.34053">
        <ele>764</ele>
        <time>2017-06-11T09:04:49Z</time>
      </trkpt>
      <trkpt lat="47.26725" lon="7.34053">
        <ele>764</ele>
        <time>2017-06-11T09:04:51Z</time>
      </trkpt>
      <trkpt lat="47.2673" lon="7.34054">
        <ele>764</ele>
        <time>2017-06-11T09:04:53Z</time>
      </trkpt>
      <trkpt lat="47.26736" lon="7.34055">
        <ele>763</ele>
        <time>2017-06-11T09:04:55Z</time>
      </trkpt>
      <trkpt lat="47.26741" lon="7.34055">
        <ele>763</ele>
        <time>2017-06-11T09:04:57Z</time>
      </trkpt>
      <trkpt lat="47.26746" lon="7.34055">
        <ele>763</ele>
        <time>2017-06-11T09:04:59Z</time>
      </trkpt>
      <trkpt lat="47.26751" lon="7.34056">
        <ele>763</ele>
        <time>2017-06-11T09:05:01Z</time>
      </trkpt>
      <trkpt lat="47.26757" lon="7.34056">
        <ele>762</ele>
        <time>2017-06-11T09:05:03Z</time>
      </trkpt>
      <trkpt lat="47.26763" lon="7.34057">
        <ele>762</ele>
        <time>2017-06-11T09:05:05Z</time>
      </trkpt>
      <trkpt lat="47.26769" lon="7.34057">
        <ele>762</ele>
        <time>2017-06-11T09:05:07Z</time>
      </trkpt>
      <trkpt lat="47.26774" lon="7.34059">
        <ele>761</ele>
        <time>2017-06-11T09:05:09Z</time>
      </trkpt>
      <trkpt lat="47.26779" lon="7.3406">
        <ele>761</ele>
        <time>2017-06-11T09:05:11Z</time>
      </trkpt>
      <trkpt lat="47.26785" lon="7.34062">
        <ele>760</ele>
        <time>2017-06-11T09:05:13Z</time>
      </trkpt>
      <trkpt lat="47.26791" lon="7.34061">
        <ele>760</ele>
        <time>2017-06-11T09:05:16Z</time>
      </trkpt>
      <trkpt lat="47.26794" lon="7.34058">
        <ele>759</ele>
        <time>2017-06-11T09:05:19Z</time>
      </trkpt>
      <trkpt lat="47.26797" lon="7.3405">
        <ele>758</ele>
        <time>2017-06-11T09:05:23Z</time>
      </trkpt>
      <trkpt lat="47.26798" lon="7.34043">
        <ele>757</ele>
        <time>2017-06-11T09:05:26Z</time>
      </trkpt>
      <trkpt lat="47.26801" lon="7.34036">
        <ele>757</ele>
        <time>2017-06-11T09:05:29Z</time>
      </trkpt>
      <trkpt lat="47.26804" lon="7.34028">
        <ele>756</ele>
        <time>2017-06-11T09:05:32Z</time>
      </trkpt>
      <trkpt lat="47.26809" lon="7.34022">
        <ele>755</ele>
        <time>2017-06-11T09:05:38Z</time>
      </trkpt>
      <trkpt lat="47.26814" lon="7.34023">
        <ele>755</ele>
        <time>2017-06-11T09:05:41Z</time>
      </trkpt>
      <trkpt lat="47.26819" lon="7.34027">
        <ele>754</ele>
        <time>2017-06-11T09:05:44Z</time>
      </trkpt>
      <trkpt lat="47.26823" lon="7.34033">
        <ele>754</ele>
        <time>2017-06-11T09:05:47Z</time>
      </trkpt>
      <trkpt lat="47.26827" lon="7.34037">
        <ele>753</ele>
        <time>2017-06-11T09:05:49Z</time>
      </trkpt>
      <trkpt lat="47.26832" lon="7.34043">
        <ele>753</ele>
        <time>2017-06-11T09:05:52Z</time>
      </trkpt>
      <trkpt lat="47.26836" lon="7.34046">
        <ele>753</ele>
        <time>2017-06-11T09:05:54Z</time>
      </trkpt>
      <trkpt lat="47.2684" lon="7.3405">
        <ele>753</ele>
        <time>2017-06-11T09:05:56Z</time>
      </trkpt>
      <trkpt lat="47.26844" lon="7.34055">
        <ele>752</ele>
        <time>2017-06-11T09:05:58Z</time>
      </trkpt>
      <trkpt lat="47.26847" lon="7.3406">
        <ele>752</ele>
        <time>2017-06-11T09:06:00Z</time>
      </trkpt>
      <trkpt lat="47.26852" lon="7.34065">
        <ele>752</ele>
        <time>2017-06-11T09:06:03Z</time>
      </trkpt>
      <trkpt lat="47.26857" lon="7.34068">
        <ele>752</ele>
        <time>2017-06-11T09:06:05Z</time>
      </trkpt>
      <trkpt lat="47.26862" lon="7.34075">
        <ele>751</ele>
        <time>2017-06-11T09:06:08Z</time>
      </trkpt>
      <trkpt lat="47.26866" lon="7.3408">
        <ele>751</ele>
        <time>2017-06-11T09:06:10Z</time>
      </trkpt>
      <trkpt lat="47.2687" lon="7.34085">
        <ele>751</ele>
        <time>2017-06-11T09:06:12Z</time>
      </trkpt>
      <trkpt lat="47.26875" lon="7.3409">
        <ele>751</ele>
        <time>2017-06-11T09:06:14Z</time>
      </trkpt>
      <trkpt lat="47.26879" lon="7.34095">
        <ele>750</ele>
        <time>2017-06-11T09:06:16Z</time>
      </trkpt>
      <trkpt lat="47.26883" lon="7.341">
        <ele>750</ele>
        <time>2017-06-11T09:06:18Z</time>
      </trkpt>
      <trkpt lat="47.26886" lon="7.34104">
        <ele>749</ele>
        <time>2017-06-11T09:06:20Z</time>
      </trkpt>
      <trkpt lat="47.26891" lon="7.34111">
        <ele>749</ele>
        <time>2017-06-11T09:06:23Z</time>
      </trkpt>
      <trkpt lat="47.26895" lon="7.34116">
        <ele>748</ele>
        <time>2017-06-11T09:06:25Z</time>
      </trkpt>
      <trkpt lat="47.26899" lon="7.34122">
        <ele>748</ele>
        <time>2017-06-11T09:06:27Z</time>
      </trkpt>
      <trkpt lat="47.26903" lon="7.34129">
        <ele>748</ele>
        <time>2017-06-11T09:06:29Z</time>
      </trkpt>
      <trkpt lat="47.26907" lon="7.34135">
        <ele>747</ele>
        <time>2017-06-11T09:06:31Z</time>
      </trkpt>
      <trkpt lat="47.2691" lon="7.34141">
        <ele>747</ele>
        <time>2017-06-11T09:06:33Z</time>
      </trkpt>
      <trkpt lat="47.26912" lon="7.34146">
        <ele>746</ele>
        <time>2017-06-11T09:06:35Z</time>
      </trkpt>
      <trkpt lat="47.26914" lon="7.34152">
        <ele>746</ele>
        <time>2017-06-11T09:06:37Z</time>
      </trkpt>
      <trkpt lat="47.26916" lon="7.34158">
        <ele>746</ele>
        <time>2017-06-11T09:06:39Z</time>
      </trkpt>
      <trkpt lat="47.26919" lon="7.34166">
        <ele>745</ele>
        <time>2017-06-11T09:06:42Z</time>
      </trkpt>
      <trkpt lat="47.26921" lon="7.34173">
        <ele>745</ele>
        <time>2017-06-11T09:06:44Z</time>
      </trkpt>
      <trkpt lat="47.26922" lon="7.3418">
        <ele>744</ele>
        <time>2017-06-11T09:06:46Z</time>
      </trkpt>
      <trkpt lat="47.26925" lon="7.34188">
        <ele>744</ele>
        <time>2017-06-11T09:06:49Z</time>
      </trkpt>
      <trkpt lat="47.26927" lon="7.34197">
        <ele>743</ele>
        <time>2017-06-11T09:06:52Z</time>
      </trkpt>
      <trkpt lat="47.26931" lon="7.34204">
        <ele>743</ele>
        <time>2017-06-11T09:06:55Z</time>
      </trkpt>
      <trkpt lat="47.26934" lon="7.3421">
        <ele>743</ele>
        <time>2017-06-11T09:06:58Z</time>
      </trkpt>
      <trkpt lat="47.26938" lon="7.34215">
        <ele>742</ele>
        <time>2017-06-11T09:07:00Z</time>
      </trkpt>
      <trkpt lat="47.26941" lon="7.34221">
        <ele>742</ele>
        <time>2017-06-11T09:07:02Z</time>
      </trkpt>
      <trkpt lat="47.26944" lon="7.34227">
        <ele>742</ele>
        <time>2017-06-11T09:07:04Z</time>
      </trkpt>
      <trkpt lat="47.26946" lon="7.34235">
        <ele>741</ele>
        <time>2017-06-11T09:07:07Z</time>
      </trkpt>
      <trkpt lat="47.26949" lon="7.34244">
        <ele>741</ele>
        <time>2017-06-11T09:07:10Z</time>
      </trkpt>
      <trkpt lat="47.26949" lon="7.3425">
        <ele>741</ele>
        <time>2017-06-11T09:07:12Z</time>
      </trkpt>
      <trkpt lat="47.2695" lon="7.34257">
        <ele>740</ele>
        <time>2017-06-11T09:07:14Z</time>
      </trkpt>
      <trkpt lat="47.26952" lon="7.34265">
        <ele>739</ele>
        <time>2017-06-11T09:07:16Z</time>
      </trkpt>
      <trkpt lat="47.26953" lon="7.34274">
        <ele>739</ele>
        <time>2017-06-11T09:07:18Z</time>
      </trkpt>
      <trkpt lat="47.26953" lon="7.34282">
        <ele>738</ele>
        <time>2017-06-11T09:07:20Z</time>
      </trkpt>
      <trkpt lat="47.26954" lon="7.3429">
        <ele>737</ele>
        <time>2017-06-11T09:07:22Z</time>
      </trkpt>
      <trkpt lat="47.26954" lon="7.34298">
        <ele>736</ele>
        <time>2017-06-11T09:07:24Z</time>
      </trkpt>
      <trkpt lat="47.26954" lon="7.34305">
        <ele>736</ele>
        <time>2017-06-11T09:07:26Z</time>
      </trkpt>
      <trkpt lat="47.26954" lon="7.34312">
        <ele>735</ele>
        <time>2017-06-11T09:07:28Z</time>
      </trkpt>
      <trkpt lat="47.26952" lon="7.34319">
        <ele>735</ele>
        <time>2017-06-11T09:07:30Z</time>
      </trkpt>
      <trkpt lat="47.26951" lon="7.34328">
        <ele>735</ele>
        <time>2017-06-11T09:07:33Z</time>
      </trkpt>
      <trkpt lat="47.26951" lon="7.34336">
        <ele>734</ele>
        <time>2017-06-11T09:07:35Z</time>
      </trkpt>
      <trkpt lat="47.26949" lon="7.34345">
        <ele>734</ele>
        <time>2017-06-11T09:07:37Z</time>
      </trkpt>
      <trkpt lat="47.26947" lon="7.34353">
        <ele>733</ele>
        <time>2017-06-11T09:07:39Z</time>
      </trkpt>
      <trkpt lat="47.26946" lon="7.3436">
        <ele>733</ele>
        <time>2017-06-11T09:07:41Z</time>
      </trkpt>
      <trkpt lat="47.26946" lon="7.34368">
        <ele>733</ele>
        <time>2017-06-11T09:07:43Z</time>
      </trkpt>
      <trkpt lat="47.26946" lon="7.34376">
        <ele>732</ele>
        <time>2017-06-11T09:07:45Z</time>
      </trkpt>
      <trkpt lat="47.26945" lon="7.34384">
        <ele>732</ele>
        <time>2017-06-11T09:07:47Z</time>
      </trkpt>
      <trkpt lat="47.26944" lon="7.34393">
        <ele>731</ele>
        <time>2017-06-11T09:07:49Z</time>
      </trkpt>
      <trkpt lat="47.26945" lon="7.34401">
        <ele>731</ele>
        <time>2017-06-11T09:07:51Z</time>
      </trkpt>
      <trkpt lat="47.26946" lon="7.3441">
        <ele>731</ele>
        <time>2017-06-11T09:07:53Z</time>
      </trkpt>
      <trkpt lat="47.26945" lon="7.3442">
        <ele>730</ele>
        <time>2017-06-11T09:07:56Z</time>
      </trkpt>
      <trkpt lat="47.26943" lon="7.34428">
        <ele>729</ele>
        <time>2017-06-11T09:07:59Z</time>
      </trkpt>
      <trkpt lat="47.26939" lon="7.34435">
        <ele>729</ele>
        <time>2017-06-11T09:08:02Z</time>
      </trkpt>
      <trkpt lat="47.26937" lon="7.34443">
        <ele>728</ele>
        <time>2017-06-11T09:08:05Z</time>
      </trkpt>
      <trkpt lat="47.26937" lon="7.3445">
        <ele>728</ele>
        <time>2017-06-11T09:08:08Z</time>
      </trkpt>
      <trkpt lat="47.26938" lon="7.34459">
        <ele>728</ele>
        <time>2017-06-11T09:08:11Z</time>
      </trkpt>
      <trkpt lat="47.26938" lon="7.34467">
        <ele>727</ele>
        <time>2017-06-11T09:08:13Z</time>
      </trkpt>
      <trkpt lat="47.26939" lon="7.34475">
        <ele>727</ele>
        <time>2017-06-11T09:08:15Z</time>
      </trkpt>
      <trkpt lat="47.26939" lon="7.34483">
        <ele>726</ele>
        <time>2017-06-11T09:08:17Z</time>
      </trkpt>
      <trkpt lat="47.26941" lon="7.34491">
        <ele>725</ele>
        <time>2017-06-11T09:08:19Z</time>
      </trkpt>
      <trkpt lat="47.26942" lon="7.34498">
        <ele>725</ele>
        <time>2017-06-11T09:08:21Z</time>
      </trkpt>
      <trkpt lat="47.26941" lon="7.34506">
        <ele>724</ele>
        <time>2017-06-11T09:08:24Z</time>
      </trkpt>
      <trkpt lat="47.26942" lon="7.34513">
        <ele>723</ele>
        <time>2017-06-11T09:08:26Z</time>
      </trkpt>
      <trkpt lat="47.26943" lon="7.34523">
        <ele>722</ele>
        <time>2017-06-11T09:08:29Z</time>
      </trkpt>
      <trkpt lat="47.26944" lon="7.3453">
        <ele>722</ele>
        <time>2017-06-11T09:08:31Z</time>
      </trkpt>
      <trkpt lat="47.26944" lon="7.34538">
        <ele>721</ele>
        <time>2017-06-11T09:08:33Z</time>
      </trkpt>
      <trkpt lat="47.26945" lon="7.34546">
        <ele>720</ele>
        <time>2017-06-11T09:08:35Z</time>
      </trkpt>
      <trkpt lat="47.26946" lon="7.34554">
        <ele>720</ele>
        <time>2017-06-11T09:08:37Z</time>
      </trkpt>
      <trkpt lat="47.26946" lon="7.34563">
        <ele>719</ele>
        <time>2017-06-11T09:08:39Z</time>
      </trkpt>
      <trkpt lat="47.26947" lon="7.3457">
        <ele>719</ele>
        <time>2017-06-11T09:08:41Z</time>
      </trkpt>
      <trkpt lat="47.26947" lon="7.34577">
        <ele>718</ele>
        <time>2017-06-11T09:08:43Z</time>
      </trkpt>
      <trkpt lat="47.26947" lon="7.34585">
        <ele>717</ele>
        <time>2017-06-11T09:08:45Z</time>
      </trkpt>
      <trkpt lat="47.26948" lon="7.34593">
        <ele>717</ele>
        <time>2017-06-11T09:08:47Z</time>
      </trkpt>
      <trkpt lat="47.26948" lon="7.34601">
        <ele>716</ele>
        <time>2017-06-11T09:08:49Z</time>
      </trkpt>
      <trkpt lat="47.26947" lon="7.3461">
        <ele>715</ele>
        <time>2017-06-11T09:08:52Z</time>
      </trkpt>
      <trkpt lat="47.26947" lon="7.34617">
        <ele>714</ele>
        <time>2017-06-11T09:08:54Z</time>
      </trkpt>
      <trkpt lat="47.26948" lon="7.34626">
        <ele>713</ele>
        <time>2017-06-11T09:08:57Z</time>
      </trkpt>
      <trkpt lat="47.26948" lon="7.34635">
        <ele>712</ele>
        <time>2017-06-11T09:09:00Z</time>
      </trkpt>
      <trkpt lat="47.26948" lon="7.34642">
        <ele>712</ele>
        <time>2017-06-11T09:09:02Z</time>
      </trkpt>
      <trkpt lat="47.26948" lon="7.34652">
        <ele>711</ele>
        <time>2017-06-11T09:09:05Z</time>
      </trkpt>
      <trkpt lat="47.26949" lon="7.34658">
        <ele>711</ele>
        <time>2017-06-11T09:09:07Z</time>
      </trkpt>
      <trkpt lat="47.26951" lon="7.34667">
        <ele>710</ele>
        <time>2017-06-11T09:09:10Z</time>
      </trkpt>
      <trkpt lat="47.26952" lon="7.34675">
        <ele>710</ele>
        <time>2017-06-11T09:09:13Z</time>
      </trkpt>
      <trkpt lat="47.26954" lon="7.34684">
        <ele>710</ele>
        <time>2017-06-11T09:09:16Z</time>
      </trkpt>
      <trkpt lat="47.26957" lon="7.34691">
        <ele>709</ele>
        <time>2017-06-11T09:09:18Z</time>
      </trkpt>
      <trkpt lat="47.26959" lon="7.34698">
        <ele>709</ele>
        <time>2017-06-11T09:09:20Z</time>
      </trkpt>
      <trkpt lat="47.26962" lon="7.34706">
        <ele>708</ele>
        <time>2017-06-11T09:09:22Z</time>
      </trkpt>
      <trkpt lat="47.26964" lon="7.34714">
        <ele>707</ele>
        <time>2017-06-11T09:09:25Z</time>
      </trkpt>
      <trkpt lat="47.26965" lon="7.34723">
        <ele>706</ele>
        <time>2017-06-11T09:09:28Z</time>
      </trkpt>
      <trkpt lat="47.26967" lon="7.34729">
        <ele>705</ele>
        <time>2017-06-11T09:09:30Z</time>
      </trkpt>
      <trkpt lat="47.2697" lon="7.34735">
        <ele>704</ele>
        <time>2017-06-11T09:09:32Z</time>
      </trkpt>
      <trkpt lat="47.26973" lon="7.3474">
        <ele>703</ele>
        <time>2017-06-11T09:09:34Z</time>
      </trkpt>
      <trkpt lat="47.26977" lon="7.34745">
        <ele>702</ele>
        <time>2017-06-11T09:09:36Z</time>
      </trkpt>
      <trkpt lat="47.26978" lon="7.34752">
        <ele>701</ele>
        <time>2017-06-11T09:09:39Z</time>
      </trkpt>
      <trkpt lat="47.26981" lon="7.34759">
        <ele>701</ele>
        <time>2017-06-11T09:09:42Z</time>
      </trkpt>
      <trkpt lat="47.26985" lon="7.34767">
        <ele>700</ele>
        <time>2017-06-11T09:09:45Z</time>
      </trkpt>
      <trkpt lat="47.26988" lon="7.34774">
        <ele>699</ele>
        <time>2017-06-11T09:09:48Z</time>
      </trkpt>
      <trkpt lat="47.26989" lon="7.34783">
        <ele>698</ele>
        <time>2017-06-11T09:09:51Z</time>
      </trkpt>
      <trkpt lat="47.26989" lon="7.3479">
        <ele>697</ele>
        <time>2017-06-11T09:09:53Z</time>
      </trkpt>
      <trkpt lat="47.26992" lon="7.34798">
        <ele>695</ele>
        <time>2017-06-11T09:09:59Z</time>
      </trkpt>
      <trkpt lat="47.26996" lon="7.34804">
        <ele>694</ele>
        <time>2017-06-11T09:10:02Z</time>
      </trkpt>
      <trkpt lat="47.27" lon="7.34809">
        <ele>692</ele>
        <time>2017-06-11T09:10:05Z</time>
      </trkpt>
      <trkpt lat="47.27002" lon="7.34815">
        <ele>691</ele>
        <time>2017-06-11T09:10:07Z</time>
      </trkpt>
      <trkpt lat="47.27007" lon="7.34821">
        <ele>691</ele>
        <time>2017-06-11T09:10:09Z</time>
      </trkpt>
      <trkpt lat="47.27012" lon="7.34824">
        <ele>690</ele>
        <time>2017-06-11T09:10:12Z</time>
      </trkpt>
      <trkpt lat="47.27016" lon="7.34829">
        <ele>689</ele>
        <time>2017-06-11T09:10:15Z</time>
      </trkpt>
      <trkpt lat="47.2702" lon="7.34836">
        <ele>688</ele>
        <time>2017-06-11T09:10:18Z</time>
      </trkpt>
      <trkpt lat="47.27025" lon="7.34842">
        <ele>687</ele>
        <time>2017-06-11T09:10:21Z</time>
      </trkpt>
      <trkpt lat="47.27029" lon="7.34849">
        <ele>686</ele>
        <time>2017-06-11T09:10:23Z</time>
      </trkpt>
      <trkpt lat="47.27032" lon="7.34856">
        <ele>685</ele>
        <time>2017-06-11T09:10:25Z</time>
      </trkpt>
      <trkpt lat="47.27034" lon="7.34866">
        <ele>684</ele>
        <time>2017-06-11T09:10:28Z</time>
      </trkpt>
      <trkpt lat="47.27037" lon="7.34874">
        <ele>683</ele>
        <time>2017-06-11T09:10:30Z</time>
      </trkpt>
      <trkpt lat="47.27041" lon="7.34883">
        <ele>683</ele>
        <time>2017-06-11T09:10:32Z</time>
      </trkpt>
      <trkpt lat="47.27042" lon="7.34889">
        <ele>682</ele>
        <time>2017-06-11T09:10:34Z</time>
      </trkpt>
      <trkpt lat="47.27045" lon="7.34895">
        <ele>681</ele>
        <time>2017-06-11T09:10:36Z</time>
      </trkpt>
      <trkpt lat="47.27047" lon="7.34902">
        <ele>680</ele>
        <time>2017-06-11T09:10:38Z</time>
      </trkpt>
      <trkpt lat="47.2705" lon="7.3491">
        <ele>679</ele>
        <time>2017-06-11T09:10:41Z</time>
      </trkpt>
      <trkpt lat="47.27052" lon="7.34917">
        <ele>678</ele>
        <time>2017-06-11T09:10:43Z</time>
      </trkpt>
      <trkpt lat="47.27053" lon="7.34925">
        <ele>678</ele>
        <time>2017-06-11T09:10:46Z</time>
      </trkpt>
      <trkpt lat="47.27056" lon="7.34932">
        <ele>677</ele>
        <time>2017-06-11T09:10:49Z</time>
      </trkpt>
      <trkpt lat="47.27059" lon="7.34941">
        <ele>675</ele>
        <time>2017-06-11T09:10:52Z</time>
      </trkpt>
      <trkpt lat="47.2706" lon="7.34948">
        <ele>674</ele>
        <time>2017-06-11T09:10:54Z</time>
      </trkpt>
      <trkpt lat="47.27062" lon="7.34954">
        <ele>673</ele>
        <time>2017-06-11T09:10:57Z</time>
      </trkpt>
      <trkpt lat="47.27063" lon="7.34963">
        <ele>672</ele>
        <time>2017-06-11T09:11:00Z</time>
      </trkpt>
      <trkpt lat="47.27064" lon="7.34972">
        <ele>671</ele>
        <time>2017-06-11T09:11:03Z</time>
      </trkpt>
      <trkpt lat="47.27065" lon="7.34979">
        <ele>670</ele>
        <time>2017-06-11T09:11:05Z</time>
      </trkpt>
      <trkpt lat="47.27067" lon="7.34989">
        <ele>669</ele>
        <time>2017-06-11T09:11:08Z</time>
      </trkpt>
      <trkpt lat="47.27068" lon="7.34999">
        <ele>667</ele>
        <time>2017-06-11T09:11:10Z</time>
      </trkpt>
      <trkpt lat="47.27068" lon="7.35008">
        <ele>666</ele>
        <time>2017-06-11T09:11:12Z</time>
      </trkpt>
      <trkpt lat="47.27069" lon="7.35016">
        <ele>665</ele>
        <time>2017-06-11T09:11:14Z</time>
      </trkpt>
      <trkpt lat="47.27069" lon="7.35023">
        <ele>664</ele>
        <time>2017-06-11T09:11:16Z</time>
      </trkpt>
      <trkpt lat="47.27068" lon="7.35033">
        <ele>664</ele>
        <time>2017-06-11T09:11:19Z</time>
      </trkpt>
      <trkpt lat="47.27066" lon="7.35039">
        <ele>663</ele>
        <time>2017-06-11T09:11:22Z</time>
      </trkpt>
      <trkpt lat="47.27065" lon="7.35048">
        <ele>662</ele>
        <time>2017-06-11T09:11:25Z</time>
      </trkpt>
      <trkpt lat="47.27066" lon="7.35055">
        <ele>661</ele>
        <time>2017-06-11T09:11:27Z</time>
      </trkpt>
      <trkpt lat="47.27066" lon="7.35065">
        <ele>660</ele>
        <time>2017-06-11T09:11:30Z</time>
      </trkpt>
      <trkpt lat="47.27067" lon="7.35072">
        <ele>659</ele>
        <time>2017-06-11T09:11:33Z</time>
      </trkpt>
      <trkpt lat="47.27067" lon="7.3508">
        <ele>658</ele>
        <time>2017-06-11T09:11:35Z</time>
      </trkpt>
      <trkpt lat="47.27068" lon="7.35087">
        <ele>657</ele>
        <time>2017-06-11T09:11:37Z</time>
      </trkpt>
      <trkpt lat="47.27068" lon="7.35097">
        <ele>656</ele>
        <time>2017-06-11T09:11:40Z</time>
      </trkpt>
      <trkpt lat="47.27069" lon="7.35105">
        <ele>655</ele>
        <time>2017-06-11T09:11:42Z</time>
      </trkpt>
      <trkpt lat="47.27069" lon="7.35113">
        <ele>654</ele>
        <time>2017-06-11T09:11:44Z</time>
      </trkpt>
      <trkpt lat="47.2707" lon="7.35122">
        <ele>653</ele>
        <time>2017-06-11T09:11:46Z</time>
      </trkpt>
      <trkpt lat="47.27071" lon="7.35129">
        <ele>652</ele>
        <time>2017-06-11T09:11:48Z</time>
      </trkpt>
      <trkpt lat="47.2707" lon="7.35138">
        <ele>651</ele>
        <time>2017-06-11T09:11:51Z</time>
      </trkpt>
      <trkpt lat="47.27069" lon="7.35146">
        <ele>649</ele>
        <time>2017-06-11T09:11:55Z</time>
      </trkpt>
      <trkpt lat="47.27069" lon="7.35155">
        <ele>648</ele>
        <time>2017-06-11T09:11:58Z</time>
      </trkpt>
      <trkpt lat="47.2707" lon="7.35163">
        <ele>647</ele>
        <time>2017-06-11T09:12:00Z</time>
      </trkpt>
      <trkpt lat="47.2707" lon="7.35172">
        <ele>646</ele>
        <time>2017-06-11T09:12:03Z</time>
      </trkpt>
      <trkpt lat="47.27071" lon="7.35179">
        <ele>644</ele>
        <time>2017-06-11T09:12:05Z</time>
      </trkpt>
      <trkpt lat="47.27072" lon="7.35188">
        <ele>643</ele>
        <time>2017-06-11T09:12:08Z</time>
      </trkpt>
      <trkpt lat="47.27073" lon="7.35195">
        <ele>642</ele>
        <time>2017-06-11T09:12:11Z</time>
      </trkpt>
      <trkpt lat="47.27075" lon="7.35202">
        <ele>641</ele>
        <time>2017-06-11T09:12:14Z</time>
      </trkpt>
      <trkpt lat="47.27078" lon="7.3521">
        <ele>640</ele>
        <time>2017-06-11T09:12:17Z</time>
      </trkpt>
      <trkpt lat="47.27079" lon="7.35219">
        <ele>639</ele>
        <time>2017-06-11T09:12:20Z</time>
      </trkpt>
      <trkpt lat="47.27079" lon="7.35228">
        <ele>638</ele>
        <time>2017-06-11T09:12:22Z</time>
      </trkpt>
      <trkpt lat="47.27079" lon="7.35236">
        <ele>636</ele>
        <time>2017-06-11T09:12:24Z</time>
      </trkpt>
      <trkpt lat="47.27081" lon="7.35244">
        <ele>635</ele>
        <time>2017-06-11T09:12:26Z</time>
      </trkpt>
      <trkpt lat="47.27082" lon="7.35252">
        <ele>634</ele>
        <time>2017-06-11T09:12:28Z</time>
      </trkpt>
      <trkpt lat="47.27082" lon="7.35262">
        <ele>632</ele>
        <time>2017-06-11T09:12:31Z</time>
      </trkpt>
      <trkpt lat="47.27083" lon="7.35271">
        <ele>631</ele>
        <time>2017-06-11T09:12:34Z</time>
      </trkpt>
      <trkpt lat="47.27084" lon="7.35278">
        <ele>629</ele>
        <time>2017-06-11T09:12:36Z</time>
      </trkpt>
      <trkpt lat="47.27084" lon="7.35286">
        <ele>628</ele>
        <time>2017-06-11T09:12:38Z</time>
      </trkpt>
      <trkpt lat="47.27085" lon="7.35293">
        <ele>627</ele>
        <time>2017-06-11T09:12:40Z</time>
      </trkpt>
      <trkpt lat="47.27087" lon="7.35302">
        <ele>626</ele>
        <time>2017-06-11T09:12:43Z</time>
      </trkpt>
      <trkpt lat="47.27088" lon="7.35309">
        <ele>625</ele>
        <time>2017-06-11T09:12:45Z</time>
      </trkpt>
      <trkpt lat="47.27089" lon="7.35315">
        <ele>625</ele>
        <time>2017-06-11T09:12:47Z</time>
      </trkpt>
      <trkpt lat="47.27089" lon="7.35323">
        <ele>624</ele>
        <time>2017-06-11T09:12:49Z</time>
      </trkpt>
      <trkpt lat="47.27089" lon="7.35333">
        <ele>623</ele>
        <time>2017-06-11T09:12:52Z</time>
      </trkpt>
      <trkpt lat="47.27089" lon="7.3534">
        <ele>622</ele>
        <time>2017-06-11T09:12:54Z</time>
      </trkpt>
      <trkpt lat="47.27089" lon="7.35349">
        <ele>621</ele>
        <time>2017-06-11T09:12:57Z</time>
      </trkpt>
      <trkpt lat="47.27089" lon="7.35357">
        <ele>620</ele>
        <time>2017-06-11T09:13:00Z</time>
      </trkpt>
      <trkpt lat="47.27088" lon="7.35366">
        <ele>619</ele>
        <time>2017-06-11T09:13:04Z</time>
      </trkpt>
      <trkpt lat="47.27087" lon="7.35374">
        <ele>618</ele>
        <time>2017-06-11T09:13:07Z</time>
      </trkpt>
      <trkpt lat="47.27087" lon="7.35383">
        <ele>617</ele>
        <time>2017-06-11T09:13:10Z</time>
      </trkpt>
      <trkpt lat="47.27085" lon="7.35389">
        <ele>616</ele>
        <time>2017-06-11T09:13:12Z</time>
      </trkpt>
      <trkpt lat="47.27085" lon="7.35396">
        <ele>615</ele>
        <time>2017-06-11T09:13:14Z</time>
      </trkpt>
      <trkpt lat="47.27085" lon="7.35405">
        <ele>614</ele>
        <time>2017-06-11T09:13:17Z</time>
      </trkpt>
      <trkpt lat="47.27088" lon="7.35412">
        <ele>612</ele>
        <time>2017-06-11T09:13:20Z</time>
      </trkpt>
      <trkpt lat="47.2709" lon="7.35419">
        <ele>611</ele>
        <time>2017-06-11T09:13:23Z</time>
      </trkpt>
      <trkpt lat="47.27091" lon="7.35427">
        <ele>610</ele>
        <time>2017-06-11T09:13:27Z</time>
      </trkpt>
      <trkpt lat="47.27094" lon="7.35433">
        <ele>609</ele>
        <time>2017-06-11T09:13:30Z</time>
      </trkpt>
      <trkpt lat="47.27095" lon="7.3544">
        <ele>608</ele>
        <time>2017-06-11T09:13:34Z</time>
      </trkpt>
      <trkpt lat="47.27099" lon="7.35446">
        <ele>607</ele>
        <time>2017-06-11T09:13:37Z</time>
      </trkpt>
      <trkpt lat="47.27102" lon="7.35453">
        <ele>605</ele>
        <time>2017-06-11T09:13:40Z</time>
      </trkpt>
      <trkpt lat="47.27107" lon="7.3546">
        <ele>604</ele>
        <time>2017-06-11T09:13:43Z</time>
      </trkpt>
      <trkpt lat="47.27112" lon="7.35465">
        <ele>602</ele>
        <time>2017-06-11T09:13:46Z</time>
      </trkpt>
      <trkpt lat="47.27116" lon="7.35472">
        <ele>601</ele>
        <time>2017-06-11T09:13:49Z</time>
      </trkpt>
      <trkpt lat="47.2712" lon="7.35476">
        <ele>600</ele>
        <time>2017-06-11T09:13:51Z</time>
      </trkpt>
      <trkpt lat="47.27124" lon="7.3548">
        <ele>598</ele>
        <time>2017-06-11T09:13:53Z</time>
      </trkpt>
      <trkpt lat="47.27129" lon="7.35481">
        <ele>597</ele>
        <time>2017-06-11T09:13:55Z</time>
      </trkpt>
      <trkpt lat="47.27136" lon="7.35486">
        <ele>596</ele>
        <time>2017-06-11T09:13:58Z</time>
      </trkpt>
      <trkpt lat="47.27142" lon="7.35492">
        <ele>594</ele>
        <time>2017-06-11T09:14:00Z</time>
      </trkpt>
      <trkpt lat="47.27147" lon="7.35499">
        <ele>593</ele>
        <time>2017-06-11T09:14:02Z</time>
      </trkpt>
      <trkpt lat="47.2715" lon="7.35507">
        <ele>592</ele>
        <time>2017-06-11T09:14:04Z</time>
      </trkpt>
      <trkpt lat="47.27154" lon="7.35512">
        <ele>590</ele>
        <time>2017-06-11T09:14:06Z</time>
      </trkpt>
      <trkpt lat="47.27156" lon="7.35518">
        <ele>589</ele>
        <time>2017-06-11T09:14:08Z</time>
      </trkpt>
      <trkpt lat="47.27158" lon="7.35527">
        <ele>588</ele>
        <time>2017-06-11T09:14:11Z</time>
      </trkpt>
      <trkpt lat="47.2716" lon="7.35535">
        <ele>586</ele>
        <time>2017-06-11T09:14:14Z</time>
      </trkpt>
      <trkpt lat="47.2716" lon="7.35544">
        <ele>585</ele>
        <time>2017-06-11T09:14:17Z</time>
      </trkpt>
      <trkpt lat="47.27161" lon="7.35551">
        <ele>584</ele>
        <time>2017-06-11T09:14:19Z</time>
      </trkpt>
      <trkpt lat="47.27164" lon="7.35557">
        <ele>582</ele>
        <time>2017-06-11T09:14:21Z</time>
      </trkpt>
      <trkpt lat="47.27166" lon="7.35564">
        <ele>581</ele>
        <time>2017-06-11T09:14:24Z</time>
      </trkpt>
      <trkpt lat="47.27169" lon="7.3557">
        <ele>578</ele>
        <time>2017-06-11T09:14:34Z</time>
      </trkpt>
      <trkpt lat="47.27169" lon="7.35572">
        <ele>576</ele>
        <time>2017-06-11T09:14:57Z</time>
      </trkpt>
      <trkpt lat="47.27171" lon="7.35597">
        <ele>573</ele>
        <time>2017-06-11T09:15:23Z</time>
      </trkpt>
      <trkpt lat="47.27168" lon="7.35583">
        <ele>566</ele>
        <time>2017-06-11T09:15:28Z</time>
      </trkpt>
      <trkpt lat="47.27169" lon="7.35576">
        <ele>561</ele>
        <time>2017-06-11T09:15:31Z</time>
      </trkpt>
      <trkpt lat="47.27167" lon="7.35569">
        <ele>560</ele>
        <time>2017-06-11T09:15:37Z</time>
      </trkpt>
      <trkpt lat="47.27164" lon="7.35564">
        <ele>560</ele>
        <time>2017-06-11T09:15:40Z</time>
      </trkpt>
      <trkpt lat="47.27161" lon="7.35559">
        <ele>562</ele>
        <time>2017-06-11T09:15:44Z</time>
      </trkpt>
      <trkpt lat="47.27157" lon="7.35554">
        <ele>567</ele>
        <time>2017-06-11T09:15:47Z</time>
      </trkpt>
      <trkpt lat="47.27153" lon="7.3555">
        <ele>571</ele>
        <time>2017-06-11T09:15:51Z</time>
      </trkpt>
      <trkpt lat="47.27149" lon="7.35546">
        <ele>574</ele>
        <time>2017-06-11T09:15:55Z</time>
      </trkpt>
      <trkpt lat="47.27144" lon="7.35545">
        <ele>576</ele>
        <time>2017-06-11T09:15:59Z</time>
      </trkpt>
      <trkpt lat="47.2714" lon="7.35542">
        <ele>577</ele>
        <time>2017-06-11T09:16:07Z</time>
      </trkpt>
      <trkpt lat="47.27137" lon="7.35536">
        <ele>578</ele>
        <time>2017-06-11T09:16:11Z</time>
      </trkpt>
      <trkpt lat="47.27134" lon="7.35529">
        <ele>577</ele>
        <time>2017-06-11T09:16:15Z</time>
      </trkpt>
      <trkpt lat="47.2713" lon="7.35525">
        <ele>577</ele>
        <time>2017-06-11T09:16:18Z</time>
      </trkpt>
      <trkpt lat="47.27126" lon="7.35523">
        <ele>576</ele>
        <time>2017-06-11T09:16:21Z</time>
      </trkpt>
      <trkpt lat="47.27121" lon="7.35522">
        <ele>576</ele>
        <time>2017-06-11T09:16:24Z</time>
      </trkpt>
      <trkpt lat="47.27116" lon="7.3552">
        <ele>576</ele>
        <time>2017-06-11T09:16:30Z</time>
      </trkpt>
      <trkpt lat="47.27111" lon="7.35519">
        <ele>577</ele>
        <time>2017-06-11T09:16:34Z</time>
      </trkpt>
      <trkpt lat="47.27105" lon="7.35519">
        <ele>577</ele>
        <time>2017-06-11T09:16:37Z</time>
      </trkpt>
      <trkpt lat="47.271" lon="7.35518">
        <ele>578</ele>
        <time>2017-06-11T09:16:40Z</time>
      </trkpt>
      <trkpt lat="47.27096" lon="7.35516">
        <ele>578</ele>
        <time>2017-06-11T09:16:44Z</time>
      </trkpt>
      <trkpt lat="47.27091" lon="7.35515">
        <ele>579</ele>
        <time>2017-06-11T09:16:49Z</time>
      </trkpt>
      <trkpt lat="47.27086" lon="7.3551">
        <ele>580</ele>
        <time>2017-06-11T09:16:53Z</time>
      </trkpt>
      <trkpt lat="47.27082" lon="7.35506">
        <ele>581</ele>
        <time>2017-06-11T09:16:56Z</time>
      </trkpt>
      <trkpt lat="47.27078" lon="7.35501">
        <ele>582</ele>
        <time>2017-06-11T09:17:00Z</time>
      </trkpt>
      <trkpt lat="47.27075" lon="7.35495">
        <ele>582</ele>
        <time>2017-06-11T09:17:02Z</time>
      </trkpt>
      <trkpt lat="47.27071" lon="7.35489">
        <ele>583</ele>
        <time>2017-06-11T09:17:04Z</time>
      </trkpt>
      <trkpt lat="47.27069" lon="7.35483">
        <ele>584</ele>
        <time>2017-06-11T09:17:07Z</time>
      </trkpt>
      <trkpt lat="47.27064" lon="7.35479">
        <ele>584</ele>
        <time>2017-06-11T09:17:09Z</time>
      </trkpt>
      <trkpt lat="47.2706" lon="7.35476">
        <ele>585</ele>
        <time>2017-06-11T09:17:13Z</time>
      </trkpt>
      <trkpt lat="47.27056" lon="7.35473">
        <ele>585</ele>
        <time>2017-06-11T09:17:18Z</time>
      </trkpt>
      <trkpt lat="47.2705" lon="7.35472">
        <ele>585</ele>
        <time>2017-06-11T09:17:24Z</time>
      </trkpt>
      <trkpt lat="47.27045" lon="7.35468">
        <ele>586</ele>
        <time>2017-06-11T09:17:33Z</time>
      </trkpt>
      <trkpt lat="47.27041" lon="7.35464">
        <ele>587</ele>
        <time>2017-06-11T09:17:36Z</time>
      </trkpt>
      <trkpt lat="47.27036" lon="7.35459">
        <ele>588</ele>
        <time>2017-06-11T09:17:38Z</time>
      </trkpt>
      <trkpt lat="47.27033" lon="7.35456">
        <ele>590</ele>
        <time>2017-06-11T09:17:40Z</time>
      </trkpt>
      <trkpt lat="47.27027" lon="7.35452">
        <ele>591</ele>
        <time>2017-06-11T09:17:43Z</time>
      </trkpt>
      <trkpt lat="47.27022" lon="7.35447">
        <ele>592</ele>
        <time>2017-06-11T09:17:46Z</time>
      </trkpt>
      <trkpt lat="47.27018" lon="7.35443">
        <ele>592</ele>
        <time>2017-06-11T09:17:50Z</time>
      </trkpt>
      <trkpt lat="47.27013" lon="7.35442">
        <ele>593</ele>
        <time>2017-06-11T09:17:53Z</time>
      </trkpt>
      <trkpt lat="47.27009" lon="7.35439">
        <ele>594</ele>
        <time>2017-06-11T09:17:56Z</time>
      </trkpt>
      <trkpt lat="47.27004" lon="7.35436">
        <ele>594</ele>
        <time>2017-06-11T09:18:00Z</time>
      </trkpt>
      <trkpt lat="47.26999" lon="7.35431">
        <ele>595</ele>
        <time>2017-06-11T09:18:03Z</time>
      </trkpt>
      <trkpt lat="47.26996" lon="7.35426">
        <ele>596</ele>
        <time>2017-06-11T09:18:06Z</time>
      </trkpt>
      <trkpt lat="47.26991" lon="7.35421">
        <ele>597</ele>
        <time>2017-06-11T09:18:09Z</time>
      </trkpt>
      <trkpt lat="47.26988" lon="7.35416">
        <ele>598</ele>
        <time>2017-06-11T09:18:12Z</time>
      </trkpt>
      <trkpt lat="47.26984" lon="7.35411">
        <ele>598</ele>
        <time>2017-06-11T09:18:15Z</time>
      </trkpt>
      <trkpt lat="47.2698" lon="7.35406">
        <ele>599</ele>
        <time>2017-06-11T09:18:18Z</time>
      </trkpt>
      <trkpt lat="47.26976" lon="7.35402">
        <ele>600</ele>
        <time>2017-06-11T09:18:21Z</time>
      </trkpt>
      <trkpt lat="47.26971" lon="7.35397">
        <ele>600</ele>
        <time>2017-06-11T09:18:24Z</time>
      </trkpt>
      <trkpt lat="47.2697" lon="7.35389">
        <ele>601</ele>
        <time>2017-06-11T09:18:29Z</time>
      </trkpt>
      <trkpt lat="47.26968" lon="7.35384">
        <ele>601</ele>
        <time>2017-06-11T09:18:35Z</time>
      </trkpt>
      <trkpt lat="47.26964" lon="7.35379">
        <ele>601</ele>
        <time>2017-06-11T09:18:42Z</time>
      </trkpt>
      <trkpt lat="47.2696" lon="7.35377">
        <ele>602</ele>
        <time>2017-06-11T09:18:46Z</time>
      </trkpt>
      <trkpt lat="47.26955" lon="7.35375">
        <ele>603</ele>
        <time>2017-06-11T09:18:49Z</time>
      </trkpt>
      <trkpt lat="47.26951" lon="7.35374">
        <ele>604</ele>
        <time>2017-06-11T09:18:53Z</time>
      </trkpt>
      <trkpt lat="47.26946" lon="7.35377">
        <ele>605</ele>
        <time>2017-06-11T09:18:56Z</time>
      </trkpt>
      <trkpt lat="47.26941" lon="7.35377">
        <ele>606</ele>
        <time>2017-06-11T09:18:59Z</time>
      </trkpt>
      <trkpt lat="47.26935" lon="7.35377">
        <ele>607</ele>
        <time>2017-06-11T09:19:02Z</time>
      </trkpt>
      <trkpt lat="47.26929" lon="7.35374">
        <ele>608</ele>
        <time>2017-06-11T09:19:06Z</time>
      </trkpt>
      <trkpt lat="47.26925" lon="7.35374">
        <ele>608</ele>
        <time>2017-06-11T09:19:09Z</time>
      </trkpt>
      <trkpt lat="47.26919" lon="7.35372">
        <ele>609</ele>
        <time>2017-06-11T09:19:11Z</time>
      </trkpt>
      <trkpt lat="47.26915" lon="7.35371">
        <ele>610</ele>
        <time>2017-06-11T09:19:13Z</time>
      </trkpt>
      <trkpt lat="47.26909" lon="7.35372">
        <ele>610</ele>
        <time>2017-06-11T09:19:16Z</time>
      </trkpt>
      <trkpt lat="47.26903" lon="7.35373">
        <ele>611</ele>
        <time>2017-06-11T09:19:19Z</time>
      </trkpt>
      <trkpt lat="47.26897" lon="7.35374">
        <ele>611</ele>
        <time>2017-06-11T09:19:22Z</time>
      </trkpt>
      <trkpt lat="47.26892" lon="7.35375">
        <ele>612</ele>
        <time>2017-06-11T09:19:25Z</time>
      </trkpt>
      <trkpt lat="47.26886" lon="7.35377">
        <ele>612</ele>
        <time>2017-06-11T09:19:29Z</time>
      </trkpt>
      <trkpt lat="47.26881" lon="7.35379">
        <ele>612</ele>
        <time>2017-06-11T09:19:33Z</time>
      </trkpt>
      <trkpt lat="47.26876" lon="7.35381">
        <ele>613</ele>
        <time>2017-06-11T09:19:37Z</time>
      </trkpt>
      <trkpt lat="47.26871" lon="7.35384">
        <ele>613</ele>
        <time>2017-06-11T09:19:40Z</time>
      </trkpt>
      <trkpt lat="47.26867" lon="7.35386">
        <ele>613</ele>
        <time>2017-06-11T09:19:43Z</time>
      </trkpt>
      <trkpt lat="47.26862" lon="7.35387">
        <ele>613</ele>
        <time>2017-06-11T09:19:47Z</time>
      </trkpt>
      <trkpt lat="47.26857" lon="7.35389">
        <ele>614</ele>
        <time>2017-06-11T09:19:50Z</time>
      </trkpt>
      <trkpt lat="47.26853" lon="7.35393">
        <ele>614</ele>
        <time>2017-06-11T09:19:53Z</time>
      </trkpt>
      <trkpt lat="47.26848" lon="7.35397">
        <ele>614</ele>
        <time>2017-06-11T09:19:56Z</time>
      </trkpt>
      <trkpt lat="47.26844" lon="7.35401">
        <ele>615</ele>
        <time>2017-06-11T09:19:59Z</time>
      </trkpt>
      <trkpt lat="47.26839" lon="7.35405">
        <ele>615</ele>
        <time>2017-06-11T09:20:02Z</time>
      </trkpt>
      <trkpt lat="47.26835" lon="7.35407">
        <ele>616</ele>
        <time>2017-06-11T09:20:05Z</time>
      </trkpt>
      <trkpt lat="47.26831" lon="7.35413">
        <ele>616</ele>
        <time>2017-06-11T09:20:09Z</time>
      </trkpt>
      <trkpt lat="47.26827" lon="7.35418">
        <ele>616</ele>
        <time>2017-06-11T09:20:12Z</time>
      </trkpt>
      <trkpt lat="47.26821" lon="7.35423">
        <ele>617</ele>
        <time>2017-06-11T09:20:15Z</time>
      </trkpt>
      <trkpt lat="47.26816" lon="7.35426">
        <ele>617</ele>
        <time>2017-06-11T09:20:17Z</time>
      </trkpt>
      <trkpt lat="47.2681" lon="7.3543">
        <ele>617</ele>
        <time>2017-06-11T09:20:20Z</time>
      </trkpt>
      <trkpt lat="47.26806" lon="7.35434">
        <ele>617</ele>
        <time>2017-06-11T09:20:22Z</time>
      </trkpt>
      <trkpt lat="47.26801" lon="7.35437">
        <ele>617</ele>
        <time>2017-06-11T09:20:24Z</time>
      </trkpt>
      <trkpt lat="47.26796" lon="7.3544">
        <ele>617</ele>
        <time>2017-06-11T09:20:26Z</time>
      </trkpt>
      <trkpt lat="47.26793" lon="7.35444">
        <ele>617</ele>
        <time>2017-06-11T09:20:29Z</time>
      </trkpt>
      <trkpt lat="47.26788" lon="7.35451">
        <ele>617</ele>
        <time>2017-06-11T09:20:33Z</time>
      </trkpt>
      <trkpt lat="47.26785" lon="7.35458">
        <ele>617</ele>
        <time>2017-06-11T09:20:36Z</time>
      </trkpt>
      <trkpt lat="47.26785" lon="7.35465">
        <ele>617</ele>
        <time>2017-06-11T09:20:38Z</time>
      </trkpt>
      <trkpt lat="47.26783" lon="7.35472">
        <ele>617</ele>
        <time>2017-06-11T09:20:41Z</time>
      </trkpt>
      <trkpt lat="47.26782" lon="7.3548">
        <ele>617</ele>
        <time>2017-06-11T09:20:44Z</time>
      </trkpt>
      <trkpt lat="47.26779" lon="7.35488">
        <ele>617</ele>
        <time>2017-06-11T09:20:47Z</time>
      </trkpt>
      <trkpt lat="47.26776" lon="7.35496">
        <ele>616</ele>
        <time>2017-06-11T09:20:50Z</time>
      </trkpt>
      <trkpt lat="47.26774" lon="7.35502">
        <ele>615</ele>
        <time>2017-06-11T09:20:52Z</time>
      </trkpt>
      <trkpt lat="47.26772" lon="7.35509">
        <ele>615</ele>
        <time>2017-06-11T09:20:54Z</time>
      </trkpt>
      <trkpt lat="47.26769" lon="7.35516">
        <ele>614</ele>
        <time>2017-06-11T09:20:56Z</time>
      </trkpt>
      <trkpt lat="47.26767" lon="7.35522">
        <ele>614</ele>
        <time>2017-06-11T09:20:58Z</time>
      </trkpt>
      <trkpt lat="47.26765" lon="7.3553">
        <ele>614</ele>
        <time>2017-06-11T09:21:00Z</time>
      </trkpt>
      <trkpt lat="47.26764" lon="7.3554">
        <ele>613</ele>
        <time>2017-06-11T09:21:02Z</time>
      </trkpt>
      <trkpt lat="47.26762" lon="7.35549">
        <ele>613</ele>
        <time>2017-06-11T09:21:04Z</time>
      </trkpt>
      <trkpt lat="47.26762" lon="7.35558">
        <ele>612</ele>
        <time>2017-06-11T09:21:06Z</time>
      </trkpt>
      <trkpt lat="47.2676" lon="7.35566">
        <ele>611</ele>
        <time>2017-06-11T09:21:08Z</time>
      </trkpt>
      <trkpt lat="47.26759" lon="7.35575">
        <ele>611</ele>
        <time>2017-06-11T09:21:10Z</time>
      </trkpt>
      <trkpt lat="47.26758" lon="7.35583">
        <ele>610</ele>
        <time>2017-06-11T09:21:12Z</time>
      </trkpt>
      <trkpt lat="47.26758" lon="7.35592">
        <ele>610</ele>
        <time>2017-06-11T09:21:14Z</time>
      </trkpt>
      <trkpt lat="47.26757" lon="7.356">
        <ele>610</ele>
        <time>2017-06-11T09:21:16Z</time>
      </trkpt>
      <trkpt lat="47.26758" lon="7.35607">
        <ele>609</ele>
        <time>2017-06-11T09:21:18Z</time>
      </trkpt>
      <trkpt lat="47.26759" lon="7.35616">
        <ele>609</ele>
        <time>2017-06-11T09:21:21Z</time>
      </trkpt>
      <trkpt lat="47.26758" lon="7.35623">
        <ele>610</ele>
        <time>2017-06-11T09:21:23Z</time>
      </trkpt>
      <trkpt lat="47.26759" lon="7.35632">
        <ele>610</ele>
        <time>2017-06-11T09:21:26Z</time>
      </trkpt>
      <trkpt lat="47.26761" lon="7.35638">
        <ele>610</ele>
        <time>2017-06-11T09:21:28Z</time>
      </trkpt>
      <trkpt lat="47.26763" lon="7.35647">
        <ele>611</ele>
        <time>2017-06-11T09:21:31Z</time>
      </trkpt>
      <trkpt lat="47.26764" lon="7.35657">
        <ele>611</ele>
        <time>2017-06-11T09:21:34Z</time>
      </trkpt>
      <trkpt lat="47.26764" lon="7.35665">
        <ele>611</ele>
        <time>2017-06-11T09:21:36Z</time>
      </trkpt>
      <trkpt lat="47.26763" lon="7.35672">
        <ele>611</ele>
        <time>2017-06-11T09:21:38Z</time>
      </trkpt>
      <trkpt lat="47.26762" lon="7.3568">
        <ele>611</ele>
        <time>2017-06-11T09:21:40Z</time>
      </trkpt>
      <trkpt lat="47.26761" lon="7.3569">
        <ele>611</ele>
        <time>2017-06-11T09:21:43Z</time>
      </trkpt>
      <trkpt lat="47.26759" lon="7.35698">
        <ele>610</ele>
        <time>2017-06-11T09:21:45Z</time>
      </trkpt>
      <trkpt lat="47.26757" lon="7.35705">
        <ele>610</ele>
        <time>2017-06-11T09:21:47Z</time>
      </trkpt>
      <trkpt lat="47.26756" lon="7.35713">
        <ele>610</ele>
        <time>2017-06-11T09:21:49Z</time>
      </trkpt>
      <trkpt lat="47.26755" lon="7.35722">
        <ele>609</ele>
        <time>2017-06-11T09:21:51Z</time>
      </trkpt>
      <trkpt lat="47.26755" lon="7.35732">
        <ele>608</ele>
        <time>2017-06-11T09:21:53Z</time>
      </trkpt>
      <trkpt lat="47.26754" lon="7.35738">
        <ele>607</ele>
        <time>2017-06-11T09:21:54Z</time>
      </trkpt>
      <trkpt lat="47.26753" lon="7.35749">
        <ele>605</ele>
        <time>2017-06-11T09:21:56Z</time>
      </trkpt>
      <trkpt lat="47.26753" lon="7.35758">
        <ele>603</ele>
        <time>2017-06-11T09:21:58Z</time>
      </trkpt>
      <trkpt lat="47.26753" lon="7.35767">
        <ele>602</ele>
        <time>2017-06-11T09:22:00Z</time>
      </trkpt>
      <trkpt lat="47.26753" lon="7.35775">
        <ele>600</ele>
        <time>2017-06-11T09:22:02Z</time>
      </trkpt>
      <trkpt lat="47.26754" lon="7.35785">
        <ele>598</ele>
        <time>2017-06-11T09:22:04Z</time>
      </trkpt>
      <trkpt lat="47.26755" lon="7.35796">
        <ele>597</ele>
        <time>2017-06-11T09:22:06Z</time>
      </trkpt>
      <trkpt lat="47.26755" lon="7.35806">
        <ele>595</ele>
        <time>2017-06-11T09:22:08Z</time>
      </trkpt>
      <trkpt lat="47.26754" lon="7.35816">
        <ele>594</ele>
        <time>2017-06-11T09:22:10Z</time>
      </trkpt>
      <trkpt lat="47.26753" lon="7.35824">
        <ele>592</ele>
        <time>2017-06-11T09:22:12Z</time>
      </trkpt>
      <trkpt lat="47.2675" lon="7.35831">
        <ele>591</ele>
        <time>2017-06-11T09:22:14Z</time>
      </trkpt>
      <trkpt lat="47.26749" lon="7.3584">
        <ele>590</ele>
        <time>2017-06-11T09:22:16Z</time>
      </trkpt>
      <trkpt lat="47.26747" lon="7.35847">
        <ele>588</ele>
        <time>2017-06-11T09:22:18Z</time>
      </trkpt>
      <trkpt lat="47.26746" lon="7.35855">
        <ele>587</ele>
        <time>2017-06-11T09:22:20Z</time>
      </trkpt>
      <trkpt lat="47.26745" lon="7.35862">
        <ele>587</ele>
        <time>2017-06-11T09:22:22Z</time>
      </trkpt>
      <trkpt lat="47.26744" lon="7.35869">
        <ele>586</ele>
        <time>2017-06-11T09:22:24Z</time>
      </trkpt>
      <trkpt lat="47.26743" lon="7.35876">
        <ele>585</ele>
        <time>2017-06-11T09:22:26Z</time>
      </trkpt>
      <trkpt lat="47.26742" lon="7.35883">
        <ele>585</ele>
        <time>2017-06-11T09:22:28Z</time>
      </trkpt>
      <trkpt lat="47.26741" lon="7.3589">
        <ele>584</ele>
        <time>2017-06-11T09:22:30Z</time>
      </trkpt>
      <trkpt lat="47.26737" lon="7.35899">
        <ele>583</ele>
        <time>2017-06-11T09:22:33Z</time>
      </trkpt>
      <trkpt lat="47.26734" lon="7.35906">
        <ele>583</ele>
        <time>2017-06-11T09:22:35Z</time>
      </trkpt>
      <trkpt lat="47.26732" lon="7.35914">
        <ele>582</ele>
        <time>2017-06-11T09:22:37Z</time>
      </trkpt>
      <trkpt lat="47.2673" lon="7.35921">
        <ele>582</ele>
        <time>2017-06-11T09:22:39Z</time>
      </trkpt>
      <trkpt lat="47.26728" lon="7.35927">
        <ele>582</ele>
        <time>2017-06-11T09:22:42Z</time>
      </trkpt>
      <trkpt lat="47.26728" lon="7.35935">
        <ele>581</ele>
        <time>2017-06-11T09:22:46Z</time>
      </trkpt>
      <trkpt lat="47.2673" lon="7.35941">
        <ele>580</ele>
        <time>2017-06-11T09:22:48Z</time>
      </trkpt>
      <trkpt lat="47.26734" lon="7.35948">
        <ele>580</ele>
        <time>2017-06-11T09:22:51Z</time>
      </trkpt>
      <trkpt lat="47.26739" lon="7.35954">
        <ele>579</ele>
        <time>2017-06-11T09:22:53Z</time>
      </trkpt>
      <trkpt lat="47.26742" lon="7.3596">
        <ele>579</ele>
        <time>2017-06-11T09:22:55Z</time>
      </trkpt>
      <trkpt lat="47.26745" lon="7.35968">
        <ele>578</ele>
        <time>2017-06-11T09:22:57Z</time>
      </trkpt>
      <trkpt lat="47.26748" lon="7.35977">
        <ele>578</ele>
        <time>2017-06-11T09:23:00Z</time>
      </trkpt>
      <trkpt lat="47.26753" lon="7.3598">
        <ele>578</ele>
        <time>2017-06-11T09:23:02Z</time>
      </trkpt>
      <trkpt lat="47.26757" lon="7.35986">
        <ele>577</ele>
        <time>2017-06-11T09:23:04Z</time>
      </trkpt>
      <trkpt lat="47.26761" lon="7.35993">
        <ele>577</ele>
        <time>2017-06-11T09:23:06Z</time>
      </trkpt>
      <trkpt lat="47.26764" lon="7.36001">
        <ele>576</ele>
        <time>2017-06-11T09:23:08Z</time>
      </trkpt>
      <trkpt lat="47.26767" lon="7.36011">
        <ele>575</ele>
        <time>2017-06-11T09:23:10Z</time>
      </trkpt>
      <trkpt lat="47.26767" lon="7.3602">
        <ele>574</ele>
        <time>2017-06-11T09:23:12Z</time>
      </trkpt>
      <trkpt lat="47.26763" lon="7.36028">
        <ele>572</ele>
        <time>2017-06-11T09:23:14Z</time>
      </trkpt>
      <trkpt lat="47.26757" lon="7.36032">
        <ele>570</ele>
        <time>2017-06-11T09:23:16Z</time>
      </trkpt>
      <trkpt lat="47.26752" lon="7.36034">
        <ele>568</ele>
        <time>2017-06-11T09:23:18Z</time>
      </trkpt>
      <trkpt lat="47.26746" lon="7.36036">
        <ele>567</ele>
        <time>2017-06-11T09:23:21Z</time>
      </trkpt>
      <trkpt lat="47.26744" lon="7.36037">
        <ele>565</ele>
        <time>2017-06-11T09:23:36Z</time>
      </trkpt>
      <trkpt lat="47.26745" lon="7.36036">
        <ele>564</ele>
        <time>2017-06-11T09:23:38Z</time>
      </trkpt>
    </trkseg>
  </trk>
</gpx>